# Wetter Temperatur Luftdruck Luftfeuchtigkeit Sichtweite Windgeschwindigkeit Windrichtung Zeit
1 Clear 4 1016 68 10000 1.21 287 12:18 22.04.2021
2 Clear 4 1016 68 10000 1.21 287 11:42 22.04.2021
3 Clear 5 1016 70 10000 1.21 301 11:19 22.04.2021
4 Clear 5 1016 70 10000 1.21 301 10:41 22.04.2021
5 Clear 5 1015 72 10000 1.01 315 10:20 22.04.2021
6 Clear 5 1015 72 10000 1.01 315 09:38 22.04.2021
7 Clear 5 1016 71 10000 1.37 340 08:57 22.04.2021
8 Clear 5 1016 71 10000 1.37 340 08:38 22.04.2021
9 Clear 6 1016 67 10000 1.55 330 08:18 22.04.2021
10 Clear 6 1016 66 10000 1.41 319 07:36 22.04.2021
11 Clear 6 1015 61 10000 1.32 353 07:18 22.04.2021
12 Clear 7 1015 57 10000 1.68 25 06:22 22.04.2021
13 Clear 7 1015 55 10000 1.26 58 05:24 22.04.2021
14 Clear 9 1015 41 10000 1.36 102 02:49 22.04.2021
15 Clouds 11 1011 31 10000 0.72 178 00:41 22.04.2021
16 Clouds 12 1010 23 10000 2.13 238 23:42 21.04.2021
17 Clouds 14 1009 15 10000 3.91 247 23:22 21.04.2021
18 Clouds 14 1009 15 10000 3.91 247 22:41 21.04.2021
19 Clouds 15 1008 13 10000 4.93 252 22:23 21.04.2021
20 Clouds 15 1008 13 10000 4.93 252 21:42 21.04.2021
21 Clear 15 1009 13 10000 5.11 260 21:23 21.04.2021
22 Clear 15 1009 13 10000 5.11 260 20:40 21.04.2021
23 Clear 15 1009 12 10000 4.23 263 20:18 21.04.2021
24 Clear 15 1009 12 10000 4.23 263 19:41 21.04.2021
25 Clear 15 1011 12 10000 4.29 268 19:23 21.04.2021
26 Clear 15 1011 12 10000 4.29 268 18:45 21.04.2021
27 Clear 14 1012 13 10000 3.82 281 18:24 21.04.2021
28 Clear 14 1012 13 10000 3.82 281 17:46 21.04.2021
29 Clear 13 1014 15 10000 3.38 293 17:24 21.04.2021
30 Clear 13 1014 15 10000 3.38 293 16:42 21.04.2021
31 Clear 11 1016 20 10000 2.34 300 15:56 21.04.2021
32 Clear 11 1016 20 10000 2.34 300 15:37 21.04.2021
33 Clear 10 1016 27 10000 2.03 293 14:48 21.04.2021
34 Clear 10 1016 27 10000 2.03 293 14:30 21.04.2021
35 Clear 8 1017 41 10000 1.51 294 13:51 21.04.2021
36 Clear 5 1018 59 10000 1.29 290 13:24 21.04.2021
37 Clear 5 1018 59 10000 1.29 290 12:58 21.04.2021
38 Clear 4 1017 64 10000 1.26 290 12:29 21.04.2021
39 Clear 4 1017 64 10000 1.26 290 12:29 21.04.2021
40 Clear 4 1017 64 10000 1.26 290 11:49 21.04.2021
41 Clear 4 1017 64 10000 1.26 290 11:49 21.04.2021
42 Clear 5 1016 69 10000 1.18 300 11:29 21.04.2021
43 Clear 5 1016 69 10000 1.18 300 10:48 21.04.2021
44 Clear 5 1016 72 10000 1.15 300 10:18 21.04.2021
45 Clear 5 1016 72 10000 1.15 300 09:42 21.04.2021
46 Clear 5 1017 74 10000 1.31 306 08:56 21.04.2021
47 Clear 5 1017 74 10000 1.31 306 08:37 21.04.2021
48 Clear 6 1017 74 10000 1.67 315 08:18 21.04.2021
49 Clear 6 1017 74 10000 1.72 322 07:31 21.04.2021
50 Clear 6 1017 72 10000 1.94 330 06:42 21.04.2021
51 Clear 7 1017 66 10000 2.22 1 04:54 21.04.2021
52 Clouds 9 1015 55 10000 2.7 56 00:53 21.04.2021
53 Clouds 10 1013 45 10000 3.39 88 23:49 20.04.2021
54 Clouds 12 1011 32 10000 3.56 110 23:24 20.04.2021
55 Clouds 12 1011 32 10000 3.56 110 22:41 20.04.2021
56 Clouds 14 1010 23 10000 3.06 116 22:19 20.04.2021
57 Clouds 14 1010 23 10000 3.06 116 21:47 20.04.2021
58 Clear 14 1010 18 10000 1.38 107 21:25 20.04.2021
59 Clear 14 1010 18 10000 1.38 107 20:43 20.04.2021
60 Clear 14 1011 18 10000 0.74 21 20:23 20.04.2021
61 Clear 14 1011 18 10000 0.72 35 19:55 20.04.2021
62 Clear 14 1011 18 10000 0.72 35 19:36 20.04.2021
63 Clear 14 1013 18 10000 1.09 355 19:18 20.04.2021
64 Clear 14 1013 18 10000 1.09 355 18:35 20.04.2021
65 Clear 13 1015 21 10000 1 341 17:46 20.04.2021
66 Clear 11 1017 26 10000 1.08 319 17:27 20.04.2021
67 Clear 11 1017 26 10000 1.08 319 16:48 20.04.2021
68 Clear 10 1018 34 10000 1.31 309 15:53 20.04.2021
69 Clear 8 1019 47 10000 1.6 306 15:29 20.04.2021
70 Clear 8 1019 47 10000 1.6 306 14:57 20.04.2021
71 Clear 8 1019 47 10000 1.6 306 14:33 20.04.2021
72 Clear 6 1019 59 10000 1.3 295 13:48 20.04.2021
73 Clear 4 1020 75 10000 0.93 291 13:22 20.04.2021
74 Clear 4 1020 75 10000 0.93 291 12:41 20.04.2021
75 Clear 4 1019 81 10000 0.82 299 12:20 20.04.2021
76 Clear 4 1019 81 10000 0.82 299 11:44 20.04.2021
77 Clear 4 1019 82 10000 1.32 304 11:21 20.04.2021
78 Clear 4 1019 82 10000 1.32 304 10:43 20.04.2021
79 Clear 4 1019 82 10000 1.32 304 10:43 20.04.2021
80 Clear 4 1018 81 10000 1.44 317 10:23 20.04.2021
81 Clear 5 1018 77 10000 1.55 329 09:28 20.04.2021
82 Clear 5 1018 77 10000 1.55 329 08:55 20.04.2021
83 Clear 5 1018 74 10000 1.56 357 08:21 20.04.2021
84 Clear 5 1018 74 10000 1.51 358 07:40 20.04.2021
85 Clear 5 1018 74 10000 1.51 358 07:40 20.04.2021
86 Clear 5 1018 74 10000 1.51 358 07:40 20.04.2021
87 Clear 6 1018 71 10000 1.55 18 06:45 20.04.2021
88 Clear 6 1018 69 10000 1.34 42 05:38 20.04.2021
89 Clear 7 1018 68 10000 1.49 72 04:41 20.04.2021
90 Clear 10 1014 39 10000 1.48 136 01:26 20.04.2021
91 Clear 10 1014 39 10000 1.48 136 00:34 20.04.2021
92 Clear 11 1012 31 10000 1.69 153 23:36 19.04.2021
93 Clear 13 1011 19 10000 3.34 169 22:57 19.04.2021
94 Clear 13 1011 19 10000 3.34 169 22:32 19.04.2021
95 Clear 14 1011 19 10000 3.56 178 21:50 19.04.2021
96 Clear 14 1011 17 10000 2.78 180 21:28 19.04.2021
97 Clear 14 1011 17 10000 2.78 180 20:46 19.04.2021
98 Clear 13 1012 18 10000 1.04 190 20:25 19.04.2021
99 Clear 14 1012 17 10000 1.21 198 20:01 19.04.2021
100 Clear 14 1012 17 10000 1.21 198 19:40 19.04.2021
101 Clear 12 1014 24 10000 0.73 275 19:21 19.04.2021
102 Clear 12 1014 24 10000 0.73 275 18:45 19.04.2021
103 Clear 11 1016 33 10000 1.07 293 18:22 19.04.2021
104 Clear 11 1016 33 10000 1.07 293 17:54 19.04.2021
105 Clear 9 1019 42 10000 1.49 310 17:29 19.04.2021
106 Clear 9 1019 42 10000 1.49 310 16:51 19.04.2021
107 Clear 9 1019 42 10000 1.49 310 16:33 19.04.2021
108 Clear 8 1020 52 10000 1.53 332 15:52 19.04.2021
109 Clear 6 1021 66 10000 1.56 351 15:29 19.04.2021
110 Clear 6 1021 66 10000 1.56 351 14:53 19.04.2021
111 Clear 6 1021 66 10000 1.56 351 14:35 19.04.2021
112 Clear 5 1021 83 10000 1.1 2 13:54 19.04.2021
113 Clear 5 1021 83 10000 1.1 2 13:30 19.04.2021
114 Clear 4 1021 93 10000 0.95 12 12:56 19.04.2021
115 Clear 4 1021 93 10000 0.95 12 12:38 19.04.2021
116 Clear 3 1020 92 10000 0.99 2 12:19 19.04.2021
117 Clear 3 1020 92 10000 0.99 2 11:51 19.04.2021
118 Clear 4 1019 87 10000 1.42 2 11:20 19.04.2021
119 Clear 4 1019 87 10000 1.42 2 10:44 19.04.2021
120 Clear 4 1019 83 10000 1.41 11 10:20 19.04.2021
121 Clear 4 1019 83 10000 1.41 11 09:48 19.04.2021
122 Clear 4 1019 82 10000 1.4 45 09:26 19.04.2021
123 Clear 4 1019 82 10000 1.4 45 08:45 19.04.2021
124 Clear 5 1018 79 10000 1.67 58 08:22 19.04.2021
125 Clear 5 1018 79 10000 1.67 58 07:45 19.04.2021
126 Clear 5 1018 76 10000 1.7 67 07:18 19.04.2021
127 Clear 6 1018 73 10000 1.48 39 05:41 19.04.2021
128 Clear 9 1014 42 10000 1.18 90 01:50 19.04.2021
129 Clear 10 1013 28 10000 2.41 193 00:45 19.04.2021
130 Clear 14 1009 15 10000 4.45 225 23:22 18.04.2021
131 Clear 14 1009 15 10000 4.45 225 22:58 18.04.2021
132 Clear 14 1009 15 10000 4.45 225 22:40 18.04.2021
133 Clear 15 1008 16 10000 3.86 229 22:22 18.04.2021
134 Clear 15 1009 17 10000 3.9 229 21:29 18.04.2021
135 Clear 15 1009 17 10000 3.9 229 20:55 18.04.2021
136 Clear 15 1009 17 10000 4.41 233 20:55 18.04.2021
137 Clear 15 1009 17 10000 4.41 233 20:37 18.04.2021
138 Clouds 15 1010 19 10000 4.11 245 20:19 18.04.2021
139 Clouds 15 1010 19 10000 4.11 245 19:44 18.04.2021
140 Clouds 13 1012 24 10000 1.25 289 19:21 18.04.2021
141 Clouds 13 1012 24 10000 1.25 289 18:46 18.04.2021
142 Clouds 12 1014 33 10000 1.06 342 18:26 18.04.2021
143 Clouds 12 1014 33 10000 1.06 342 17:49 18.04.2021
144 Clouds 10 1017 42 10000 1.59 344 17:29 18.04.2021
145 Clouds 10 1017 42 10000 1.59 344 16:53 18.04.2021
146 Clouds 10 1017 42 10000 1.59 344 16:35 18.04.2021
147 Clouds 8 1018 54 10000 1.52 347 15:51 18.04.2021
148 Clouds 6 1020 71 10000 1.23 357 15:28 18.04.2021
149 Clouds 6 1020 71 10000 1.23 357 14:54 18.04.2021
150 Clouds 6 1020 71 10000 1.23 357 14:36 18.04.2021
151 Clouds 5 1020 84 10000 1.33 2 14:18 18.04.2021
152 Clouds 5 1020 84 10000 1.33 2 14:18 18.04.2021
153 Clouds 5 1020 84 10000 1.33 2 13:44 18.04.2021
154 Clouds 4 1020 94 3988 1.23 359 13:24 18.04.2021
155 Clouds 4 1020 94 3988 1.23 359 12:35 18.04.2021
156 Clouds 4 1019 95 3379 1.22 348 11:51 18.04.2021
157 Clouds 4 1018 96 3688 1.38 342 11:26 18.04.2021
158 Clouds 4 1018 96 3688 1.38 342 10:51 18.04.2021
159 Clouds 4 1018 96 3688 1.38 342 10:32 18.04.2021
160 Clouds 4 1018 95 7574 1.67 341 09:58 18.04.2021
161 Clouds 4 1018 95 7574 1.67 341 09:39 18.04.2021
162 Clouds 4 1018 95 7574 1.67 341 09:39 18.04.2021
163 Clear 5 1018 93 10000 1.62 352 09:19 18.04.2021
164 Clear 5 1018 93 10000 1.5 351 08:40 18.04.2021
165 Clear 5 1018 89 10000 1.75 10 08:19 18.04.2021
166 Clear 5 1018 89 10000 1.75 10 07:39 18.04.2021
167 Clear 6 1018 81 10000 2.11 35 05:45 18.04.2021
168 Clear 7 1017 76 10000 2.16 51 05:26 18.04.2021
169 Clear 8 1016 71 10000 2.17 56 03:37 18.04.2021
170 Clear 9 1014 60 10000 1.61 68 02:22 18.04.2021
171 Clear 9 1013 56 10000 2.14 91 00:41 18.04.2021
172 Clear 12 1011 39 10000 2.28 101 23:45 17.04.2021
173 Clear 14 1009 22 10000 1.86 82 23:18 17.04.2021
174 Clear 14 1009 22 10000 1.86 82 22:41 17.04.2021
175 Clear 14 1009 20 10000 1.91 38 22:20 17.04.2021
176 Clear 14 1009 20 10000 1.91 38 21:39 17.04.2021
177 Clear 14 1010 22 10000 1.95 26 21:21 17.04.2021
178 Clear 13 1012 24 10000 1.74 14 20:28 17.04.2021
179 Clear 13 1012 24 10000 1.74 14 19:46 17.04.2021
180 Clear 12 1014 29 10000 1.53 342 19:23 17.04.2021
181 Clear 12 1014 29 10000 1.53 342 18:58 17.04.2021
182 Clear 12 1014 29 10000 1.53 342 18:37 17.04.2021
183 Clear 12 1014 29 10000 1.53 342 18:37 17.04.2021
184 Clear 11 1016 33 10000 1.83 320 18:18 17.04.2021
185 Clear 11 1016 33 10000 1.83 320 17:41 17.04.2021
186 Clear 10 1018 40 10000 2.2 323 16:55 17.04.2021
187 Clear 8 1019 51 10000 2.07 331 16:29 17.04.2021
188 Clear 8 1019 51 10000 2.07 331 16:29 17.04.2021
189 Clear 8 1019 51 10000 2.07 331 15:56 17.04.2021
190 Clear 7 1020 65 10000 1.53 334 14:51 17.04.2021
191 Clear 7 1020 65 10000 1.53 334 14:33 17.04.2021
192 Clouds 5 1021 81 10000 0.95 320 13:50 17.04.2021
193 Clouds 4 1020 91 10000 0.89 324 13:27 17.04.2021
194 Clouds 4 1020 91 10000 0.89 324 12:42 17.04.2021
195 Clouds 3 1019 93 7798 1.04 337 12:21 17.04.2021
196 Clouds 3 1019 93 7798 1.04 337 11:50 17.04.2021
197 Clouds 3 1019 93 7798 1.04 337 11:30 17.04.2021
198 Clouds 4 1019 93 4271 0.97 353 10:46 17.04.2021
199 Clouds 4 1018 92 4286 1.1 14 10:27 17.04.2021
200 Clouds 4 1018 92 4286 1.1 14 09:44 17.04.2021
201 Clouds 4 1018 91 4694 1.55 27 08:41 17.04.2021
202 Clear 5 1018 87 10000 1.94 26 08:22 17.04.2021
203 Clear 5 1018 81 10000 2.04 23 06:58 17.04.2021
204 Clear 7 1016 59 10000 1.83 49 03:55 17.04.2021
205 Clear 7 1016 59 10000 1.83 49 03:37 17.04.2021
206 Clear 11 1012 22 10000 4.16 210 00:49 17.04.2021
207 Clear 13 1009 21 10000 5.08 230 00:28 17.04.2021
208 Clear 13 1009 21 10000 5.08 230 23:48 16.04.2021
209 Clear 15 1008 14 10000 7.09 249 23:25 16.04.2021
210 Clear 15 1008 14 10000 7.09 249 22:50 16.04.2021
211 Clear 15 1008 15 10000 7.38 246 22:21 16.04.2021
212 Clear 15 1008 15 10000 7.38 246 21:51 16.04.2021
213 Clear 15 1008 15 10000 7.38 246 21:30 16.04.2021
214 Clear 16 1008 17 10000 4.31 244 20:50 16.04.2021
215 Clear 15 1009 25 10000 1.4 336 20:25 16.04.2021
216 Clear 14 1009 25 10000 1.38 347 19:54 16.04.2021
217 Clouds 13 1012 34 10000 2.96 12 19:29 16.04.2021
218 Clouds 13 1012 34 10000 2.96 12 18:43 16.04.2021
219 Clouds 12 1014 40 10000 3 357 18:20 16.04.2021
220 Clouds 12 1014 40 10000 3 357 17:43 16.04.2021
221 Clouds 10 1016 45 10000 2.48 351 17:19 16.04.2021
222 Clouds 10 1016 45 10000 2.48 351 16:42 16.04.2021
223 Clouds 9 1017 54 10000 1.93 1 16:23 16.04.2021
224 Clouds 9 1017 54 10000 1.93 1 15:48 16.04.2021
225 Clouds 7 1018 66 10000 1.78 12 15:21 16.04.2021
226 Clouds 7 1018 66 10000 1.78 12 14:42 16.04.2021
227 Clouds 5 1019 79 10000 1.38 14 14:19 16.04.2021
228 Clouds 5 1020 79 10000 1.31 3 13:46 16.04.2021
229 Clouds 4 1019 88 10000 1.64 5 13:20 16.04.2021
230 Clouds 4 1019 88 10000 1.64 5 12:48 16.04.2021
231 Clouds 4 1018 91 10000 1 351 12:29 16.04.2021
232 Clouds 4 1018 91 10000 1 351 11:54 16.04.2021
233 Clouds 4 1017 92 9058 1.88 4 11:27 16.04.2021
234 Clouds 4 1017 92 9058 1.88 4 10:56 16.04.2021
235 Clouds 4 1017 92 9058 1.88 4 10:37 16.04.2021
236 Clouds 4 1017 92 10000 1.76 7 10:19 16.04.2021
237 Clouds 4 1017 92 10000 1.76 7 09:42 16.04.2021
238 Clear 5 1017 89 10000 1.98 16 09:20 16.04.2021
239 Clear 5 1017 89 10000 1.98 16 08:41 16.04.2021
240 Clear 5 1017 85 10000 1.95 19 08:18 16.04.2021
241 Clear 5 1017 85 10000 1.95 19 07:36 16.04.2021
242 Clear 6 1016 79 10000 1.96 13 06:58 16.04.2021
243 Clear 7 1016 74 10000 1.86 14 05:34 16.04.2021
244 Clear 8 1015 67 10000 1.66 54 04:22 16.04.2021
245 Clear 10 1012 53 10000 2.31 106 00:59 16.04.2021
246 Clear 10 1012 53 10000 2.31 106 00:41 16.04.2021
247 Clear 12 1009 35 10000 2.64 121 00:20 16.04.2021
248 Clear 12 1009 35 10000 2.64 121 23:41 15.04.2021
249 Clear 14 1008 18 10000 2.87 172 23:23 15.04.2021
250 Clear 14 1008 18 10000 2.87 172 22:40 15.04.2021
251 Clear 15 1007 15 10000 2.98 202 22:21 15.04.2021
252 Clear 15 1007 15 10000 2.98 202 21:42 15.04.2021
253 Clear 15 1007 15 10000 2.06 239 21:22 15.04.2021
254 Clear 15 1007 15 10000 2.06 239 20:45 15.04.2021
255 Clouds 15 1009 17 10000 2.26 309 20:24 15.04.2021
256 Clouds 15 1009 17 10000 2.26 309 19:45 15.04.2021
257 Clouds 14 1011 19 10000 2.9 314 19:27 15.04.2021
258 Clouds 14 1011 19 10000 2.9 314 18:44 15.04.2021
259 Clouds 13 1013 21 10000 3.13 313 18:21 15.04.2021
260 Clouds 13 1013 21 10000 3.13 313 17:55 15.04.2021
261 Clouds 13 1013 21 10000 3.13 313 17:37 15.04.2021
262 Clouds 12 1014 21 10000 2.3 305 17:18 15.04.2021
263 Clouds 12 1014 21 10000 2.3 305 16:42 15.04.2021
264 Clouds 11 1016 20 10000 1.85 292 16:22 15.04.2021
265 Clouds 11 1016 20 10000 1.85 292 15:45 15.04.2021
266 Clouds 10 1016 23 10000 1.95 279 15:26 15.04.2021
267 Clouds 10 1016 23 10000 1.95 279 14:41 15.04.2021
268 Clouds 8 1017 31 10000 1.43 272 14:23 15.04.2021
269 Clouds 8 1017 31 10000 1.43 272 13:46 15.04.2021
270 Clouds 8 1017 31 10000 1.43 272 13:46 15.04.2021
271 Clear 5 1016 47 10000 1.51 268 13:19 15.04.2021
272 Clear 5 1016 47 10000 1.51 268 12:46 15.04.2021
273 Clear 5 1016 54 10000 1.61 274 12:24 15.04.2021
274 Clear 5 1016 54 10000 1.61 274 11:47 15.04.2021
275 Clear 5 1015 62 10000 1.59 274 11:25 15.04.2021
276 Clear 5 1015 62 10000 1.59 274 10:57 15.04.2021
277 Clear 6 1015 68 10000 1.58 283 10:28 15.04.2021
278 Clear 6 1015 68 10000 1.58 283 09:50 15.04.2021
279 Clear 6 1015 71 10000 1.35 296 09:28 15.04.2021
280 Clear 6 1015 71 10000 1.35 296 08:49 15.04.2021
281 Clouds 6 1016 72 10000 1.16 304 08:24 15.04.2021
282 Clouds 6 1016 72 10000 1.16 304 07:30 15.04.2021
283 Clouds 6 1017 76 10000 1.36 295 06:55 15.04.2021
284 Clouds 6 1017 76 10000 1.36 295 06:33 15.04.2021
285 Clouds 6 1018 81 10000 1.01 306 04:54 15.04.2021
286 Clouds 7 1017 75 10000 1.77 347 02:58 15.04.2021
287 Clouds 9 1013 68 10000 2.32 19 23:49 14.04.2021
288 Clouds 9 1013 68 10000 3.38 21 23:29 14.04.2021
289 Clouds 9 1013 68 10000 3.38 21 22:47 14.04.2021
290 Clouds 11 1010 55 10000 4.41 20 22:28 14.04.2021
291 Clouds 11 1010 55 10000 4.41 20 21:56 14.04.2021
292 Clouds 11 1010 55 10000 4.41 20 21:37 14.04.2021
293 Clouds 15 1007 35 10000 1.48 167 21:18 14.04.2021
294 Clouds 13 1009 43 10000 0.67 229 20:36 14.04.2021
295 Clouds 14 1009 39 10000 1.01 280 20:18 14.04.2021
296 Clouds 14 1009 39 10000 1.01 280 19:38 14.04.2021
297 Clouds 14 1011 41 10000 1.14 321 19:18 14.04.2021
298 Clouds 14 1011 41 10000 1.14 321 18:49 14.04.2021
299 Clouds 12 1014 47 10000 1.13 302 18:19 14.04.2021
300 Clouds 12 1014 47 10000 1.13 302 17:51 14.04.2021
301 Clouds 11 1016 54 10000 1.35 298 17:24 14.04.2021
302 Clouds 11 1016 54 10000 1.35 298 16:43 14.04.2021
303 Clouds 9 1018 62 10000 1.8 301 16:22 14.04.2021
304 Clouds 9 1018 62 10000 1.8 301 15:40 14.04.2021
305 Clouds 6 1020 73 10000 1.72 291 15:22 14.04.2021
306 Clouds 6 1020 73 10000 1.72 291 14:42 14.04.2021
307 Clouds 5 1021 85 10000 2.81 330 14:22 14.04.2021
308 Clouds 3 1022 90 10000 2.07 46 13:48 14.04.2021
309 Clouds 3 1022 95 1650 1.47 232 12:54 14.04.2021
310 Clouds 3 1022 95 1650 1.47 232 12:32 14.04.2021
311 Clouds 5 1019 90 4072 3.52 242 11:42 14.04.2021
312 Clouds 6 1018 85 10000 1.26 252 11:23 14.04.2021
313 Clouds 6 1018 85 10000 1.26 252 10:35 14.04.2021
314 Clouds 6 1018 85 10000 0.5 270 09:57 14.04.2021
315 Clouds 6 1018 85 10000 0.5 270 09:38 14.04.2021
316 Rain 6 1018 86 10000 0.8 3 09:18 14.04.2021
317 Rain 6 1018 86 10000 0.8 3 08:33 14.04.2021
318 Clouds 6 1020 85 10000 0.99 282 07:53 14.04.2021
319 Clouds 5 1020 84 10000 1.21 21 06:43 14.04.2021
320 Clouds 6 1021 84 10000 1.45 341 06:22 14.04.2021
321 Clouds 6 1021 81 10000 1.74 329 03:44 14.04.2021
322 Clouds 6 1020 87 10000 2.3 68 01:40 14.04.2021
323 Clouds 6 1019 87 4451 1.53 11 00:34 14.04.2021
324 Clouds 8 1016 74 6010 1.71 189 23:39 13.04.2021
325 Clouds 11 1013 59 7516 2.34 67 22:56 13.04.2021
326 Rain 11 1013 59 7516 2.34 67 22:37 13.04.2021
327 Clouds 13 1011 43 10000 4.59 35 22:18 13.04.2021
328 Clouds 13 1011 43 10000 4.59 35 21:41 13.04.2021
329 Clouds 14 1012 41 10000 3.16 14 21:23 13.04.2021
330 Clouds 14 1012 42 10000 3.48 23 20:40 13.04.2021
331 Clouds 13 1013 45 10000 2.75 358 20:20 13.04.2021
332 Clouds 12 1015 49 10000 2.62 349 19:27 13.04.2021
333 Clouds 12 1015 49 10000 2.62 349 19:27 13.04.2021
334 Clouds 12 1015 49 10000 2.62 349 18:59 13.04.2021
335 Clouds 12 1015 49 10000 2.62 349 18:35 13.04.2021
336 Clouds 11 1017 54 10000 2.51 343 17:45 13.04.2021
337 Clouds 10 1019 61 10000 2.37 339 17:23 13.04.2021
338 Clouds 10 1019 61 10000 2.37 339 16:57 13.04.2021
339 Clouds 10 1019 61 10000 2.37 339 16:39 13.04.2021
340 Clouds 8 1021 69 10000 2.28 344 16:19 13.04.2021
341 Clouds 8 1021 69 10000 2.28 344 15:40 13.04.2021
342 Clouds 7 1022 79 10000 2.15 351 14:59 13.04.2021
343 Clouds 6 1022 80 10000 2.18 351 14:41 13.04.2021
344 Clouds 6 1022 85 10000 2.06 348 14:18 13.04.2021
345 Clouds 6 1022 85 10000 2.06 348 13:45 13.04.2021
346 Clouds 5 1021 89 5883 1.96 10 13:23 13.04.2021
347 Clouds 5 1021 89 5883 1.96 10 12:53 13.04.2021
348 Clouds 5 1021 93 6166 1.84 7 12:24 13.04.2021
349 Clouds 5 1021 93 6166 1.84 7 11:50 13.04.2021
350 Clouds 5 1020 94 10000 1.76 359 11:29 13.04.2021
351 Clouds 5 1020 94 10000 1.76 359 10:45 13.04.2021
352 Clouds 6 1019 93 10000 1.87 7 10:20 13.04.2021
353 Clouds 6 1019 93 10000 1.87 7 10:20 13.04.2021
354 Clouds 6 1019 93 10000 1.87 7 09:53 13.04.2021
355 Clouds 6 1019 93 10000 1.87 7 09:34 13.04.2021
356 Clouds 6 1019 89 10000 1.7 5 08:51 13.04.2021
357 Clouds 7 1019 86 10000 1.92 10 08:26 13.04.2021
358 Clouds 7 1019 86 10000 1.92 10 07:59 13.04.2021
359 Clouds 7 1019 86 10000 1.92 10 07:35 13.04.2021
360 Clouds 7 1019 83 10000 1.67 19 06:31 13.04.2021
361 Clouds 7 1020 79 10000 2.04 336 04:45 13.04.2021
362 Clouds 7 1020 83 10000 1.83 275 01:37 13.04.2021
363 Rain 9 1016 73 10000 1.59 356 00:18 13.04.2021
364 Rain 9 1016 73 10000 1.59 356 23:42 12.04.2021
365 Rain 10 1014 65 7474 3.25 43 23:20 12.04.2021
366 Rain 10 1014 65 7474 3.25 43 22:38 12.04.2021
367 Rain 11 1013 60 8425 3.36 49 21:57 12.04.2021
368 Rain 11 1013 60 8425 3.36 49 21:38 12.04.2021
369 Rain 11 1014 57 10000 2.93 41 21:19 12.04.2021
370 Clouds 11 1014 59 10000 3.71 45 20:38 12.04.2021
371 Clouds 11 1015 58 10000 3.89 47 20:20 12.04.2021
372 Clouds 11 1015 58 10000 3.89 47 19:43 12.04.2021
373 Clouds 11 1015 55 6676 2.79 46 19:22 12.04.2021
374 Clouds 11 1015 55 6676 2.79 46 18:56 12.04.2021
375 Clouds 11 1015 55 6676 2.79 46 18:37 12.04.2021
376 Clouds 11 1016 55 5139 2.87 26 18:18 12.04.2021
377 Clouds 11 1016 55 5139 2.87 26 17:42 12.04.2021
378 Clouds 11 1018 58 7838 2.52 20 17:20 12.04.2021
379 Clouds 11 1018 58 7838 2.52 20 16:44 12.04.2021
380 Clouds 10 1019 63 10000 1.89 15 16:26 12.04.2021
381 Clouds 10 1019 63 10000 1.89 15 15:48 12.04.2021
382 Clouds 8 1019 72 10000 1.65 10 15:21 12.04.2021
383 Clouds 8 1019 72 10000 1.65 10 14:49 12.04.2021
384 Clouds 7 1020 79 10000 1.27 14 14:29 12.04.2021
385 Clouds 7 1020 80 10000 1.27 23 13:45 12.04.2021
386 Clouds 6 1020 85 10000 1.17 43 13:22 12.04.2021
387 Clouds 6 1020 85 10000 1.17 43 12:44 12.04.2021
388 Clouds 6 1019 85 10000 1.5 40 12:24 12.04.2021
389 Clouds 6 1019 85 10000 1.5 40 11:53 12.04.2021
390 Clouds 7 1018 79 10000 1.89 31 10:56 12.04.2021
391 Clouds 7 1018 79 10000 1.89 31 10:38 12.04.2021
392 Clouds 7 1018 76 10000 1.64 24 10:20 12.04.2021
393 Clouds 7 1018 76 10000 1.64 24 09:40 12.04.2021
394 Clouds 7 1018 76 10000 1.04 28 09:18 12.04.2021
395 Clouds 7 1018 76 10000 1.04 28 09:18 12.04.2021
396 Clouds 6 1019 83 10000 1.65 15 08:35 12.04.2021
397 Clouds 6 1019 81 10000 1.17 30 07:38 12.04.2021
398 Clouds 7 1019 81 10000 0.8 38 07:19 12.04.2021
399 Clouds 7 1020 80 10000 0.88 56 05:52 12.04.2021
400 Clouds 7 1019 76 10000 1.68 50 04:28 12.04.2021
401 Clouds 9 1016 64 10000 2.59 66 00:52 12.04.2021
402 Clouds 10 1014 56 10000 4.2 45 00:24 12.04.2021
403 Clouds 10 1014 56 10000 4.2 45 23:46 11.04.2021
404 Clouds 10 1014 56 10000 4.2 45 23:46 11.04.2021
405 Clouds 10 1014 56 10000 4.2 45 23:46 11.04.2021
406 Clouds 11 1012 50 10000 5.61 33 23:27 11.04.2021
407 Clouds 11 1012 50 10000 5.61 33 22:46 11.04.2021
408 Clouds 12 1011 47 10000 6.17 30 22:23 11.04.2021
409 Clouds 12 1011 47 10000 6.17 30 21:46 11.04.2021
410 Clouds 12 1011 47 10000 6.17 30 21:46 11.04.2021
411 Clouds 13 1011 44 10000 6.3 29 21:27 11.04.2021
412 Clouds 13 1011 44 10000 6.3 29 20:57 11.04.2021
413 Clouds 13 1012 44 10000 6.42 28 20:30 11.04.2021
414 Clouds 13 1012 44 10000 6.42 28 19:56 11.04.2021
415 Clouds 13 1012 44 10000 6.42 28 19:37 11.04.2021
416 Clouds 13 1012 43 10000 5.81 36 19:19 11.04.2021
417 Clouds 13 1012 43 10000 5.81 36 18:42 11.04.2021
418 Clouds 13 1013 44 10000 4.8 39 18:24 11.04.2021
419 Clouds 13 1013 44 10000 4.8 39 17:46 11.04.2021
420 Clouds 12 1015 46 10000 3.97 48 17:28 11.04.2021
421 Clouds 12 1015 46 10000 3.97 48 16:51 11.04.2021
422 Clouds 12 1016 48 10000 3.14 60 16:23 11.04.2021
423 Clouds 12 1016 48 10000 3.14 60 15:57 11.04.2021
424 Clouds 12 1016 48 10000 3.14 60 15:38 11.04.2021
425 Clouds 10 1016 55 10000 2.52 60 15:19 11.04.2021
426 Clouds 10 1016 55 10000 2.52 60 14:46 11.04.2021
427 Clouds 9 1016 64 10000 2.24 87 13:53 11.04.2021
428 Clouds 9 1016 64 10000 2.24 87 13:31 11.04.2021
429 Clouds 8 1016 73 10000 2.18 90 12:54 11.04.2021
430 Clouds 7 1015 73 10000 2.11 89 12:22 11.04.2021
431 Clouds 7 1015 73 10000 2.11 89 11:53 11.04.2021
432 Clouds 7 1015 73 10000 2.11 89 11:53 11.04.2021
433 Clouds 8 1013 72 10000 1.56 100 11:29 11.04.2021
434 Clouds 8 1013 72 10000 1.56 100 10:50 11.04.2021
435 Clouds 8 1013 72 10000 1.56 100 10:32 11.04.2021
436 Clouds 8 1013 72 10000 1.2 91 09:59 11.04.2021
437 Clouds 8 1013 72 10000 1.2 91 09:37 11.04.2021
438 Clouds 9 1013 73 10000 0.43 53 09:19 11.04.2021
439 Clouds 9 1013 73 10000 0.43 53 08:30 11.04.2021
440 Clouds 9 1013 73 10000 0.43 53 08:30 11.04.2021
441 Clouds 9 1013 69 10000 1.36 15 07:24 11.04.2021
442 Clouds 9 1013 69 10000 1.36 15 06:56 11.04.2021
443 Clouds 10 1013 69 10000 1.01 9 05:44 11.04.2021
444 Clouds 10 1013 69 10000 1.06 32 05:21 11.04.2021
445 Clouds 10 1013 69 10000 1.06 32 04:35 11.04.2021
446 Clouds 10 1013 67 10000 1.56 56 02:56 11.04.2021
447 Clouds 11 1010 59 10000 2.78 71 00:40 11.04.2021
448 Clouds 11 1010 59 10000 2.78 71 00:40 11.04.2021
449 Clouds 13 1008 46 10000 3.27 91 23:52 10.04.2021
450 Clouds 14 1007 37 10000 3.74 118 23:27 10.04.2021
451 Clouds 14 1007 37 10000 3.74 118 22:51 10.04.2021
452 Clouds 15 1006 32 10000 3.52 119 22:24 10.04.2021
453 Clouds 15 1006 32 10000 3.52 119 21:51 10.04.2021
454 Clouds 16 1007 27 10000 2.12 97 21:23 10.04.2021
455 Clouds 16 1007 27 10000 2.12 97 20:53 10.04.2021
456 Clouds 16 1007 27 10000 1.64 62 20:29 10.04.2021
457 Clouds 16 1007 27 10000 1.64 62 19:46 10.04.2021
458 Clouds 15 1009 29 10000 1.09 15 19:27 10.04.2021
459 Clouds 15 1009 29 10000 1.09 15 18:54 10.04.2021
460 Clouds 15 1009 29 10000 1.09 15 18:34 10.04.2021
461 Clouds 14 1011 33 10000 1.13 335 17:54 10.04.2021
462 Clouds 14 1011 33 10000 1.13 335 17:34 10.04.2021
463 Clouds 13 1013 40 10000 1.28 314 16:31 10.04.2021
464 Clouds 11 1015 52 10000 1.32 301 15:56 10.04.2021
465 Clouds 11 1015 52 10000 1.32 301 15:35 10.04.2021
466 Clouds 9 1016 68 10000 1.58 309 14:50 10.04.2021
467 Clouds 8 1017 83 10000 1.58 332 14:25 10.04.2021
468 Clouds 8 1017 83 10000 1.58 332 13:47 10.04.2021
469 Clear 6 1017 90 10000 1.38 355 13:28 10.04.2021
470 Clear 6 1017 90 10000 1.38 355 12:38 10.04.2021
471 Clear 6 1016 90 10000 1.54 3 11:59 10.04.2021
472 Clear 6 1016 90 10000 1.54 3 11:41 10.04.2021
473 Clear 6 1015 87 10000 1.28 28 11:18 10.04.2021
474 Clear 6 1015 87 10000 1.28 28 10:42 10.04.2021
475 Clear 7 1014 85 10000 1.38 39 10:23 10.04.2021
476 Clouds 7 1014 82 10000 1.32 40 09:29 10.04.2021
477 Clouds 7 1014 82 10000 1.32 40 08:59 10.04.2021
478 Clouds 7 1014 82 10000 1.32 20 08:31 10.04.2021
479 Clouds 8 1015 80 10000 1.28 32 07:54 10.04.2021
480 Clouds 8 1015 80 10000 1.22 48 07:25 10.04.2021
481 Clear 9 1015 78 10000 1.37 47 06:27 10.04.2021
482 Clear 9 1016 76 10000 1.5 38 04:49 10.04.2021
483 Clear 9 1015 74 10000 2.26 70 02:58 10.04.2021
484 Clouds 10 1014 70 10000 2.35 64 02:37 10.04.2021
485 Clouds 11 1012 62 10000 2.44 83 00:59 10.04.2021
486 Clouds 11 1012 62 10000 2.44 83 00:30 10.04.2021
487 Clouds 12 1011 57 10000 3.75 93 23:49 09.04.2021
488 Clouds 13 1010 50 10000 4.11 93 23:27 09.04.2021
489 Clouds 13 1010 50 10000 4.11 93 22:44 09.04.2021
490 Clouds 13 1010 50 10000 4.11 93 22:44 09.04.2021
491 Clouds 15 1009 42 10000 3.89 75 22:26 09.04.2021
492 Clouds 15 1009 42 10000 3.89 75 21:39 09.04.2021
493 Clouds 15 1009 42 10000 3.89 75 21:39 09.04.2021
494 Clouds 15 1009 36 10000 3.19 57 21:20 09.04.2021
495 Clouds 15 1009 36 10000 3.19 57 21:20 09.04.2021
496 Clouds 15 1009 37 10000 3.48 49 20:46 09.04.2021
497 Clouds 17 1035 45 10000 4.12 40 20:23 09.04.2021
498 Clouds 17 1035 45 10000 4.12 40 19:58 09.04.2021
499 Clouds 17 1035 45 10000 4.12 40 19:39 09.04.2021
500 Clouds 17 1035 45 10000 4.12 40 19:21 09.04.2021
501 Clouds 16 1036 51 10000 3.6 30 18:41 09.04.2021
502 Clouds 16 1036 51 10000 3.6 30 18:23 09.04.2021
503 Clouds 15 1038 58 10000 2.57 60 17:44 09.04.2021
504 Clouds 15 1038 58 10000 2.57 60 17:25 09.04.2021
505 Clouds 12 1039 71 10000 1.53 349 16:41 09.04.2021
506 Clouds 12 1039 71 10000 1.55 351 16:20 09.04.2021
507 Clouds 9 1039 76 10000 1.55 351 15:42 09.04.2021
508 Clouds 9 1039 76 10000 1.4 353 15:23 09.04.2021
509 Clouds 7 1039 87 10000 1.4 353 14:46 09.04.2021
510 Clouds 7 1039 87 10000 0.85 340 14:19 09.04.2021
511 Clouds 5 1038 93 10000 0.85 340 13:43 09.04.2021
512 Clouds 5 1038 93 10000 0.87 349 13:22 09.04.2021
513 Clouds 6 1018 93 10000 0.87 349 12:47 09.04.2021
514 Clouds 6 1017 94 10000 1.26 349 11:57 09.04.2021
515 Clouds 6 1016 94 10000 1.28 343 11:28 09.04.2021
516 Clouds 6 1016 94 10000 1.28 343 10:53 09.04.2021
517 Clouds 6 1016 94 10000 1.28 343 10:34 09.04.2021
518 Clouds 7 1016 91 10000 1.62 346 09:55 09.04.2021
519 Clouds 7 1016 88 10000 1.82 357 09:27 09.04.2021
520 Clouds 7 1016 88 10000 1.82 357 08:54 09.04.2021
521 Clear 8 1015 84 10000 1.84 3 08:25 09.04.2021
522 Clear 8 1015 80 10000 1.52 13 07:21 09.04.2021
523 Clear 9 1015 77 10000 1.45 40 06:21 09.04.2021
524 Clear 10 1015 71 10000 1.53 59 03:56 09.04.2021
525 Clear 10 1015 71 10000 1.53 59 03:38 09.04.2021
526 Clear 11 1012 61 10000 2.83 81 00:38 09.04.2021
527 Clear 13 1010 48 10000 3.54 103 00:20 09.04.2021
528 Clear 13 1010 48 10000 3.54 103 23:31 08.04.2021
529 Clear 15 1008 32 10000 3.85 100 22:51 08.04.2021
530 Clear 16 1007 23 10000 2.7 85 22:27 08.04.2021
531 Clear 16 1007 23 10000 2.7 85 21:58 08.04.2021
532 Clear 16 1007 23 10000 2.7 85 21:40 08.04.2021
533 Clear 16 1007 23 10000 2.7 85 21:40 08.04.2021
534 Clouds 16 1008 21 10000 1.43 54 21:21 08.04.2021
535 Clouds 16 1008 21 10000 1.43 54 20:54 08.04.2021
536 Clouds 17 1035 42 10000 1.43 54 20:34 08.04.2021
537 Clouds 17 1035 42 10000 1.49 4 19:58 08.04.2021
538 Clouds 17 1035 42 10000 1.18 357 19:25 08.04.2021
539 Clouds 15 1037 47 10000 2.57 240 18:57 08.04.2021
540 Clouds 15 1037 47 10000 2.57 240 18:38 08.04.2021
541 Clouds 13 1038 58 10000 2.57 220 18:19 08.04.2021
542 Clouds 13 1038 58 10000 2.57 220 17:40 08.04.2021
543 Clouds 13 1038 58 10000 2.57 220 17:18 08.04.2021
544 Clouds 10 1039 71 10000 5.14 240 16:43 08.04.2021
545 Clouds 10 1039 71 10000 5.14 240 16:22 08.04.2021
546 Clouds 8 1038 81 10000 3.6 240 15:43 08.04.2021
547 Clouds 8 1038 81 10000 3.6 240 15:23 08.04.2021
548 Clouds 6 1038 87 10000 2.57 240 14:42 08.04.2021
549 Clouds 6 1038 87 10000 2.57 240 14:20 08.04.2021
550 Clouds 4 1037 93 10000 1.19 293 13:46 08.04.2021
551 Clouds 4 1037 93 10000 1.13 315 13:24 08.04.2021
552 Clouds 5 1019 94 2955 1.13 315 12:53 08.04.2021
553 Clouds 5 1019 94 2955 1.13 315 12:33 08.04.2021
554 Clouds 5 1018 96 3446 1.07 352 11:57 08.04.2021
555 Clouds 6 1017 96 3989 1.29 353 11:25 08.04.2021
556 Clouds 6 1017 96 3989 1.29 353 10:51 08.04.2021
557 Clouds 6 1016 94 7633 1.54 344 10:25 08.04.2021
558 Clouds 6 1016 94 7633 1.54 344 10:25 08.04.2021
559 Clouds 6 1016 94 7633 1.54 344 09:46 08.04.2021
560 Clouds 7 1016 91 10000 1.8 347 09:26 08.04.2021
561 Clouds 7 1016 91 10000 1.8 347 08:44 08.04.2021
562 Clouds 7 1016 86 10000 1.99 357 08:22 08.04.2021
563 Clouds 7 1016 86 10000 1.99 357 07:45 08.04.2021
564 Clouds 8 1017 79 10000 1.7 7 05:45 08.04.2021
565 Clouds 11 1013 62 10000 3.03 85 01:25 08.04.2021
566 Clouds 11 1013 62 10000 3.03 85 00:31 08.04.2021
567 Clouds 12 1011 51 10000 3.54 105 23:48 07.04.2021
568 Clouds 14 1010 41 10000 3.85 108 23:25 07.04.2021
569 Clouds 14 1010 41 10000 3.85 108 22:57 07.04.2021
570 Clouds 14 1010 41 10000 3.85 108 22:38 07.04.2021
571 Clouds 15 1009 33 10000 2.71 98 22:20 07.04.2021
572 Clouds 15 1009 33 10000 2.71 98 21:34 07.04.2021
573 Clouds 15 1010 31 10000 1.42 58 20:56 07.04.2021
574 Clouds 15 1037 55 10000 5.14 30 20:37 07.04.2021
575 Clouds 15 1037 55 10000 5.14 30 20:18 07.04.2021
576 Clouds 15 1037 55 10000 5.14 30 19:40 07.04.2021
577 Clouds 15 1037 55 10000 5.14 30 19:22 07.04.2021
578 Clouds 14 1038 58 10000 2.57 60 18:42 07.04.2021
579 Clouds 14 1038 58 10000 2.57 60 18:18 07.04.2021
580 Clouds 12 1039 71 10000 0.95 344 17:47 07.04.2021
581 Clouds 12 1039 71 10000 1.1 318 17:28 07.04.2021
582 Clouds 10 1040 76 10000 1.54 240 16:46 07.04.2021
583 Clouds 10 1040 76 10000 1.54 240 16:21 07.04.2021
584 Clouds 8 1040 81 10000 2.57 240 15:54 07.04.2021
585 Clouds 8 1040 81 10000 2.57 240 15:34 07.04.2021
586 Clouds 6 1039 87 10000 1.61 314 14:48 07.04.2021
587 Clouds 6 1039 87 10000 1.74 320 14:25 07.04.2021
588 Clouds 4 1039 93 10000 1.53 315 13:45 07.04.2021
589 Clouds 4 1039 93 10000 1.11 315 13:20 07.04.2021
590 Clear 5 1020 88 10000 1.11 315 12:47 07.04.2021
591 Clear 5 1019 88 10000 1.51 344 12:21 07.04.2021
592 Clear 5 1019 88 10000 1.51 344 11:45 07.04.2021
593 Clear 5 1018 85 10000 1.39 3 11:24 07.04.2021
594 Clear 5 1018 85 10000 1.39 3 10:50 07.04.2021
595 Clear 6 1017 82 10000 1.38 351 09:51 07.04.2021
596 Clear 6 1017 82 10000 1.38 351 09:30 07.04.2021
597 Clear 6 1017 82 10000 1.38 351 09:30 07.04.2021
598 Clear 6 1017 78 10000 1.69 14 08:59 07.04.2021
599 Clouds 6 1018 80 10000 1.79 13 08:33 07.04.2021
600 Clouds 7 1017 76 10000 1.77 24 07:56 07.04.2021
601 Clouds 8 1018 74 10000 1.68 43 07:29 07.04.2021
602 Clouds 8 1018 74 10000 1.68 43 06:52 07.04.2021
603 Clouds 8 1018 75 10000 2.21 63 06:18 07.04.2021
604 Clouds 8 1018 77 10000 2.57 77 03:35 07.04.2021
605 Clouds 10 1013 57 10000 3.15 68 23:52 06.04.2021
606 Clouds 11 1012 48 10000 3.12 73 23:23 06.04.2021
607 Clouds 11 1012 48 10000 3.12 73 22:59 06.04.2021
608 Clouds 12 1011 42 10000 1.88 99 22:22 06.04.2021
609 Clouds 12 1011 42 10000 1.88 99 21:59 06.04.2021
610 Clouds 12 1011 42 10000 1.88 99 21:59 06.04.2021
611 Clouds 12 1011 42 10000 1.88 99 21:39 06.04.2021
612 Clouds 13 1011 37 10000 1.7 122 21:21 06.04.2021
613 Clouds 13 1011 37 10000 1.7 122 20:51 06.04.2021
614 Clouds 12 1038 62 10000 6.17 60 20:21 06.04.2021
615 Clouds 12 1038 62 10000 6.17 60 19:49 06.04.2021
616 Clouds 12 1038 62 10000 6.17 60 19:31 06.04.2021
617 Clouds 11 1039 66 10000 4.63 50 18:48 06.04.2021
618 Clouds 11 1039 66 10000 4.63 50 18:24 06.04.2021
619 Clouds 10 1040 71 10000 5.14 60 17:52 06.04.2021
620 Clouds 10 1040 71 10000 5.14 60 17:30 06.04.2021
621 Clouds 9 1040 76 10000 4.12 60 16:56 06.04.2021
622 Clouds 9 1040 76 10000 4.12 60 16:56 06.04.2021
623 Clouds 9 1040 76 10000 4.12 60 16:38 06.04.2021
624 Clouds 8 1041 81 10000 0.95 21 15:44 06.04.2021
625 Clouds 8 1041 81 10000 0.9 60 15:22 06.04.2021
626 Clouds 7 1040 81 10000 0.9 60 14:39 06.04.2021
627 Clouds 7 1040 81 10000 0.9 58 14:19 06.04.2021
628 Clouds 6 1040 87 10000 0.9 58 13:44 06.04.2021
629 Clouds 6 1040 87 10000 1.16 68 13:25 06.04.2021
630 Clouds 6 1019 69 10000 1.16 68 12:42 06.04.2021
631 Clouds 5 1018 71 10000 1.37 66 12:22 06.04.2021
632 Clouds 5 1018 71 10000 1.37 66 11:52 06.04.2021
633 Clouds 6 1017 70 10000 1.48 61 11:21 06.04.2021
634 Clouds 6 1017 70 10000 1.48 61 10:48 06.04.2021
635 Clouds 6 1017 70 10000 1.32 74 10:29 06.04.2021
636 Clouds 6 1017 70 10000 1.32 74 09:57 06.04.2021
637 Clouds 6 1017 70 10000 1.32 74 09:36 06.04.2021
638 Clouds 6 1017 71 10000 1.43 79 08:45 06.04.2021
639 Clouds 6 1018 74 10000 0.37 18 08:19 06.04.2021
640 Clouds 6 1018 74 10000 1.05 349 06:56 06.04.2021
641 Clouds 7 1018 71 10000 1.84 349 06:20 06.04.2021
642 Clouds 8 1018 67 10000 1.14 44 02:59 06.04.2021
643 Clouds 8 1017 64 10000 3.41 184 00:46 06.04.2021
644 Clouds 10 1014 53 10000 2.53 170 00:21 06.04.2021
645 Clouds 10 1014 53 10000 2.53 170 23:44 05.04.2021
646 Clouds 11 1012 45 10000 1.31 180 23:22 05.04.2021
647 Clouds 11 1012 45 10000 1.31 180 22:48 05.04.2021
648 Clouds 12 1012 43 10000 0.36 118 22:27 05.04.2021
649 Clouds 12 1012 43 10000 0.36 118 21:45 05.04.2021
650 Clouds 13 1011 38 10000 0.56 148 21:22 05.04.2021
651 Clouds 13 1011 38 10000 0.56 148 20:45 05.04.2021
652 Rain 10 1036 76 10000 4.12 70 20:27 05.04.2021
653 Clouds 10 1036 76 10000 4.12 70 19:44 05.04.2021
654 Clouds 10 1036 76 10000 4.12 70 19:24 05.04.2021
655 Rain 12 1037 71 10000 2.57 60 18:55 05.04.2021
656 Rain 12 1037 71 10000 2.57 60 18:36 05.04.2021
657 Rain 12 1037 71 10000 2.57 60 18:18 05.04.2021
658 Clouds 10 1038 81 10000 3.6 240 17:43 05.04.2021
659 Rain 10 1038 81 10000 3.6 240 17:20 05.04.2021
660 Clouds 8 1039 87 10000 3.09 240 16:44 05.04.2021
661 Clouds 8 1039 87 10000 3.09 240 16:21 05.04.2021
662 Clouds 6 1039 93 10000 2.06 240 15:54 05.04.2021
663 Clouds 6 1039 93 10000 2.06 240 15:30 05.04.2021
664 Clouds 5 1038 93 10000 1.69 325 14:54 05.04.2021
665 Clouds 5 1038 93 10000 1.69 325 14:35 05.04.2021
666 Clouds 4 1037 100 10000 1.42 345 13:32 05.04.2021
667 Clouds 6 1018 73 10000 1.5 326 12:57 05.04.2021
668 Clouds 6 1018 73 10000 1.5 326 12:37 05.04.2021
669 Rain 6 1018 77 10000 1.36 319 12:19 05.04.2021
670 Clouds 6 1018 77 10000 1.36 319 11:42 05.04.2021
671 Rain 6 1017 73 10000 1.29 339 11:22 05.04.2021
672 Rain 6 1017 73 10000 1.29 339 10:45 05.04.2021
673 Clouds 6 1017 74 10000 1.46 347 10:27 05.04.2021
674 Clouds 6 1017 74 10000 1.46 347 09:48 05.04.2021
675 Clouds 6 1017 77 10000 1.62 7 09:24 05.04.2021
676 Clouds 6 1016 76 10000 1.52 15 08:45 05.04.2021
677 Clouds 7 1016 72 10000 2 34 08:26 05.04.2021
678 Clouds 7 1016 72 10000 2 34 08:26 05.04.2021
679 Clouds 7 1016 72 10000 2 34 07:37 05.04.2021
680 Clouds 7 1017 70 10000 2.23 15 06:32 05.04.2021
681 Clouds 7 1017 73 10000 1.92 10 02:32 05.04.2021
682 Clouds 9 1014 64 8006 0.16 2 00:50 05.04.2021
683 Clouds 9 1013 63 10000 1.61 95 23:52 04.04.2021
684 Clouds 9 1012 60 10000 0.87 113 23:29 04.04.2021
685 Clouds 9 1012 60 10000 0.87 113 22:53 04.04.2021
686 Clouds 9 1012 60 10000 0.87 113 22:30 04.04.2021
687 Clouds 9 1012 62 6506 2.25 240 21:43 04.04.2021
688 Clouds 11 1011 50 10000 1.77 299 21:19 04.04.2021
689 Clouds 11 1011 50 10000 1.77 299 20:37 04.04.2021
690 Clouds 12 1011 46 10000 2.02 351 20:19 04.04.2021
691 Clouds 12 1011 46 10000 2.02 351 19:38 04.04.2021
692 Clouds 11 1014 51 10000 2.56 342 19:19 04.04.2021
693 Clouds 11 1014 51 10000 2.56 342 18:47 04.04.2021
694 Clouds 10 1016 56 10000 2.77 342 18:24 04.04.2021
695 Clouds 10 1016 56 10000 2.77 342 17:55 04.04.2021
696 Clouds 8 1018 62 10000 2.11 338 17:24 04.04.2021
697 Clouds 8 1018 62 10000 2.11 338 16:52 04.04.2021
698 Clouds 8 1018 62 10000 2.11 338 16:31 04.04.2021
699 Clouds 6 1020 69 10000 2.62 359 15:37 04.04.2021
700 Clouds 6 1020 71 10000 3.35 356 15:18 04.04.2021
701 Clouds 6 1020 71 10000 3.35 356 14:37 04.04.2021
702 Clouds 7 1019 69 10000 2.94 348 14:18 04.04.2021
703 Clouds 6 1018 73 10000 1.39 359 13:26 04.04.2021
704 Clouds 6 1018 73 10000 1.39 359 12:50 04.04.2021
705 Clouds 6 1018 72 10000 0.93 18 12:27 04.04.2021
706 Clouds 6 1018 72 10000 0.93 18 11:43 04.04.2021
707 Clouds 6 1018 74 10000 1.11 1 11:25 04.04.2021
708 Clouds 6 1018 74 10000 1.11 1 10:46 04.04.2021
709 Clouds 6 1017 73 10000 1.3 4 10:20 04.04.2021
710 Clouds 6 1017 73 10000 1.3 4 09:37 04.04.2021
711 Clouds 6 1018 73 10000 1.18 351 09:18 04.04.2021
712 Clouds 6 1018 73 10000 1.18 351 08:42 04.04.2021
713 Clouds 7 1017 70 10000 2.32 13 08:24 04.04.2021
714 Rain 7 1018 69 10000 2.48 358 06:39 04.04.2021
715 Clouds 7 1019 69 10000 2.17 8 05:44 04.04.2021
716 Clouds 6 1019 80 10000 2.93 179 02:20 04.04.2021
717 Clouds 8 1016 73 6341 0.95 146 00:47 04.04.2021
718 Clouds 9 1013 65 10000 2.1 74 00:18 04.04.2021
719 Clouds 9 1013 65 10000 2.1 74 23:41 03.04.2021
720 Clouds 11 1011 51 10000 3.8 45 22:56 03.04.2021
721 Clouds 11 1011 51 10000 3.8 45 22:37 03.04.2021
722 Clouds 13 1009 40 10000 4.98 30 22:18 03.04.2021
723 Clouds 13 1009 40 10000 4.98 30 21:39 03.04.2021
724 Clouds 13 1010 37 10000 4.7 34 21:21 03.04.2021
725 Clouds 13 1010 37 10000 4.7 34 20:40 03.04.2021
726 Clouds 13 1012 39 10000 3.83 22 20:20 03.04.2021
727 Clouds 13 1012 37 10000 3.91 18 19:43 03.04.2021
728 Clouds 13 1013 42 10000 3.24 15 19:19 03.04.2021
729 Clouds 13 1013 42 10000 3.24 15 18:45 03.04.2021
730 Clouds 12 1015 48 10000 2.75 12 18:18 03.04.2021
731 Clouds 12 1015 48 10000 2.75 12 17:41 03.04.2021
732 Clouds 11 1017 56 10000 2.34 5 17:21 03.04.2021
733 Clouds 11 1017 56 10000 2.34 5 16:43 03.04.2021
734 Clouds 9 1018 65 10000 1.87 3 16:21 03.04.2021
735 Clouds 9 1018 65 10000 1.87 3 15:46 03.04.2021
736 Clouds 7 1019 75 10000 1.54 355 15:21 03.04.2021
737 Clouds 7 1019 75 10000 1.54 355 14:42 03.04.2021
738 Clouds 5 1019 84 10000 1.6 7 14:22 03.04.2021
739 Clouds 5 1019 84 10000 1.73 357 13:48 03.04.2021
740 Clouds 4 1019 92 10000 1.25 359 13:23 03.04.2021
741 Clouds 4 1019 92 10000 1.25 359 12:52 03.04.2021
742 Clouds 4 1019 94 10000 1.36 351 12:21 03.04.2021
743 Clouds 4 1019 94 10000 1.36 351 11:39 03.04.2021
744 Clouds 4 1018 92 10000 1.73 347 10:56 03.04.2021
745 Clouds 4 1018 92 10000 1.73 347 10:36 03.04.2021
746 Clouds 5 1018 89 10000 1.92 347 10:18 03.04.2021
747 Clouds 5 1018 86 10000 2.09 9 09:28 03.04.2021
748 Clouds 5 1018 86 10000 2.09 9 08:57 03.04.2021
749 Clouds 5 1018 87 10000 2.01 1 08:30 03.04.2021
750 Clouds 6 1018 78 10000 2.11 19 07:29 03.04.2021
751 Clouds 6 1018 78 10000 2.11 19 06:44 03.04.2021
752 Clouds 7 1017 73 10000 2.58 40 03:53 03.04.2021
753 Clouds 8 1016 71 10000 2.82 43 02:52 03.04.2021
754 Clouds 9 1015 67 10000 2.73 59 02:26 03.04.2021
755 Clouds 11 1011 51 10000 3.05 97 00:29 03.04.2021
756 Clouds 11 1011 51 10000 3.05 97 23:50 02.04.2021
757 Clouds 12 1010 42 10000 4.1 91 23:26 02.04.2021
758 Clouds 12 1010 42 10000 4.1 91 22:55 02.04.2021
759 Clouds 12 1010 42 10000 4.1 91 22:36 02.04.2021
760 Clouds 13 1009 36 10000 3.8 75 21:46 02.04.2021
761 Clouds 14 1009 33 10000 2.74 57 21:26 02.04.2021
762 Clouds 14 1009 33 10000 2.74 57 20:54 02.04.2021
763 Clouds 14 1009 31 10000 2.81 60 20:35 02.04.2021
764 Clouds 14 1010 32 10000 1.92 32 19:59 02.04.2021
765 Clouds 14 1010 32 10000 1.92 32 19:39 02.04.2021
766 Clouds 13 1012 35 10000 1.78 7 19:21 02.04.2021
767 Clouds 13 1012 35 10000 1.78 7 18:41 02.04.2021
768 Clouds 12 1014 40 10000 1.83 354 18:21 02.04.2021
769 Clouds 12 1014 40 10000 1.83 354 17:40 02.04.2021
770 Clouds 10 1016 46 10000 2.02 354 16:53 02.04.2021
771 Clouds 9 1017 54 10000 2.03 358 16:23 02.04.2021
772 Clouds 9 1017 54 10000 2.03 358 15:42 02.04.2021
773 Clouds 9 1017 54 10000 2.03 358 15:42 02.04.2021
774 Clouds 7 1018 64 10000 1.73 350 14:57 02.04.2021
775 Clouds 7 1018 64 10000 1.73 350 14:33 02.04.2021
776 Clouds 6 1019 74 10000 1.88 337 13:46 02.04.2021
777 Clouds 5 1018 83 10000 1.83 344 13:26 02.04.2021
778 Clouds 5 1018 83 10000 1.83 344 12:42 02.04.2021
779 Clouds 5 1017 86 10000 1.79 356 12:20 02.04.2021
780 Clouds 5 1017 86 10000 1.79 356 12:20 02.04.2021
781 Clouds 5 1017 86 10000 1.79 356 11:57 02.04.2021
782 Clouds 5 1016 88 10000 1.66 9 11:21 02.04.2021
783 Clouds 5 1016 88 10000 1.66 9 10:51 02.04.2021
784 Clouds 5 1016 88 10000 1.66 9 10:32 02.04.2021
785 Clouds 5 1016 89 10000 1.58 6 09:55 02.04.2021
786 Clouds 5 1016 89 10000 1.58 6 09:37 02.04.2021
787 Clouds 5 1016 89 10000 1.72 3 09:18 02.04.2021
788 Clouds 5 1016 90 10000 1.58 7 08:34 02.04.2021
789 Clouds 6 1015 88 10000 1.92 8 07:42 02.04.2021
790 Clouds 6 1015 85 10000 2.2 10 07:18 02.04.2021
791 Clouds 7 1015 78 10000 2.14 24 05:59 02.04.2021
792 Clouds 9 1012 64 10000 1.41 48 02:51 02.04.2021
793 Clouds 11 1009 50 10000 1.74 69 00:54 02.04.2021
794 Clouds 11 1009 50 10000 1.74 69 00:33 02.04.2021
795 Clouds 13 1006 36 10000 1.03 81 23:41 01.04.2021
796 Clouds 14 1005 28 10000 0.77 56 23:21 01.04.2021
797 Clouds 15 1005 28 10000 2.13 319 22:22 01.04.2021
798 Clouds 15 1005 28 10000 2.13 319 21:52 01.04.2021
799 Clouds 15 1005 26 10000 2.1 321 21:29 01.04.2021
800 Clouds 15 1005 26 10000 2.1 321 21:00 01.04.2021
801 Clouds 15 1033 58 10000 5.14 60 20:33 01.04.2021
802 Clouds 15 1033 58 10000 5.14 60 19:57 01.04.2021
803 Clouds 15 1033 58 10000 5.14 60 19:39 01.04.2021
804 Clouds 13 1033 67 10000 3.6 60 18:51 01.04.2021
805 Clouds 13 1033 67 10000 3.6 60 18:19 01.04.2021
806 Clouds 11 1034 71 10000 1.81 324 17:58 01.04.2021
807 Clouds 11 1034 71 10000 1.81 324 17:38 01.04.2021
808 Clouds 11 1034 71 10000 2.35 335 17:19 01.04.2021
809 Clouds 8 1035 81 10000 2.35 335 16:41 01.04.2021
810 Clouds 8 1035 81 10000 2.35 335 16:41 01.04.2021
811 Clouds 6 1035 87 10000 2.14 347 15:49 01.04.2021
812 Clouds 6 1035 87 10000 1.68 349 15:23 01.04.2021
813 Fog 3 1035 100 800 1.68 349 14:55 01.04.2021
814 Fog 3 1035 100 800 1.56 359 14:37 01.04.2021
815 Fog 3 1034 100 100 0.94 342 14:19 01.04.2021
816 Fog 3 1034 100 100 0.94 342 13:32 01.04.2021
817 Clouds 6 1015 83 10000 0.89 308 12:58 01.04.2021
818 Clouds 6 1015 83 10000 0.89 308 12:39 01.04.2021
819 Clouds 6 1014 85 10000 1.12 329 12:20 01.04.2021
820 Clouds 6 1014 85 10000 1.12 329 11:43 01.04.2021
821 Clouds 6 1013 84 10000 1.02 356 11:18 01.04.2021
822 Clouds 6 1013 84 10000 1.02 356 10:46 01.04.2021
823 Clouds 6 1013 83 10000 1.13 4 10:27 01.04.2021
824 Rain 6 1013 83 10000 1.13 4 09:32 01.04.2021
825 Clouds 6 1013 79 10000 1.45 341 08:58 01.04.2021
826 Clouds 6 1013 79 10000 1.45 341 08:32 01.04.2021
827 Clouds 6 1014 80 10000 2.05 342 07:22 01.04.2021
828 Clouds 6 1014 80 10000 2.05 342 06:57 01.04.2021
829 Clouds 7 1015 76 10000 2.82 340 06:24 01.04.2021
830 Clouds 7 1015 76 10000 3.03 94 03:23 01.04.2021
831 Rain 7 1013 80 10000 3.79 50 00:28 01.04.2021
832 Clouds 7 1013 80 10000 3.79 50 23:44 31.03.2021
833 Clouds 8 1010 74 10000 3.52 90 22:56 31.03.2021
834 Clouds 8 1010 74 10000 3.52 90 22:38 31.03.2021
835 Clouds 12 1007 53 10000 2.07 82 22:19 31.03.2021
836 Clouds 12 1007 53 10000 2.07 82 21:43 31.03.2021
837 Clouds 14 1005 42 10000 3.15 44 21:20 31.03.2021
838 Clouds 14 1005 42 10000 3.15 44 20:42 31.03.2021
839 Clouds 16 1033 55 10000 5.14 50 20:22 31.03.2021
840 Clouds 16 1033 55 10000 5.14 50 19:44 31.03.2021
841 Clouds 16 1033 55 10000 5.14 50 19:25 31.03.2021
842 Clouds 15 1033 58 10000 4.12 40 18:58 31.03.2021
843 Clouds 15 1033 58 10000 4.12 40 18:40 31.03.2021
844 Clouds 15 1033 58 10000 4.12 40 18:40 31.03.2021
845 Clouds 15 1033 58 10000 4.12 40 18:40 31.03.2021
846 Clouds 13 1034 67 10000 3.09 30 17:51 31.03.2021
847 Clouds 13 1034 67 10000 3.09 30 17:31 31.03.2021
848 Clouds 10 1035 81 10000 2.3 338 16:56 31.03.2021
849 Clouds 10 1035 81 10000 2.3 338 16:37 31.03.2021
850 Rain 10 1035 81 10000 2.36 336 16:18 31.03.2021
851 Clouds 8 1035 87 10000 2.36 336 15:43 31.03.2021
852 Clouds 8 1035 87 10000 2.23 339 15:19 31.03.2021
853 Mist 6 1035 93 3000 2.23 339 14:42 31.03.2021
854 Mist 5 1035 100 2000 2.03 336 14:19 31.03.2021
855 Mist 5 1035 100 2000 2.03 336 13:39 31.03.2021
856 Clouds 6 1016 79 10000 1.93 338 12:42 31.03.2021
857 Clouds 6 1016 82 10000 2.08 340 12:20 31.03.2021
858 Clouds 6 1016 82 10000 2.08 340 11:47 31.03.2021
859 Clouds 6 1015 84 10000 1.77 342 11:20 31.03.2021
860 Clouds 6 1015 84 10000 1.77 342 10:46 31.03.2021
861 Clouds 6 1015 86 10000 1.98 344 10:24 31.03.2021
862 Clouds 6 1015 86 10000 1.98 344 09:38 31.03.2021
863 Clouds 6 1015 91 10000 2.16 341 08:55 31.03.2021
864 Clouds 6 1015 93 10000 1.87 356 08:34 31.03.2021
865 Clouds 6 1016 91 10000 2.02 6 07:52 31.03.2021
866 Rain 6 1016 89 10000 2.28 10 06:39 31.03.2021
867 Clouds 8 1016 81 10000 2.65 35 03:51 31.03.2021
868 Clouds 9 1013 71 10000 1.58 54 01:43 31.03.2021
869 Clouds 9 1012 66 10000 2.46 59 00:49 31.03.2021
870 Clouds 10 1012 55 10000 1.02 46 00:20 31.03.2021
871 Clouds 10 1012 55 10000 1.02 46 23:39 30.03.2021
872 Clouds 11 1011 55 10000 1.83 132 22:59 30.03.2021
873 Clouds 11 1011 55 10000 1.83 132 22:40 30.03.2021
874 Clouds 12 1010 50 10000 1.43 91 22:21 30.03.2021
875 Clouds 12 1010 50 10000 1.43 91 21:48 30.03.2021
876 Clouds 13 1010 47 10000 3.33 46 21:20 30.03.2021
877 Clouds 13 1010 47 10000 3.33 46 20:53 30.03.2021
878 Clouds 15 1035 58 10000 4.12 60 20:28 30.03.2021
879 Clouds 15 1035 58 10000 4.12 60 19:51 30.03.2021
880 Clouds 15 1035 58 10000 4.12 60 19:27 30.03.2021
881 Clouds 14 1036 62 10000 2.57 60 18:40 30.03.2021
882 Clouds 12 1037 71 10000 2.18 335 17:58 30.03.2021
883 Clouds 12 1037 71 10000 2.18 335 17:38 30.03.2021
884 Clouds 12 1037 71 10000 2.05 322 17:20 30.03.2021
885 Clouds 10 1039 81 10000 2.06 60 16:45 30.03.2021
886 Clouds 10 1039 81 10000 2.06 60 16:23 30.03.2021
887 Clouds 8 1038 87 10000 2.07 332 15:21 30.03.2021
888 Clouds 5 1038 93 10000 2.07 332 14:57 30.03.2021
889 Clouds 5 1038 93 10000 1.73 339 14:22 30.03.2021
890 Clouds 4 1037 93 10000 1.73 339 13:59 30.03.2021
891 Clouds 4 1037 93 10000 1.73 339 13:37 30.03.2021
892 Clouds 7 1017 70 10000 1.59 333 12:49 30.03.2021
893 Clouds 7 1017 73 10000 1.62 336 12:28 30.03.2021
894 Clouds 7 1017 73 10000 1.62 336 11:58 30.03.2021
895 Clouds 6 1016 78 10000 1.55 346 11:23 30.03.2021
896 Clouds 6 1016 78 10000 1.55 346 10:46 30.03.2021
897 Clouds 6 1016 84 10000 1.81 0 10:28 30.03.2021
898 Clouds 6 1016 84 10000 1.81 0 09:52 30.03.2021
899 Clouds 6 1016 84 10000 1.81 0 09:31 30.03.2021
900 Clouds 6 1017 87 10000 2.01 15 08:56 30.03.2021
901 Clouds 6 1017 87 10000 2.01 15 08:38 30.03.2021
902 Clouds 6 1017 90 10000 2.05 21 07:52 30.03.2021
903 Clouds 6 1017 88 10000 2.22 24 07:22 30.03.2021
904 Clouds 7 1017 86 10000 2.44 37 05:49 30.03.2021
905 Clouds 7 1017 83 10000 2.63 52 05:19 30.03.2021
906 Clouds 11 1012 59 10000 1.51 355 00:40 30.03.2021
907 Clouds 12 1010 47 10000 4.22 316 23:36 29.03.2021
908 Clouds 13 1008 44 10000 4.08 303 22:54 29.03.2021
909 Clouds 13 1008 44 10000 4.08 303 22:32 29.03.2021
910 Clouds 13 1009 46 10000 4.09 326 21:51 29.03.2021
911 Clouds 13 1009 46 10000 4.09 326 21:31 29.03.2021
912 Clouds 13 1010 49 10000 4.08 345 20:50 29.03.2021
913 Clouds 16 1034 55 10000 2.57 60 20:28 29.03.2021
914 Clouds 16 1034 55 10000 2.57 60 19:50 29.03.2021
915 Clouds 16 1034 55 10000 2.57 60 19:25 29.03.2021
916 Clouds 15 1035 58 10000 3.6 50 18:51 29.03.2021
917 Clouds 15 1035 58 10000 3.6 50 18:27 29.03.2021
918 Clouds 13 1036 67 10000 1.79 322 17:52 29.03.2021
919 Clouds 13 1036 67 10000 1.79 322 17:32 29.03.2021
920 Clouds 11 1037 71 10000 2.57 240 16:45 29.03.2021
921 Clouds 11 1037 71 10000 2.57 240 16:24 29.03.2021
922 Clouds 8 1037 81 10000 1.66 309 15:37 29.03.2021
923 Clouds 8 1037 81 10000 1.62 311 15:18 29.03.2021
924 Clouds 6 1036 87 10000 2.06 240 14:46 29.03.2021
925 Clouds 4 1036 93 10000 0.99 316 13:55 29.03.2021
926 Clouds 4 1036 93 10000 0.99 316 13:36 29.03.2021
927 Clouds 6 1017 84 10000 1.26 317 12:57 29.03.2021
928 Clouds 6 1017 84 10000 1.26 317 12:39 29.03.2021
929 Clouds 5 1017 87 10000 1.75 324 11:45 29.03.2021
930 Clouds 5 1016 90 10000 2.1 334 11:27 29.03.2021
931 Clouds 5 1016 90 10000 2.1 334 10:45 29.03.2021
932 Clouds 5 1016 94 9293 2.21 346 10:19 29.03.2021
933 Clouds 5 1016 94 9293 2.21 346 09:32 29.03.2021
934 Clouds 6 1015 95 5927 2.33 359 08:34 29.03.2021
935 Clouds 6 1015 89 10000 2.5 3 07:54 29.03.2021
936 Rain 7 1015 82 10000 2.46 12 06:57 29.03.2021
937 Rain 7 1015 80 10000 2.73 23 06:23 29.03.2021
938 Clouds 8 1015 81 10000 2.81 22 02:33 29.03.2021
939 Clouds 9 1012 73 10000 2.54 31 00:30 29.03.2021
940 Clouds 10 1010 63 10000 2.96 11 23:58 28.03.2021
941 Clouds 11 1009 59 10000 2.69 3 23:25 28.03.2021
942 Clouds 11 1009 59 10000 2.69 3 22:48 28.03.2021
943 Clouds 11 1009 59 10000 2.86 351 22:29 28.03.2021
944 Clouds 11 1009 59 10000 2.86 351 21:47 28.03.2021
945 Clouds 11 1010 60 10000 3.03 340 21:25 28.03.2021
946 Clouds 11 1010 60 10000 3.03 340 20:56 28.03.2021
947 Rain 11 1010 60 10000 3.03 340 20:38 28.03.2021
948 Clouds 11 1011 62 10000 3.57 338 20:18 28.03.2021
949 Clouds 11 1011 62 10000 3.57 338 19:41 28.03.2021
950 Clouds 11 1012 61 8479 3.36 354 19:21 28.03.2021
951 Clouds 11 1012 61 8479 3.36 354 18:49 28.03.2021
952 Clouds 11 1014 61 6023 2.95 3 18:22 28.03.2021
953 Clouds 11 1014 61 6023 2.95 3 17:41 28.03.2021
954 Clouds 10 1015 65 7823 3.15 358 17:20 28.03.2021
955 Clouds 10 1015 65 7823 3.15 358 16:41 28.03.2021
956 Clouds 9 1016 70 10000 3.02 1 16:21 28.03.2021
957 Clouds 8 1017 76 10000 2.36 6 15:25 28.03.2021
958 Clouds 8 1017 76 10000 2.36 6 14:50 28.03.2021
959 Clouds 7 1017 81 10000 2.05 358 14:27 28.03.2021
960 Clouds 7 1017 81 10000 2.05 358 13:38 28.03.2021
961 Clouds 6 1016 84 10000 2.09 360 12:59 28.03.2021
962 Clouds 6 1016 84 10000 2.09 360 12:37 28.03.2021
963 Clouds 6 1016 85 10000 2.54 14 12:19 28.03.2021
964 Clouds 6 1016 85 10000 2.54 14 11:39 28.03.2021
965 Clouds 6 1016 85 10000 2.54 14 11:39 28.03.2021
966 Rain 6 1015 88 10000 2.65 25 11:18 28.03.2021
967 Rain 6 1015 88 10000 2.65 25 10:43 28.03.2021
968 Rain 6 1015 88 10000 1.97 12 10:21 28.03.2021
969 Clouds 6 1015 88 10000 1.97 12 09:44 28.03.2021
970 Clouds 7 1015 85 10000 2.51 7 09:23 28.03.2021
971 Clouds 7 1015 85 10000 2.51 7 08:42 28.03.2021
972 Clouds 7 1014 80 10000 2.38 349 07:45 28.03.2021
973 Clouds 7 1016 81 10000 2.72 12 06:23 28.03.2021
974 Clouds 8 1015 73 10000 2.42 37 03:51 28.03.2021
975 Rain 9 1014 76 5184 2.59 93 00:49 28.03.2021
976 Rain 9 1012 69 7695 1.33 58 00:19 28.03.2021
977 Rain 9 1012 69 7695 1.33 58 23:39 27.03.2021
978 Clouds 10 1010 64 5220 2.72 10 22:53 27.03.2021
979 Clouds 10 1010 64 5220 2.72 10 22:35 27.03.2021
980 Clouds 11 1010 62 5029 3.72 21 21:46 27.03.2021
981 Clouds 12 1009 57 4314 4.52 6 21:21 27.03.2021
982 Rain 12 1009 57 4314 4.52 6 20:59 27.03.2021
983 Clouds 12 1009 57 4314 4.52 6 20:38 27.03.2021
984 Clouds 12 1009 55 10000 4.64 10 20:19 27.03.2021
985 Rain 13 1009 54 10000 4.38 6 19:41 27.03.2021
986 Rain 13 1010 54 10000 4.1 11 19:22 27.03.2021
987 Rain 13 1010 54 10000 4.1 11 18:47 27.03.2021
988 Rain 12 1012 55 5302 4.12 20 18:22 27.03.2021
989 Clouds 12 1012 55 5302 4.12 20 17:40 27.03.2021
990 Clouds 12 1013 56 6338 3.4 12 17:20 27.03.2021
991 Clouds 12 1013 56 6338 3.4 12 16:48 27.03.2021
992 Clouds 11 1015 60 10000 3 359 16:27 27.03.2021
993 Clouds 11 1015 60 10000 3 359 15:46 27.03.2021
994 Clouds 10 1016 65 10000 2.78 1 15:20 27.03.2021
995 Clouds 10 1016 65 10000 2.78 1 14:44 27.03.2021
996 Clouds 8 1017 68 10000 2.4 7 13:40 27.03.2021
997 Clouds 7 1018 77 10000 1.74 10 13:21 27.03.2021
998 Clouds 7 1018 77 10000 1.74 10 12:50 27.03.2021
999 Clouds 6 1017 91 10000 1.28 18 11:59 27.03.2021
1000 Clouds 6 1017 91 10000 1.28 18 11:38 27.03.2021
1001 Clouds 5 1017 94 8485 1.63 359 11:19 27.03.2021
1002 Clouds 5 1017 94 8485 1.63 359 10:42 27.03.2021
1003 Clouds 6 1016 93 5450 1.61 3 10:22 27.03.2021
1004 Clouds 6 1015 91 8080 1.84 17 09:22 27.03.2021
1005 Clouds 6 1015 91 8080 1.84 17 08:42 27.03.2021
1006 Clouds 6 1016 89 10000 1.68 11 08:18 27.03.2021
1007 Clouds 6 1016 89 10000 1.83 351 07:32 27.03.2021
1008 Clouds 6 1016 86 10000 1.9 6 06:43 27.03.2021
1009 Clouds 7 1017 80 10000 1 358 04:57 27.03.2021
1010 Clouds 7 1017 80 10000 1 358 04:39 27.03.2021
1011 Clouds 7 1015 80 10000 1.96 303 00:48 27.03.2021
1012 Clouds 7 1016 81 10000 3.63 26 00:27 27.03.2021
1013 Clouds 7 1016 81 10000 3.63 26 23:48 26.03.2021
1014 Clouds 7 1015 84 10000 2.78 36 22:53 26.03.2021
1015 Rain 7 1015 84 10000 2.78 36 22:34 26.03.2021
1016 Clouds 14 1008 47 10000 2.96 33 21:25 26.03.2021
1017 Clouds 14 1008 47 10000 2.96 33 20:58 26.03.2021
1018 Clouds 14 1008 47 10000 2.96 33 20:32 26.03.2021
1019 Clouds 14 1008 43 10000 3.73 69 19:56 26.03.2021
1020 Clouds 14 1008 43 10000 2.91 65 19:37 26.03.2021
1021 Clouds 15 1008 40 10000 2.7 64 19:18 26.03.2021
1022 Clouds 15 1008 40 10000 2.7 64 18:41 26.03.2021
1023 Clouds 14 1010 41 10000 2.18 42 18:19 26.03.2021
1024 Clouds 14 1010 41 10000 2.18 42 17:45 26.03.2021
1025 Clouds 14 1010 41 10000 2.18 42 17:45 26.03.2021
1026 Clouds 15 1036 55 10000 1.97 20 16:56 26.03.2021
1027 Clouds 15 1036 55 10000 1.97 20 16:32 26.03.2021
1028 Clouds 12 1037 66 10000 2.06 240 15:51 26.03.2021
1029 Clouds 12 1037 66 10000 2.06 240 15:21 26.03.2021
1030 Clouds 10 1037 71 10000 2.57 240 14:24 26.03.2021
1031 Clouds 8 1036 76 10000 3.6 240 13:34 26.03.2021
1032 Clouds 9 1016 62 10000 1.14 331 12:50 26.03.2021
1033 Clouds 8 1016 73 10000 0.74 311 12:24 26.03.2021
1034 Clouds 8 1016 73 10000 0.74 311 11:35 26.03.2021
1035 Clouds 7 1015 76 10000 0.76 308 10:55 26.03.2021
1036 Clouds 7 1015 76 10000 0.76 308 10:35 26.03.2021
1037 Clouds 7 1014 77 10000 0.89 304 09:44 26.03.2021
1038 Clouds 7 1013 78 10000 1.18 298 09:22 26.03.2021
1039 Clouds 7 1013 78 10000 1.18 298 08:40 26.03.2021
1040 Clouds 8 1013 78 10000 1.38 296 08:21 26.03.2021
1041 Clear 8 1014 80 10000 1.51 318 07:23 26.03.2021
1042 Clear 8 1014 80 10000 1.51 318 06:58 26.03.2021
1043 Clear 8 1014 80 10000 1.51 318 06:35 26.03.2021
1044 Clear 8 1014 77 10000 1.87 337 05:31 26.03.2021
1045 Clear 10 1014 68 10000 1.55 97 01:59 26.03.2021
1046 Clouds 10 1014 67 10000 2.23 128 00:32 26.03.2021
1047 Clouds 11 1012 61 10000 2.03 127 23:44 25.03.2021
1048 Clouds 12 1010 52 10000 2.46 56 23:20 25.03.2021
1049 Rain 12 1010 52 10000 2.46 56 22:36 25.03.2021
1050 Rain 12 1010 52 10000 2.87 0 21:53 25.03.2021
1051 Rain 12 1010 52 10000 2.87 0 21:34 25.03.2021
1052 Clouds 15 1008 38 10000 1.55 329 20:45 25.03.2021
1053 Clouds 15 1008 32 10000 0.95 2 20:26 25.03.2021
1054 Clouds 15 1008 32 10000 0.95 2 19:49 25.03.2021
1055 Clouds 15 1008 32 10000 0.95 2 19:49 25.03.2021
1056 Clouds 16 1035 59 10000 0.95 2 19:31 25.03.2021
1057 Clouds 16 1035 59 10000 2.19 19 18:51 25.03.2021
1058 Clouds 16 1035 59 10000 1.71 13 18:28 25.03.2021
1059 Clouds 15 1037 58 10000 1.54 60 17:57 25.03.2021
1060 Clouds 15 1037 58 10000 1.54 60 17:37 25.03.2021
1061 Clouds 13 1038 62 10000 2.06 240 16:56 25.03.2021
1062 Clouds 13 1038 62 10000 2.06 240 16:33 25.03.2021
1063 Clouds 10 1038 66 10000 2.57 240 15:49 25.03.2021
1064 Clouds 10 1038 66 10000 2.57 240 15:25 25.03.2021
1065 Clear 8 1038 76 10000 3.6 240 14:49 25.03.2021
1066 Clear 8 1038 76 10000 3.6 240 14:29 25.03.2021
1067 Clouds 6 1037 87 10000 3.09 240 13:26 25.03.2021
1068 Clouds 4 1037 93 10000 2.06 240 12:46 25.03.2021
1069 Clouds 4 1037 93 10000 2.06 240 12:22 25.03.2021
1070 Clouds 4 1037 93 10000 2.06 240 12:22 25.03.2021
1071 Clouds 7 1017 78 10000 0.8 336 11:58 25.03.2021
1072 Clouds 7 1017 78 10000 0.8 336 11:40 25.03.2021
1073 Clouds 6 1016 81 10000 0.35 300 11:21 25.03.2021
1074 Clouds 6 1016 81 10000 0.35 300 10:48 25.03.2021
1075 Clouds 6 1016 81 10000 0.34 265 10:20 25.03.2021
1076 Clouds 6 1016 81 10000 0.34 265 09:47 25.03.2021
1077 Clouds 6 1015 81 10000 0.89 293 09:29 25.03.2021
1078 Clouds 6 1015 81 10000 0.89 293 08:36 25.03.2021
1079 Rain 7 1015 79 10000 1.28 325 07:50 25.03.2021
1080 Clouds 7 1016 76 10000 1.94 341 06:48 25.03.2021
1081 Clouds 8 1016 74 10000 1.65 359 06:24 25.03.2021
1082 Clouds 8 1017 73 10000 0.36 329 05:21 25.03.2021
1083 Clouds 8 1017 72 10000 0.43 199 02:28 25.03.2021
1084 Rain 6 1017 82 10000 1.39 290 00:20 25.03.2021
1085 Rain 6 1017 82 10000 1.39 290 23:48 24.03.2021
1086 Clouds 7 1015 80 10000 2.07 292 23:23 24.03.2021
1087 Clouds 7 1015 80 10000 2.07 292 22:41 24.03.2021
1088 Clouds 11 1011 59 10000 1.18 305 22:19 24.03.2021
1089 Clouds 11 1011 59 10000 1.18 305 21:41 24.03.2021
1090 Clouds 12 1010 53 10000 2.24 81 21:20 24.03.2021
1091 Clouds 12 1010 53 10000 2.24 81 20:41 24.03.2021
1092 Clouds 13 1011 50 10000 2.93 68 20:19 24.03.2021
1093 Rain 15 1036 63 10000 7.72 70 19:34 24.03.2021
1094 Clouds 15 1036 63 10000 7.72 70 18:58 24.03.2021
1095 Clouds 15 1036 63 10000 7.72 70 18:39 24.03.2021
1096 Clouds 15 1036 63 10000 7.72 70 18:19 24.03.2021
1097 Clouds 14 1037 67 10000 3.6 60 17:41 24.03.2021
1098 Clouds 14 1037 67 10000 3.6 60 17:22 24.03.2021
1099 Clouds 13 1038 71 10000 2.57 60 16:42 24.03.2021
1100 Clouds 13 1038 71 10000 2.57 60 16:23 24.03.2021
1101 Clouds 12 1039 76 10000 1.81 4 15:43 24.03.2021
1102 Clouds 12 1039 76 10000 1.5 355 15:23 24.03.2021
1103 Clouds 9 1039 87 10000 1.5 355 14:42 24.03.2021
1104 Clouds 9 1039 87 10000 1.38 355 14:24 24.03.2021
1105 Clouds 8 1038 87 10000 1.38 355 13:52 24.03.2021
1106 Clouds 8 1038 87 10000 1.11 354 13:27 24.03.2021
1107 Clouds 6 1037 93 10000 1.11 354 12:42 24.03.2021
1108 Clouds 6 1037 93 10000 1.16 334 12:21 24.03.2021
1109 Clouds 5 1019 89 10000 1.16 334 11:42 24.03.2021
1110 Clouds 5 1019 91 10000 1.23 333 10:57 24.03.2021
1111 Clouds 5 1019 91 10000 1.23 333 10:36 24.03.2021
1112 Clouds 5 1018 92 10000 1.32 334 09:58 24.03.2021
1113 Clouds 5 1018 92 10000 1.32 334 09:58 24.03.2021
1114 Clouds 5 1018 92 10000 1.32 334 09:38 24.03.2021
1115 Clouds 5 1017 93 3932 1.43 319 09:18 24.03.2021
1116 Clouds 5 1017 93 3932 1.43 319 08:47 24.03.2021
1117 Clouds 5 1017 94 4266 1.87 318 08:24 24.03.2021
1118 Clouds 5 1017 94 5778 1.75 324 07:31 24.03.2021
1119 Clear 6 1018 92 10000 1.95 330 06:51 24.03.2021
1120 Clear 8 1018 80 10000 1.91 12 03:56 24.03.2021
1121 Clouds 9 1015 73 10000 2.55 72 00:47 24.03.2021
1122 Clouds 9 1014 67 10000 3.07 76 23:56 23.03.2021
1123 Clouds 11 1011 53 10000 3.15 76 23:21 23.03.2021
1124 Clouds 11 1011 53 10000 3.15 76 22:52 23.03.2021
1125 Clouds 11 1011 53 10000 3.15 76 22:31 23.03.2021
1126 Clouds 13 1010 42 10000 2.12 86 21:52 23.03.2021
1127 Clouds 13 1010 42 10000 2.12 86 21:33 23.03.2021
1128 Clouds 14 1009 36 10000 1.2 64 20:48 23.03.2021
1129 Clouds 14 1010 35 10000 1.1 10 20:29 23.03.2021
1130 Clouds 14 1010 35 10000 1.1 10 19:57 23.03.2021
1131 Clouds 14 1010 35 10000 1.1 10 19:37 23.03.2021
1132 Clouds 13 1012 37 10000 1.96 327 19:19 23.03.2021
1133 Clouds 13 1012 37 10000 1.96 327 18:38 23.03.2021
1134 Clouds 12 1015 43 10000 2.36 336 18:18 23.03.2021
1135 Clouds 12 1015 43 10000 2.36 336 17:43 23.03.2021
1136 Clouds 11 1041 66 10000 2.06 60 17:21 23.03.2021
1137 Clouds 11 1041 66 10000 2.06 60 17:21 23.03.2021
1138 Clouds 11 1041 66 10000 2.06 60 16:26 23.03.2021
1139 Clouds 9 1042 81 10000 2.51 334 15:50 23.03.2021
1140 Clouds 9 1042 81 10000 2.68 334 15:23 23.03.2021
1141 Clouds 8 1041 87 10000 2.68 334 14:49 23.03.2021
1142 Clouds 8 1041 87 10000 2.47 352 14:19 23.03.2021
1143 Clouds 7 1041 87 10000 2.47 352 13:47 23.03.2021
1144 Clouds 7 1041 87 10000 1.67 18 13:25 23.03.2021
1145 Clouds 6 1040 93 10000 1.7 21 12:46 23.03.2021
1146 Clouds 6 1040 93 10000 1.5 40 12:26 23.03.2021
1147 Clouds 4 1023 91 7507 1.5 40 11:49 23.03.2021
1148 Clouds 4 1023 91 7507 1.5 40 11:49 23.03.2021
1149 Clouds 4 1022 92 7951 1.67 46 11:26 23.03.2021
1150 Clouds 4 1022 92 7951 1.67 46 10:42 23.03.2021
1151 Clouds 4 1021 93 5253 1.74 50 10:21 23.03.2021
1152 Clouds 4 1021 93 5253 1.74 50 09:51 23.03.2021
1153 Clouds 4 1020 93 4878 1.64 52 09:23 23.03.2021
1154 Clouds 4 1020 93 4878 1.64 52 08:55 23.03.2021
1155 Clouds 4 1020 93 4878 1.64 52 08:37 23.03.2021
1156 Clouds 5 1020 92 10000 1.89 55 08:19 23.03.2021
1157 Clouds 5 1020 90 10000 1.97 48 07:28 23.03.2021
1158 Clouds 6 1020 83 10000 2.39 41 06:53 23.03.2021
1159 Clouds 7 1020 74 10000 2.72 36 03:57 23.03.2021
1160 Clouds 7 1020 73 10000 2.86 41 03:18 23.03.2021
1161 Clouds 8 1016 73 10000 3.58 39 23:56 22.03.2021
1162 Clouds 9 1014 66 10000 3.49 45 23:21 22.03.2021
1163 Rain 9 1014 66 10000 3.49 45 22:44 22.03.2021
1164 Rain 10 1014 63 10000 4.12 39 22:21 22.03.2021
1165 Clouds 10 1014 63 10000 4.12 39 21:50 22.03.2021
1166 Clouds 11 1013 58 10000 5.29 26 21:27 22.03.2021
1167 Clouds 11 1013 58 10000 5.29 26 20:49 22.03.2021
1168 Clouds 12 1013 53 10000 5.48 22 20:29 22.03.2021
1169 Clouds 12 1013 53 10000 5.48 22 19:58 22.03.2021
1170 Clouds 11 1039 82 10000 3.6 360 19:39 22.03.2021
1171 Clouds 11 1039 82 10000 3.6 360 19:20 22.03.2021
1172 Clouds 11 1039 82 10000 3.6 360 18:41 22.03.2021
1173 Clouds 11 1039 82 10000 3.6 360 18:22 22.03.2021
1174 Clouds 11 1040 76 10000 3.09 60 17:50 22.03.2021
1175 Clouds 11 1040 76 10000 3.09 60 17:22 22.03.2021
1176 Clouds 10 1041 81 8000 2.06 60 16:57 22.03.2021
1177 Clouds 10 1041 81 8000 2.06 60 16:39 22.03.2021
1178 Clouds 9 1042 87 10000 3.02 33 15:43 22.03.2021
1179 Clouds 9 1042 87 10000 2.4 26 15:25 22.03.2021
1180 Clouds 9 1020 69 10000 2.4 26 14:59 22.03.2021
1181 Clouds 6 1041 93 10000 2.4 26 14:34 22.03.2021
1182 Clouds 7 1021 74 10000 1.8 28 13:52 22.03.2021
1183 Clouds 7 1021 74 10000 1.8 28 13:34 22.03.2021
1184 Clouds 7 1021 77 10000 1.66 31 12:59 22.03.2021
1185 Clouds 7 1021 77 10000 1.66 31 12:41 22.03.2021
1186 Clouds 6 1020 80 10000 0.76 40 12:18 22.03.2021
1187 Clouds 6 1020 80 10000 0.76 40 11:41 22.03.2021
1188 Clouds 6 1020 82 10000 0.5 359 11:21 22.03.2021
1189 Clouds 6 1020 82 10000 0.5 359 10:42 22.03.2021
1190 Clouds 5 1019 85 10000 0.78 19 10:22 22.03.2021
1191 Clouds 5 1019 85 10000 0.78 19 09:37 22.03.2021
1192 Clouds 5 1019 90 9841 1.22 34 08:59 22.03.2021
1193 Clouds 5 1019 90 9841 1.22 34 08:41 22.03.2021
1194 Clouds 4 1019 93 6965 1.39 39 08:23 22.03.2021
1195 Clouds 4 1019 93 6965 1.39 39 07:43 22.03.2021
1196 Clouds 5 1020 93 10000 1.15 26 06:52 22.03.2021
1197 Clouds 5 1020 92 10000 1.44 29 05:43 22.03.2021
1198 Clouds 6 1019 86 10000 1.97 41 01:58 22.03.2021
1199 Clouds 8 1017 75 10000 3.03 38 00:27 22.03.2021
1200 Clouds 8 1017 75 10000 3.03 38 23:53 21.03.2021
1201 Clouds 9 1015 66 10000 3.02 26 23:19 21.03.2021
1202 Clouds 9 1015 66 10000 3.02 26 22:55 21.03.2021
1203 Clouds 10 1015 64 10000 2.87 33 21:58 21.03.2021
1204 Clouds 10 1015 64 10000 2.87 33 21:39 21.03.2021
1205 Clouds 10 1015 65 10000 3.02 40 21:21 21.03.2021
1206 Clouds 10 1015 65 10000 3.02 40 20:41 21.03.2021
1207 Clouds 10 1016 66 10000 2.91 19 20:23 21.03.2021
1208 Clouds 10 1016 66 10000 2.91 19 19:52 21.03.2021
1209 Clouds 9 1017 71 10000 2.84 18 19:21 21.03.2021
1210 Rain 9 1017 68 10000 2.71 8 18:47 21.03.2021
1211 Clouds 8 1019 77 10000 2.62 17 18:27 21.03.2021
1212 Clouds 8 1019 77 10000 2.62 17 17:46 21.03.2021
1213 Clouds 6 1020 84 10000 2.17 8 17:20 21.03.2021
1214 Clouds 6 1020 84 10000 2.17 8 16:58 21.03.2021
1215 Rain 6 1020 84 10000 2.17 8 16:32 21.03.2021
1216 Clouds 6 1021 87 10000 2.64 3 15:58 21.03.2021
1217 Clouds 6 1021 87 10000 2.64 3 15:39 21.03.2021
1218 Clouds 6 1021 87 10000 2.57 6 15:19 21.03.2021
1219 Clouds 6 1021 87 10000 2.57 6 14:44 21.03.2021
1220 Clouds 6 1021 86 10000 2.05 32 14:26 21.03.2021
1221 Clouds 6 1021 86 10000 2.05 32 13:54 21.03.2021
1222 Clouds 5 1021 94 1264 3 60 12:59 21.03.2021
1223 Clouds 5 1021 94 1264 3 60 12:41 21.03.2021
1224 Clouds 6 1020 90 4220 2.05 68 12:22 21.03.2021
1225 Clouds 6 1019 88 10000 1.81 87 11:28 21.03.2021
1226 Clouds 6 1019 88 10000 1.81 87 10:59 21.03.2021
1227 Clouds 6 1019 88 10000 1.81 87 10:41 21.03.2021
1228 Clouds 6 1018 85 10000 1.82 95 10:22 21.03.2021
1229 Clouds 6 1018 85 10000 1.82 95 09:44 21.03.2021
1230 Clouds 6 1017 86 10000 2.14 98 09:26 21.03.2021
1231 Rain 6 1017 86 10000 2.14 98 08:39 21.03.2021
1232 Rain 6 1017 87 9050 1.64 105 08:21 21.03.2021
1233 Rain 6 1017 87 9050 1.64 105 07:38 21.03.2021
1234 Rain 5 1018 87 10000 1.94 181 06:56 21.03.2021
1235 Rain 5 1018 87 8349 1.13 184 05:45 21.03.2021
1236 Rain 9 1015 73 10000 1.34 124 02:23 21.03.2021
1237 Rain 10 1013 70 8092 1.99 85 00:42 21.03.2021
1238 Rain 10 1011 67 9323 1.84 95 00:22 21.03.2021
1239 Clouds 10 1011 67 9323 1.84 95 23:48 20.03.2021
1240 Clouds 11 1009 64 6798 1.98 98 23:22 20.03.2021
1241 Clouds 11 1009 64 6798 1.98 98 22:55 20.03.2021
1242 Rain 11 1008 61 6433 2.39 108 22:22 20.03.2021
1243 Clouds 11 1008 61 6433 2.39 108 21:47 20.03.2021
1244 Clouds 12 1008 58 6567 2.65 119 21:25 20.03.2021
1245 Rain 12 1008 58 6567 2.65 119 20:45 20.03.2021
1246 Clouds 12 1008 57 6776 2.42 131 20:23 20.03.2021
1247 Clouds 12 1008 57 6776 2.42 131 19:51 20.03.2021
1248 Clouds 12 1009 56 6827 1.76 132 19:28 20.03.2021
1249 Clouds 12 1010 54 8598 1.93 144 18:50 20.03.2021
1250 Clouds 12 1011 55 10000 1.64 153 18:27 20.03.2021
1251 Clouds 12 1011 55 10000 1.64 153 17:56 20.03.2021
1252 Clouds 12 1011 55 10000 1.64 153 17:33 20.03.2021
1253 Clouds 11 1013 61 10000 1.27 149 16:56 20.03.2021
1254 Clouds 11 1013 61 10000 1.27 149 16:37 20.03.2021
1255 Clouds 9 1014 68 10000 1.26 126 16:18 20.03.2021
1256 Clouds 9 1014 68 10000 1.26 126 15:40 20.03.2021
1257 Clouds 8 1015 69 10000 1.02 64 14:55 20.03.2021
1258 Clouds 8 1015 69 10000 1.02 64 14:31 20.03.2021
1259 Clouds 8 1015 68 10000 0.89 16 13:56 20.03.2021
1260 Clouds 7 1015 70 10000 0.78 4 13:24 20.03.2021
1261 Clouds 7 1015 74 10000 0.79 283 12:28 20.03.2021
1262 Clouds 7 1015 74 10000 0.79 283 11:55 20.03.2021
1263 Clouds 7 1015 74 10000 0.79 283 11:36 20.03.2021
1264 Clouds 6 1014 79 10000 1.27 317 11:18 20.03.2021
1265 Clouds 6 1014 79 10000 1.27 317 10:38 20.03.2021
1266 Clouds 7 1013 78 10000 1.69 332 10:19 20.03.2021
1267 Clouds 7 1013 78 10000 1.69 332 09:42 20.03.2021
1268 Clouds 7 1013 79 10000 1.55 341 09:21 20.03.2021
1269 Clouds 7 1013 79 10000 1.55 341 09:21 20.03.2021
1270 Clouds 7 1013 79 10000 1.55 341 08:48 20.03.2021
1271 Clouds 8 1013 78 10000 1.25 11 07:58 20.03.2021
1272 Clouds 8 1013 78 10000 1.25 11 07:39 20.03.2021
1273 Clouds 8 1013 78 10000 1.41 42 07:20 20.03.2021
1274 Clouds 8 1013 79 10000 1.6 43 06:34 20.03.2021
1275 Rain 8 1013 79 10000 0.92 54 04:44 20.03.2021
1276 Clouds 8 1012 78 10000 0.77 35 03:43 20.03.2021
1277 Clouds 9 1009 74 10000 1.39 28 00:43 20.03.2021
1278 Clouds 10 1008 71 10000 2.14 29 23:45 19.03.2021
1279 Clouds 10 1006 65 10000 2.74 5 23:18 19.03.2021
1280 Clouds 10 1006 65 10000 2.74 5 22:42 19.03.2021
1281 Clouds 12 1005 58 4275 3.14 34 22:22 19.03.2021
1282 Clouds 12 1005 58 4275 3.14 34 21:38 19.03.2021
1283 Clouds 12 1005 58 4275 3.14 34 21:38 19.03.2021
1284 Clouds 12 1006 52 10000 2.96 55 21:19 19.03.2021
1285 Clouds 12 1006 52 10000 2.96 55 20:44 19.03.2021
1286 Clouds 13 1006 49 10000 2.87 41 20:26 19.03.2021
1287 Clouds 13 1006 49 10000 2.87 41 19:47 19.03.2021
1288 Clouds 13 1008 47 10000 3.63 32 19:22 19.03.2021
1289 Clouds 13 1008 49 10000 3.6 38 18:49 19.03.2021
1290 Clouds 13 1009 52 10000 3.41 30 18:21 19.03.2021
1291 Clouds 13 1009 52 10000 3.41 30 17:56 19.03.2021
1292 Clouds 13 1009 52 10000 3.41 30 17:37 19.03.2021
1293 Clouds 12 1011 56 10000 3.03 23 17:18 19.03.2021
1294 Clouds 12 1011 56 10000 3.03 23 16:43 19.03.2021
1295 Clouds 11 1012 63 10000 2.45 13 16:23 19.03.2021
1296 Clouds 11 1012 63 10000 2.45 13 15:33 19.03.2021
1297 Clouds 9 1014 70 10000 2.43 2 14:51 19.03.2021
1298 Clouds 9 1014 70 10000 2.43 2 14:33 19.03.2021
1299 Clouds 8 1014 76 10000 2.46 358 13:50 19.03.2021
1300 Clouds 7 1015 82 10000 2.33 352 13:19 19.03.2021
1301 Clouds 7 1015 82 10000 2.33 352 12:42 19.03.2021
1302 Clouds 6 1015 89 10000 1.81 342 12:18 19.03.2021
1303 Clouds 6 1015 89 10000 1.81 342 11:33 19.03.2021
1304 Clouds 6 1014 90 10000 1.4 353 10:43 19.03.2021
1305 Clouds 6 1014 89 10000 1.72 0 10:22 19.03.2021
1306 Clouds 6 1014 89 10000 1.72 0 09:44 19.03.2021
1307 Clouds 6 1013 91 7686 2.17 356 09:25 19.03.2021
1308 Clouds 6 1013 91 7686 2.17 356 08:52 19.03.2021
1309 Clouds 6 1014 92 5276 2.1 357 08:28 19.03.2021
1310 Clouds 6 1014 92 5276 2.1 357 07:50 19.03.2021
1311 Clouds 6 1014 92 5276 2.1 357 07:31 19.03.2021
1312 Clouds 7 1014 86 10000 1.82 350 05:29 19.03.2021
1313 Clouds 8 1013 83 10000 2.41 359 02:20 19.03.2021
1314 Clouds 9 1011 75 10000 2.88 17 23:57 18.03.2021
1315 Clouds 10 1010 69 10000 3.1 30 23:29 18.03.2021
1316 Clouds 10 1010 69 10000 3.1 30 22:52 18.03.2021
1317 Clouds 11 1009 64 10000 3.65 32 22:26 18.03.2021
1318 Clouds 11 1009 64 10000 3.65 32 22:26 18.03.2021
1319 Clouds 11 1009 64 10000 3.65 32 21:55 18.03.2021
1320 Clouds 11 1009 64 10000 3.65 32 21:36 18.03.2021
1321 Clouds 11 1009 61 10000 3.03 45 20:43 18.03.2021
1322 Clouds 11 1010 59 9095 2.5 56 20:23 18.03.2021
1323 Clouds 11 1010 59 9095 2.5 56 19:43 18.03.2021
1324 Clouds 11 1011 60 10000 1.97 62 19:24 18.03.2021
1325 Clouds 11 1011 60 10000 1.97 62 18:53 18.03.2021
1326 Clouds 11 1012 62 7967 2.45 44 18:26 18.03.2021
1327 Clouds 11 1012 62 7967 2.45 44 18:26 18.03.2021
1328 Clouds 11 1012 62 7967 2.45 44 17:44 18.03.2021
1329 Clouds 10 1014 64 10000 2.58 29 17:20 18.03.2021
1330 Clouds 10 1014 64 10000 2.58 29 16:42 18.03.2021
1331 Clouds 10 1016 66 9554 2.4 14 16:23 18.03.2021
1332 Clouds 10 1016 66 9554 2.4 14 15:41 18.03.2021
1333 Clouds 9 1017 71 10000 2.09 6 15:23 18.03.2021
1334 Clouds 9 1017 71 10000 2.09 6 14:52 18.03.2021
1335 Clouds 8 1018 76 10000 1.86 9 14:29 18.03.2021
1336 Clouds 8 1018 76 10000 1.86 9 13:49 18.03.2021
1337 Clouds 7 1018 84 10000 2.06 357 13:25 18.03.2021
1338 Clouds 7 1018 80 10000 1.86 23 12:42 18.03.2021
1339 Clouds 6 1018 86 10000 2.24 25 12:24 18.03.2021
1340 Clouds 6 1018 86 10000 2.24 25 11:50 18.03.2021
1341 Clouds 6 1018 86 10000 2.24 25 11:31 18.03.2021
1342 Clouds 6 1017 86 10000 2.18 32 10:44 18.03.2021
1343 Clouds 6 1016 87 10000 2 45 10:25 18.03.2021
1344 Clouds 6 1016 87 10000 2 45 09:54 18.03.2021
1345 Clouds 6 1016 88 10000 1.97 35 09:28 18.03.2021
1346 Clouds 6 1016 88 10000 1.97 35 08:47 18.03.2021
1347 Clouds 7 1016 84 10000 1.79 10 08:29 18.03.2021
1348 Clouds 7 1016 84 10000 1.79 10 07:51 18.03.2021
1349 Clouds 7 1017 81 10000 2.05 7 07:24 18.03.2021
1350 Clouds 7 1017 86 10000 1.81 28 06:28 18.03.2021
1351 Clouds 7 1017 86 10000 1.81 28 05:53 18.03.2021
1352 Clouds 8 1014 80 10000 3.14 24 01:24 18.03.2021
1353 Clouds 9 1013 79 10000 4.08 46 23:59 17.03.2021
1354 Clouds 10 1011 70 6726 4.2 47 22:54 17.03.2021
1355 Clouds 11 1010 61 6336 2.65 61 22:26 17.03.2021
1356 Clouds 11 1010 61 6336 2.65 61 21:57 17.03.2021
1357 Clouds 11 1010 61 6336 2.65 61 21:39 17.03.2021
1358 Clouds 12 1010 57 10000 2.21 85 21:19 17.03.2021
1359 Clouds 12 1010 57 10000 2.21 85 20:43 17.03.2021
1360 Clouds 13 1010 54 7419 2.4 88 20:24 17.03.2021
1361 Clouds 13 1010 54 7419 2.4 88 19:46 17.03.2021
1362 Clouds 13 1011 54 10000 2.24 85 19:22 17.03.2021
1363 Clouds 13 1011 54 10000 2.24 85 18:55 17.03.2021
1364 Clouds 13 1011 54 10000 2.24 85 18:37 17.03.2021
1365 Clouds 12 1013 55 10000 1.91 78 17:56 17.03.2021
1366 Clouds 12 1014 56 10000 2.57 81 17:27 17.03.2021
1367 Clouds 12 1014 56 10000 2.57 81 16:54 17.03.2021
1368 Clouds 12 1014 56 10000 2.57 81 16:36 17.03.2021
1369 Clouds 12 1015 55 10000 2.11 69 16:18 17.03.2021
1370 Clouds 12 1015 55 10000 2.11 69 15:37 17.03.2021
1371 Clouds 11 1016 56 10000 1.53 67 14:45 17.03.2021
1372 Clouds 10 1016 61 10000 1.29 88 14:27 17.03.2021
1373 Clouds 10 1016 61 10000 1.29 88 13:56 17.03.2021
1374 Clouds 10 1016 61 10000 1.29 88 13:32 17.03.2021
1375 Clouds 9 1017 66 10000 1.14 90 12:58 17.03.2021
1376 Clouds 9 1017 66 10000 1.14 90 12:34 17.03.2021
1377 Clouds 7 1016 79 10000 0.96 106 11:53 17.03.2021
1378 Clouds 6 1015 81 10000 0.73 101 11:24 17.03.2021
1379 Clouds 6 1015 81 10000 0.73 101 10:57 17.03.2021
1380 Clouds 6 1015 81 10000 0.73 101 10:34 17.03.2021
1381 Clouds 6 1014 81 10000 0.51 92 09:59 17.03.2021
1382 Clouds 6 1014 81 10000 0.51 92 09:41 17.03.2021
1383 Clouds 6 1013 80 10000 0.27 58 09:19 17.03.2021
1384 Clouds 6 1013 80 10000 0.27 58 08:39 17.03.2021
1385 Clouds 7 1013 80 10000 0.27 58 08:20 17.03.2021
1386 Clouds 7 1013 80 10000 0.27 58 07:36 17.03.2021
1387 Clouds 7 1013 80 10000 0.12 319 06:47 17.03.2021
1388 Clouds 9 1013 69 10000 1.52 12 04:27 17.03.2021
1389 Clouds 9 1013 69 10000 1.52 12 03:30 17.03.2021
1390 Clouds 10 1009 64 10000 1.41 56 00:44 17.03.2021
1391 Clouds 11 1008 58 10000 1.55 51 00:24 17.03.2021
1392 Clouds 13 1006 51 10000 2.93 103 23:25 16.03.2021
1393 Clouds 13 1006 51 10000 2.93 103 22:44 16.03.2021
1394 Clouds 14 1005 43 10000 2.14 183 22:25 16.03.2021
1395 Clouds 14 1005 43 10000 2.14 183 21:43 16.03.2021
1396 Clouds 14 1005 44 10000 2.17 138 21:25 16.03.2021
1397 Clouds 14 1005 44 10000 2.17 138 20:56 16.03.2021
1398 Clouds 14 1006 42 10000 1.83 165 20:19 16.03.2021
1399 Clouds 14 1006 42 10000 1.83 165 19:48 16.03.2021
1400 Clouds 16 1033 55 10000 1.03 196 19:27 16.03.2021
1401 Clouds 16 1033 55 10000 1.99 147 18:56 16.03.2021
1402 Clouds 16 1033 55 10000 1.99 147 18:36 16.03.2021
1403 Clouds 15 1034 58 10000 0.32 140 17:55 16.03.2021
1404 Clouds 15 1034 58 10000 0.32 140 17:36 16.03.2021
1405 Clouds 13 1035 62 10000 5.14 240 16:58 16.03.2021
1406 Clouds 13 1035 62 10000 5.14 240 16:38 16.03.2021
1407 Clouds 13 1035 62 10000 5.14 240 16:19 16.03.2021
1408 Clouds 11 1035 71 10000 3.09 240 15:40 16.03.2021
1409 Clouds 11 1035 71 10000 3.09 240 15:19 16.03.2021
1410 Clouds 9 1036 81 10000 4.12 240 14:56 16.03.2021
1411 Clouds 9 1036 81 10000 4.12 240 14:38 16.03.2021
1412 Clouds 9 1036 81 10000 4.12 240 14:18 16.03.2021
1413 Clouds 7 1035 87 10000 3.6 240 13:42 16.03.2021
1414 Clouds 7 1035 87 10000 3.6 240 13:21 16.03.2021
1415 Clouds 5 1035 93 10000 2.06 240 12:43 16.03.2021
1416 Clouds 5 1035 93 10000 2.06 240 12:23 16.03.2021
1417 Clouds 7 1014 76 10000 1.72 277 11:36 16.03.2021
1418 Clouds 7 1014 79 10000 1.13 269 10:53 16.03.2021
1419 Clouds 7 1014 79 10000 1.23 275 10:24 16.03.2021
1420 Clouds 7 1014 79 10000 1.23 275 09:47 16.03.2021
1421 Clouds 7 1013 80 10000 1.03 286 09:29 16.03.2021
1422 Clouds 7 1013 80 10000 1.03 286 08:57 16.03.2021
1423 Clouds 7 1013 80 10000 1.03 286 08:39 16.03.2021
1424 Clouds 7 1013 81 10000 0.87 303 08:18 16.03.2021
1425 Clouds 7 1013 81 10000 0.87 303 07:33 16.03.2021
1426 Clouds 7 1014 83 10000 1.15 299 06:39 16.03.2021
1427 Clouds 7 1015 84 10000 1.48 322 05:37 16.03.2021
1428 Clouds 7 1015 83 10000 1.82 330 05:18 16.03.2021
1429 Clouds 8 1015 77 10000 2.64 22 02:45 16.03.2021
1430 Clouds 9 1013 75 10000 2.63 39 02:23 16.03.2021
1431 Clouds 10 1010 73 5703 2.78 73 23:56 15.03.2021
1432 Clouds 10 1010 73 5703 2.78 73 23:56 15.03.2021
1433 Clouds 11 1009 66 5476 3.32 61 23:28 15.03.2021
1434 Clouds 11 1009 66 5476 3.32 61 22:51 15.03.2021
1435 Clouds 11 1009 66 5476 3.32 61 22:33 15.03.2021
1436 Clouds 12 1008 56 10000 3.29 35 21:55 15.03.2021
1437 Clouds 12 1008 56 10000 3.29 35 21:34 15.03.2021
1438 Rain 13 1008 49 10000 2.77 24 20:58 15.03.2021
1439 Clouds 13 1008 49 10000 2.77 24 20:40 15.03.2021
1440 Clouds 13 1010 50 10000 2.75 25 20:21 15.03.2021
1441 Clouds 13 1010 50 10000 2.75 25 19:50 15.03.2021
1442 Clouds 14 1036 58 10000 2.57 60 19:31 15.03.2021
1443 Clouds 14 1036 58 10000 2.57 60 18:57 15.03.2021
1444 Clouds 14 1036 58 10000 2.57 60 18:28 15.03.2021
1445 Clouds 12 1037 66 10000 2.56 2 17:56 15.03.2021
1446 Clouds 12 1037 66 10000 2.56 2 17:32 15.03.2021
1447 Clouds 9 1038 81 10000 2.06 60 16:52 15.03.2021
1448 Clouds 9 1038 81 10000 2.06 60 16:34 15.03.2021
1449 Clouds 8 1039 87 10000 2.51 4 15:46 15.03.2021
1450 Clouds 8 1039 87 10000 1.84 359 15:26 15.03.2021
1451 Clouds 7 1038 93 10000 1.84 359 14:45 15.03.2021
1452 Clouds 7 1038 93 10000 1.33 357 14:23 15.03.2021
1453 Clouds 7 1037 93 10000 1.33 357 13:49 15.03.2021
1454 Clouds 7 1037 93 10000 1.07 351 13:27 15.03.2021
1455 Clouds 5 1019 87 10000 1.2 355 12:50 15.03.2021
1456 Clouds 4 1019 94 5426 1 351 12:20 15.03.2021
1457 Clouds 4 1019 94 5426 1 351 11:56 15.03.2021
1458 Clouds 4 1019 94 5426 1 351 11:37 15.03.2021
1459 Clouds 4 1018 96 7747 1.11 358 10:59 15.03.2021
1460 Clouds 4 1018 96 7747 1.11 358 10:33 15.03.2021
1461 Clouds 4 1018 95 8206 1.3 350 09:54 15.03.2021
1462 Clouds 4 1018 95 8206 1.3 350 09:36 15.03.2021
1463 Clouds 4 1018 93 10000 1.37 4 08:59 15.03.2021
1464 Clouds 4 1018 93 10000 1.37 4 08:41 15.03.2021
1465 Clouds 5 1018 92 8653 1.44 23 08:19 15.03.2021
1466 Clouds 5 1018 92 8653 1.44 23 07:32 15.03.2021
1467 Clouds 5 1018 89 10000 1.59 22 06:44 15.03.2021
1468 Clouds 5 1018 87 10000 1.7 13 05:34 15.03.2021
1469 Clouds 6 1018 79 10000 2.53 39 03:18 15.03.2021
1470 Clouds 8 1014 69 10000 3.95 36 00:21 15.03.2021
1471 Clouds 9 1012 67 10000 3.9 45 23:21 14.03.2021
1472 Clouds 9 1012 67 10000 3.9 45 22:48 14.03.2021
1473 Clouds 10 1012 64 10000 3.71 53 22:25 14.03.2021
1474 Clouds 10 1012 64 10000 3.71 53 21:51 14.03.2021
1475 Clouds 10 1011 62 10000 3.34 54 21:22 14.03.2021
1476 Clouds 10 1011 62 10000 3.34 54 20:50 14.03.2021
1477 Clouds 11 1012 58 10000 3.28 53 20:27 14.03.2021
1478 Clouds 11 1012 58 10000 3.28 53 19:56 14.03.2021
1479 Clouds 11 1012 58 10000 3.28 53 19:37 14.03.2021
1480 Clouds 11 1013 56 7285 2.9 53 19:18 14.03.2021
1481 Clouds 11 1014 57 10000 3 49 18:31 14.03.2021
1482 Clouds 10 1015 56 10000 2.49 40 17:44 14.03.2021
1483 Clouds 9 1017 59 10000 1.71 24 17:24 14.03.2021
1484 Clouds 9 1017 59 10000 1.71 24 16:54 14.03.2021
1485 Clouds 9 1017 59 10000 1.71 24 16:35 14.03.2021
1486 Clouds 8 1018 64 10000 1.74 12 15:59 14.03.2021
1487 Rain 8 1018 64 10000 1.74 12 15:40 14.03.2021
1488 Clouds 7 1020 69 10000 2.07 13 14:51 14.03.2021
1489 Clouds 7 1020 69 10000 2.07 13 14:30 14.03.2021
1490 Clouds 6 1020 75 10000 2.33 18 13:52 14.03.2021
1491 Clouds 6 1020 75 10000 2.33 18 13:52 14.03.2021
1492 Clouds 6 1020 75 10000 2.33 18 13:33 14.03.2021
1493 Clouds 5 1020 83 10000 1.55 41 12:56 14.03.2021
1494 Clouds 5 1020 83 10000 1.55 41 12:37 14.03.2021
1495 Clouds 4 1020 90 10000 1.2 29 12:18 14.03.2021
1496 Clouds 4 1020 90 10000 1.2 29 11:38 14.03.2021
1497 Clouds 4 1019 91 10000 1.14 29 11:18 14.03.2021
1498 Clouds 4 1019 91 10000 1.14 29 10:38 14.03.2021
1499 Clouds 5 1019 90 10000 1.37 25 10:19 14.03.2021
1500 Clouds 5 1019 90 10000 1.37 25 09:55 14.03.2021
1501 Clouds 5 1019 90 10000 1.37 25 09:36 14.03.2021
1502 Clouds 5 1019 90 10000 1.37 25 09:36 14.03.2021
1503 Clouds 5 1018 87 10000 1.7 22 09:18 14.03.2021
1504 Clouds 5 1018 87 10000 1.7 22 08:36 14.03.2021
1505 Clouds 5 1018 85 10000 1.89 24 07:52 14.03.2021
1506 Clouds 6 1019 84 10000 2.02 26 07:26 14.03.2021
1507 Clouds 6 1019 85 10000 2.53 27 05:33 14.03.2021
1508 Clouds 7 1016 79 9446 3.08 53 01:19 14.03.2021
1509 Rain 8 1014 76 7864 3.03 60 00:20 14.03.2021
1510 Clouds 8 1014 76 7864 3.03 60 23:58 13.03.2021
1511 Clouds 8 1014 76 7864 3.03 60 23:38 13.03.2021
1512 Clouds 8 1014 76 7864 3.03 60 23:38 13.03.2021
1513 Clouds 9 1013 67 8800 3.29 63 23:18 13.03.2021
1514 Clouds 9 1013 67 8800 3.29 63 22:44 13.03.2021
1515 Clouds 10 1012 60 10000 2.88 65 21:55 13.03.2021
1516 Clouds 10 1012 60 10000 2.88 65 21:55 13.03.2021
1517 Clouds 10 1012 60 10000 2.88 65 21:35 13.03.2021
1518 Clouds 11 1012 57 10000 2.53 68 20:57 13.03.2021
1519 Rain 11 1012 57 10000 2.53 68 20:37 13.03.2021
1520 Clouds 11 1012 56 10000 2.13 64 20:19 13.03.2021
1521 Clouds 11 1012 56 10000 2.13 64 19:38 13.03.2021
1522 Clouds 10 1014 57 10000 1.73 58 19:20 13.03.2021
1523 Clouds 9 1014 62 10000 2.16 57 18:42 13.03.2021
1524 Clouds 9 1016 63 10000 2.34 47 18:20 13.03.2021
1525 Clouds 9 1016 63 10000 2.34 47 17:47 13.03.2021
1526 Clouds 9 1017 63 9641 1.99 28 17:28 13.03.2021
1527 Clouds 9 1017 63 9641 1.99 28 16:52 13.03.2021
1528 Clouds 9 1017 63 9641 1.99 28 16:34 13.03.2021
1529 Clouds 8 1018 65 10000 2.17 14 15:55 13.03.2021
1530 Clouds 7 1019 70 10000 2.14 15 14:59 13.03.2021
1531 Clouds 7 1019 70 10000 2.14 15 14:41 13.03.2021
1532 Clouds 6 1020 76 10000 2.09 4 14:21 13.03.2021
1533 Clouds 5 1021 81 10000 1.88 5 13:27 13.03.2021
1534 Clouds 5 1021 81 10000 1.88 5 12:52 13.03.2021
1535 Clouds 5 1020 80 10000 1.76 11 12:34 13.03.2021
1536 Clouds 5 1020 87 10000 1.33 15 11:57 13.03.2021
1537 Clouds 5 1020 87 10000 1.33 15 11:38 13.03.2021
1538 Clouds 4 1020 91 10000 1.2 1 11:19 13.03.2021
1539 Clouds 4 1020 91 10000 1.2 1 10:31 13.03.2021
1540 Clouds 4 1019 92 10000 1.41 17 09:59 13.03.2021
1541 Clouds 4 1019 92 10000 1.41 17 09:32 13.03.2021
1542 Clouds 5 1019 90 10000 1.52 20 08:54 13.03.2021
1543 Clouds 5 1019 90 10000 1.52 20 08:54 13.03.2021
1544 Clouds 5 1018 87 10000 1.5 26 08:21 13.03.2021
1545 Clouds 5 1018 87 10000 1.5 26 07:57 13.03.2021
1546 Clouds 5 1018 87 10000 1.5 26 07:33 13.03.2021
1547 Clouds 5 1019 86 10000 1.66 68 05:30 13.03.2021
1548 Clouds 6 1019 81 10000 2 59 02:42 13.03.2021
1549 Clouds 7 1015 77 9367 2.91 42 00:36 13.03.2021
1550 Clouds 8 1013 72 10000 3.51 48 23:46 12.03.2021
1551 Clouds 9 1012 64 8798 3.44 53 23:26 12.03.2021
1552 Clouds 9 1012 64 8798 3.44 53 22:32 12.03.2021
1553 Clouds 10 1011 59 10000 2.86 56 21:59 12.03.2021
1554 Clouds 10 1011 59 10000 2.86 56 21:38 12.03.2021
1555 Clouds 10 1011 59 10000 2.86 56 21:37 12.03.2021
1556 Clouds 10 1011 56 7481 3.04 60 21:18 12.03.2021
1557 Clouds 10 1011 56 7481 3.04 60 20:48 12.03.2021
1558 Clouds 11 1012 53 8637 2.98 62 20:23 12.03.2021
1559 Clouds 11 1012 53 8637 2.98 62 19:45 12.03.2021
1560 Clouds 11 1012 53 8637 2.98 62 19:45 12.03.2021
1561 Clouds 11 1013 51 3871 2.61 59 19:25 12.03.2021
1562 Clouds 11 1013 49 8570 3.05 57 18:50 12.03.2021
1563 Clouds 10 1015 52 9446 2.84 53 18:28 12.03.2021
1564 Clouds 10 1015 52 9446 2.84 53 17:45 12.03.2021
1565 Clouds 10 1017 54 9579 2.66 42 17:27 12.03.2021
1566 Clouds 10 1017 54 9579 2.66 42 16:44 12.03.2021
1567 Clouds 9 1018 58 10000 2.11 22 16:25 12.03.2021
1568 Clouds 9 1018 58 10000 2.11 22 15:38 12.03.2021
1569 Clouds 8 1019 64 10000 1.67 16 15:18 12.03.2021
1570 Clouds 8 1019 64 10000 1.67 16 14:40 12.03.2021
1571 Clouds 6 1020 71 10000 1.13 17 14:18 12.03.2021
1572 Clouds 6 1020 71 10000 1.13 17 13:40 12.03.2021
1573 Clouds 5 1020 81 10000 0.5 352 13:19 12.03.2021
1574 Clouds 5 1021 81 10000 0.67 4 12:49 12.03.2021
1575 Clear 4 1021 90 10000 0.54 9 12:28 12.03.2021
1576 Clear 4 1021 90 10000 0.54 9 11:54 12.03.2021
1577 Clear 4 1021 90 10000 0.54 9 11:30 12.03.2021
1578 Clear 3 1020 94 10000 0.56 22 10:57 12.03.2021
1579 Clear 4 1019 93 10000 0.82 46 10:28 12.03.2021
1580 Clear 4 1019 93 10000 0.82 46 09:58 12.03.2021
1581 Clear 4 1018 91 10000 1.08 50 09:28 12.03.2021
1582 Clear 4 1018 91 10000 1.08 50 08:57 12.03.2021
1583 Clear 4 1018 91 10000 1.08 50 08:38 12.03.2021
1584 Clear 4 1018 89 10000 1.4 31 07:41 12.03.2021
1585 Clouds 5 1018 86 10000 1.48 31 07:19 12.03.2021
1586 Clouds 5 1019 87 10000 1.35 22 06:40 12.03.2021
1587 Clouds 6 1018 74 10000 1.54 49 03:29 12.03.2021
1588 Clouds 6 1015 80 4582 2.36 69 00:52 12.03.2021
1589 Clouds 6 1014 79 3833 3.31 70 23:40 11.03.2021
1590 Clouds 8 1012 68 6987 4.4 63 22:58 11.03.2021
1591 Clouds 8 1012 68 6987 4.4 63 22:38 11.03.2021
1592 Clouds 10 1010 53 10000 4.56 66 22:18 11.03.2021
1593 Clouds 10 1010 53 10000 4.56 66 21:42 11.03.2021
1594 Clouds 12 1009 43 10000 6.41 83 21:21 11.03.2021
1595 Clouds 12 1009 43 10000 6.41 83 20:49 11.03.2021
1596 Clouds 13 1010 36 10000 5.84 89 20:22 11.03.2021
1597 Clouds 13 1010 36 10000 5.84 89 19:48 11.03.2021
1598 Clouds 12 1035 58 10000 5.14 70 19:30 11.03.2021
1599 Clouds 12 1035 58 10000 5.14 70 18:51 11.03.2021
1600 Clouds 12 1035 58 10000 5.14 70 18:33 11.03.2021
1601 Clouds 11 1036 62 10000 1.54 50 17:52 11.03.2021
1602 Clouds 11 1036 62 10000 1.54 50 17:30 11.03.2021
1603 Clouds 11 1036 66 10000 2.57 60 16:32 11.03.2021
1604 Clouds 10 1036 71 10000 2.37 117 15:55 11.03.2021
1605 Clouds 10 1036 71 10000 2.39 118 15:37 11.03.2021
1606 Clouds 10 1036 71 10000 1.17 133 15:19 11.03.2021
1607 Clear 7 1036 76 10000 1.17 133 14:38 11.03.2021
1608 Clear 7 1036 76 10000 0.4 188 14:18 11.03.2021
1609 Clear 5 1035 87 10000 0.4 188 13:43 11.03.2021
1610 Clear 5 1035 87 10000 0.62 284 13:21 11.03.2021
1611 Clear 3 1035 93 10000 2.06 220 12:49 11.03.2021
1612 Clear 3 1035 93 10000 2.06 220 12:27 11.03.2021
1613 Clear 5 1017 77 10000 0.29 297 11:45 11.03.2021
1614 Clear 4 1016 85 10000 0.36 71 11:27 11.03.2021
1615 Clear 4 1016 85 10000 0.36 71 10:50 11.03.2021
1616 Clear 4 1015 85 10000 0.54 70 10:22 11.03.2021
1617 Clear 4 1015 85 10000 0.54 70 09:48 11.03.2021
1618 Clear 5 1015 85 10000 0.29 69 09:29 11.03.2021
1619 Clear 5 1015 85 10000 0.29 69 08:48 11.03.2021
1620 Clear 5 1014 84 10000 0.24 71 08:24 11.03.2021
1621 Clear 5 1014 84 10000 0.24 71 07:44 11.03.2021
1622 Clouds 6 1015 75 10000 0.74 85 06:52 11.03.2021
1623 Clouds 6 1015 75 10000 0.74 85 06:32 11.03.2021
1624 Clouds 6 1016 75 10000 1.98 315 05:47 11.03.2021
1625 Clouds 7 1016 74 10000 2.26 159 02:20 11.03.2021
1626 Clouds 8 1013 61 10000 2.34 56 23:58 10.03.2021
1627 Clouds 9 1012 58 10000 2.65 42 23:22 10.03.2021
1628 Rain 9 1012 58 10000 2.65 42 22:40 10.03.2021
1629 Clouds 10 1010 54 7248 2.97 81 21:58 10.03.2021
1630 Clouds 10 1010 54 7248 2.97 81 21:39 10.03.2021
1631 Clouds 10 1010 55 8301 3.98 96 21:20 10.03.2021
1632 Clouds 11 1010 53 10000 4.11 94 20:42 10.03.2021
1633 Clouds 12 1010 41 10000 4.34 66 20:23 10.03.2021
1634 Clouds 12 1010 41 10000 4.34 66 20:23 10.03.2021
1635 Clouds 12 1010 41 10000 4.34 66 19:40 10.03.2021
1636 Clouds 15 1035 41 10000 7.2 60 19:21 10.03.2021
1637 Clouds 15 1035 41 10000 7.2 60 18:44 10.03.2021
1638 Clouds 15 1035 41 10000 7.2 60 18:23 10.03.2021
1639 Clouds 14 1037 47 10000 6.17 60 17:43 10.03.2021
1640 Clouds 14 1037 47 10000 6.17 60 17:21 10.03.2021
1641 Clear 12 1038 58 10000 5.14 60 16:55 10.03.2021
1642 Clear 12 1038 58 10000 5.14 60 16:37 10.03.2021
1643 Clear 12 1038 58 10000 5.14 60 16:18 10.03.2021
1644 Clear 10 1038 62 10000 3.6 60 15:40 10.03.2021
1645 Clear 10 1038 62 10000 3.6 60 15:21 10.03.2021
1646 Clear 7 1038 70 10000 0.28 13 14:41 10.03.2021
1647 Clear 7 1038 70 10000 0.28 13 14:41 10.03.2021
1648 Clear 7 1038 70 10000 0.28 13 14:41 10.03.2021
1649 Clear 7 1038 70 10000 0.49 271 14:19 10.03.2021
1650 Clear 4 1037 75 10000 0.49 271 13:46 10.03.2021
1651 Clouds 4 1037 75 10000 0.86 250 13:24 10.03.2021
1652 Clouds 1 1037 86 10000 0.86 250 12:44 10.03.2021
1653 Clouds 1 1037 86 10000 0.63 231 12:19 10.03.2021
1654 Clouds 4 1020 76 10000 0.63 231 11:32 10.03.2021
1655 Clouds 2 1020 85 10000 0.54 277 10:58 10.03.2021
1656 Clouds 2 1020 85 10000 0.54 277 10:37 10.03.2021
1657 Clouds 3 1019 85 10000 0.69 312 10:19 10.03.2021
1658 Clouds 3 1019 85 10000 0.69 312 09:42 10.03.2021
1659 Clouds 3 1019 86 10000 0.75 328 09:21 10.03.2021
1660 Clouds 3 1019 86 10000 0.75 328 08:57 10.03.2021
1661 Clouds 3 1019 86 10000 0.75 328 08:38 10.03.2021
1662 Clouds 4 1019 85 10000 0.42 290 08:20 10.03.2021
1663 Clouds 4 1019 85 10000 0.42 290 07:30 10.03.2021
1664 Clouds 4 1020 80 10000 0.36 265 06:56 10.03.2021
1665 Clouds 5 1021 79 10000 0.38 326 06:25 10.03.2021
1666 Clouds 6 1019 62 10000 2.45 32 02:27 10.03.2021
1667 Clear 8 1016 53 10000 3.13 54 23:49 09.03.2021
1668 Clear 10 1014 47 10000 5.1 59 23:20 09.03.2021
1669 Clear 10 1014 47 10000 5.1 59 22:39 09.03.2021
1670 Clear 11 1013 42 10000 4.63 81 22:21 09.03.2021
1671 Clear 11 1013 42 10000 4.63 81 21:46 09.03.2021
1672 Clear 12 1014 40 10000 5.35 93 21:25 09.03.2021
1673 Clear 12 1014 40 10000 5.35 93 20:58 09.03.2021
1674 Clear 12 1014 40 10000 5.35 93 20:40 09.03.2021
1675 Clear 12 1015 39 10000 5.49 96 20:21 09.03.2021
1676 Clear 12 1015 39 10000 5.49 96 19:47 09.03.2021
1677 Clouds 14 1039 51 10000 9.26 60 19:26 09.03.2021
1678 Clouds 14 1039 51 10000 9.26 60 18:48 09.03.2021
1679 Clouds 14 1039 51 10000 9.26 60 18:26 09.03.2021
1680 Clouds 12 1040 58 10000 7.72 60 17:53 09.03.2021
1681 Clouds 12 1040 58 10000 7.72 60 17:53 09.03.2021
1682 Clouds 12 1040 58 10000 7.72 60 17:31 09.03.2021
1683 Clouds 9 1041 66 10000 4.12 360 16:55 09.03.2021
1684 Clouds 9 1041 66 10000 4.12 360 16:36 09.03.2021
1685 Clouds 9 1041 66 10000 4.12 360 16:18 09.03.2021
1686 Clouds 8 1042 71 10000 1.6 110 15:43 09.03.2021
1687 Clouds 5 1042 75 10000 1.06 155 15:20 09.03.2021
1688 Clouds 5 1042 75 10000 0.99 196 14:28 09.03.2021
1689 Clear 2 1042 80 10000 0.99 196 13:57 09.03.2021
1690 Clear 2 1042 80 10000 0.99 196 13:38 09.03.2021
1691 Clear 2 1042 80 10000 1 204 13:19 09.03.2021
1692 Clear 0 1041 86 10000 1 204 12:39 09.03.2021
1693 Clear 0 1041 86 10000 1.01 180 12:18 09.03.2021
1694 Clear 3 1024 79 10000 1.01 180 11:41 09.03.2021
1695 Clear 2 1023 86 10000 0.98 162 11:21 09.03.2021
1696 Clear 2 1023 86 10000 0.98 162 10:54 09.03.2021
1697 Clear 2 1023 86 10000 0.98 162 10:36 09.03.2021
1698 Clear 2 1023 86 10000 1.23 135 10:18 09.03.2021
1699 Clear 2 1023 86 10000 1.23 135 09:41 09.03.2021
1700 Clear 3 1022 86 10000 1.41 123 09:22 09.03.2021
1701 Clear 3 1022 86 10000 1.41 123 08:37 09.03.2021
1702 Clear 3 1022 86 10000 1.36 120 08:18 09.03.2021
1703 Clear 3 1022 86 10000 1.36 120 07:37 09.03.2021
1704 Clear 4 1022 83 10000 1.34 130 07:19 09.03.2021
1705 Clear 4 1023 81 10000 1.46 118 05:55 09.03.2021
1706 Clear 4 1023 81 10000 1.46 118 05:37 09.03.2021
1707 Clouds 8 1018 60 10000 4 86 00:30 09.03.2021
1708 Clouds 8 1018 60 10000 4 86 23:43 08.03.2021
1709 Clouds 9 1016 51 10000 6.18 94 23:25 08.03.2021
1710 Clouds 9 1016 51 10000 6.18 94 22:48 08.03.2021
1711 Clouds 11 1014 46 10000 8.57 103 22:29 08.03.2021
1712 Clouds 11 1014 46 10000 8.57 103 21:57 08.03.2021
1713 Clouds 11 1014 46 10000 8.57 103 21:35 08.03.2021
1714 Clouds 12 1014 45 10000 7.89 120 20:48 08.03.2021
1715 Clouds 12 1014 47 10000 7.86 125 20:28 08.03.2021
1716 Clouds 12 1014 47 10000 7.86 125 19:59 08.03.2021
1717 Clouds 14 1039 54 10000 5.14 60 19:36 08.03.2021
1718 Clouds 14 1039 54 10000 5.14 60 18:42 08.03.2021
1719 Clouds 14 1039 54 10000 5.14 60 18:23 08.03.2021
1720 Clouds 13 1040 58 10000 7.2 60 17:56 08.03.2021
1721 Clouds 13 1040 58 10000 7.2 60 17:38 08.03.2021
1722 Clouds 12 1040 62 10000 4.12 60 16:55 08.03.2021
1723 Clouds 10 1041 66 10000 2.57 40 16:30 08.03.2021
1724 Clouds 10 1041 66 10000 2.57 40 15:52 08.03.2021
1725 Clouds 10 1041 66 10000 2.57 40 15:30 08.03.2021
1726 Clouds 9 1040 71 10000 2.06 60 14:51 08.03.2021
1727 Clouds 7 1038 81 10000 1.3 179 14:20 08.03.2021
1728 Clouds 7 1038 81 10000 1.3 179 13:44 08.03.2021
1729 Clouds 5 1038 87 10000 0.92 201 13:21 08.03.2021
1730 Clouds 5 1038 87 10000 0.92 201 12:49 08.03.2021
1731 Clouds 5 1038 87 10000 0.9 159 12:28 08.03.2021
1732 Clouds 6 1019 85 10000 0.9 159 11:44 08.03.2021
1733 Clouds 5 1018 88 10000 1.54 124 11:20 08.03.2021
1734 Clouds 5 1018 88 10000 1.54 124 10:45 08.03.2021
1735 Clouds 5 1018 87 10000 0.45 34 10:27 08.03.2021
1736 Clouds 5 1018 87 10000 0.45 34 09:45 08.03.2021
1737 Clouds 6 1017 81 10000 1.09 284 09:23 08.03.2021
1738 Clouds 6 1017 81 10000 1.09 284 08:30 08.03.2021
1739 Clouds 7 1018 78 10000 0.92 231 07:48 08.03.2021
1740 Clouds 7 1019 74 10000 1.74 166 07:20 08.03.2021
1741 Clouds 7 1020 83 10000 1.12 131 05:18 08.03.2021
1742 Clouds 9 1016 73 10000 2.82 77 01:27 08.03.2021
1743 Clouds 9 1016 73 10000 2.82 77 01:27 08.03.2021
1744 Clouds 9 1016 73 10000 2.82 77 00:38 08.03.2021
1745 Clouds 9 1014 68 10000 2.45 80 23:51 07.03.2021
1746 Clouds 11 1012 57 10000 4.12 77 23:20 07.03.2021
1747 Clouds 11 1012 57 10000 4.12 77 22:45 07.03.2021
1748 Clouds 12 1010 48 10000 4.53 82 22:26 07.03.2021
1749 Clouds 12 1010 48 10000 4.53 82 21:49 07.03.2021
1750 Clouds 12 1010 48 10000 4.53 82 21:30 07.03.2021
1751 Clouds 13 1011 45 10000 3.7 107 20:55 07.03.2021
1752 Clouds 13 1011 45 10000 3.7 107 20:37 07.03.2021
1753 Clouds 13 1012 45 10000 3.99 106 20:18 07.03.2021
1754 Clouds 13 1012 45 10000 3.99 106 19:39 07.03.2021
1755 Clouds 13 1013 44 10000 3.29 96 19:21 07.03.2021
1756 Clouds 13 1013 42 10000 3.41 94 18:50 07.03.2021
1757 Clouds 13 1014 40 10000 2.55 87 18:20 07.03.2021
1758 Clouds 13 1014 40 10000 2.55 87 17:56 07.03.2021
1759 Clouds 13 1014 40 10000 2.55 87 17:37 07.03.2021
1760 Clear 13 1016 40 10000 0.81 94 17:18 07.03.2021
1761 Clear 13 1016 40 10000 0.81 94 16:39 07.03.2021
1762 Clear 11 1017 44 10000 0.25 102 16:20 07.03.2021
1763 Clear 11 1017 44 10000 0.25 102 15:46 07.03.2021
1764 Clear 10 1018 50 10000 0.27 247 15:28 07.03.2021
1765 Clear 10 1018 50 10000 0.27 247 14:47 07.03.2021
1766 Clouds 8 1020 64 10000 0.75 268 14:28 07.03.2021
1767 Clouds 8 1020 64 10000 0.75 268 13:44 07.03.2021
1768 Clouds 6 1020 77 10000 0.64 289 13:24 07.03.2021
1769 Clouds 5 1021 80 4042 0.5 293 12:47 07.03.2021
1770 Clouds 4 1020 90 3929 0.06 7 12:29 07.03.2021
1771 Clouds 4 1020 90 3929 0.06 7 11:52 07.03.2021
1772 Clouds 3 1019 95 5609 0.26 326 11:23 07.03.2021
1773 Clouds 3 1019 95 5609 0.26 326 10:51 07.03.2021
1774 Clouds 3 1019 95 5609 0.26 326 10:33 07.03.2021
1775 Clouds 4 1018 95 4619 0.63 332 09:52 07.03.2021
1776 Clouds 4 1018 95 4296 1.05 341 09:26 07.03.2021
1777 Clouds 4 1018 95 4296 1.05 341 08:55 07.03.2021
1778 Clouds 4 1018 95 4296 1.05 341 08:37 07.03.2021
1779 Clouds 5 1018 94 5341 1.26 343 08:19 07.03.2021
1780 Clear 6 1019 87 10000 0.9 30 04:57 07.03.2021
1781 Clear 7 1016 78 10000 1.92 87 02:26 07.03.2021
1782 Clouds 9 1013 60 10000 3.22 99 00:24 07.03.2021
1783 Clouds 9 1013 60 10000 3.22 99 23:40 06.03.2021
1784 Clouds 11 1012 45 10000 3.97 113 23:19 06.03.2021
1785 Clouds 11 1012 45 10000 3.97 113 22:41 06.03.2021
1786 Clouds 12 1011 42 10000 3.63 110 22:21 06.03.2021
1787 Clouds 12 1011 42 10000 3.63 110 21:41 06.03.2021
1788 Clouds 12 1011 42 10000 3.63 110 21:41 06.03.2021
1789 Clouds 12 1011 43 10000 3.02 105 21:20 06.03.2021
1790 Clouds 12 1011 43 10000 3.02 105 20:41 06.03.2021
1791 Clouds 11 1012 48 10000 3.02 100 19:55 06.03.2021
1792 Clouds 11 1012 48 10000 3.02 100 19:37 06.03.2021
1793 Clouds 11 1013 46 10000 2.95 99 19:18 06.03.2021
1794 Clouds 11 1013 46 10000 2.95 99 18:41 06.03.2021
1795 Clouds 12 1014 44 10000 1.68 75 18:20 06.03.2021
1796 Clouds 12 1014 44 10000 1.68 75 17:48 06.03.2021
1797 Clear 11 1016 46 10000 0.6 64 17:27 06.03.2021
1798 Clear 11 1016 46 10000 0.6 64 16:53 06.03.2021
1799 Clear 11 1016 46 10000 0.6 64 16:31 06.03.2021
1800 Clear 9 1017 51 10000 0.27 311 15:56 06.03.2021
1801 Clear 9 1017 51 10000 0.27 311 15:38 06.03.2021
1802 Clear 8 1019 57 10000 0.63 307 15:18 06.03.2021
1803 Clear 8 1019 57 10000 0.63 307 14:31 06.03.2021
1804 Clear 6 1020 63 10000 0.83 301 13:52 06.03.2021
1805 Clear 6 1020 63 10000 0.83 301 13:33 06.03.2021
1806 Clouds 5 1020 70 10000 0.87 243 12:58 06.03.2021
1807 Clouds 5 1020 70 10000 0.87 243 12:38 06.03.2021
1808 Clouds 3 1020 82 10000 0.74 208 12:18 06.03.2021
1809 Clouds 3 1020 82 10000 0.74 208 11:38 06.03.2021
1810 Clouds 1 1020 90 10000 0.7 215 11:18 06.03.2021
1811 Clouds 1 1020 90 10000 0.7 215 10:42 06.03.2021
1812 Clouds 1 1019 90 10000 0.53 230 09:56 06.03.2021
1813 Clouds 2 1019 89 10000 0.51 239 09:24 06.03.2021
1814 Clouds 2 1019 89 10000 0.51 239 08:54 06.03.2021
1815 Clouds 2 1019 89 10000 0.51 239 08:30 06.03.2021
1816 Clouds 2 1019 89 10000 0.51 239 08:30 06.03.2021
1817 Clouds 2 1019 89 10000 0.81 279 07:43 06.03.2021
1818 Clouds 2 1020 93 4703 1.08 284 07:21 06.03.2021
1819 Clouds 2 1020 95 4458 1.03 278 05:50 06.03.2021
1820 Clouds 3 1020 95 10000 1.1 337 03:47 06.03.2021
1821 Clouds 4 1019 89 10000 1.23 4 01:32 06.03.2021
1822 Clouds 5 1018 86 10000 1.31 24 00:46 06.03.2021
1823 Clouds 5 1016 82 10000 1.68 59 23:44 05.03.2021
1824 Clouds 5 1015 81 10000 1.51 76 23:19 05.03.2021
1825 Clouds 5 1015 81 10000 1.51 76 22:43 05.03.2021
1826 Clouds 4 1014 87 9805 1.2 71 22:20 05.03.2021
1827 Clouds 4 1014 87 9805 1.2 71 21:43 05.03.2021
1828 Clouds 4 1014 91 1116 1.14 75 21:25 05.03.2021
1829 Clouds 4 1014 91 1116 1.14 75 20:47 05.03.2021
1830 Clouds 3 1016 93 75 1.76 109 20:25 05.03.2021
1831 Clouds 3 1016 93 75 1.76 109 19:48 05.03.2021
1832 Clouds 3 1017 93 64 2.5 114 19:22 05.03.2021
1833 Clouds 3 1017 93 64 2.5 114 18:52 05.03.2021
1834 Clouds 3 1019 94 298 2.97 121 18:27 05.03.2021
1835 Clouds 3 1019 94 298 2.97 121 17:56 05.03.2021
1836 Clouds 3 1019 94 298 2.97 121 17:33 05.03.2021
1837 Clouds 3 1019 93 646 2.66 121 16:44 05.03.2021
1838 Mist 5 1040 100 3000 2.06 30 16:24 05.03.2021
1839 Mist 5 1040 100 3000 2.06 30 15:55 05.03.2021
1840 Mist 5 1040 100 3000 2.06 30 15:28 05.03.2021
1841 Mist 4 1038 100 3000 1.68 122 14:53 05.03.2021
1842 Mist 4 1038 100 3000 1.68 122 14:34 05.03.2021
1843 Mist 4 1037 100 3000 0.47 138 13:46 05.03.2021
1844 Mist 4 1037 100 3000 0.19 285 13:21 05.03.2021
1845 Rain 5 1037 100 3000 2.06 240 12:47 05.03.2021
1846 Clouds 5 1020 91 2627 0.25 110 11:41 05.03.2021
1847 Clouds 5 1020 91 2627 0.25 110 11:41 05.03.2021
1848 Clouds 5 1018 89 5734 0.77 90 11:21 05.03.2021
1849 Clouds 5 1018 89 5734 0.77 90 10:59 05.03.2021
1850 Rain 5 1018 89 5734 0.77 90 10:39 05.03.2021
1851 Rain 6 1017 88 10000 1.15 68 10:20 05.03.2021
1852 Rain 6 1017 88 10000 1.15 68 09:46 05.03.2021
1853 Clouds 6 1017 89 10000 1.34 8 09:26 05.03.2021
1854 Clouds 6 1017 89 10000 1.34 8 08:40 05.03.2021
1855 Clouds 6 1017 87 10000 2.22 19 08:21 05.03.2021
1856 Clouds 6 1017 87 10000 2.22 19 07:37 05.03.2021
1857 Clouds 7 1017 86 10000 2.5 41 06:45 05.03.2021
1858 Clouds 7 1017 86 10000 2.29 38 06:27 05.03.2021
1859 Clouds 8 1014 81 10000 3.9 72 01:47 05.03.2021
1860 Clouds 8 1014 81 10000 3.9 72 01:47 05.03.2021
1861 Rain 10 1010 71 10000 3.2 58 00:26 05.03.2021
1862 Rain 10 1010 71 10000 3.2 58 23:30 04.03.2021
1863 Clouds 11 1008 67 5389 3.52 52 22:38 04.03.2021
1864 Clouds 11 1008 63 4026 2.48 54 21:56 04.03.2021
1865 Clouds 11 1008 63 4026 2.48 54 21:37 04.03.2021
1866 Clouds 12 1008 58 5975 2.47 43 21:18 04.03.2021
1867 Clouds 12 1008 58 5975 2.47 43 20:41 04.03.2021
1868 Clouds 13 1009 54 6802 3.27 44 20:21 04.03.2021
1869 Clouds 13 1009 54 6802 3.27 44 19:54 04.03.2021
1870 Clouds 15 1034 58 10000 6.17 50 19:30 04.03.2021
1871 Clouds 15 1034 58 10000 6.17 50 18:55 04.03.2021
1872 Clouds 15 1034 58 10000 6.17 50 18:31 04.03.2021
1873 Clouds 14 1036 62 10000 5.14 50 17:59 04.03.2021
1874 Clouds 14 1036 62 10000 5.14 50 17:39 04.03.2021
1875 Clouds 14 1036 62 10000 5.14 50 17:20 04.03.2021
1876 Clouds 13 1037 67 10000 4.12 50 16:44 04.03.2021
1877 Clouds 13 1037 67 10000 4.12 50 16:24 04.03.2021
1878 Clouds 12 1037 71 10000 2.06 60 15:48 04.03.2021
1879 Clouds 12 1037 71 10000 2.06 60 15:29 04.03.2021
1880 Clouds 11 1037 76 10000 2.02 4 14:44 04.03.2021
1881 Clouds 11 1037 76 10000 2.15 354 14:18 04.03.2021
1882 Clouds 9 1037 87 8000 2.15 354 13:42 04.03.2021
1883 Clouds 9 1037 87 8000 2.16 353 13:22 04.03.2021
1884 Clouds 7 1037 93 10000 2.07 358 12:42 04.03.2021
1885 Clouds 7 1037 93 10000 1.71 8 12:18 04.03.2021
1886 Clouds 6 1018 84 10000 1.71 8 11:40 04.03.2021
1887 Clouds 6 1017 86 10000 1.52 1 11:20 04.03.2021
1888 Clouds 6 1017 86 10000 1.52 1 10:37 04.03.2021
1889 Clouds 6 1016 85 10000 1.48 2 10:18 04.03.2021
1890 Clouds 6 1016 85 10000 1.48 2 09:32 04.03.2021
1891 Clouds 6 1016 84 10000 1.94 17 08:53 04.03.2021
1892 Clouds 6 1016 84 10000 1.94 17 08:31 04.03.2021
1893 Clouds 7 1016 86 10000 1.85 22 07:46 04.03.2021
1894 Clouds 7 1017 86 10000 1.68 11 06:50 04.03.2021
1895 Clouds 7 1018 85 10000 1.66 10 06:21 04.03.2021
1896 Clouds 8 1016 78 10000 2.6 54 02:39 04.03.2021
1897 Clouds 9 1015 75 10000 2.38 44 00:41 04.03.2021
1898 Clouds 11 1011 62 10000 3.78 57 22:43 03.03.2021
1899 Clouds 12 1010 55 10000 3.39 62 22:25 03.03.2021
1900 Clouds 12 1010 55 10000 3.39 62 21:43 03.03.2021
1901 Clouds 13 1010 52 10000 3.64 70 21:24 03.03.2021
1902 Clouds 13 1010 52 10000 3.64 70 20:56 03.03.2021
1903 Clouds 13 1010 52 10000 3.64 70 20:38 03.03.2021
1904 Clouds 12 1011 52 10000 2.91 68 19:57 03.03.2021
1905 Clouds 14 1037 62 10000 6.17 60 19:39 03.03.2021
1906 Clouds 14 1037 62 10000 6.17 60 19:18 03.03.2021
1907 Clouds 14 1037 62 10000 6.17 60 18:45 03.03.2021
1908 Clouds 14 1037 62 10000 6.17 60 18:45 03.03.2021
1909 Clouds 13 1038 67 10000 5.14 50 17:59 03.03.2021
1910 Clouds 13 1038 67 10000 5.14 50 17:39 03.03.2021
1911 Clouds 13 1038 67 10000 5.14 50 17:18 03.03.2021
1912 Clouds 12 1038 66 10000 4.12 50 16:40 03.03.2021
1913 Clouds 12 1038 66 10000 4.12 50 16:21 03.03.2021
1914 Clouds 11 1038 76 10000 2.57 50 15:33 03.03.2021
1915 Clouds 9 1038 87 10000 2.09 23 14:54 03.03.2021
1916 Clouds 9 1038 87 10000 1.75 23 14:29 03.03.2021
1917 Clouds 6 1036 93 10000 1.75 23 13:52 03.03.2021
1918 Clouds 6 1036 93 10000 1.75 23 13:52 03.03.2021
1919 Clouds 6 1036 93 10000 1.68 357 13:31 03.03.2021
1920 Clouds 5 1036 100 10000 1.65 356 12:44 03.03.2021
1921 Clouds 5 1036 100 10000 1.71 17 12:26 03.03.2021
1922 Clouds 5 1019 87 10000 1.71 17 11:48 03.03.2021
1923 Clouds 4 1018 90 10000 1.5 34 11:28 03.03.2021
1924 Clouds 4 1018 90 10000 1.5 34 10:50 03.03.2021
1925 Clouds 4 1018 90 10000 1.5 34 10:30 03.03.2021
1926 Clouds 5 1017 91 10000 1.34 53 09:48 03.03.2021
1927 Clear 5 1017 93 4427 1.26 68 09:26 03.03.2021
1928 Clear 5 1017 93 4427 1.26 68 08:41 03.03.2021
1929 Clear 5 1017 92 10000 1.5 75 08:21 03.03.2021
1930 Clear 5 1017 92 10000 1.5 75 07:41 03.03.2021
1931 Clouds 6 1018 90 5147 1.38 54 06:51 03.03.2021
1932 Clouds 6 1018 89 10000 1.75 59 05:49 03.03.2021
1933 Clouds 6 1017 87 10000 1.8 63 04:59 03.03.2021
1934 Clouds 6 1017 89 4277 1.69 67 04:35 03.03.2021
1935 Clouds 8 1015 75 10000 2.46 50 02:19 03.03.2021
1936 Clouds 9 1012 67 10000 3.17 44 23:59 02.03.2021
1937 Clouds 9 1012 67 10000 3.17 44 23:31 02.03.2021
1938 Clouds 10 1010 63 10000 3.23 51 22:42 02.03.2021
1939 Clouds 11 1009 61 10000 3.43 59 22:19 02.03.2021
1940 Clouds 11 1009 61 10000 3.43 59 21:41 02.03.2021
1941 Clouds 11 1009 60 10000 3.43 66 21:22 02.03.2021
1942 Clouds 11 1009 60 10000 3.43 66 20:48 02.03.2021
1943 Clouds 11 1010 61 10000 3.37 70 20:23 02.03.2021
1944 Clouds 11 1010 61 10000 3.37 70 19:57 02.03.2021
1945 Clouds 14 1035 67 10000 8.75 70 19:39 02.03.2021
1946 Clouds 14 1035 67 10000 8.75 70 19:20 02.03.2021
1947 Clouds 14 1035 67 10000 8.75 70 18:41 02.03.2021
1948 Clouds 14 1035 67 10000 8.75 70 18:21 02.03.2021
1949 Clouds 12 1035 71 10000 6.17 60 17:49 02.03.2021
1950 Clouds 12 1035 71 10000 6.17 60 17:30 02.03.2021
1951 Clouds 10 1035 81 10000 4.12 60 16:57 02.03.2021
1952 Clouds 10 1035 81 10000 4.12 60 16:33 02.03.2021
1953 Clouds 9 1036 81 10000 2.06 30 15:51 02.03.2021
1954 Clouds 9 1036 81 10000 2.06 30 15:25 02.03.2021
1955 Clouds 8 1036 87 10000 1.35 98 14:24 02.03.2021
1956 Clouds 6 1035 93 10000 1.35 98 13:59 02.03.2021
1957 Clouds 6 1035 93 10000 1.35 98 13:39 02.03.2021
1958 Clouds 6 1035 93 10000 1.31 101 13:20 02.03.2021
1959 Clouds 6 1017 85 10000 1.31 101 12:31 02.03.2021
1960 Clouds 6 1017 88 4949 1.54 89 11:57 02.03.2021
1961 Clouds 6 1017 88 4949 1.54 89 11:38 02.03.2021
1962 Clouds 6 1016 91 10000 1.79 87 11:18 02.03.2021
1963 Clouds 6 1016 91 10000 1.79 87 10:35 02.03.2021
1964 Clouds 6 1015 90 10000 1.69 95 09:59 02.03.2021
1965 Clouds 6 1015 90 10000 1.69 95 09:40 02.03.2021
1966 Clouds 6 1015 86 8558 1.86 93 09:19 02.03.2021
1967 Clouds 6 1015 86 8558 1.86 93 08:38 02.03.2021
1968 Clouds 7 1015 84 7197 1.65 94 07:58 02.03.2021
1969 Clouds 6 1015 83 10000 1.44 69 07:38 02.03.2021
1970 Clouds 7 1015 84 10000 1.61 83 06:35 02.03.2021
1971 Clouds 7 1015 84 10000 1.65 70 05:46 02.03.2021
1972 Clouds 7 1016 84 10000 1.2 76 05:28 02.03.2021
1973 Clouds 8 1014 78 10000 1.69 345 01:45 02.03.2021
1974 Clouds 9 1012 72 10000 1.38 6 01:27 02.03.2021
1975 Clouds 9 1012 72 10000 1.38 6 00:39 02.03.2021
1976 Clouds 9 1009 69 10000 1.04 338 23:28 01.03.2021
1977 Clouds 9 1009 69 10000 1.04 338 22:42 01.03.2021
1978 Clouds 11 1008 60 9187 2.07 56 22:22 01.03.2021
1979 Clouds 11 1008 60 9187 2.07 56 21:50 01.03.2021
1980 Clouds 12 1008 56 10000 3.3 72 21:24 01.03.2021
1981 Clouds 12 1008 56 10000 3.3 72 20:48 01.03.2021
1982 Clouds 12 1008 55 10000 3.21 70 20:28 01.03.2021
1983 Clouds 12 1008 55 10000 3.21 70 19:55 01.03.2021
1984 Clouds 11 1033 82 5000 4.12 70 19:33 01.03.2021
1985 Clouds 11 1033 82 5000 4.12 70 18:46 01.03.2021
1986 Clouds 11 1033 82 5000 4.12 70 18:25 01.03.2021
1987 Clouds 11 1034 82 6000 7.2 60 17:58 01.03.2021
1988 Clouds 11 1034 82 6000 7.2 60 17:39 01.03.2021
1989 Clouds 11 1034 82 6000 7.2 60 17:19 01.03.2021
1990 Clouds 11 1034 82 6000 7.2 60 17:19 01.03.2021
1991 Clouds 10 1035 76 10000 5.14 60 16:43 01.03.2021
1992 Clouds 10 1035 76 10000 5.14 60 16:24 01.03.2021
1993 Clouds 9 1035 81 10000 3.6 60 15:41 01.03.2021
1994 Clouds 9 1035 81 10000 3.6 60 15:21 01.03.2021
1995 Clouds 8 1035 81 10000 1.19 27 14:48 01.03.2021
1996 Clouds 8 1035 81 10000 1.16 358 14:29 01.03.2021
1997 Clouds 6 1035 93 10000 3.09 240 13:43 01.03.2021
1998 Clouds 6 1035 93 10000 3.09 240 13:24 01.03.2021
1999 Clouds 6 1035 93 10000 1.05 12 12:55 01.03.2021
2000 Clouds 6 1035 93 10000 1.05 12 12:36 01.03.2021
2001 Clouds 6 1035 93 10000 0.63 22 12:18 01.03.2021
2002 Clouds 6 1016 83 10000 0.63 22 11:42 01.03.2021
2003 Clouds 6 1016 84 10000 0.84 36 10:45 01.03.2021
2004 Clouds 6 1016 84 10000 0.84 36 10:45 01.03.2021
2005 Clouds 6 1015 84 10000 1.14 48 10:23 01.03.2021
2006 Rain 6 1015 84 10000 1.14 48 09:59 01.03.2021
2007 Rain 6 1015 84 10000 1.14 48 09:40 01.03.2021
2008 Rain 6 1015 85 10000 1.21 60 09:21 01.03.2021
2009 Rain 6 1015 85 10000 1.21 60 08:51 01.03.2021
2010 Clouds 6 1014 86 10000 1.26 64 08:20 01.03.2021
2011 Clear 7 1015 85 10000 1.82 69 06:53 01.03.2021
2012 Clear 7 1017 86 10000 1.85 61 04:45 01.03.2021
2013 Clear 9 1014 73 10000 2.15 60 01:48 01.03.2021
2014 Clouds 10 1011 61 10000 3.32 69 23:40 28.02.2021
2015 Clouds 12 1009 54 10000 4.19 77 22:52 28.02.2021
2016 Clouds 13 1009 46 10000 4.87 81 22:23 28.02.2021
2017 Clouds 13 1009 46 10000 4.87 81 21:54 28.02.2021
2018 Clouds 13 1009 46 10000 4.87 81 21:32 28.02.2021
2019 Clouds 14 1009 41 10000 5.65 91 20:58 28.02.2021
2020 Clouds 14 1009 41 10000 5.65 91 20:37 28.02.2021
2021 Clouds 14 1009 40 10000 5.13 99 19:57 28.02.2021
2022 Clouds 14 1009 40 10000 5.13 99 19:38 28.02.2021
2023 Clouds 14 1011 44 10000 4.24 97 19:20 28.02.2021
2024 Clouds 14 1011 39 10000 4.95 95 18:43 28.02.2021
2025 Clouds 14 1013 41 10000 3.5 90 18:24 28.02.2021
2026 Clouds 14 1013 41 10000 3.5 90 17:48 28.02.2021
2027 Clouds 13 1015 44 10000 1.81 77 17:28 28.02.2021
2028 Clouds 13 1015 44 10000 1.81 77 16:54 28.02.2021
2029 Clouds 13 1015 44 10000 1.81 77 16:36 28.02.2021
2030 Clouds 11 1017 51 10000 0.65 77 15:57 28.02.2021
2031 Clouds 11 1017 51 10000 0.65 77 15:37 28.02.2021
2032 Clouds 9 1018 60 10000 0.31 79 15:18 28.02.2021
2033 Clouds 9 1018 60 10000 0.31 79 14:48 28.02.2021
2034 Clouds 7 1019 70 10000 0.47 111 14:26 28.02.2021
2035 Clouds 7 1019 70 10000 0.47 111 13:52 28.02.2021
2036 Clouds 6 1020 79 10000 1.21 138 13:21 28.02.2021
2037 Clouds 6 1020 79 10000 1.21 138 12:56 28.02.2021
2038 Clouds 6 1020 79 10000 1.21 138 12:38 28.02.2021
2039 Clouds 5 1020 85 10000 1.74 122 12:19 28.02.2021
2040 Clouds 5 1020 85 10000 1.74 122 11:44 28.02.2021
2041 Clouds 5 1019 87 10000 2.08 104 11:25 28.02.2021
2042 Clouds 5 1019 87 10000 2.08 104 10:55 28.02.2021
2043 Clouds 6 1019 86 10000 1.87 99 10:29 28.02.2021
2044 Clouds 6 1019 86 10000 1.87 99 09:54 28.02.2021
2045 Clouds 6 1019 86 10000 1.87 99 09:34 28.02.2021
2046 Clouds 7 1018 83 10000 1.63 106 08:52 28.02.2021
2047 Clouds 7 1018 83 10000 1.63 106 08:32 28.02.2021
2048 Clouds 6 1018 84 10000 1.46 107 07:57 28.02.2021
2049 Clouds 6 1018 85 10000 1.31 87 07:38 28.02.2021
2050 Clear 6 1019 86 10000 1.59 95 06:55 28.02.2021
2051 Clear 6 1019 88 10000 2.12 100 06:21 28.02.2021
2052 Clear 7 1019 82 10000 2.15 93 03:45 28.02.2021
2053 Rain 8 1017 75 10000 2.44 96 02:19 28.02.2021
2054 Rain 9 1015 75 10000 2.88 98 00:58 28.02.2021
2055 Rain 9 1016 75 10000 2.44 95 00:58 28.02.2021
2056 Clouds 9 1015 75 10000 2.88 98 00:37 28.02.2021
2057 Clouds 10 1014 70 10000 3.5 96 23:48 27.02.2021
2058 Clouds 11 1012 60 10000 4.52 97 23:20 27.02.2021
2059 Clouds 11 1012 60 10000 4.52 97 22:49 27.02.2021
2060 Clouds 13 1011 51 10000 6.75 95 22:23 27.02.2021
2061 Clouds 13 1011 51 10000 6.75 95 21:51 27.02.2021
2062 Clouds 13 1011 51 10000 6.75 95 21:33 27.02.2021
2063 Clouds 14 1011 42 10000 6.45 101 20:54 27.02.2021
2064 Clouds 14 1011 42 10000 6.45 101 20:34 27.02.2021
2065 Clouds 14 1012 40 10000 5.13 100 19:58 27.02.2021
2066 Clouds 14 1012 40 10000 5.13 100 19:39 27.02.2021
2067 Clouds 14 1013 42 10000 4.56 100 19:21 27.02.2021
2068 Clouds 14 1013 42 10000 4.56 100 18:38 27.02.2021
2069 Clouds 13 1015 44 10000 3.65 100 18:18 27.02.2021
2070 Clouds 13 1015 44 10000 3.65 100 17:43 27.02.2021
2071 Clouds 12 1016 48 10000 2.86 100 17:20 27.02.2021
2072 Clouds 12 1016 48 10000 2.86 100 16:51 27.02.2021
2073 Clouds 12 1016 48 10000 2.86 100 16:30 27.02.2021
2074 Clouds 11 1017 51 10000 2.08 95 15:49 27.02.2021
2075 Clouds 11 1017 51 10000 2.08 95 15:31 27.02.2021
2076 Clouds 10 1018 57 10000 1.73 91 14:43 27.02.2021
2077 Clear 8 1019 69 10000 1.28 80 14:25 27.02.2021
2078 Clear 8 1019 69 10000 1.28 80 13:49 27.02.2021
2079 Clouds 7 1019 80 10000 0.66 83 13:27 27.02.2021
2080 Clouds 7 1019 80 10000 0.66 83 12:52 27.02.2021
2081 Clouds 6 1019 90 10000 0.38 94 12:28 27.02.2021
2082 Clouds 6 1019 90 10000 0.38 94 11:56 27.02.2021
2083 Clouds 6 1019 90 10000 0.38 94 11:38 27.02.2021
2084 Clouds 5 1019 95 10000 0.13 247 11:18 27.02.2021
2085 Clouds 5 1019 95 10000 0.13 247 10:42 27.02.2021
2086 Clouds 5 1018 94 10000 0.48 35 10:19 27.02.2021
2087 Clouds 5 1018 94 10000 0.48 35 09:44 27.02.2021
2088 Clouds 6 1018 93 10000 0.72 32 09:25 27.02.2021
2089 Clouds 6 1018 93 10000 0.72 32 08:39 27.02.2021
2090 Clouds 6 1018 92 10000 1.14 57 08:20 27.02.2021
2091 Clouds 6 1018 92 10000 1.14 57 07:36 27.02.2021
2092 Clouds 8 1017 81 10000 1.89 23 04:26 27.02.2021
2093 Clouds 8 1015 74 10000 1.87 48 00:41 27.02.2021
2094 Clouds 9 1013 71 10000 3.78 70 23:54 26.02.2021
2095 Clouds 10 1011 64 10000 4.65 79 23:26 26.02.2021
2096 Clouds 10 1011 64 10000 4.65 79 22:46 26.02.2021
2097 Rain 12 1010 60 8423 3.82 83 22:26 26.02.2021
2098 Clouds 12 1010 60 8423 3.82 83 21:43 26.02.2021
2099 Clouds 12 1010 58 6696 3.3 87 21:22 26.02.2021
2100 Clouds 12 1010 58 6696 3.3 87 20:44 26.02.2021
2101 Clouds 13 1010 57 6788 2.66 92 20:21 26.02.2021
2102 Clouds 13 1010 57 6788 2.66 92 19:42 26.02.2021
2103 Clouds 11 1012 62 8297 2.69 54 19:22 26.02.2021
2104 Clouds 11 1012 62 8297 2.69 54 18:42 26.02.2021
2105 Clouds 11 1014 64 7468 2.75 46 18:21 26.02.2021
2106 Clouds 11 1014 64 7468 2.75 46 17:41 26.02.2021
2107 Clouds 11 1016 63 8473 2.09 46 17:23 26.02.2021
2108 Clouds 11 1016 63 8473 2.09 46 16:52 26.02.2021
2109 Clouds 11 1016 63 8473 2.09 46 16:31 26.02.2021
2110 Clouds 10 1017 65 10000 1.59 40 15:57 26.02.2021
2111 Clouds 10 1017 65 10000 1.59 40 15:38 26.02.2021
2112 Clouds 9 1018 70 10000 1.57 16 15:20 26.02.2021
2113 Clouds 9 1018 70 10000 1.57 16 14:45 26.02.2021
2114 Clouds 8 1018 74 10000 1.65 19 14:25 26.02.2021
2115 Clouds 8 1018 74 10000 1.65 19 13:44 26.02.2021
2116 Clouds 7 1018 77 10000 2.03 47 13:24 26.02.2021
2117 Clouds 7 1018 77 10000 2.03 47 12:39 26.02.2021
2118 Clouds 6 1017 81 10000 1.19 46 11:55 26.02.2021
2119 Clouds 6 1017 81 10000 1.19 46 11:37 26.02.2021
2120 Clouds 6 1017 83 10000 1.13 53 10:54 26.02.2021
2121 Clouds 6 1016 82 10000 1.37 60 09:59 26.02.2021
2122 Clouds 6 1016 82 10000 1.37 60 09:39 26.02.2021
2123 Clouds 6 1016 81 10000 1.39 53 09:21 26.02.2021
2124 Clouds 6 1016 82 10000 0.85 56 08:29 26.02.2021
2125 Clouds 6 1016 82 10000 0.85 56 07:52 26.02.2021
2126 Clouds 7 1016 77 10000 0.95 46 06:43 26.02.2021
2127 Clouds 7 1016 77 10000 0.95 46 06:43 26.02.2021
2128 Clouds 7 1017 77 10000 0.78 113 05:39 26.02.2021
2129 Clouds 6 1018 80 10000 0.75 344 03:51 26.02.2021
2130 Clouds 6 1018 82 10000 2.3 296 02:36 26.02.2021
2131 Clouds 9 1016 74 5909 1.68 23 00:24 26.02.2021
2132 Clouds 9 1016 74 5909 1.68 23 23:30 25.02.2021
2133 Clouds 11 1014 67 10000 5.1 77 22:50 25.02.2021
2134 Clouds 11 1014 67 10000 5.1 77 22:31 25.02.2021
2135 Clouds 12 1012 61 10000 4.26 88 21:48 25.02.2021
2136 Clouds 12 1012 61 10000 4.26 88 21:30 25.02.2021
2137 Clouds 13 1011 55 10000 4.32 92 20:43 25.02.2021
2138 Clouds 14 1011 49 10000 3.25 71 20:24 25.02.2021
2139 Clouds 14 1011 49 10000 3.25 71 19:53 25.02.2021
2140 Clouds 14 1012 46 10000 2.43 37 19:22 25.02.2021
2141 Clouds 14 1013 44 10000 2.26 44 18:59 25.02.2021
2142 Clouds 14 1013 44 10000 2.26 44 18:39 25.02.2021
2143 Clouds 14 1015 47 10000 2.19 15 17:57 25.02.2021
2144 Clouds 14 1015 47 10000 2.19 15 17:30 25.02.2021
2145 Clouds 12 1016 55 10000 2.22 342 16:54 25.02.2021
2146 Clouds 12 1016 55 10000 2.22 342 16:31 25.02.2021
2147 Clouds 11 1018 61 10000 1.3 358 15:39 25.02.2021
2148 Clouds 10 1019 67 10000 1.5 8 15:19 25.02.2021
2149 Clouds 10 1019 67 10000 1.5 8 15:19 25.02.2021
2150 Clouds 10 1019 67 10000 1.5 8 14:32 25.02.2021
2151 Clouds 9 1019 73 10000 1.62 358 13:58 25.02.2021
2152 Clouds 9 1019 73 10000 1.62 358 13:40 25.02.2021
2153 Clouds 7 1020 81 10000 1.78 5 13:19 25.02.2021
2154 Clouds 6 1020 88 10000 1.23 23 12:23 25.02.2021
2155 Clouds 6 1020 88 10000 1.23 23 11:57 25.02.2021
2156 Clouds 6 1020 88 10000 1.23 23 11:39 25.02.2021
2157 Clouds 6 1020 91 10000 1.03 50 10:51 25.02.2021
2158 Clouds 6 1020 91 10000 1.03 50 10:32 25.02.2021
2159 Clouds 6 1019 91 10000 0.89 57 09:45 25.02.2021
2160 Clouds 6 1018 89 10000 0.96 33 09:22 25.02.2021
2161 Clouds 6 1018 89 10000 0.96 33 08:32 25.02.2021
2162 Clouds 7 1018 87 10000 1.36 14 07:59 25.02.2021
2163 Clouds 7 1018 87 10000 1.36 14 07:38 25.02.2021
2164 Clouds 7 1018 85 10000 0.91 7 06:57 25.02.2021
2165 Clouds 8 1019 80 10000 1.23 23 05:24 25.02.2021
2166 Clear 9 1017 72 10000 2.34 18 01:45 25.02.2021
2167 Clouds 10 1016 68 10000 3.37 27 00:48 25.02.2021
2168 Clouds 11 1014 60 10000 3.8 36 00:19 25.02.2021
2169 Clouds 11 1014 60 10000 3.8 36 23:36 24.02.2021
2170 Clouds 12 1013 52 10000 4.56 48 22:47 24.02.2021
2171 Clouds 14 1013 43 10000 5.36 51 22:29 24.02.2021
2172 Clouds 14 1013 43 10000 5.36 51 21:49 24.02.2021
2173 Clouds 14 1013 43 10000 5.36 51 21:30 24.02.2021
2174 Clouds 15 1013 37 10000 4.99 50 20:49 24.02.2021
2175 Clouds 15 1013 37 10000 3.64 44 20:26 24.02.2021
2176 Clouds 15 1013 37 10000 3.64 44 19:42 24.02.2021
2177 Clouds 14 1015 38 10000 3.63 32 19:20 24.02.2021
2178 Clouds 14 1015 38 10000 3.63 32 18:50 24.02.2021
2179 Clouds 14 1015 38 10000 3.63 32 18:30 24.02.2021
2180 Clouds 13 1017 41 10000 3.78 26 17:40 24.02.2021
2181 Clouds 13 1019 44 10000 3.68 29 17:22 24.02.2021
2182 Clouds 13 1019 44 10000 3.68 29 16:48 24.02.2021
2183 Clear 12 1020 48 10000 3.04 28 16:21 24.02.2021
2184 Clear 12 1020 48 10000 3.04 28 15:50 24.02.2021
2185 Clear 12 1020 48 10000 3.04 28 15:31 24.02.2021
2186 Clear 10 1021 53 10000 2.38 23 14:47 24.02.2021
2187 Clear 9 1022 60 10000 1.8 15 14:27 24.02.2021
2188 Clear 9 1022 60 10000 1.8 15 13:42 24.02.2021
2189 Clear 7 1022 67 10000 1.45 12 13:23 24.02.2021
2190 Clear 7 1022 72 10000 1.42 51 12:55 24.02.2021
2191 Clear 7 1022 72 10000 1.42 51 12:33 24.02.2021
2192 Clear 6 1022 81 10000 1.33 66 11:53 24.02.2021
2193 Clear 6 1022 81 10000 1.33 66 11:30 24.02.2021
2194 Clear 5 1021 86 10000 0.98 73 10:40 24.02.2021
2195 Clear 6 1021 85 10000 1.02 65 10:20 24.02.2021
2196 Clear 6 1019 84 10000 1.12 64 09:26 24.02.2021
2197 Clear 6 1019 84 10000 1.12 64 08:45 24.02.2021
2198 Clear 6 1019 83 10000 1.21 62 08:24 24.02.2021
2199 Clear 6 1019 83 10000 1.21 62 07:38 24.02.2021
2200 Clouds 7 1019 81 10000 1.33 68 07:18 24.02.2021
2201 Clouds 8 1020 76 10000 1.61 57 05:25 24.02.2021
2202 Clouds 9 1017 66 10000 2.31 53 01:59 24.02.2021
2203 Clouds 11 1014 54 10000 3.51 51 23:39 23.02.2021
2204 Clouds 13 1012 44 10000 5.36 51 22:46 23.02.2021
2205 Clouds 14 1012 39 10000 5.34 51 22:23 23.02.2021
2206 Clouds 14 1012 39 10000 5.34 51 21:48 23.02.2021
2207 Clouds 15 1012 38 10000 6.01 53 21:25 23.02.2021
2208 Clouds 15 1012 38 10000 6.01 53 20:57 23.02.2021
2209 Clouds 15 1012 38 10000 6.01 53 20:37 23.02.2021
2210 Clouds 15 1012 36 10000 6.96 52 20:19 23.02.2021
2211 Clouds 15 1012 36 10000 6.96 52 19:42 23.02.2021
2212 Clouds 16 1013 34 10000 6.25 48 19:24 23.02.2021
2213 Clouds 15 1013 34 10000 6.69 51 18:44 23.02.2021
2214 Clouds 15 1015 34 10000 5.82 42 18:24 23.02.2021
2215 Clouds 15 1015 34 10000 5.82 42 17:51 23.02.2021
2216 Clouds 15 1016 35 10000 4.76 32 17:27 23.02.2021
2217 Clouds 15 1016 35 10000 4.76 32 16:46 23.02.2021
2218 Clear 13 1017 38 10000 3.44 23 16:23 23.02.2021
2219 Clear 13 1017 38 10000 3.44 23 15:49 23.02.2021
2220 Clear 12 1018 43 10000 2.52 13 15:29 23.02.2021
2221 Clear 12 1018 43 10000 2.52 13 14:55 23.02.2021
2222 Clear 12 1018 43 10000 2.52 13 14:37 23.02.2021
2223 Clear 10 1019 48 10000 1.87 5 14:19 23.02.2021
2224 Clear 10 1019 48 10000 1.88 6 13:38 23.02.2021
2225 Clouds 8 1020 56 10000 1.31 349 12:59 23.02.2021
2226 Clouds 8 1020 56 10000 1.31 349 12:41 23.02.2021
2227 Clouds 7 1020 64 10000 1.09 348 12:18 23.02.2021
2228 Clouds 7 1020 64 10000 1.09 348 11:45 23.02.2021
2229 Clouds 5 1019 71 10000 0.9 10 11:18 23.02.2021
2230 Clouds 5 1019 71 10000 0.9 10 10:38 23.02.2021
2231 Clouds 6 1018 72 10000 0.68 16 09:59 23.02.2021
2232 Clouds 6 1018 72 10000 0.68 16 09:41 23.02.2021
2233 Clouds 6 1017 73 10000 0.45 13 09:20 23.02.2021
2234 Clouds 6 1017 73 10000 0.45 13 08:45 23.02.2021
2235 Clouds 6 1017 73 10000 0.45 5 08:20 23.02.2021
2236 Clouds 6 1017 73 10000 0.45 5 07:34 23.02.2021
2237 Clouds 8 1017 66 10000 1.2 359 05:27 23.02.2021
2238 Clouds 9 1017 61 10000 1.54 33 02:43 23.02.2021
2239 Clouds 9 1016 58 10000 2.06 44 02:24 23.02.2021
2240 Clouds 11 1012 48 10000 3.26 52 00:19 23.02.2021
2241 Clouds 11 1012 48 10000 3.26 52 23:32 22.02.2021
2242 Clouds 13 1011 43 10000 4.02 42 22:57 22.02.2021
2243 Clouds 13 1011 43 10000 4.02 42 22:38 22.02.2021
2244 Clouds 14 1010 39 10000 4.72 40 22:19 22.02.2021
2245 Clouds 14 1010 39 10000 4.72 40 21:38 22.02.2021
2246 Clouds 15 1010 36 10000 5.17 33 21:20 22.02.2021
2247 Clouds 15 1010 36 10000 5.17 33 20:45 22.02.2021
2248 Clouds 16 1010 35 10000 5.04 27 20:26 22.02.2021
2249 Clouds 16 1010 35 10000 5.04 27 19:49 22.02.2021
2250 Clouds 16 1010 35 10000 5.04 27 19:30 22.02.2021
2251 Clear 16 1011 34 10000 5.47 27 18:49 22.02.2021
2252 Clear 15 1013 34 10000 5.15 22 18:29 22.02.2021
2253 Clear 15 1013 34 10000 5.15 22 17:49 22.02.2021
2254 Clear 15 1014 35 10000 4.13 21 17:20 22.02.2021
2255 Clear 15 1014 35 10000 4.13 21 16:50 22.02.2021
2256 Clear 15 1014 35 10000 4.13 21 16:30 22.02.2021
2257 Clear 14 1016 37 10000 2.96 15 15:36 22.02.2021
2258 Clear 12 1017 40 10000 1.84 7 14:54 22.02.2021
2259 Clear 12 1017 40 10000 1.84 7 14:35 22.02.2021
2260 Clear 10 1018 47 10000 0.94 317 13:58 22.02.2021
2261 Clear 10 1018 47 10000 0.94 317 13:36 22.02.2021
2262 Clear 8 1018 59 10000 1 306 12:52 22.02.2021
2263 Clear 6 1018 81 10000 0.88 305 12:23 22.02.2021
2264 Clear 6 1018 81 10000 0.88 305 11:56 22.02.2021
2265 Clear 6 1018 81 10000 0.88 305 11:32 22.02.2021
2266 Clear 5 1018 91 10000 1.03 309 10:59 22.02.2021
2267 Clear 5 1018 91 10000 1.03 309 10:40 22.02.2021
2268 Clear 5 1017 91 10000 1.45 322 10:20 22.02.2021
2269 Clear 5 1017 91 10000 1.45 322 10:20 22.02.2021
2270 Clear 5 1017 91 10000 1.45 322 09:38 22.02.2021
2271 Clear 6 1017 90 10000 1.36 334 09:19 22.02.2021
2272 Clear 6 1017 90 10000 1.36 334 08:49 22.02.2021
2273 Clear 6 1017 90 10000 1.36 334 08:49 22.02.2021
2274 Clear 6 1017 90 10000 1.27 355 08:21 22.02.2021
2275 Clear 6 1017 90 10000 1.27 355 07:48 22.02.2021
2276 Clear 7 1018 88 10000 1.74 10 07:22 22.02.2021
2277 Clouds 7 1018 87 10000 1.85 27 06:28 22.02.2021
2278 Clouds 8 1018 83 10000 2.12 32 04:55 22.02.2021
2279 Clear 9 1018 74 10000 2.28 44 03:23 22.02.2021
2280 Clear 9 1016 71 10000 2.31 45 01:59 22.02.2021
2281 Clouds 9 1015 70 10000 3.01 36 00:44 22.02.2021
2282 Clouds 10 1013 67 10000 3.4 48 00:18 22.02.2021
2283 Clouds 12 1011 61 10000 4.77 54 23:26 21.02.2021
2284 Clouds 12 1011 61 10000 4.77 54 22:37 21.02.2021
2285 Clouds 13 1010 54 10000 5.25 44 21:59 21.02.2021
2286 Clouds 13 1010 54 10000 5.25 44 21:35 21.02.2021
2287 Clouds 14 1011 52 10000 5.15 38 20:58 21.02.2021
2288 Clouds 14 1011 52 10000 5.15 38 20:39 21.02.2021
2289 Clouds 14 1011 53 10000 4.95 40 20:19 21.02.2021
2290 Clouds 14 1011 53 10000 4.95 40 19:49 21.02.2021
2291 Clouds 14 1011 55 10000 4.56 49 19:30 21.02.2021
2292 Clouds 14 1012 56 8050 4.12 49 18:40 21.02.2021
2293 Clouds 13 1013 57 7838 3.9 50 18:22 21.02.2021
2294 Clouds 13 1015 57 10000 3.06 43 17:29 21.02.2021
2295 Clouds 13 1015 57 10000 3.06 43 16:55 21.02.2021
2296 Clouds 13 1015 57 10000 3.06 43 16:34 21.02.2021
2297 Clouds 12 1016 59 8953 1.91 24 15:54 21.02.2021
2298 Clouds 10 1017 65 10000 1.26 348 15:22 21.02.2021
2299 Clouds 10 1017 65 10000 1.26 348 14:49 21.02.2021
2300 Clouds 9 1018 73 10000 1.05 344 14:28 21.02.2021
2301 Clouds 9 1018 74 10000 0.98 23 13:46 21.02.2021
2302 Clouds 8 1018 80 10000 0.56 30 13:23 21.02.2021
2303 Clouds 8 1018 80 10000 0.56 30 12:32 21.02.2021
2304 Clouds 7 1018 86 10000 0.32 104 11:55 21.02.2021
2305 Clouds 7 1018 86 10000 0.32 104 11:36 21.02.2021
2306 Rain 6 1018 90 10000 0.23 150 10:36 21.02.2021
2307 Clouds 6 1018 90 10000 0.29 104 10:18 21.02.2021
2308 Clouds 6 1018 90 10000 0.29 104 09:41 21.02.2021
2309 Clouds 7 1017 87 10000 0.8 39 09:23 21.02.2021
2310 Clouds 7 1017 87 10000 0.8 39 08:32 21.02.2021
2311 Rain 7 1017 84 10000 1.4 359 07:44 21.02.2021
2312 Clouds 7 1018 83 10000 2.77 36 07:21 21.02.2021
2313 Rain 7 1019 78 10000 0.81 232 05:28 21.02.2021
2314 Clouds 7 1018 82 10000 2.32 218 02:40 21.02.2021
2315 Clouds 9 1014 77 7263 1.49 52 00:55 21.02.2021
2316 Clouds 10 1012 73 10000 2.76 49 00:20 21.02.2021
2317 Clouds 10 1012 73 10000 2.76 49 23:38 20.02.2021
2318 Clouds 11 1011 67 10000 3.26 49 22:55 20.02.2021
2319 Clouds 11 1011 67 10000 3.26 49 22:31 20.02.2021
2320 Clouds 13 1010 62 10000 3.7 51 21:47 20.02.2021
2321 Clouds 13 1011 57 10000 4.84 32 21:29 20.02.2021
2322 Clouds 13 1011 57 10000 4.84 32 20:56 20.02.2021
2323 Clouds 13 1011 57 10000 4.84 32 20:36 20.02.2021
2324 Clear 14 1011 55 10000 4.82 27 20:18 20.02.2021
2325 Clear 14 1011 55 10000 4.82 27 19:40 20.02.2021
2326 Clouds 14 1012 53 10000 4.11 23 18:54 20.02.2021
2327 Clouds 14 1012 53 10000 4.11 23 18:31 20.02.2021
2328 Clouds 13 1014 54 10000 3.5 12 17:47 20.02.2021
2329 Clouds 11 1016 60 10000 3.34 353 17:28 20.02.2021
2330 Clouds 11 1016 60 10000 3.34 353 16:49 20.02.2021
2331 Clouds 10 1018 66 10000 3.43 345 16:23 20.02.2021
2332 Clouds 10 1018 66 10000 3.43 345 15:42 20.02.2021
2333 Clouds 9 1018 68 10000 3.54 360 14:52 20.02.2021
2334 Clouds 8 1019 76 10000 2.59 10 14:25 20.02.2021
2335 Clouds 8 1019 76 10000 2.59 10 13:58 20.02.2021
2336 Clouds 8 1019 76 10000 2.59 10 13:39 20.02.2021
2337 Clouds 7 1019 83 10000 1.57 3 13:21 20.02.2021
2338 Clouds 6 1019 86 10000 1.73 348 12:44 20.02.2021
2339 Clouds 6 1019 88 10000 2.06 343 11:54 20.02.2021
2340 Clouds 6 1019 88 10000 2.06 343 11:35 20.02.2021
2341 Clouds 6 1018 89 10000 2.16 343 10:53 20.02.2021
2342 Clouds 6 1017 89 10000 2.04 342 10:29 20.02.2021
2343 Clouds 6 1017 89 10000 2.04 342 09:48 20.02.2021
2344 Clouds 6 1017 90 10000 2.93 5 09:18 20.02.2021
2345 Clouds 6 1017 90 10000 2.93 5 08:31 20.02.2021
2346 Clouds 6 1016 90 10000 2.94 17 07:50 20.02.2021
2347 Clouds 7 1017 87 10000 1.9 344 02:37 20.02.2021
2348 Clouds 7 1015 85 10000 2.34 334 02:19 20.02.2021
2349 Clouds 8 1013 79 10000 2.4 337 01:20 20.02.2021
2350 Clouds 9 1013 75 10000 2.23 9 00:42 20.02.2021
2351 Rain 10 1011 73 8019 2.54 51 23:43 19.02.2021
2352 Rain 11 1009 65 4849 3.18 69 22:51 19.02.2021
2353 Rain 12 1009 61 5277 3.13 88 22:26 19.02.2021
2354 Clouds 12 1009 61 5277 3.13 88 21:48 19.02.2021
2355 Clouds 13 1009 58 5706 3.06 99 21:28 19.02.2021
2356 Clouds 13 1009 58 5706 3.06 99 20:47 19.02.2021
2357 Clouds 13 1009 57 7258 3.16 102 20:27 19.02.2021
2358 Clouds 13 1009 57 7258 3.16 102 19:51 19.02.2021
2359 Clouds 13 1010 55 7928 3.15 98 19:23 19.02.2021
2360 Clouds 13 1010 55 7928 3.15 98 18:56 19.02.2021
2361 Clouds 13 1010 55 7928 3.15 98 18:33 19.02.2021
2362 Clouds 13 1012 52 10000 2.2 97 17:48 19.02.2021
2363 Clouds 12 1014 54 10000 1.22 103 16:51 19.02.2021
2364 Clouds 11 1015 59 10000 0.35 81 16:23 19.02.2021
2365 Clouds 11 1015 59 10000 0.35 81 15:57 19.02.2021
2366 Clouds 11 1015 59 10000 0.35 81 15:30 19.02.2021
2367 Clouds 10 1016 66 10000 0.67 325 14:56 19.02.2021
2368 Clouds 10 1016 66 10000 0.67 325 14:36 19.02.2021
2369 Clouds 9 1017 75 10000 1.3 317 13:57 19.02.2021
2370 Clouds 9 1017 75 10000 1.3 317 13:37 19.02.2021
2371 Clouds 7 1018 82 10000 0.92 328 13:19 19.02.2021
2372 Clouds 7 1018 82 10000 0.92 328 12:41 19.02.2021
2373 Clouds 6 1017 89 10000 0.86 347 12:22 19.02.2021
2374 Clouds 6 1017 89 10000 0.86 347 11:44 19.02.2021
2375 Clouds 6 1016 92 10000 0.78 332 11:20 19.02.2021
2376 Clouds 6 1016 92 10000 0.78 332 10:42 19.02.2021
2377 Clouds 6 1016 92 10000 1.07 322 10:20 19.02.2021
2378 Clouds 6 1016 92 10000 1.07 322 09:39 19.02.2021
2379 Clouds 6 1015 90 10000 1.08 345 09:21 19.02.2021
2380 Clouds 6 1015 90 10000 1.08 345 08:49 19.02.2021
2381 Clouds 6 1015 90 10000 1.76 351 08:22 19.02.2021
2382 Clouds 6 1015 90 10000 1.76 351 07:48 19.02.2021
2383 Clouds 7 1016 87 10000 1.87 355 07:27 19.02.2021
2384 Clouds 7 1016 87 10000 1.87 355 06:47 19.02.2021
2385 Clouds 7 1016 85 10000 1.71 26 04:44 19.02.2021
2386 Clouds 7 1016 81 10000 1.2 31 04:25 19.02.2021
2387 Clouds 7 1014 77 10000 1.4 73 01:46 19.02.2021
2388 Clouds 5 1013 88 7978 0.63 93 00:36 19.02.2021
2389 Clouds 5 1011 91 1668 2.69 244 23:52 18.02.2021
2390 Clouds 5 1011 91 1668 2.69 244 23:33 18.02.2021
2391 Rain 9 1009 74 5344 1.42 274 22:44 18.02.2021
2392 Rain 11 1009 62 10000 2.87 52 22:26 18.02.2021
2393 Clouds 11 1009 62 10000 2.87 52 21:47 18.02.2021
2394 Clouds 13 1009 54 10000 4.06 47 21:25 18.02.2021
2395 Clouds 13 1009 54 10000 4.06 47 21:25 18.02.2021
2396 Clouds 13 1009 54 10000 4.06 47 20:41 18.02.2021
2397 Clouds 13 1010 53 10000 4.73 53 20:23 18.02.2021
2398 Clouds 13 1010 53 10000 4.73 53 19:46 18.02.2021
2399 Clouds 13 1011 53 10000 4.56 46 19:26 18.02.2021
2400 Clouds 13 1011 52 10000 3.91 51 18:53 18.02.2021
2401 Clouds 13 1012 49 10000 2.73 38 18:29 18.02.2021
2402 Clouds 13 1012 49 10000 2.73 38 17:52 18.02.2021
2403 Clouds 12 1014 51 10000 2.15 10 17:26 18.02.2021
2404 Clouds 12 1014 51 10000 2.15 10 16:55 18.02.2021
2405 Clouds 12 1014 51 10000 2.15 10 16:36 18.02.2021
2406 Clouds 11 1015 56 10000 1.62 352 16:18 18.02.2021
2407 Clouds 11 1015 56 10000 1.62 352 15:38 18.02.2021
2408 Clouds 9 1016 64 10000 1.52 327 15:19 18.02.2021
2409 Clouds 9 1016 64 10000 1.52 327 14:46 18.02.2021
2410 Clouds 8 1017 71 10000 1.87 331 14:27 18.02.2021
2411 Clouds 8 1017 71 10000 1.87 331 13:45 18.02.2021
2412 Clouds 8 1017 72 10000 1.86 348 13:45 18.02.2021
2413 Clouds 6 1017 79 10000 1.7 349 13:19 18.02.2021
2414 Clouds 6 1017 79 10000 1.7 349 12:45 18.02.2021
2415 Clouds 6 1017 85 10000 1.53 347 12:22 18.02.2021
2416 Clouds 6 1017 85 10000 1.53 347 11:46 18.02.2021
2417 Clouds 5 1016 85 10000 1.45 355 11:26 18.02.2021
2418 Clouds 5 1016 85 10000 1.45 355 10:47 18.02.2021
2419 Clouds 6 1016 85 10000 0.91 1 10:29 18.02.2021
2420 Rain 6 1016 85 10000 0.91 1 09:49 18.02.2021
2421 Clouds 6 1015 86 10000 1.13 341 09:24 18.02.2021
2422 Clouds 6 1015 86 10000 1.13 341 08:47 18.02.2021
2423 Clouds 6 1015 86 10000 1.34 331 08:25 18.02.2021
2424 Clouds 6 1015 87 10000 1.32 338 07:34 18.02.2021
2425 Clouds 6 1016 88 10000 1.82 338 06:54 18.02.2021
2426 Clouds 6 1016 86 10000 2.36 10 03:31 18.02.2021
2427 Rain 8 1011 76 10000 2.07 54 23:56 17.02.2021
2428 Rain 8 1011 76 10000 2.07 54 23:30 17.02.2021
2429 Rain 7 1009 80 10000 2.67 83 22:53 17.02.2021
2430 Rain 8 1009 79 9227 2.22 115 22:27 17.02.2021
2431 Rain 8 1009 79 9227 2.22 115 21:57 17.02.2021
2432 Clouds 10 1008 71 4902 1.64 129 21:22 17.02.2021
2433 Clouds 10 1008 71 4902 1.64 129 20:52 17.02.2021
2434 Clouds 10 1008 71 4902 1.64 129 20:32 17.02.2021
2435 Clouds 11 1009 63 5820 2 91 19:51 17.02.2021
2436 Clouds 11 1009 63 5820 2 91 19:32 17.02.2021
2437 Clouds 12 1010 58 3660 2.65 76 18:49 17.02.2021
2438 Clouds 12 1010 58 3660 2.65 76 18:30 17.02.2021
2439 Clouds 12 1012 52 4908 2.46 66 17:42 17.02.2021
2440 Clouds 12 1013 52 10000 1.51 47 17:21 17.02.2021
2441 Clouds 12 1013 52 10000 1.51 47 16:49 17.02.2021
2442 Clouds 10 1014 59 10000 1.1 8 16:28 17.02.2021
2443 Clouds 10 1014 59 10000 1.1 8 15:45 17.02.2021
2444 Clouds 9 1016 66 10000 1.22 348 15:27 17.02.2021
2445 Clouds 9 1016 66 10000 1.22 348 14:51 17.02.2021
2446 Clouds 8 1016 72 10000 1.21 356 14:29 17.02.2021
2447 Clouds 8 1016 72 10000 1.21 356 13:52 17.02.2021
2448 Clouds 8 1016 72 10000 1.21 356 13:33 17.02.2021
2449 Clouds 6 1016 83 10000 1.52 358 12:57 17.02.2021
2450 Clouds 5 1016 90 10000 1.43 350 12:26 17.02.2021
2451 Clouds 5 1016 90 10000 1.43 350 11:47 17.02.2021
2452 Clouds 5 1015 92 10000 1.44 347 11:29 17.02.2021
2453 Clouds 5 1015 92 10000 1.44 347 10:50 17.02.2021
2454 Clouds 5 1015 92 10000 1.44 347 10:31 17.02.2021
2455 Clouds 6 1015 89 10000 1.17 351 09:58 17.02.2021
2456 Clouds 6 1015 89 10000 1.17 351 09:37 17.02.2021
2457 Clouds 6 1014 89 10000 1.26 12 08:56 17.02.2021
2458 Clouds 6 1014 89 10000 1.26 12 08:36 17.02.2021
2459 Clouds 6 1015 89 10000 1.55 15 08:18 17.02.2021
2460 Clouds 6 1015 86 10000 1.57 350 06:37 17.02.2021
2461 Clouds 7 1015 82 10000 2.91 43 03:53 17.02.2021
2462 Clouds 8 1014 80 10000 2.75 55 02:32 17.02.2021
2463 Clouds 9 1013 76 10000 3.26 79 01:37 17.02.2021
2464 Clouds 11 1009 62 10000 2.81 65 00:28 17.02.2021
2465 Clouds 11 1009 62 10000 2.81 65 23:43 16.02.2021
2466 Clouds 11 1007 59 10000 1.94 74 23:23 16.02.2021
2467 Clouds 11 1007 59 10000 1.94 74 22:41 16.02.2021
2468 Clouds 11 1007 58 10000 1.81 98 22:21 16.02.2021
2469 Clouds 11 1007 58 10000 1.81 98 21:40 16.02.2021
2470 Clouds 12 1007 53 10000 1.46 103 21:22 16.02.2021
2471 Clouds 12 1007 53 10000 1.46 103 20:57 16.02.2021
2472 Clouds 12 1007 53 10000 1.46 103 20:38 16.02.2021
2473 Clouds 13 1008 44 10000 1.62 56 20:20 16.02.2021
2474 Clouds 13 1008 44 10000 1.62 56 19:40 16.02.2021
2475 Clouds 14 1010 40 10000 2.14 35 19:21 16.02.2021
2476 Clouds 14 1010 43 10000 2.88 35 18:38 16.02.2021
2477 Clouds 13 1012 42 10000 2.34 12 18:19 16.02.2021
2478 Clouds 13 1012 42 10000 2.34 12 17:49 16.02.2021
2479 Clouds 12 1013 47 10000 2.32 3 17:23 16.02.2021
2480 Clouds 12 1013 47 10000 2.32 3 16:47 16.02.2021
2481 Clouds 11 1014 55 10000 2.44 1 16:24 16.02.2021
2482 Clouds 11 1014 55 10000 2.44 1 15:47 16.02.2021
2483 Clouds 10 1015 62 10000 2.23 12 15:26 16.02.2021
2484 Clouds 10 1015 62 10000 2.23 12 14:48 16.02.2021
2485 Clouds 8 1016 71 10000 1.74 14 14:29 16.02.2021
2486 Clouds 8 1016 71 10000 1.74 14 13:56 16.02.2021
2487 Clouds 8 1016 71 10000 1.74 14 13:33 16.02.2021
2488 Clouds 7 1016 79 10000 0.8 25 12:44 16.02.2021
2489 Clouds 6 1016 86 10000 0.68 339 12:24 16.02.2021
2490 Clouds 6 1016 86 10000 0.68 339 11:49 16.02.2021
2491 Clouds 5 1015 88 10000 0.94 358 11:23 16.02.2021
2492 Clouds 5 1015 88 10000 0.94 358 10:56 16.02.2021
2493 Clouds 5 1015 88 10000 0.94 358 10:38 16.02.2021
2494 Clouds 6 1015 88 10000 1.13 26 10:20 16.02.2021
2495 Clouds 6 1015 88 10000 1.13 26 09:47 16.02.2021
2496 Clouds 6 1015 88 10000 1.13 26 09:47 16.02.2021
2497 Clouds 6 1014 85 10000 1.23 19 09:26 16.02.2021
2498 Clouds 6 1014 85 10000 1.23 19 08:42 16.02.2021
2499 Clouds 6 1014 84 10000 1.45 4 08:21 16.02.2021
2500 Clouds 6 1014 81 10000 1.49 344 07:25 16.02.2021
2501 Clouds 7 1015 79 10000 2.36 3 05:28 16.02.2021
2502 Clouds 10 1010 65 10000 2.98 55 00:51 16.02.2021
2503 Clouds 11 1008 64 10000 3 71 23:41 15.02.2021
2504 Clouds 12 1007 56 10000 3.27 45 23:20 15.02.2021
2505 Clouds 12 1007 56 10000 3.27 45 22:43 15.02.2021
2506 Clouds 13 1006 49 10000 1.5 63 22:21 15.02.2021
2507 Clouds 13 1006 49 10000 1.5 63 21:42 15.02.2021
2508 Clouds 13 1006 46 9848 2.75 96 21:21 15.02.2021
2509 Clouds 13 1006 46 9848 2.75 96 20:47 15.02.2021
2510 Clouds 15 1008 42 10000 3.91 61 20:26 15.02.2021
2511 Clouds 15 1008 42 10000 3.91 61 20:26 15.02.2021
2512 Clouds 15 1008 42 10000 3.91 61 19:44 15.02.2021
2513 Clouds 14 1009 39 10000 3.1 97 19:23 15.02.2021
2514 Clouds 14 1009 39 10000 3.1 97 18:47 15.02.2021
2515 Clouds 14 1010 37 10000 1.66 85 18:26 15.02.2021
2516 Clouds 14 1010 37 10000 1.66 85 17:43 15.02.2021
2517 Clouds 14 1012 37 10000 0.91 39 17:25 15.02.2021
2518 Clouds 14 1012 37 10000 0.91 39 16:57 15.02.2021
2519 Clouds 13 1013 40 10000 0.97 320 16:28 15.02.2021
2520 Clouds 13 1013 40 10000 0.97 320 15:57 15.02.2021
2521 Clouds 13 1013 40 10000 0.97 320 15:38 15.02.2021
2522 Clouds 12 1014 44 10000 1.34 290 15:18 15.02.2021
2523 Clouds 12 1014 44 10000 1.34 290 14:38 15.02.2021
2524 Clouds 10 1015 53 10000 2.02 285 14:19 15.02.2021
2525 Clouds 10 1015 53 10000 2.02 285 13:47 15.02.2021
2526 Clouds 8 1015 63 10000 1.35 293 13:19 15.02.2021
2527 Clouds 8 1015 63 10000 1.35 293 12:45 15.02.2021
2528 Clouds 7 1015 72 10000 1.09 300 12:21 15.02.2021
2529 Clouds 7 1015 72 10000 1.09 300 11:45 15.02.2021
2530 Clouds 6 1015 80 10000 0.82 347 11:22 15.02.2021
2531 Clouds 6 1015 80 10000 0.82 347 10:49 15.02.2021
2532 Clouds 6 1014 83 10000 1.24 21 10:25 15.02.2021
2533 Clouds 6 1014 83 10000 1.24 21 09:55 15.02.2021
2534 Clouds 6 1014 83 10000 1.24 21 09:33 15.02.2021
2535 Clouds 6 1014 83 10000 1.5 12 08:50 15.02.2021
2536 Clouds 7 1014 82 10000 1.79 2 07:40 15.02.2021
2537 Clouds 7 1014 81 10000 2.24 343 06:59 15.02.2021
2538 Clouds 7 1014 81 10000 2.24 343 06:39 15.02.2021
2539 Clouds 8 1013 74 10000 3.38 40 02:32 15.02.2021
2540 Clouds 10 1009 62 10000 2.39 55 00:46 15.02.2021
2541 Clouds 11 1008 53 10000 3.27 37 23:41 14.02.2021
2542 Clouds 13 1007 43 10000 3.58 36 23:22 14.02.2021
2543 Clouds 13 1007 43 10000 3.58 36 22:38 14.02.2021
2544 Clouds 14 1006 39 10000 1.73 89 22:19 14.02.2021
2545 Clouds 14 1006 39 10000 1.73 89 21:48 14.02.2021
2546 Clouds 15 1005 36 10000 3.37 115 21:29 14.02.2021
2547 Clouds 15 1005 36 10000 3.37 115 20:46 14.02.2021
2548 Clouds 16 1006 32 10000 3.32 94 20:26 14.02.2021
2549 Clouds 16 1006 32 10000 3.32 94 19:48 14.02.2021
2550 Clouds 16 1007 30 10000 2.15 68 18:56 14.02.2021
2551 Clouds 16 1007 30 10000 1.91 73 18:37 14.02.2021
2552 Clouds 15 1009 31 10000 1.09 36 17:57 14.02.2021
2553 Clouds 15 1009 31 10000 1.09 36 17:36 14.02.2021
2554 Clouds 14 1011 33 10000 0.62 350 16:55 14.02.2021
2555 Clouds 14 1011 33 10000 0.62 350 16:33 14.02.2021
2556 Clouds 13 1012 36 10000 0.85 306 15:53 14.02.2021
2557 Clouds 13 1012 36 10000 0.85 306 15:35 14.02.2021
2558 Clouds 12 1013 40 10000 1.14 289 14:49 14.02.2021
2559 Clouds 10 1014 46 10000 1.72 279 14:27 14.02.2021
2560 Clouds 10 1014 46 10000 1.72 279 13:54 14.02.2021
2561 Clouds 10 1014 46 10000 1.72 279 13:30 14.02.2021
2562 Clouds 9 1014 51 10000 1.92 262 12:44 14.02.2021
2563 Clouds 7 1014 70 10000 1.74 245 12:20 14.02.2021
2564 Clouds 7 1014 70 10000 1.74 245 11:50 14.02.2021
2565 Clouds 6 1014 82 10000 1.31 262 11:21 14.02.2021
2566 Clouds 6 1014 82 10000 1.31 262 10:39 14.02.2021
2567 Clouds 6 1013 84 10000 1.05 298 09:57 14.02.2021
2568 Clouds 6 1013 84 10000 1.05 298 09:38 14.02.2021
2569 Clouds 7 1013 83 10000 1.41 355 09:20 14.02.2021
2570 Clouds 7 1013 83 10000 1.41 355 08:39 14.02.2021
2571 Clouds 7 1013 81 10000 2.41 22 07:56 14.02.2021
2572 Clear 8 1013 77 10000 1.62 47 06:49 14.02.2021
2573 Clear 8 1013 78 10000 1.28 50 05:41 14.02.2021
2574 Clear 9 1013 75 10000 2.4 353 03:30 14.02.2021
2575 Clear 10 1010 65 10000 3.03 42 01:57 14.02.2021
2576 Clouds 11 1008 60 10000 2.33 73 00:47 14.02.2021
2577 Clouds 12 1007 49 10000 0.64 105 00:22 14.02.2021
2578 Clouds 12 1007 49 10000 0.64 105 23:40 13.02.2021
2579 Clouds 14 1005 37 10000 1.36 244 23:20 13.02.2021
2580 Clouds 14 1005 37 10000 1.36 244 22:41 13.02.2021
2581 Clouds 15 1004 34 10000 0.78 282 22:18 13.02.2021
2582 Clouds 15 1004 34 10000 0.78 282 21:42 13.02.2021
2583 Clouds 16 1005 31 10000 0.76 149 20:53 13.02.2021
2584 Clouds 17 1006 27 10000 1.79 209 20:29 13.02.2021
2585 Clouds 17 1006 27 10000 1.79 209 19:55 13.02.2021
2586 Clouds 17 1006 27 10000 1.79 209 19:37 13.02.2021
2587 Clouds 17 1007 29 10000 0.75 296 19:18 13.02.2021
2588 Clouds 17 1007 29 10000 0.75 296 18:38 13.02.2021
2589 Clouds 16 1009 31 10000 1.86 333 17:55 13.02.2021
2590 Clouds 16 1009 31 10000 1.86 333 17:36 13.02.2021
2591 Clouds 14 1011 35 10000 2.03 332 17:18 13.02.2021
2592 Clouds 14 1011 35 10000 2.03 332 16:42 13.02.2021
2593 Clouds 12 1012 41 10000 1.88 320 16:18 13.02.2021
2594 Clouds 10 1014 48 10000 1.94 316 15:29 13.02.2021
2595 Clouds 10 1014 48 10000 1.94 316 14:50 13.02.2021
2596 Clouds 10 1014 48 10000 1.94 316 14:30 13.02.2021
2597 Clouds 8 1015 61 10000 2.29 320 13:44 13.02.2021
2598 Clouds 6 1015 75 10000 2.38 326 13:24 13.02.2021
2599 Clouds 7 1015 75 10000 2.3 325 12:45 13.02.2021
2600 Clouds 5 1015 88 10000 2.17 336 12:18 13.02.2021
2601 Clouds 5 1015 88 10000 2.17 336 11:43 13.02.2021
2602 Clouds 5 1015 92 10000 1.94 353 11:19 13.02.2021
2603 Clouds 5 1015 92 10000 1.94 353 10:45 13.02.2021
2604 Clouds 5 1015 93 10000 2.16 358 10:25 13.02.2021
2605 Clouds 5 1015 93 10000 2.16 358 09:55 13.02.2021
2606 Clouds 5 1015 93 10000 2.16 358 09:30 13.02.2021
2607 Clouds 5 1014 93 10000 2.06 3 08:55 13.02.2021
2608 Clouds 5 1014 93 10000 2.06 3 08:34 13.02.2021
2609 Clouds 6 1014 86 10000 2.59 355 07:50 13.02.2021
2610 Clouds 6 1015 88 10000 2.04 356 06:38 13.02.2021
2611 Clouds 7 1015 86 10000 2.45 357 05:26 13.02.2021
2612 Clear 7 1015 83 10000 2.85 8 03:58 13.02.2021
2613 Clear 8 1013 73 10000 3.59 39 01:43 13.02.2021
2614 Clear 9 1010 66 10000 2.86 56 00:36 13.02.2021
2615 Clear 10 1009 54 10000 2.13 82 23:54 12.02.2021
2616 Clear 12 1008 44 10000 1.52 62 23:24 12.02.2021
2617 Clear 12 1008 44 10000 1.52 62 22:42 12.02.2021
2618 Clear 13 1007 41 10000 1.94 79 22:21 12.02.2021
2619 Clear 13 1007 41 10000 1.94 79 21:45 12.02.2021
2620 Clear 14 1008 38 10000 2.47 97 21:26 12.02.2021
2621 Clear 14 1008 38 10000 2.47 97 20:46 12.02.2021
2622 Clear 15 1008 33 10000 1.67 136 20:27 12.02.2021
2623 Clear 15 1008 33 10000 1.67 136 19:57 12.02.2021
2624 Clear 15 1008 33 10000 1.67 136 19:37 12.02.2021
2625 Clear 15 1009 30 10000 1.17 173 18:55 12.02.2021
2626 Clear 14 1011 32 10000 0.71 214 18:29 12.02.2021
2627 Clear 14 1011 32 10000 0.71 214 17:44 12.02.2021
2628 Clear 13 1013 37 10000 1.11 276 17:21 12.02.2021
2629 Clear 11 1014 43 10000 1.53 280 16:28 12.02.2021
2630 Clear 11 1014 43 10000 1.53 280 15:46 12.02.2021
2631 Clear 9 1016 50 10000 1.41 274 15:21 12.02.2021
2632 Clear 9 1016 50 10000 1.41 274 14:42 12.02.2021
2633 Clear 8 1016 57 10000 1.07 287 14:23 12.02.2021
2634 Clear 8 1016 57 10000 1.07 287 13:41 12.02.2021
2635 Clouds 6 1017 71 10000 1.38 298 13:22 12.02.2021
2636 Clouds 6 1017 71 10000 1.38 298 12:47 12.02.2021
2637 Clouds 5 1017 81 10000 1.17 335 12:28 12.02.2021
2638 Clouds 5 1017 81 10000 1.17 335 11:42 12.02.2021
2639 Clouds 5 1016 84 10000 1.33 349 11:19 12.02.2021
2640 Clouds 5 1016 84 10000 1.33 349 10:41 12.02.2021
2641 Clouds 5 1016 82 10000 1.52 343 09:49 12.02.2021
2642 Clouds 5 1015 80 10000 1.62 350 09:29 12.02.2021
2643 Clouds 5 1015 80 10000 1.62 350 08:49 12.02.2021
2644 Clouds 6 1015 77 10000 1.48 1 08:28 12.02.2021
2645 Clouds 6 1015 77 10000 1.48 1 07:57 12.02.2021
2646 Clouds 6 1015 77 10000 1.48 1 07:32 12.02.2021
2647 Clouds 6 1015 79 10000 1.41 19 06:55 12.02.2021
2648 Clouds 6 1016 82 10000 2.16 22 05:47 12.02.2021
2649 Clouds 6 1016 84 10000 1.82 42 04:32 12.02.2021
2650 Clear 8 1013 65 10000 2.31 77 01:35 12.02.2021
2651 Clouds 11 1009 39 10000 4.38 221 23:41 11.02.2021
2652 Clouds 14 1007 32 10000 7.17 229 23:22 11.02.2021
2653 Clouds 14 1007 32 10000 7.17 229 22:57 11.02.2021
2654 Clouds 14 1007 32 10000 7.17 229 22:38 11.02.2021
2655 Clouds 15 1007 30 10000 6.29 243 22:20 11.02.2021
2656 Clouds 15 1007 30 10000 6.29 243 21:38 11.02.2021
2657 Clear 15 1007 30 10000 6.11 250 21:19 11.02.2021
2658 Clear 15 1007 30 10000 6.11 250 20:42 11.02.2021
2659 Clear 15 1007 30 10000 6.1 259 20:22 11.02.2021
2660 Clear 15 1007 30 10000 6.1 259 19:48 11.02.2021
2661 Clouds 15 1009 30 10000 6.75 267 19:29 11.02.2021
2662 Clear 15 1009 30 10000 4.65 258 18:55 11.02.2021
2663 Clear 13 1011 34 10000 2.34 268 18:29 11.02.2021
2664 Clear 13 1011 34 10000 2.34 268 17:54 11.02.2021
2665 Clear 12 1013 39 10000 1.97 315 17:22 11.02.2021
2666 Clear 12 1013 39 10000 1.97 315 17:22 11.02.2021
2667 Clear 12 1013 39 10000 1.97 315 16:58 11.02.2021
2668 Clear 12 1013 39 10000 1.97 315 16:40 11.02.2021
2669 Clear 11 1014 43 10000 2.36 317 16:21 11.02.2021
2670 Clear 11 1014 43 10000 2.36 317 15:42 11.02.2021
2671 Clear 9 1016 49 10000 1.99 316 15:24 11.02.2021
2672 Clear 9 1016 49 10000 1.99 316 14:47 11.02.2021
2673 Clear 7 1016 58 10000 1.65 317 14:28 11.02.2021
2674 Clear 7 1016 58 10000 1.65 317 13:41 11.02.2021
2675 Clouds 6 1016 72 10000 1.59 337 13:19 11.02.2021
2676 Clouds 6 1016 72 10000 1.59 337 12:51 11.02.2021
2677 Clouds 4 1016 85 10000 1.22 340 12:26 11.02.2021
2678 Clouds 4 1016 85 10000 1.22 340 11:46 11.02.2021
2679 Clouds 4 1016 89 10000 1.3 344 11:22 11.02.2021
2680 Clouds 4 1016 89 10000 1.3 344 10:44 11.02.2021
2681 Clouds 4 1015 88 10000 1.58 359 10:26 11.02.2021
2682 Clouds 4 1015 88 10000 1.58 359 09:53 11.02.2021
2683 Clouds 5 1015 85 10000 2.09 354 09:22 11.02.2021
2684 Clouds 5 1015 85 10000 2.09 354 08:51 11.02.2021
2685 Clouds 5 1015 85 10000 2.05 351 08:24 11.02.2021
2686 Clouds 5 1015 85 10000 1.81 13 07:30 11.02.2021
2687 Clouds 5 1015 83 10000 2.05 21 06:40 11.02.2021
2688 Clouds 6 1016 82 10000 2.21 16 05:33 11.02.2021
2689 Clouds 7 1013 80 10000 3.15 37 02:29 11.02.2021
2690 Clouds 7 1012 79 10000 3.2 58 00:54 11.02.2021
2691 Clouds 8 1010 74 10000 3.46 75 00:21 11.02.2021
2692 Clouds 8 1010 74 10000 3.46 75 23:44 10.02.2021
2693 Clouds 10 1009 64 10000 3.47 84 22:53 10.02.2021
2694 Clouds 10 1009 64 10000 3.47 84 22:53 10.02.2021
2695 Clouds 10 1009 64 10000 3.47 84 22:31 10.02.2021
2696 Clouds 11 1008 59 10000 2.7 75 21:59 10.02.2021
2697 Clouds 11 1008 59 10000 2.7 75 21:38 10.02.2021
2698 Clouds 12 1009 55 10000 3.11 48 21:19 10.02.2021
2699 Clouds 12 1009 55 10000 3.11 48 20:41 10.02.2021
2700 Clouds 12 1009 55 10000 3.36 30 20:22 10.02.2021
2701 Clouds 12 1009 55 10000 3.36 30 19:46 10.02.2021
2702 Clouds 12 1010 56 10000 3.73 14 19:25 10.02.2021
2703 Clouds 11 1010 59 10000 3.41 14 18:44 10.02.2021
2704 Clouds 12 1012 58 10000 3.54 16 18:23 10.02.2021
2705 Clouds 12 1012 58 10000 3.54 16 17:57 10.02.2021
2706 Clouds 11 1013 61 10000 3.19 19 17:24 10.02.2021
2707 Clouds 11 1013 61 10000 3.19 19 17:24 10.02.2021
2708 Clouds 11 1013 61 10000 3.19 19 16:53 10.02.2021
2709 Clouds 11 1013 61 10000 3.19 19 16:31 10.02.2021
2710 Clouds 10 1015 64 10000 2.54 8 15:59 10.02.2021
2711 Clouds 9 1016 68 10000 2.22 4 15:24 10.02.2021
2712 Clouds 9 1016 68 10000 2.22 4 14:51 10.02.2021
2713 Clouds 9 1016 68 10000 2.22 4 14:31 10.02.2021
2714 Clouds 8 1016 72 7418 2.15 6 13:53 10.02.2021
2715 Clouds 7 1016 77 10000 1.95 15 13:29 10.02.2021
2716 Clouds 7 1016 79 10000 2.34 18 12:52 10.02.2021
2717 Clouds 7 1016 79 10000 2.34 18 12:30 10.02.2021
2718 Clouds 7 1016 79 10000 2.34 18 12:30 10.02.2021
2719 Clouds 6 1016 83 10000 2.49 24 11:56 10.02.2021
2720 Clouds 6 1016 83 10000 2.49 24 11:37 10.02.2021
2721 Clouds 6 1015 85 10000 2.2 14 11:19 10.02.2021
2722 Clouds 6 1014 85 10000 2.04 7 10:23 10.02.2021
2723 Clouds 6 1014 85 10000 2.04 7 09:53 10.02.2021
2724 Clouds 6 1014 85 10000 2.04 7 09:30 10.02.2021
2725 Clouds 6 1014 87 10000 1.69 357 08:52 10.02.2021
2726 Clouds 6 1014 87 10000 1.69 357 08:32 10.02.2021
2727 Clouds 6 1014 87 10000 1.87 359 07:34 10.02.2021
2728 Clouds 6 1015 88 10000 1.82 348 06:21 10.02.2021
2729 Clouds 9 1011 79 9106 3.65 56 01:24 10.02.2021
2730 Clouds 10 1009 74 10000 2.85 86 23:49 09.02.2021
2731 Clouds 10 1009 74 10000 2.85 86 23:30 09.02.2021
2732 Clouds 11 1008 67 6156 3.32 82 22:45 09.02.2021
2733 Clouds 12 1008 63 5374 3.66 47 22:24 09.02.2021
2734 Clouds 12 1008 63 5374 3.66 47 21:48 09.02.2021
2735 Clouds 12 1007 61 6136 2.95 49 21:24 09.02.2021
2736 Clouds 12 1007 61 6136 2.95 49 20:44 09.02.2021
2737 Clouds 13 1008 59 5216 2.46 23 20:25 09.02.2021
2738 Clouds 13 1008 59 5216 2.46 23 19:52 09.02.2021
2739 Clouds 13 1009 58 5975 2.21 354 19:29 09.02.2021
2740 Clouds 12 1010 61 10000 2.62 3 18:56 09.02.2021
2741 Clouds 12 1010 61 10000 2.62 3 18:35 09.02.2021
2742 Clouds 11 1012 63 6656 2.17 4 17:56 09.02.2021
2743 Clouds 11 1012 63 6656 2.17 4 17:36 09.02.2021
2744 Clouds 11 1013 65 7253 2.71 5 17:18 09.02.2021
2745 Clouds 11 1013 65 7253 2.71 5 16:38 09.02.2021
2746 Clouds 10 1015 67 10000 3.21 9 16:18 09.02.2021
2747 Clouds 10 1015 67 10000 3.21 9 15:41 09.02.2021
2748 Clouds 10 1016 70 10000 2.76 9 15:23 09.02.2021
2749 Clouds 10 1016 70 10000 2.76 9 14:48 09.02.2021
2750 Clouds 9 1016 75 10000 2.21 18 14:26 09.02.2021
2751 Clouds 9 1016 75 10000 2.21 18 13:43 09.02.2021
2752 Clouds 7 1016 83 10000 1.57 27 13:20 09.02.2021
2753 Clouds 7 1017 84 10000 1.6 6 12:48 09.02.2021
2754 Clouds 6 1016 92 10000 1.04 360 12:28 09.02.2021
2755 Clouds 6 1016 92 10000 1.04 360 11:44 09.02.2021
2756 Clouds 6 1015 93 10000 1.59 336 11:23 09.02.2021
2757 Clouds 6 1015 93 10000 1.59 336 10:58 09.02.2021
2758 Clouds 6 1015 89 10000 1.71 345 10:23 09.02.2021
2759 Clouds 6 1015 89 10000 1.71 345 09:59 09.02.2021
2760 Clouds 6 1015 89 10000 1.71 345 09:40 09.02.2021
2761 Clouds 7 1015 86 10000 1.94 353 09:20 09.02.2021
2762 Clouds 7 1015 86 10000 1.94 353 08:30 09.02.2021
2763 Clouds 7 1015 86 10000 2.16 17 07:54 09.02.2021
2764 Clouds 7 1016 87 10000 1.5 77 05:35 09.02.2021
2765 Clouds 7 1016 87 10000 1.7 52 03:49 09.02.2021
2766 Clouds 8 1014 80 10000 2.54 46 02:26 09.02.2021
2767 Clouds 8 1013 81 10000 2.5 46 00:31 09.02.2021
2768 Clouds 9 1011 75 10000 3.09 24 23:44 08.02.2021
2769 Clouds 10 1009 68 10000 3.96 46 23:19 08.02.2021
2770 Clouds 10 1009 68 10000 3.96 46 22:43 08.02.2021
2771 Clouds 11 1008 66 10000 3.87 60 22:22 08.02.2021
2772 Clouds 11 1008 66 10000 3.87 60 21:53 08.02.2021
2773 Clouds 11 1008 66 10000 3.87 60 21:31 08.02.2021
2774 Rain 11 1008 65 7631 2.77 62 20:57 08.02.2021
2775 Rain 11 1008 65 7631 2.77 62 20:36 08.02.2021
2776 Rain 12 1009 62 5849 3.3 58 20:18 08.02.2021
2777 Clouds 12 1009 62 5849 3.3 58 19:41 08.02.2021
2778 Rain 12 1011 64 4643 2.95 60 19:22 08.02.2021
2779 Rain 12 1011 64 4643 2.95 60 18:46 08.02.2021
2780 Clouds 12 1012 62 5405 3.22 61 18:19 08.02.2021
2781 Clouds 12 1012 62 5405 3.22 61 17:43 08.02.2021
2782 Rain 12 1014 63 6400 3.3 57 17:24 08.02.2021
2783 Clouds 12 1014 63 6400 3.3 57 16:43 08.02.2021
2784 Clouds 11 1015 66 6409 3.17 52 16:21 08.02.2021
2785 Clouds 11 1015 66 6409 3.17 52 15:42 08.02.2021
2786 Clouds 10 1016 68 7442 2.57 48 15:20 08.02.2021
2787 Clouds 10 1016 68 7442 2.57 48 14:51 08.02.2021
2788 Clouds 10 1016 68 7442 2.57 48 14:31 08.02.2021
2789 Clouds 9 1017 72 8196 2.04 24 13:56 08.02.2021
2790 Clouds 9 1017 72 10000 2.21 7 13:32 08.02.2021
2791 Clouds 8 1017 79 10000 1.99 12 12:53 08.02.2021
2792 Clouds 8 1017 79 10000 1.99 12 12:35 08.02.2021
2793 Clouds 7 1017 84 10000 2.5 47 11:48 08.02.2021
2794 Clouds 7 1017 84 10000 2.27 75 11:22 08.02.2021
2795 Clouds 7 1017 84 10000 2.27 75 10:45 08.02.2021
2796 Clouds 8 1016 81 10000 1.77 148 10:24 08.02.2021
2797 Clouds 8 1016 81 10000 1.77 148 09:53 08.02.2021
2798 Clouds 8 1016 81 10000 1.77 148 09:35 08.02.2021
2799 Clouds 8 1016 79 10000 0.58 285 08:46 08.02.2021
2800 Clouds 8 1016 80 10000 0.9 305 08:20 08.02.2021
2801 Clouds 8 1016 81 10000 1.16 273 07:22 08.02.2021
2802 Clouds 8 1017 81 10000 0.63 288 06:25 08.02.2021
2803 Clouds 9 1015 69 10000 2.15 106 02:29 08.02.2021
2804 Clouds 9 1015 69 10000 2.15 106 01:47 08.02.2021
2805 Rain 8 1012 72 10000 2.27 231 00:21 08.02.2021
2806 Clouds 8 1012 72 10000 2.27 231 23:49 07.02.2021
2807 Clouds 7 1011 78 10000 2.19 295 23:20 07.02.2021
2808 Clouds 7 1011 78 10000 2.19 295 22:45 07.02.2021
2809 Clouds 8 1010 80 10000 4.25 316 22:26 07.02.2021
2810 Rain 8 1010 80 10000 4.25 316 21:53 07.02.2021
2811 Rain 12 1010 63 6906 3.65 353 21:28 07.02.2021
2812 Rain 12 1010 63 6906 3.65 353 20:59 07.02.2021
2813 Rain 12 1010 63 6906 3.65 353 20:40 07.02.2021
2814 Rain 13 1010 60 5219 3.1 53 20:22 07.02.2021
2815 Rain 13 1010 60 5219 3.1 53 20:22 07.02.2021
2816 Rain 13 1010 60 5219 3.1 53 19:39 07.02.2021
2817 Rain 13 1010 61 4487 3.21 67 19:20 07.02.2021
2818 Clouds 13 1010 60 5398 3.39 73 18:40 07.02.2021
2819 Clouds 13 1011 61 5032 3.36 86 18:22 07.02.2021
2820 Clouds 13 1011 61 5032 3.36 86 17:44 07.02.2021
2821 Clouds 13 1013 58 6143 3.1 85 17:21 07.02.2021
2822 Clouds 13 1013 58 6143 3.1 85 16:50 07.02.2021
2823 Clouds 12 1014 62 6412 2.57 73 16:29 07.02.2021
2824 Clouds 12 1014 62 6412 2.57 73 15:59 07.02.2021
2825 Clouds 12 1014 62 6412 2.57 73 15:40 07.02.2021
2826 Clouds 11 1015 69 10000 2.3 49 15:21 07.02.2021
2827 Clouds 11 1015 69 10000 2.3 49 14:40 07.02.2021
2828 Clouds 9 1016 75 10000 2.11 25 14:22 07.02.2021
2829 Clouds 9 1016 75 10000 2.11 25 13:40 07.02.2021
2830 Clouds 8 1017 82 10000 1.87 358 13:22 07.02.2021
2831 Clouds 8 1017 82 10000 1.87 358 12:39 07.02.2021
2832 Clouds 7 1017 88 10000 1.94 356 12:20 07.02.2021
2833 Clouds 7 1017 88 10000 1.94 356 11:42 07.02.2021
2834 Clouds 7 1016 87 10000 2.12 1 11:24 07.02.2021
2835 Clouds 8 1015 83 10000 2.17 11 10:29 07.02.2021
2836 Clouds 8 1015 83 10000 2.17 11 09:57 07.02.2021
2837 Clouds 8 1015 83 10000 2.17 11 09:38 07.02.2021
2838 Clouds 8 1015 81 10000 2.16 12 09:18 07.02.2021
2839 Clouds 8 1015 80 10000 1.61 5 07:57 07.02.2021
2840 Clouds 8 1016 79 10000 1.15 20 06:32 07.02.2021
2841 Clouds 8 1017 81 10000 1.91 78 04:45 07.02.2021
2842 Clouds 9 1016 78 10000 2.5 41 02:52 07.02.2021
2843 Rain 10 1013 73 10000 3.55 56 00:39 07.02.2021
2844 Rain 11 1011 69 10000 3.61 60 23:53 06.02.2021
2845 Clouds 12 1010 64 10000 3.52 70 23:19 06.02.2021
2846 Clouds 13 1010 60 10000 3.57 80 22:25 06.02.2021
2847 Clouds 13 1010 60 10000 3.57 80 21:38 06.02.2021
2848 Clouds 13 1010 59 10000 3.49 83 21:20 06.02.2021
2849 Clouds 13 1010 59 10000 3.49 83 20:44 06.02.2021
2850 Clouds 13 1010 59 10000 4.08 75 20:23 06.02.2021
2851 Clouds 13 1010 59 10000 4.08 75 19:51 06.02.2021
2852 Clouds 15 1012 48 10000 3.63 67 19:26 06.02.2021
2853 Clouds 15 1012 48 10000 3.63 67 18:46 06.02.2021
2854 Clouds 14 1013 47 10000 2.54 62 18:27 06.02.2021
2855 Clouds 14 1013 47 10000 2.54 62 17:41 06.02.2021
2856 Clouds 13 1014 54 10000 1.85 56 17:21 06.02.2021
2857 Clouds 13 1014 54 10000 1.85 56 17:21 06.02.2021
2858 Clouds 13 1014 54 10000 1.85 56 16:57 06.02.2021
2859 Clouds 13 1014 54 10000 1.85 56 16:34 06.02.2021
2860 Clouds 11 1016 64 10000 1.3 47 15:57 06.02.2021
2861 Clouds 11 1016 64 10000 1.3 47 15:38 06.02.2021
2862 Clouds 10 1017 71 10000 0.71 38 15:18 06.02.2021
2863 Clouds 10 1017 71 10000 0.71 38 14:44 06.02.2021
2864 Clouds 9 1017 76 10000 0.92 355 14:22 06.02.2021
2865 Clouds 9 1017 76 10000 0.92 355 13:47 06.02.2021
2866 Clouds 8 1017 82 10000 1.57 352 12:56 06.02.2021
2867 Clouds 7 1017 88 10000 1.67 11 12:21 06.02.2021
2868 Clouds 7 1017 88 10000 1.67 11 11:47 06.02.2021
2869 Clouds 7 1016 89 10000 1.78 12 11:22 06.02.2021
2870 Clouds 7 1016 89 10000 1.78 12 10:56 06.02.2021
2871 Clouds 7 1016 89 10000 1.54 17 10:28 06.02.2021
2872 Clouds 7 1016 89 10000 1.54 17 09:57 06.02.2021
2873 Clouds 7 1016 89 10000 1.54 17 09:36 06.02.2021
2874 Clouds 7 1015 88 10000 1.66 23 09:18 06.02.2021
2875 Clouds 7 1015 88 10000 1.66 23 08:33 06.02.2021
2876 Clouds 8 1015 86 10000 1.48 42 07:59 06.02.2021
2877 Clouds 8 1017 87 3763 2.14 91 05:43 06.02.2021
2878 Clouds 9 1017 87 8101 2.3 60 03:56 06.02.2021
2879 Clouds 10 1014 79 10000 2.74 30 01:58 06.02.2021
2880 Clouds 10 1013 76 10000 2.87 46 00:48 06.02.2021
2881 Clouds 11 1011 73 10000 2.71 61 00:19 06.02.2021
2882 Clouds 11 1011 73 10000 2.71 61 23:43 05.02.2021
2883 Clouds 11 1010 71 10000 2.53 84 23:24 05.02.2021
2884 Rain 11 1010 71 10000 2.53 84 22:47 05.02.2021
2885 Rain 12 1010 68 10000 3.17 94 22:20 05.02.2021
2886 Rain 12 1010 68 10000 3.17 94 21:47 05.02.2021
2887 Rain 13 1010 62 10000 3.68 88 21:28 05.02.2021
2888 Clouds 13 1010 62 10000 3.68 88 20:46 05.02.2021
2889 Clouds 14 1011 52 10000 3.32 83 19:52 05.02.2021
2890 Clouds 14 1012 49 10000 2.63 48 19:20 05.02.2021
2891 Clouds 14 1012 49 10000 2.63 48 18:54 05.02.2021
2892 Clouds 13 1013 51 10000 1.67 40 18:28 05.02.2021
2893 Clouds 13 1013 51 10000 1.67 40 17:47 05.02.2021
2894 Clouds 13 1013 51 10000 1.67 40 17:47 05.02.2021
2895 Clouds 12 1015 56 10000 1.09 21 17:27 05.02.2021
2896 Clouds 12 1015 56 10000 1.09 21 16:50 05.02.2021
2897 Clouds 10 1017 62 10000 0.88 340 16:28 05.02.2021
2898 Clouds 10 1017 62 10000 0.88 340 15:58 05.02.2021
2899 Clouds 9 1018 66 10000 0.86 309 15:27 05.02.2021
2900 Clouds 9 1018 66 10000 0.86 309 14:55 05.02.2021
2901 Clouds 9 1018 66 10000 0.86 309 14:36 05.02.2021
2902 Clouds 8 1019 69 10000 1.04 300 14:18 05.02.2021
2903 Clouds 8 1019 69 10000 1.04 300 14:18 05.02.2021
2904 Clouds 8 1019 69 10000 1.04 300 13:39 05.02.2021
2905 Clouds 8 1019 77 10000 1 321 13:18 05.02.2021
2906 Clouds 7 1020 79 10000 1.31 344 12:40 05.02.2021
2907 Clouds 7 1020 83 10000 1.19 359 11:58 05.02.2021
2908 Clouds 7 1020 83 10000 1.19 359 11:37 05.02.2021
2909 Clouds 7 1020 83 10000 1.14 30 11:19 05.02.2021
2910 Clouds 7 1020 83 10000 1.14 30 10:43 05.02.2021
2911 Clouds 7 1019 82 10000 1.3 54 10:22 05.02.2021
2912 Clouds 7 1019 82 10000 1.3 54 09:42 05.02.2021
2913 Rain 7 1019 83 10000 1.63 56 09:22 05.02.2021
2914 Clouds 7 1019 83 10000 1.63 56 08:40 05.02.2021
2915 Clouds 7 1019 83 10000 2.09 63 07:41 05.02.2021
2916 Clouds 7 1019 85 10000 2.23 56 07:21 05.02.2021
2917 Clouds 8 1019 83 10000 2.34 61 06:28 05.02.2021
2918 Clouds 8 1019 83 10000 2.34 61 05:32 05.02.2021
2919 Clouds 9 1018 75 10000 2.65 52 02:25 05.02.2021
2920 Clouds 10 1016 73 10000 3.31 54 01:27 05.02.2021
2921 Clouds 10 1016 73 10000 3.31 54 00:36 05.02.2021
2922 Clouds 10 1014 72 10000 3.54 53 00:18 05.02.2021
2923 Clouds 10 1014 72 10000 3.54 53 23:42 04.02.2021
2924 Clouds 12 1013 68 10000 4.23 52 23:23 04.02.2021
2925 Clouds 12 1013 68 10000 4.23 52 22:54 04.02.2021
2926 Rain 12 1013 68 10000 4.23 52 22:30 04.02.2021
2927 Rain 13 1013 62 10000 4.11 52 21:55 04.02.2021
2928 Rain 13 1013 62 10000 4.11 52 21:37 04.02.2021
2929 Rain 14 1013 57 10000 3.64 54 20:58 04.02.2021
2930 Rain 14 1013 57 10000 3.64 54 20:34 04.02.2021
2931 Rain 14 1013 57 10000 4.06 54 19:52 04.02.2021
2932 Rain 14 1014 56 10000 3.9 54 19:26 04.02.2021
2933 Rain 14 1015 54 10000 3.56 49 18:46 04.02.2021
2934 Rain 13 1016 56 10000 2.7 50 18:24 04.02.2021
2935 Rain 13 1016 56 10000 2.7 50 17:47 04.02.2021
2936 Rain 12 1018 59 9393 2.41 55 17:22 04.02.2021
2937 Rain 12 1018 59 9393 2.41 55 16:50 04.02.2021
2938 Rain 12 1018 59 9393 2.41 55 16:50 04.02.2021
2939 Rain 11 1019 62 10000 2.39 49 16:21 04.02.2021
2940 Clouds 11 1019 62 10000 2.39 49 15:41 04.02.2021
2941 Clouds 11 1019 62 10000 2.39 49 15:41 04.02.2021
2942 Rain 11 1020 66 10000 2.28 56 15:22 04.02.2021
2943 Rain 11 1020 66 10000 2.28 56 14:58 04.02.2021
2944 Rain 11 1020 66 10000 2.28 56 14:40 04.02.2021
2945 Rain 9 1021 71 10000 1.71 68 14:20 04.02.2021
2946 Clouds 9 1021 71 10000 1.71 68 13:44 04.02.2021
2947 Clouds 8 1021 75 10000 2.01 54 12:58 04.02.2021
2948 Clouds 8 1021 75 10000 2.01 54 12:34 04.02.2021
2949 Clouds 7 1021 81 10000 2.01 53 11:53 04.02.2021
2950 Clouds 7 1021 81 10000 2.01 53 11:33 04.02.2021
2951 Clouds 7 1020 83 10000 1.72 67 10:50 04.02.2021
2952 Clouds 7 1019 85 10000 2.08 77 10:19 04.02.2021
2953 Clouds 7 1019 85 10000 2.08 77 09:44 04.02.2021
2954 Clouds 8 1019 85 6481 2.07 83 09:19 04.02.2021
2955 Clouds 8 1019 85 6481 2.07 83 08:48 04.02.2021
2956 Clouds 8 1019 84 5673 1.87 78 08:24 04.02.2021
2957 Clouds 8 1019 84 5673 1.87 78 07:43 04.02.2021
2958 Clouds 8 1019 83 6805 1.67 71 07:24 04.02.2021
2959 Clouds 8 1019 80 9969 1.83 82 06:43 04.02.2021
2960 Clouds 9 1019 73 10000 0.54 80 04:31 04.02.2021
2961 Clouds 10 1016 65 10000 0.95 202 02:27 04.02.2021
2962 Clouds 9 1015 79 8916 3.3 33 00:57 04.02.2021
2963 Clouds 9 1013 76 7454 3.88 31 23:44 03.02.2021
2964 Clouds 11 1011 66 3701 4.23 37 23:24 03.02.2021
2965 Clouds 13 1010 57 10000 5.49 31 22:24 03.02.2021
2966 Clouds 13 1010 57 10000 5.49 31 21:59 03.02.2021
2967 Clouds 13 1010 57 10000 5.49 31 21:41 03.02.2021
2968 Clouds 15 1010 49 10000 6.22 41 21:21 03.02.2021
2969 Clouds 15 1010 49 10000 6.22 41 20:48 03.02.2021
2970 Clouds 15 1011 44 10000 5.24 33 20:28 03.02.2021
2971 Clouds 15 1011 44 10000 5.24 33 19:52 03.02.2021
2972 Clouds 15 1012 47 10000 4.81 21 19:23 03.02.2021
2973 Clouds 15 1012 47 10000 4.81 21 18:52 03.02.2021
2974 Clouds 14 1013 46 10000 3.93 16 18:22 03.02.2021
2975 Clouds 14 1013 46 10000 3.93 16 17:57 03.02.2021
2976 Clouds 14 1013 46 10000 3.93 16 17:37 03.02.2021
2977 Clouds 14 1014 48 10000 3.69 17 17:18 03.02.2021
2978 Clouds 14 1014 48 10000 3.69 17 16:36 03.02.2021
2979 Clouds 13 1016 53 10000 3.21 20 15:58 03.02.2021
2980 Clouds 13 1016 53 10000 3.21 20 15:38 03.02.2021
2981 Clouds 11 1017 60 10000 2.33 25 15:20 03.02.2021
2982 Clouds 11 1017 60 10000 2.33 25 14:43 03.02.2021
2983 Clouds 10 1017 68 10000 1.68 23 14:20 03.02.2021
2984 Rain 10 1017 68 10000 1.68 23 13:43 03.02.2021
2985 Rain 10 1017 68 10000 1.68 23 13:43 03.02.2021
2986 Rain 9 1018 69 10000 1.56 49 13:19 03.02.2021
2987 Rain 9 1018 69 10000 1.56 49 12:39 03.02.2021
2988 Rain 9 1017 72 10000 1.2 70 12:20 03.02.2021
2989 Rain 9 1017 72 10000 1.2 70 11:41 03.02.2021
2990 Rain 8 1016 79 10000 0.96 50 11:21 03.02.2021
2991 Rain 8 1016 79 10000 0.96 50 10:37 03.02.2021
2992 Rain 8 1015 77 10000 1.11 14 10:18 03.02.2021
2993 Rain 8 1015 77 10000 1.11 14 09:39 03.02.2021
2994 Rain 9 1015 74 10000 1.14 10 09:20 03.02.2021
2995 Rain 9 1015 74 10000 1.14 10 08:45 03.02.2021
2996 Rain 9 1015 73 10000 1.25 44 07:58 03.02.2021
2997 Clouds 9 1016 75 10000 1.76 10 06:43 03.02.2021
2998 Clouds 9 1016 74 10000 1.28 46 06:20 03.02.2021
2999 Clouds 9 1016 76 10000 0.19 135 04:45 03.02.2021
3000 Rain 9 1016 75 10000 0.58 104 03:52 03.02.2021
3001 Rain 9 1015 70 10000 2.67 98 02:42 03.02.2021
3002 Rain 8 1014 77 10000 3.02 183 01:48 03.02.2021
3003 Clouds 11 1010 65 7264 1.34 306 00:24 03.02.2021
3004 Clouds 11 1010 65 7264 1.34 306 23:44 02.02.2021
3005 Clouds 13 1007 54 10000 2.23 43 23:26 02.02.2021
3006 Clouds 13 1007 54 10000 2.23 43 22:47 02.02.2021
3007 Clouds 14 1006 50 10000 2.55 35 22:21 02.02.2021
3008 Clouds 14 1006 50 10000 2.55 35 21:47 02.02.2021
3009 Clouds 15 1006 48 10000 3.95 53 21:27 02.02.2021
3010 Clouds 15 1006 48 10000 3.95 53 20:50 02.02.2021
3011 Clouds 16 1006 44 10000 3.96 44 20:23 02.02.2021
3012 Clouds 16 1006 44 10000 3.96 44 19:58 02.02.2021
3013 Clouds 16 1006 44 10000 3.96 44 19:39 02.02.2021
3014 Clouds 16 1007 41 10000 3.57 58 19:21 02.02.2021
3015 Clouds 16 1007 41 10000 3.57 58 18:41 02.02.2021
3016 Clouds 15 1009 39 10000 1.6 45 18:23 02.02.2021
3017 Clouds 15 1009 39 10000 1.6 45 17:40 02.02.2021
3018 Clouds 14 1010 42 10000 1.28 13 17:21 02.02.2021
3019 Clouds 14 1010 42 10000 1.28 13 16:50 02.02.2021
3020 Clouds 14 1010 42 10000 1.28 13 16:31 02.02.2021
3021 Clouds 13 1012 48 10000 1.86 346 15:57 02.02.2021
3022 Clouds 13 1012 48 10000 1.86 346 15:33 02.02.2021
3023 Clouds 12 1013 53 10000 2.22 338 14:56 02.02.2021
3024 Clouds 12 1013 53 10000 2.22 338 14:37 02.02.2021
3025 Clouds 10 1013 59 10000 1.9 339 14:18 02.02.2021
3026 Clouds 10 1013 59 10000 1.9 339 13:42 02.02.2021
3027 Clouds 9 1014 66 10000 1.54 355 13:24 02.02.2021
3028 Clouds 9 1014 66 10000 1.54 355 12:53 02.02.2021
3029 Clouds 8 1013 74 10000 1.09 350 12:22 02.02.2021
3030 Clouds 8 1013 74 10000 1.09 350 11:38 02.02.2021
3031 Clouds 7 1013 81 10000 1.26 350 11:19 02.02.2021
3032 Clouds 7 1013 81 10000 1.26 350 10:45 02.02.2021
3033 Clouds 7 1012 81 10000 1.28 354 10:26 02.02.2021
3034 Clouds 7 1012 81 10000 1.28 354 09:45 02.02.2021
3035 Clouds 8 1011 80 10000 1.23 8 09:23 02.02.2021
3036 Clouds 8 1011 80 10000 1.23 8 08:43 02.02.2021
3037 Clouds 8 1011 78 10000 1.44 13 07:47 02.02.2021
3038 Clouds 8 1012 76 10000 1.98 6 07:23 02.02.2021
3039 Clouds 8 1012 76 10000 1.97 10 06:40 02.02.2021
3040 Clouds 8 1012 74 10000 1.63 9 05:51 02.02.2021
3041 Clouds 7 1013 75 10000 0.95 271 04:18 02.02.2021
3042 Clouds 7 1011 78 10000 2.74 333 02:25 02.02.2021
3043 Rain 7 1009 85 10000 4.42 330 00:41 02.02.2021
3044 Clouds 9 1007 75 4905 4 316 23:58 01.02.2021
3045 Clouds 13 1006 57 7576 2.58 39 22:59 01.02.2021
3046 Rain 13 1006 57 7576 2.58 39 22:39 01.02.2021
3047 Rain 14 1005 53 10000 3.45 84 22:20 01.02.2021
3048 Clouds 14 1005 53 10000 3.45 84 21:46 01.02.2021
3049 Clouds 16 1005 45 10000 4.69 83 21:22 01.02.2021
3050 Clouds 16 1005 45 10000 4.69 83 20:42 01.02.2021
3051 Clear 17 1005 34 10000 4.29 66 20:24 01.02.2021
3052 Clear 17 1005 34 10000 4.29 66 19:47 01.02.2021
3053 Clouds 17 1007 30 10000 2.76 52 19:21 01.02.2021
3054 Clouds 17 1007 33 10000 3.06 63 18:58 01.02.2021
3055 Clouds 17 1007 33 10000 3.06 63 18:39 01.02.2021
3056 Clouds 17 1009 32 10000 1.85 42 18:21 01.02.2021
3057 Clouds 17 1009 32 10000 1.85 42 17:42 01.02.2021
3058 Clouds 16 1010 33 10000 1.28 15 17:19 01.02.2021
3059 Clouds 16 1010 33 10000 1.28 15 16:40 01.02.2021
3060 Clouds 15 1012 36 10000 1.12 342 16:21 01.02.2021
3061 Clouds 15 1012 36 10000 1.12 342 15:40 01.02.2021
3062 Clouds 13 1013 43 10000 0.86 324 15:19 01.02.2021
3063 Clouds 13 1013 43 10000 0.86 324 15:19 01.02.2021
3064 Clouds 13 1013 43 10000 0.86 324 14:48 01.02.2021
3065 Clouds 11 1013 54 10000 1.11 301 14:23 01.02.2021
3066 Clouds 11 1013 54 10000 1.11 301 13:42 01.02.2021
3067 Clouds 10 1014 65 10000 1.62 307 13:24 01.02.2021
3068 Clouds 10 1014 65 10000 1.62 307 12:44 01.02.2021
3069 Clouds 9 1014 69 10000 1.83 335 12:24 01.02.2021
3070 Clouds 9 1014 69 10000 1.83 335 11:43 01.02.2021
3071 Clouds 8 1013 76 10000 1.02 359 11:20 01.02.2021
3072 Clouds 8 1013 76 10000 1.02 359 10:47 01.02.2021
3073 Clouds 8 1012 76 10000 1.18 342 10:21 01.02.2021
3074 Clouds 8 1012 76 10000 1.18 342 09:49 01.02.2021
3075 Clouds 9 1011 77 10000 0.85 331 09:25 01.02.2021
3076 Clouds 9 1011 77 10000 0.85 331 08:56 01.02.2021
3077 Clouds 9 1011 77 10000 0.85 331 08:56 01.02.2021
3078 Clouds 9 1011 79 10000 0.77 4 08:22 01.02.2021
3079 Clouds 9 1012 75 10000 1.35 1 06:51 01.02.2021
3080 Clouds 10 1012 71 10000 1.94 350 04:32 01.02.2021
3081 Clear 11 1011 66 10000 1.59 23 02:38 01.02.2021
3082 Clouds 13 1007 55 10000 3.27 60 23:52 31.01.2021
3083 Clouds 14 1005 51 10000 3.75 72 22:56 31.01.2021
3084 Clouds 14 1005 51 10000 3.75 72 22:37 31.01.2021
3085 Clouds 14 1005 51 10000 3.75 72 22:37 31.01.2021
3086 Clouds 15 1005 48 10000 4.18 100 22:18 31.01.2021
3087 Clouds 15 1005 48 10000 4.18 100 21:42 31.01.2021
3088 Clouds 17 1006 38 10000 4 54 21:19 31.01.2021
3089 Clouds 17 1006 38 10000 4 54 20:42 31.01.2021
3090 Clouds 18 1007 29 10000 2.52 24 20:20 31.01.2021
3091 Clouds 18 1007 29 10000 2.52 24 19:38 31.01.2021
3092 Clouds 18 1007 29 10000 2.52 24 19:38 31.01.2021
3093 Clear 17 1008 29 10000 2.1 342 19:19 31.01.2021
3094 Clear 18 1008 28 10000 2.17 337 18:55 31.01.2021
3095 Clear 18 1008 28 10000 2.17 337 18:37 31.01.2021
3096 Clear 17 1010 30 10000 2.72 320 18:18 31.01.2021
3097 Clear 17 1010 30 10000 2.72 320 17:39 31.01.2021
3098 Clear 15 1011 34 10000 2.88 322 17:19 31.01.2021
3099 Clear 15 1011 34 10000 2.88 322 16:41 31.01.2021
3100 Clear 14 1013 37 10000 2.92 330 16:20 31.01.2021
3101 Clear 14 1013 37 10000 2.92 330 15:49 31.01.2021
3102 Clear 13 1014 44 10000 2.62 341 15:21 31.01.2021
3103 Clear 13 1014 44 10000 2.62 341 14:36 31.01.2021
3104 Clear 11 1015 54 10000 2.3 352 14:18 31.01.2021
3105 Clear 11 1015 54 10000 2.3 352 13:41 31.01.2021
3106 Clouds 10 1015 64 10000 1.65 2 13:19 31.01.2021
3107 Clouds 10 1015 65 10000 1.78 1 12:46 31.01.2021
3108 Clouds 9 1014 72 10000 1.27 17 12:20 31.01.2021
3109 Clouds 8 1014 74 10000 1.29 17 11:40 31.01.2021
3110 Clouds 7 1013 80 10000 1.44 15 11:20 31.01.2021
3111 Clouds 7 1013 80 10000 1.44 15 10:46 31.01.2021
3112 Clouds 8 1012 79 10000 1.5 20 10:27 31.01.2021
3113 Clouds 8 1012 79 10000 1.5 20 09:41 31.01.2021
3114 Clouds 8 1012 77 10000 1.42 24 08:53 31.01.2021
3115 Clouds 8 1012 77 10000 1.42 24 08:31 31.01.2021
3116 Clouds 9 1011 71 10000 1.55 354 06:47 31.01.2021
3117 Clouds 10 1012 66 10000 1.3 34 04:55 31.01.2021
3118 Clouds 13 1008 45 10000 1.61 350 00:38 31.01.2021
3119 Clouds 13 1008 45 10000 1.61 350 00:38 31.01.2021
3120 Clouds 14 1007 38 10000 2.64 41 00:20 31.01.2021
3121 Clouds 14 1005 37 10000 4.44 95 23:28 30.01.2021
3122 Clouds 14 1005 37 10000 4.44 95 22:45 30.01.2021
3123 Clouds 15 1004 35 10000 5.32 109 22:23 30.01.2021
3124 Clouds 15 1004 35 10000 5.32 109 21:39 30.01.2021
3125 Clouds 17 1005 30 10000 3.25 89 21:20 30.01.2021
3126 Clouds 17 1005 30 10000 3.25 89 20:43 30.01.2021
3127 Clouds 16 1005 29 10000 1.4 54 20:24 30.01.2021
3128 Clouds 16 1005 29 10000 1.4 54 19:42 30.01.2021
3129 Clear 16 1007 30 10000 1.33 337 19:24 30.01.2021
3130 Clear 16 1007 30 10000 1.33 337 18:40 30.01.2021
3131 Clear 15 1008 31 10000 1.66 325 18:21 30.01.2021
3132 Clear 15 1008 31 10000 1.66 325 17:53 30.01.2021
3133 Clear 14 1009 34 10000 1.88 308 17:19 30.01.2021
3134 Clear 14 1009 34 10000 1.88 308 16:43 30.01.2021
3135 Clear 13 1011 38 10000 1.89 305 16:23 30.01.2021
3136 Clear 13 1011 38 10000 1.89 305 15:50 30.01.2021
3137 Clear 12 1012 42 10000 1.5 302 15:25 30.01.2021
3138 Clear 12 1012 42 10000 1.5 302 14:59 30.01.2021
3139 Clear 12 1012 42 10000 1.5 302 14:40 30.01.2021
3140 Clear 10 1013 52 10000 1.45 298 14:19 30.01.2021
3141 Clear 9 1014 65 10000 1.43 301 13:25 30.01.2021
3142 Clear 9 1014 65 10000 1.49 306 12:48 30.01.2021
3143 Clear 8 1014 70 10000 1.24 333 12:28 30.01.2021
3144 Clear 8 1014 70 10000 1.24 333 11:55 30.01.2021
3145 Clear 6 1013 80 10000 0.86 360 11:25 30.01.2021
3146 Clear 6 1013 80 10000 0.86 360 10:46 30.01.2021
3147 Clear 7 1012 79 10000 0.72 27 09:44 30.01.2021
3148 Clear 7 1012 76 10000 1.09 23 09:26 30.01.2021
3149 Clear 7 1012 76 10000 1.09 23 08:47 30.01.2021
3150 Clear 8 1012 72 10000 1.26 26 07:45 30.01.2021
3151 Clouds 8 1012 67 10000 1.25 27 06:48 30.01.2021
3152 Clouds 10 1012 56 10000 1.55 37 04:29 30.01.2021
3153 Clouds 10 1012 56 10000 1.55 37 03:34 30.01.2021
3154 Clouds 11 1010 46 10000 0.29 310 02:23 30.01.2021
3155 Clouds 11 1008 44 10000 1.15 319 01:28 30.01.2021
3156 Clouds 12 1008 43 10000 1.16 311 00:35 30.01.2021
3157 Clouds 12 1006 40 10000 0.86 77 23:58 29.01.2021
3158 Clouds 12 1006 40 10000 0.86 77 23:40 29.01.2021
3159 Clouds 13 1004 40 10000 3.39 91 23:20 29.01.2021
3160 Clouds 13 1004 40 10000 3.39 91 22:40 29.01.2021
3161 Clouds 14 1004 37 10000 4.63 93 22:18 29.01.2021
3162 Clouds 15 1005 32 10000 3.6 88 21:28 29.01.2021
3163 Clouds 16 1005 31 10000 3.41 88 20:45 29.01.2021
3164 Clouds 15 1005 30 10000 2.51 87 20:25 29.01.2021
3165 Clouds 15 1005 30 10000 2.51 87 19:43 29.01.2021
3166 Clear 15 1006 30 10000 1.42 31 19:22 29.01.2021
3167 Clear 15 1006 30 10000 1.64 20 18:58 29.01.2021
3168 Clouds 14 1008 31 10000 2.39 336 18:21 29.01.2021
3169 Clouds 14 1008 31 10000 2.39 336 17:38 29.01.2021
3170 Clouds 14 1009 33 10000 2.22 323 17:20 29.01.2021
3171 Clouds 14 1009 33 10000 2.22 323 16:44 29.01.2021
3172 Clouds 12 1010 37 10000 1.55 320 16:23 29.01.2021
3173 Clouds 12 1010 37 10000 1.55 320 15:42 29.01.2021
3174 Clear 11 1012 41 10000 1.24 315 15:24 29.01.2021
3175 Clear 11 1012 41 10000 1.24 315 14:32 29.01.2021
3176 Clear 10 1013 47 10000 1.25 299 13:59 29.01.2021
3177 Clear 10 1013 47 10000 1.25 299 13:59 29.01.2021
3178 Clear 10 1013 47 10000 1.25 299 13:37 29.01.2021
3179 Clear 8 1013 55 10000 1.04 284 13:19 29.01.2021
3180 Clear 6 1013 66 10000 0.69 248 12:25 29.01.2021
3181 Clear 6 1013 66 10000 0.69 248 11:47 29.01.2021
3182 Clear 5 1012 82 10000 0.7 245 11:19 29.01.2021
3183 Clear 5 1012 82 10000 0.7 245 10:51 29.01.2021
3184 Clear 5 1012 82 10000 0.7 245 10:31 29.01.2021
3185 Clear 5 1011 86 10000 0.72 273 09:49 29.01.2021
3186 Clear 6 1011 85 10000 1.06 307 08:59 29.01.2021
3187 Clear 6 1011 85 10000 1.06 307 08:38 29.01.2021
3188 Clear 6 1011 81 10000 1.2 326 08:19 29.01.2021
3189 Clear 6 1011 81 10000 1.2 326 07:41 29.01.2021
3190 Clear 7 1012 75 10000 1.25 1 07:20 29.01.2021
3191 Clear 8 1012 62 10000 1.82 43 05:23 29.01.2021
3192 Clear 9 1012 58 10000 1.43 57 03:50 29.01.2021
3193 Clear 11 1008 43 10000 1.82 230 00:45 29.01.2021
3194 Clear 13 1006 37 10000 4.87 253 00:22 29.01.2021
3195 Clear 13 1006 37 10000 4.87 253 00:22 29.01.2021
3196 Clear 13 1006 37 10000 4.87 253 23:45 28.01.2021
3197 Clear 14 1005 31 10000 7.29 253 23:26 28.01.2021
3198 Clear 14 1005 31 10000 7.29 253 22:50 28.01.2021
3199 Clear 16 1004 29 10000 6.42 250 22:29 28.01.2021
3200 Clear 16 1004 29 10000 6.42 250 21:59 28.01.2021
3201 Clear 16 1004 29 10000 6.42 250 21:40 28.01.2021
3202 Clear 16 1005 28 10000 5.9 255 21:20 28.01.2021
3203 Clear 16 1005 28 10000 5.9 255 20:40 28.01.2021
3204 Clear 16 1005 27 10000 5.5 261 20:19 28.01.2021
3205 Clear 16 1005 27 10000 5.5 261 20:19 28.01.2021
3206 Clear 16 1005 28 10000 6.27 274 19:48 28.01.2021
3207 Clear 16 1007 28 10000 5.56 277 19:27 28.01.2021
3208 Clear 16 1007 28 10000 5.56 277 18:49 28.01.2021
3209 Clear 15 1008 30 10000 3.24 291 18:28 28.01.2021
3210 Clear 15 1008 30 10000 3.24 291 17:48 28.01.2021
3211 Clear 15 1008 30 10000 3.24 291 17:30 28.01.2021
3212 Clear 13 1010 33 10000 3 307 16:47 28.01.2021
3213 Clear 12 1011 38 10000 2.52 302 16:28 28.01.2021
3214 Clear 12 1011 38 10000 2.52 302 15:59 28.01.2021
3215 Clear 11 1013 44 10000 2.1 302 15:25 28.01.2021
3216 Clear 11 1013 44 10000 2.1 302 14:47 28.01.2021
3217 Clear 9 1014 51 10000 1.65 307 14:23 28.01.2021
3218 Clear 9 1014 51 10000 1.65 307 13:55 28.01.2021
3219 Clouds 7 1014 66 10000 1.08 279 13:23 28.01.2021
3220 Clouds 7 1015 63 10000 1.19 300 12:49 28.01.2021
3221 Clouds 5 1015 81 10000 0.86 237 12:26 28.01.2021
3222 Clouds 5 1015 81 10000 0.86 237 11:55 28.01.2021
3223 Clouds 5 1015 81 10000 0.86 237 11:36 28.01.2021
3224 Clouds 4 1014 91 10000 0.33 287 11:18 28.01.2021
3225 Clouds 4 1014 91 10000 0.33 287 10:40 28.01.2021
3226 Clouds 5 1013 91 10000 1.09 324 10:22 28.01.2021
3227 Clouds 5 1013 91 10000 1.09 324 09:38 28.01.2021
3228 Clouds 5 1013 91 10000 1.33 305 09:19 28.01.2021
3229 Clouds 5 1013 91 10000 1.33 305 08:44 28.01.2021
3230 Clouds 5 1013 88 10000 1.95 325 07:50 28.01.2021
3231 Clouds 6 1013 86 10000 2.23 348 07:18 28.01.2021
3232 Clouds 6 1013 86 10000 2.23 348 06:46 28.01.2021
3233 Clouds 7 1015 81 10000 2.57 33 04:30 28.01.2021
3234 Clouds 8 1014 73 10000 2.45 38 02:45 28.01.2021
3235 Clear 9 1011 66 10000 1.91 48 00:35 28.01.2021
3236 Clear 12 1008 44 10000 1.91 27 23:25 27.01.2021
3237 Clear 12 1008 44 10000 1.91 27 22:57 27.01.2021
3238 Clear 12 1008 44 10000 1.91 27 22:39 27.01.2021
3239 Clear 14 1007 37 10000 1.8 2 22:18 27.01.2021
3240 Clear 14 1007 37 10000 1.8 2 21:41 27.01.2021
3241 Clear 16 1008 31 10000 2.35 297 21:22 27.01.2021
3242 Clear 16 1008 31 10000 2.35 297 21:22 27.01.2021
3243 Clear 16 1008 31 10000 2.35 297 20:41 27.01.2021
3244 Clear 16 1009 29 10000 3.04 302 19:59 27.01.2021
3245 Clear 16 1009 29 10000 3.04 302 19:41 27.01.2021
3246 Clear 15 1010 31 10000 2.67 311 19:21 27.01.2021
3247 Clear 15 1010 31 10000 2.61 299 18:43 27.01.2021
3248 Clear 14 1011 34 10000 2.45 308 18:23 27.01.2021
3249 Clear 14 1011 34 10000 2.45 308 17:47 27.01.2021
3250 Clear 13 1012 37 10000 2.88 322 17:28 27.01.2021
3251 Clear 13 1012 37 10000 2.88 322 16:49 27.01.2021
3252 Clear 12 1014 40 10000 2.75 338 16:28 27.01.2021
3253 Clear 12 1014 40 10000 2.75 338 15:51 27.01.2021
3254 Clear 12 1014 40 10000 2.75 338 15:33 27.01.2021
3255 Clear 10 1015 44 10000 2.03 349 14:47 27.01.2021
3256 Clear 9 1016 52 10000 1.18 1 14:23 27.01.2021
3257 Clear 9 1016 52 10000 1.18 1 13:48 27.01.2021
3258 Clear 8 1017 57 10000 0.42 10 13:27 27.01.2021
3259 Clear 8 1017 57 10000 0.42 10 12:41 27.01.2021
3260 Clear 7 1017 61 10000 0.2 160 12:22 27.01.2021
3261 Clear 7 1017 61 10000 0.2 160 11:46 27.01.2021
3262 Clear 5 1016 70 10000 0.13 182 11:23 27.01.2021
3263 Clear 5 1016 70 10000 0.13 182 10:41 27.01.2021
3264 Clear 5 1015 68 10000 0.29 58 10:21 27.01.2021
3265 Clear 5 1015 68 10000 0.29 58 09:50 27.01.2021
3266 Clear 6 1014 66 10000 0.38 69 09:25 27.01.2021
3267 Clear 6 1014 66 10000 0.38 69 08:39 27.01.2021
3268 Clear 6 1014 63 10000 0.32 7 07:45 27.01.2021
3269 Clear 7 1014 60 10000 1.07 298 07:21 27.01.2021
3270 Clear 7 1014 57 10000 1.44 288 06:23 27.01.2021
3271 Clear 7 1014 57 10000 1.44 288 05:48 27.01.2021
3272 Clear 8 1014 54 10000 1.57 250 04:37 27.01.2021
3273 Clear 10 1011 49 10000 2.77 193 02:24 27.01.2021
3274 Clear 10 1011 49 10000 2.77 193 01:57 27.01.2021
3275 Clouds 11 1009 45 10000 4.19 197 00:51 27.01.2021
3276 Clouds 12 1007 40 10000 4.52 212 23:52 26.01.2021
3277 Clouds 12 1007 40 10000 4.52 212 23:32 26.01.2021
3278 Clouds 14 1005 37 10000 5.06 234 22:52 26.01.2021
3279 Clouds 14 1005 37 10000 5.06 234 22:34 26.01.2021
3280 Clouds 14 1004 35 10000 7.09 253 21:59 26.01.2021
3281 Clouds 14 1004 35 10000 7.09 253 21:40 26.01.2021
3282 Clouds 15 1005 33 10000 6.81 261 21:21 26.01.2021
3283 Clouds 15 1005 33 10000 6.81 261 20:41 26.01.2021
3284 Clouds 15 1005 33 10000 7.68 267 20:22 26.01.2021
3285 Clouds 15 1005 33 10000 7.68 267 19:50 26.01.2021
3286 Clouds 15 1007 34 10000 7.42 279 19:29 26.01.2021
3287 Clouds 15 1007 34 10000 7.18 277 18:57 26.01.2021
3288 Clouds 15 1007 34 10000 7.18 277 18:39 26.01.2021
3289 Clouds 15 1008 35 10000 8.01 283 18:19 26.01.2021
3290 Clouds 15 1008 35 10000 8.01 283 17:46 26.01.2021
3291 Clouds 14 1009 36 10000 7.5 287 17:22 26.01.2021
3292 Clouds 14 1009 36 10000 7.5 287 16:42 26.01.2021
3293 Clouds 14 1009 36 10000 7.5 287 16:42 26.01.2021
3294 Clouds 12 1010 40 10000 5.68 287 16:20 26.01.2021
3295 Clouds 13 1010 39 10000 5.64 288 15:49 26.01.2021
3296 Clouds 11 1012 45 10000 4.28 288 15:27 26.01.2021
3297 Clouds 11 1012 45 10000 4.28 288 14:49 26.01.2021
3298 Clouds 9 1013 49 10000 3.16 284 14:29 26.01.2021
3299 Clouds 9 1013 49 10000 3.16 284 13:42 26.01.2021
3300 Clouds 8 1013 54 10000 2.8 285 13:24 26.01.2021
3301 Clouds 8 1013 54 10000 2.8 285 12:45 26.01.2021
3302 Clouds 7 1014 61 10000 2.29 293 12:25 26.01.2021
3303 Clouds 7 1014 61 10000 2.29 293 11:59 26.01.2021
3304 Clouds 7 1014 61 10000 2.29 293 11:39 26.01.2021
3305 Clouds 6 1012 70 10000 1.82 289 10:50 26.01.2021
3306 Clouds 6 1012 70 10000 1.82 289 10:31 26.01.2021
3307 Clouds 7 1011 70 10000 1.75 283 09:48 26.01.2021
3308 Clouds 7 1011 70 10000 1.69 277 09:28 26.01.2021
3309 Clouds 7 1011 70 10000 1.69 277 08:53 26.01.2021
3310 Clouds 7 1011 70 10000 1.69 277 08:33 26.01.2021
3311 Clouds 8 1011 71 10000 1.12 266 07:47 26.01.2021
3312 Clouds 9 1012 68 10000 0.98 303 06:23 26.01.2021
3313 Clouds 9 1012 68 10000 0.98 303 05:43 26.01.2021
3314 Clouds 10 1011 69 10000 2.15 273 04:28 26.01.2021
3315 Clouds 10 1011 67 10000 0.16 251 02:46 26.01.2021
3316 Clouds 11 1008 65 10000 0.56 267 00:57 26.01.2021
3317 Clouds 11 1006 61 8306 0.88 200 23:40 25.01.2021
3318 Clouds 12 1005 59 5872 1.39 229 23:18 25.01.2021
3319 Rain 12 1005 59 5872 1.39 229 22:39 25.01.2021
3320 Clouds 12 1004 56 4513 1.76 237 21:58 25.01.2021
3321 Clouds 12 1004 56 4513 1.76 237 21:39 25.01.2021
3322 Clouds 12 1005 57 4543 0.99 247 20:53 25.01.2021
3323 Clouds 12 1005 57 4543 0.99 247 20:33 25.01.2021
3324 Clouds 12 1006 59 4545 1.16 290 19:52 25.01.2021
3325 Clouds 12 1006 59 4545 1.16 290 19:32 25.01.2021
3326 Clouds 12 1007 59 5146 1.89 310 18:59 25.01.2021
3327 Clouds 12 1007 59 4449 2.46 330 18:41 25.01.2021
3328 Clouds 12 1009 58 5996 1.91 324 18:21 25.01.2021
3329 Rain 12 1009 58 5996 1.91 324 17:42 25.01.2021
3330 Clouds 11 1011 61 9476 1.49 305 17:23 25.01.2021
3331 Clouds 11 1011 61 9476 1.49 305 16:41 25.01.2021
3332 Clouds 10 1012 64 10000 1.76 310 16:23 25.01.2021
3333 Clouds 10 1012 64 10000 1.76 310 15:53 25.01.2021
3334 Clouds 10 1012 64 10000 1.76 310 15:34 25.01.2021
3335 Clouds 9 1013 69 10000 1.68 318 14:51 25.01.2021
3336 Clouds 8 1014 76 10000 1.79 314 14:20 25.01.2021
3337 Clouds 8 1014 76 10000 1.79 314 13:55 25.01.2021
3338 Clouds 8 1014 76 10000 1.79 314 13:36 25.01.2021
3339 Clouds 7 1015 83 10000 1.73 338 12:49 25.01.2021
3340 Clouds 6 1014 86 10000 1.56 9 12:25 25.01.2021
3341 Clouds 6 1014 86 10000 1.56 9 11:58 25.01.2021
3342 Clouds 6 1014 88 10000 1.58 351 11:25 25.01.2021
3343 Clouds 6 1014 88 10000 1.58 351 10:45 25.01.2021
3344 Clouds 6 1013 86 10000 2.06 1 10:21 25.01.2021
3345 Clouds 6 1013 86 10000 2.06 1 09:48 25.01.2021
3346 Clouds 6 1013 84 10000 1.75 30 09:28 25.01.2021
3347 Clouds 6 1013 84 10000 1.75 30 08:33 25.01.2021
3348 Clouds 7 1013 85 10000 2.48 41 07:51 25.01.2021
3349 Clouds 7 1013 83 10000 1.65 65 07:27 25.01.2021
3350 Clouds 7 1013 86 10000 2.2 82 06:27 25.01.2021
3351 Clouds 9 1011 71 8591 2.63 71 02:23 25.01.2021
3352 Rain 9 1010 74 10000 2.71 74 00:37 25.01.2021
3353 Rain 10 1007 71 7774 3.37 74 23:21 24.01.2021
3354 Rain 10 1007 71 7774 3.37 74 22:59 24.01.2021
3355 Clouds 10 1007 71 7774 3.37 74 22:40 24.01.2021
3356 Clouds 10 1007 71 7774 3.37 74 22:40 24.01.2021
3357 Rain 11 1007 65 4918 2.45 57 22:18 24.01.2021
3358 Clouds 11 1007 65 4918 2.45 57 21:31 24.01.2021
3359 Clouds 12 1007 59 4687 2.12 26 20:49 24.01.2021
3360 Clouds 13 1008 57 5301 2.39 22 20:24 24.01.2021
3361 Clouds 13 1008 57 5301 2.39 22 19:58 24.01.2021
3362 Clouds 13 1008 57 5301 2.39 22 19:39 24.01.2021
3363 Clouds 13 1009 56 10000 2.83 9 19:20 24.01.2021
3364 Clouds 13 1009 56 10000 2.83 9 18:56 24.01.2021
3365 Clouds 13 1010 56 10000 3.19 12 18:37 24.01.2021
3366 Clouds 13 1012 56 10000 3.31 14 18:18 24.01.2021
3367 Clouds 13 1012 56 10000 3.31 14 17:45 24.01.2021
3368 Clouds 12 1013 57 8940 3.15 15 17:20 24.01.2021
3369 Clouds 12 1013 57 8940 3.15 15 16:42 24.01.2021
3370 Clouds 12 1015 58 10000 2.93 5 16:21 24.01.2021
3371 Clouds 11 1015 60 10000 2.92 5 15:48 24.01.2021
3372 Clouds 10 1016 65 10000 2.71 355 15:21 24.01.2021
3373 Clouds 10 1016 65 10000 2.71 355 14:57 24.01.2021
3374 Clouds 10 1016 65 10000 2.71 355 14:34 24.01.2021
3375 Clouds 8 1017 73 10000 2.26 359 13:40 24.01.2021
3376 Clouds 7 1017 81 10000 1.65 7 13:20 24.01.2021
3377 Clouds 7 1017 81 10000 1.65 7 12:42 24.01.2021
3378 Clouds 6 1017 86 10000 1.38 343 12:19 24.01.2021
3379 Clouds 6 1017 86 10000 1.38 343 11:49 24.01.2021
3380 Clouds 6 1016 88 10000 1.5 10 11:23 24.01.2021
3381 Clouds 6 1016 88 10000 1.5 10 10:42 24.01.2021
3382 Clouds 6 1016 83 10000 1.76 24 09:59 24.01.2021
3383 Clouds 7 1016 78 10000 1.39 18 09:22 24.01.2021
3384 Clouds 7 1016 78 10000 1.39 18 08:55 24.01.2021
3385 Clouds 7 1016 76 10000 0.58 15 07:50 24.01.2021
3386 Clouds 8 1017 82 8898 1.97 7 02:39 24.01.2021
3387 Clouds 8 1016 79 10000 2.95 39 01:46 24.01.2021
3388 Clouds 9 1012 74 5657 2.9 36 00:24 24.01.2021
3389 Clouds 9 1012 74 5657 2.9 36 23:49 23.01.2021
3390 Clouds 10 1011 68 5875 3.41 45 23:26 23.01.2021
3391 Clouds 10 1011 68 5875 3.41 45 22:51 23.01.2021
3392 Rain 10 1011 68 5875 3.41 45 22:33 23.01.2021
3393 Rain 12 1010 62 10000 4.05 48 21:52 23.01.2021
3394 Rain 12 1011 58 7951 3.11 36 21:22 23.01.2021
3395 Clouds 12 1011 58 7951 3.11 36 20:47 23.01.2021
3396 Clouds 12 1012 55 9899 2.76 26 20:25 23.01.2021
3397 Clouds 12 1012 55 9899 2.76 26 19:47 23.01.2021
3398 Clouds 12 1013 52 7069 2.93 13 19:23 23.01.2021
3399 Clouds 12 1013 51 10000 2.29 10 18:49 23.01.2021
3400 Clouds 11 1015 51 10000 2.43 4 18:26 23.01.2021
3401 Clouds 11 1015 51 10000 2.43 4 18:26 23.01.2021
3402 Clouds 11 1015 51 10000 2.43 4 17:55 23.01.2021
3403 Clouds 11 1017 52 10000 3.04 8 17:27 23.01.2021
3404 Clouds 11 1017 52 10000 3.04 8 16:50 23.01.2021
3405 Clouds 11 1017 52 10000 3.04 8 16:31 23.01.2021
3406 Clouds 10 1019 56 10000 3.03 15 15:48 23.01.2021
3407 Clouds 9 1020 60 10000 2.85 17 15:26 23.01.2021
3408 Clouds 9 1020 60 10000 2.85 17 14:37 23.01.2021
3409 Clouds 7 1021 67 10000 2.3 22 14:19 23.01.2021
3410 Clouds 7 1021 67 10000 2.3 22 13:40 23.01.2021
3411 Clouds 6 1021 74 10000 2.11 32 13:21 23.01.2021
3412 Clouds 6 1021 74 10000 1.79 29 12:41 23.01.2021
3413 Clouds 5 1021 80 10000 1.26 53 12:21 23.01.2021
3414 Clouds 5 1021 80 10000 1.26 53 11:34 23.01.2021
3415 Clouds 4 1020 83 10000 1.58 63 10:53 23.01.2021
3416 Clouds 5 1020 82 10000 1.92 51 10:22 23.01.2021
3417 Clouds 5 1020 82 10000 1.92 51 09:49 23.01.2021
3418 Clouds 5 1020 83 10000 1.91 44 09:24 23.01.2021
3419 Clouds 5 1020 83 10000 1.91 44 08:39 23.01.2021
3420 Clouds 5 1020 83 10000 2.45 48 07:38 23.01.2021
3421 Clouds 5 1020 84 10000 2.49 46 06:48 23.01.2021
3422 Clouds 7 1020 80 10000 2.66 59 01:44 23.01.2021
3423 Clouds 8 1017 72 10000 3.48 58 00:23 23.01.2021
3424 Clouds 8 1017 72 10000 3.48 58 23:35 22.01.2021
3425 Clouds 9 1016 68 10000 3.71 61 22:41 22.01.2021
3426 Clouds 9 1015 65 10000 3.7 57 21:59 22.01.2021
3427 Clouds 9 1015 65 10000 3.7 57 21:38 22.01.2021
3428 Clouds 10 1016 60 10000 4.06 51 21:20 22.01.2021
3429 Clouds 10 1016 60 10000 4.06 51 20:45 22.01.2021
3430 Clouds 11 1016 57 10000 4.78 48 20:25 22.01.2021
3431 Rain 11 1016 57 10000 4.78 48 19:37 22.01.2021
3432 Rain 10 1018 60 3839 4.86 54 19:18 22.01.2021
3433 Clouds 10 1018 60 3839 4.86 54 18:44 22.01.2021
3434 Rain 10 1019 59 4902 3.95 50 18:25 22.01.2021
3435 Clouds 10 1019 59 4902 3.95 50 17:46 22.01.2021
3436 Clouds 9 1020 60 8834 3.29 48 17:28 22.01.2021
3437 Rain 9 1020 60 8834 3.29 48 16:54 22.01.2021
3438 Clouds 7 1021 67 10000 3.01 46 16:27 22.01.2021
3439 Clouds 7 1021 67 10000 3.01 46 15:44 22.01.2021
3440 Rain 6 1022 73 8046 2.86 41 15:19 22.01.2021
3441 Clouds 6 1022 73 8046 2.86 41 14:31 22.01.2021
3442 Rain 5 1022 79 10000 2.77 37 13:53 22.01.2021
3443 Clouds 5 1022 79 10000 2.77 37 13:35 22.01.2021
3444 Rain 5 1022 82 10000 2.32 19 12:55 22.01.2021
3445 Rain 4 1022 81 10000 2.85 50 12:27 22.01.2021
3446 Clouds 4 1022 81 10000 2.85 50 11:49 22.01.2021
3447 Rain 4 1022 81 10000 2.85 50 11:30 22.01.2021
3448 Clouds 4 1021 84 10000 2.29 36 10:46 22.01.2021
3449 Rain 4 1020 85 4140 2.45 29 10:22 22.01.2021
3450 Clouds 4 1020 85 4140 2.45 29 09:42 22.01.2021
3451 Clouds 4 1020 86 3734 2.55 24 08:57 22.01.2021
3452 Clouds 4 1020 86 3734 2.55 24 08:31 22.01.2021
3453 Clouds 4 1019 85 5611 2.82 27 07:45 22.01.2021
3454 Clouds 5 1020 83 10000 3.65 47 04:59 22.01.2021
3455 Clouds 7 1017 78 10000 3.58 53 01:20 22.01.2021
3456 Clouds 7 1015 75 10000 3.68 59 00:27 22.01.2021
3457 Clouds 7 1015 75 10000 3.68 59 23:43 21.01.2021
3458 Clouds 8 1014 71 10000 3.65 64 23:20 21.01.2021
3459 Clouds 8 1014 71 10000 3.65 64 22:42 21.01.2021
3460 Clouds 9 1013 68 10000 3.67 63 21:58 21.01.2021
3461 Clouds 9 1013 68 10000 3.67 63 21:38 21.01.2021
3462 Clouds 10 1014 66 10000 3.81 56 21:18 21.01.2021
3463 Clouds 10 1014 66 10000 3.81 56 20:43 21.01.2021
3464 Clouds 10 1014 63 10000 3.7 68 20:21 21.01.2021
3465 Clouds 10 1014 63 10000 3.7 68 19:47 21.01.2021
3466 Clouds 10 1015 63 10000 3.67 70 19:25 21.01.2021
3467 Clouds 10 1015 63 10000 3.67 70 18:43 21.01.2021
3468 Clouds 9 1016 66 10000 3.52 67 18:22 21.01.2021
3469 Clouds 9 1016 66 10000 3.52 67 17:57 21.01.2021
3470 Clouds 9 1017 65 5428 3.5 61 17:21 21.01.2021
3471 Clouds 9 1017 65 5428 3.5 61 16:58 21.01.2021
3472 Clouds 9 1017 65 5428 3.5 61 16:38 21.01.2021
3473 Clouds 9 1018 64 5596 3.17 53 16:20 21.01.2021
3474 Clouds 9 1018 64 5596 3.17 53 15:47 21.01.2021
3475 Clouds 8 1019 66 7158 2.83 39 15:26 21.01.2021
3476 Clouds 8 1019 66 7158 2.83 39 14:46 21.01.2021
3477 Clouds 7 1020 71 10000 2.38 40 14:24 21.01.2021
3478 Clouds 7 1020 71 10000 2.38 40 13:43 21.01.2021
3479 Clouds 7 1020 71 10000 2.38 40 13:43 21.01.2021
3480 Clouds 5 1020 78 10000 2.18 46 13:23 21.01.2021
3481 Clouds 5 1020 78 10000 2.18 46 13:23 21.01.2021
3482 Clouds 5 1020 78 10000 2.18 46 13:23 21.01.2021
3483 Rain 5 1020 78 10000 2.18 46 12:44 21.01.2021
3484 Rain 5 1019 82 10000 2.09 49 12:24 21.01.2021
3485 Clouds 5 1019 82 10000 2.09 49 11:52 21.01.2021
3486 Clouds 5 1019 82 10000 2.09 49 11:32 21.01.2021
3487 Clouds 5 1019 84 10000 2.36 40 10:53 21.01.2021
3488 Clouds 5 1019 84 10000 2.36 40 10:34 21.01.2021
3489 Rain 5 1018 85 10000 2.52 36 09:49 21.01.2021
3490 Rain 5 1018 85 10000 2.52 36 09:30 21.01.2021
3491 Rain 5 1018 85 5780 3.21 43 08:59 21.01.2021
3492 Rain 5 1018 84 7459 3.01 50 08:27 21.01.2021
3493 Rain 5 1018 84 7459 3.01 50 07:45 21.01.2021
3494 Rain 6 1018 85 10000 3.25 51 07:25 21.01.2021
3495 Clouds 6 1018 85 10000 3.32 61 05:59 21.01.2021
3496 Clouds 6 1019 86 4384 3.59 59 04:32 21.01.2021
3497 Clouds 7 1016 82 10000 2.93 61 02:18 21.01.2021
3498 Clouds 8 1014 80 10000 3.47 63 00:41 21.01.2021
3499 Clouds 8 1013 74 10000 3.78 55 23:44 20.01.2021
3500 Clouds 9 1011 70 10000 4.29 47 23:24 20.01.2021
3501 Clouds 9 1011 70 10000 4.29 47 22:52 20.01.2021
3502 Clouds 10 1011 66 10000 3.75 54 22:29 20.01.2021
3503 Rain 10 1011 66 10000 3.75 54 21:49 20.01.2021
3504 Rain 11 1011 63 9468 3.42 70 21:23 20.01.2021
3505 Rain 11 1011 63 9468 3.42 70 20:52 20.01.2021
3506 Rain 11 1011 62 10000 3.51 69 20:23 20.01.2021
3507 Clouds 11 1011 62 10000 3.51 69 19:48 20.01.2021
3508 Clouds 11 1012 58 10000 3.3 58 19:29 20.01.2021
3509 Clouds 11 1013 58 10000 3.31 64 18:43 20.01.2021
3510 Clouds 10 1014 60 10000 2.8 58 18:22 20.01.2021
3511 Clouds 10 1014 60 10000 2.8 58 17:50 20.01.2021
3512 Clouds 10 1014 60 10000 2.8 58 17:31 20.01.2021
3513 Clouds 9 1015 65 10000 2.68 47 16:51 20.01.2021
3514 Clouds 8 1016 70 10000 2.8 49 16:23 20.01.2021
3515 Clouds 8 1016 70 10000 2.8 49 15:45 20.01.2021
3516 Clouds 7 1017 75 10000 2.67 59 15:19 20.01.2021
3517 Clouds 7 1017 75 10000 2.67 59 14:41 20.01.2021
3518 Clouds 7 1018 78 10000 2.37 58 14:20 20.01.2021
3519 Clouds 7 1018 78 10000 2.37 58 13:40 20.01.2021
3520 Clouds 6 1018 82 10000 1.98 52 12:59 20.01.2021
3521 Clouds 6 1018 86 10000 2.07 56 12:27 20.01.2021
3522 Clouds 6 1018 86 10000 2.07 56 11:46 20.01.2021
3523 Clouds 6 1017 85 10000 1.82 60 11:22 20.01.2021
3524 Clouds 6 1017 85 10000 1.82 60 10:50 20.01.2021
3525 Clouds 6 1016 85 5957 2.3 58 10:27 20.01.2021
3526 Clouds 6 1016 85 5957 2.3 58 09:44 20.01.2021
3527 Clouds 6 1016 85 5924 2.5 53 09:23 20.01.2021
3528 Clouds 6 1016 85 5924 2.5 53 08:47 20.01.2021
3529 Clouds 6 1016 84 10000 2.33 51 08:24 20.01.2021
3530 Rain 6 1016 84 10000 2.33 51 07:55 20.01.2021
3531 Rain 6 1016 83 10000 2.32 50 07:25 20.01.2021
3532 Clouds 6 1017 85 10000 2.45 49 05:24 20.01.2021
3533 Clouds 7 1017 81 10000 2.31 37 03:22 20.01.2021
3534 Clouds 8 1014 74 10000 2.33 40 00:59 20.01.2021
3535 Clouds 8 1015 76 10000 2.73 40 00:31 20.01.2021
3536 Clouds 8 1013 74 10000 2.96 42 23:42 19.01.2021
3537 Rain 9 1011 69 10000 4.21 49 23:18 19.01.2021
3538 Clouds 9 1011 69 10000 4.21 49 22:41 19.01.2021
3539 Clouds 10 1011 66 10000 4.52 59 22:22 19.01.2021
3540 Clouds 10 1011 66 10000 4.52 59 21:58 19.01.2021
3541 Clouds 10 1011 66 10000 4.52 59 21:40 19.01.2021
3542 Clouds 11 1010 64 10000 3.99 72 21:18 19.01.2021
3543 Clouds 11 1010 64 10000 3.99 72 20:40 19.01.2021
3544 Clouds 11 1011 64 10000 3.75 78 20:22 19.01.2021
3545 Clouds 11 1011 64 10000 3.75 78 19:41 19.01.2021
3546 Clouds 11 1012 66 10000 3.2 85 19:20 19.01.2021
3547 Clouds 11 1012 66 10000 3.2 85 18:40 19.01.2021
3548 Clouds 11 1013 65 6194 3.52 86 18:21 19.01.2021
3549 Clouds 11 1013 65 6194 3.52 86 17:45 19.01.2021
3550 Clouds 11 1014 63 10000 2.75 66 17:24 19.01.2021
3551 Clouds 11 1014 63 10000 2.75 66 16:48 19.01.2021
3552 Clouds 11 1016 61 10000 1.53 44 16:25 19.01.2021
3553 Clouds 11 1016 61 10000 1.53 44 15:57 19.01.2021
3554 Clouds 11 1016 61 10000 1.53 44 15:37 19.01.2021
3555 Clouds 9 1017 64 10000 1.11 29 14:57 19.01.2021
3556 Clouds 9 1017 64 10000 1.11 29 14:37 19.01.2021
3557 Clouds 8 1018 69 10000 1.05 30 14:18 19.01.2021
3558 Clouds 8 1018 69 10000 1.05 30 13:39 19.01.2021
3559 Clouds 6 1018 75 10000 0.57 50 13:20 19.01.2021
3560 Clouds 6 1018 75 10000 0.72 157 12:38 19.01.2021
3561 Clouds 5 1018 83 10000 0.94 219 12:19 19.01.2021
3562 Clouds 5 1018 83 10000 0.94 219 11:43 19.01.2021
3563 Clouds 5 1017 87 10000 0.31 312 11:22 19.01.2021
3564 Clouds 5 1017 87 10000 0.31 312 10:50 19.01.2021
3565 Clouds 5 1017 87 10000 0.31 312 10:30 19.01.2021
3566 Clouds 5 1017 84 10000 0.57 357 09:52 19.01.2021
3567 Clouds 5 1017 85 10000 0.59 336 09:21 19.01.2021
3568 Clouds 5 1017 85 10000 0.59 336 08:51 19.01.2021
3569 Clouds 5 1017 86 10000 0.62 325 08:18 19.01.2021
3570 Clouds 5 1017 86 10000 0.62 325 07:36 19.01.2021
3571 Clouds 5 1018 86 10000 1.31 25 05:59 19.01.2021
3572 Clouds 6 1016 85 10000 2.62 59 02:29 19.01.2021
3573 Clouds 7 1015 83 10000 2.76 70 00:48 19.01.2021
3574 Clouds 7 1014 80 10000 3.16 87 23:58 18.01.2021
3575 Clouds 7 1014 80 10000 3.16 87 23:31 18.01.2021
3576 Clouds 8 1012 76 10000 3.17 83 22:51 18.01.2021
3577 Clouds 8 1012 74 10000 3.38 77 22:24 18.01.2021
3578 Clouds 8 1012 74 10000 3.38 77 21:51 18.01.2021
3579 Clouds 8 1013 74 10000 3.79 83 21:24 18.01.2021
3580 Clouds 8 1013 74 10000 3.79 83 20:59 18.01.2021
3581 Clouds 8 1013 74 10000 3.79 83 20:39 18.01.2021
3582 Clouds 8 1014 75 10000 3.83 84 20:20 18.01.2021
3583 Clouds 8 1014 75 10000 3.83 84 19:48 18.01.2021
3584 Clouds 8 1015 75 7607 3.62 64 19:29 18.01.2021
3585 Clouds 8 1015 74 8035 3.67 67 18:44 18.01.2021
3586 Clouds 8 1016 75 10000 3.57 63 18:22 18.01.2021
3587 Clouds 8 1016 75 10000 3.57 63 17:41 18.01.2021
3588 Clouds 7 1017 80 10000 3.54 63 17:21 18.01.2021
3589 Clouds 7 1017 80 10000 3.54 63 16:46 18.01.2021
3590 Clouds 7 1018 81 4621 3.49 65 16:20 18.01.2021
3591 Clouds 7 1018 81 4621 3.49 65 15:45 18.01.2021
3592 Clouds 6 1018 84 4960 3.34 57 15:25 18.01.2021
3593 Clouds 6 1018 84 4960 3.34 57 14:44 18.01.2021
3594 Clouds 6 1018 86 3659 2.97 56 14:26 18.01.2021
3595 Clouds 6 1018 86 3659 2.97 56 13:47 18.01.2021
3596 Clouds 6 1018 87 4194 2.15 60 13:27 18.01.2021
3597 Clouds 6 1018 88 3764 2.41 68 12:53 18.01.2021
3598 Clouds 6 1017 89 3965 2.09 64 12:21 18.01.2021
3599 Rain 6 1017 89 3965 2.09 64 11:57 18.01.2021
3600 Rain 6 1017 89 3965 2.09 64 11:39 18.01.2021
3601 Rain 6 1016 89 7092 1.39 48 11:20 18.01.2021
3602 Clouds 6 1016 89 7092 1.39 48 10:44 18.01.2021
3603 Clouds 7 1015 88 10000 1.37 23 09:50 18.01.2021
3604 Clouds 7 1015 88 10000 1.37 23 09:32 18.01.2021
3605 Clouds 7 1015 88 10000 1.37 23 09:32 18.01.2021
3606 Clouds 7 1015 86 10000 0.99 25 08:55 18.01.2021
3607 Clouds 7 1014 85 10000 1.08 350 08:25 18.01.2021
3608 Rain 7 1014 85 10000 1.08 350 07:37 18.01.2021
3609 Clouds 7 1015 85 10000 2.03 36 05:45 18.01.2021
3610 Clouds 7 1015 84 10000 2.05 50 04:40 18.01.2021
3611 Clouds 7 1015 83 10000 2.03 2 04:18 18.01.2021
3612 Clouds 7 1015 83 10000 2.03 2 03:43 18.01.2021
3613 Clouds 7 1015 81 10000 3.02 340 03:20 18.01.2021
3614 Clouds 7 1015 81 10000 3.02 340 02:40 18.01.2021
3615 Clouds 8 1014 78 10000 3.57 12 01:56 18.01.2021
3616 Clouds 8 1012 75 10000 1.05 79 00:39 18.01.2021
3617 Clouds 8 1010 74 10000 1.94 43 23:49 17.01.2021
3618 Clouds 9 1008 71 10000 3.59 23 23:24 17.01.2021
3619 Clouds 9 1008 71 10000 3.59 23 22:47 17.01.2021
3620 Clouds 9 1008 72 10000 4.4 35 22:22 17.01.2021
3621 Clouds 9 1008 72 10000 4.4 35 21:42 17.01.2021
3622 Clouds 10 1008 73 10000 5.18 36 21:24 17.01.2021
3623 Rain 10 1008 73 10000 5.18 36 20:50 17.01.2021
3624 Rain 10 1008 73 10000 5.18 36 20:31 17.01.2021
3625 Clouds 11 1008 72 10000 5.45 41 19:52 17.01.2021
3626 Clouds 11 1008 72 10000 5.45 41 19:31 17.01.2021
3627 Clouds 12 1008 61 10000 4.16 45 18:53 17.01.2021
3628 Clouds 12 1010 58 10000 3.63 45 18:28 17.01.2021
3629 Clouds 12 1010 58 10000 3.63 45 17:50 17.01.2021
3630 Clouds 12 1011 54 10000 2.37 16 17:28 17.01.2021
3631 Clouds 12 1011 54 10000 2.37 16 16:45 17.01.2021
3632 Rain 12 1012 55 10000 2.95 3 16:25 17.01.2021
3633 Rain 12 1012 55 10000 2.95 3 15:45 17.01.2021
3634 Rain 12 1012 55 10000 2.95 3 15:45 17.01.2021
3635 Rain 11 1012 56 10000 3.18 8 15:26 17.01.2021
3636 Rain 11 1012 56 10000 3.18 8 14:55 17.01.2021
3637 Rain 10 1012 62 10000 2.81 1 14:27 17.01.2021
3638 Rain 10 1012 62 10000 2.81 1 13:59 17.01.2021
3639 Rain 10 1012 62 10000 2.81 1 13:41 17.01.2021
3640 Rain 9 1012 69 10000 2.86 20 13:21 17.01.2021
3641 Rain 9 1012 71 10000 2.64 42 12:44 17.01.2021
3642 Rain 8 1012 80 10000 2.34 60 12:24 17.01.2021
3643 Rain 8 1010 84 10000 1.99 66 11:25 17.01.2021
3644 Rain 8 1010 84 10000 1.99 66 10:51 17.01.2021
3645 Clouds 8 1010 84 10000 1.7 66 10:25 17.01.2021
3646 Clouds 8 1010 84 10000 1.7 66 09:50 17.01.2021
3647 Clouds 8 1009 83 10000 1.86 70 08:59 17.01.2021
3648 Clouds 8 1009 83 10000 1.86 70 08:40 17.01.2021
3649 Clouds 11 1008 73 10000 1.27 39 04:30 17.01.2021
3650 Clouds 11 1007 73 10000 1.83 68 02:51 17.01.2021
3651 Clouds 12 1004 65 6488 2.76 81 00:57 17.01.2021
3652 Clouds 12 1003 64 10000 3.04 71 00:21 17.01.2021
3653 Clouds 12 1003 64 10000 3.04 71 23:52 16.01.2021
3654 Clouds 14 1001 57 10000 3.51 72 23:24 16.01.2021
3655 Clouds 14 1001 57 10000 3.51 72 22:54 16.01.2021
3656 Clouds 14 1000 53 10000 3.73 82 22:21 16.01.2021
3657 Clouds 14 1000 53 10000 3.73 82 21:46 16.01.2021
3658 Clouds 15 1000 52 10000 3.3 97 21:23 16.01.2021
3659 Clouds 15 1000 52 10000 3.3 97 20:49 16.01.2021
3660 Clouds 15 1001 52 10000 3.56 100 20:27 16.01.2021
3661 Clouds 15 1001 52 10000 3.56 100 19:49 16.01.2021
3662 Clouds 15 1001 52 10000 3.56 100 19:30 16.01.2021
3663 Clouds 16 1003 45 10000 2.79 101 18:47 16.01.2021
3664 Clouds 15 1004 45 10000 1.8 91 18:27 16.01.2021
3665 Clouds 15 1004 45 10000 1.8 91 17:58 16.01.2021
3666 Clouds 15 1004 45 10000 1.8 91 17:39 16.01.2021
3667 Clouds 14 1006 48 10000 0.94 32 17:20 16.01.2021
3668 Clouds 14 1006 48 10000 0.94 32 16:41 16.01.2021
3669 Clouds 13 1007 53 10000 1.13 354 16:18 16.01.2021
3670 Clouds 13 1007 53 10000 1.13 354 15:41 16.01.2021
3671 Clouds 12 1008 59 10000 1.52 338 14:35 16.01.2021
3672 Clouds 11 1010 66 10000 1.64 339 13:54 16.01.2021
3673 Clouds 11 1010 66 10000 1.64 339 13:32 16.01.2021
3674 Clouds 10 1010 70 10000 1.27 12 12:49 16.01.2021
3675 Clouds 10 1010 70 10000 1.27 12 12:31 16.01.2021
3676 Clouds 9 1010 77 10000 0.83 58 11:59 16.01.2021
3677 Clouds 9 1010 77 10000 0.83 58 11:39 16.01.2021
3678 Clouds 8 1009 84 10000 0.8 81 11:18 16.01.2021
3679 Clouds 8 1009 84 10000 0.8 81 10:41 16.01.2021
3680 Clouds 9 1008 81 10000 1.21 83 09:57 16.01.2021
3681 Clouds 9 1008 78 10000 1.38 75 09:21 16.01.2021
3682 Clouds 9 1009 79 10000 1.23 97 08:20 16.01.2021
3683 Clouds 9 1009 78 10000 1.77 112 06:54 16.01.2021
3684 Clouds 10 1010 73 10000 1.01 51 05:45 16.01.2021
3685 Clouds 10 1010 75 10000 2.13 45 04:36 16.01.2021
3686 Clouds 11 1009 75 10000 2.22 66 02:54 16.01.2021
3687 Clouds 12 1007 70 10000 2.44 60 00:48 16.01.2021
3688 Clouds 12 1006 67 10000 2.65 67 00:24 16.01.2021
3689 Clouds 12 1006 67 10000 2.65 67 23:40 15.01.2021
3690 Clouds 13 1005 61 10000 3.45 80 22:47 15.01.2021
3691 Clouds 14 1004 55 10000 4.16 93 22:23 15.01.2021
3692 Clouds 14 1004 55 10000 4.16 93 21:46 15.01.2021
3693 Clouds 15 1005 52 10000 3.89 98 20:58 15.01.2021
3694 Rain 15 1005 52 10000 3.89 98 20:40 15.01.2021
3695 Clouds 15 1006 53 10000 3.54 100 20:19 15.01.2021
3696 Clouds 15 1006 53 10000 3.54 100 19:40 15.01.2021
3697 Clouds 14 1007 53 10000 3.11 85 19:22 15.01.2021
3698 Clouds 14 1007 53 10000 3.11 85 18:42 15.01.2021
3699 Clouds 14 1009 53 10000 2.44 55 18:18 15.01.2021
3700 Clouds 14 1009 53 10000 2.44 55 17:50 15.01.2021
3701 Clouds 13 1010 55 10000 1.84 42 17:22 15.01.2021
3702 Clouds 13 1010 55 10000 1.84 42 16:52 15.01.2021
3703 Clouds 12 1012 58 10000 1.39 359 16:25 15.01.2021
3704 Clouds 12 1012 58 10000 1.39 359 15:42 15.01.2021
3705 Clouds 11 1013 62 10000 1.72 334 15:22 15.01.2021
3706 Clouds 11 1013 62 10000 1.72 334 14:50 15.01.2021
3707 Clouds 10 1014 68 10000 1.3 335 14:27 15.01.2021
3708 Clouds 10 1014 68 10000 1.3 335 13:44 15.01.2021
3709 Clouds 8 1015 77 10000 1.07 356 13:23 15.01.2021
3710 Clouds 8 1015 80 10000 1.44 355 12:59 15.01.2021
3711 Clouds 8 1015 80 10000 1.44 355 12:34 15.01.2021
3712 Clouds 7 1015 86 10000 1.63 349 11:59 15.01.2021
3713 Clouds 7 1015 86 10000 1.63 349 11:41 15.01.2021
3714 Clouds 7 1014 87 10000 1.05 330 10:58 15.01.2021
3715 Clouds 7 1014 87 10000 1.05 330 10:39 15.01.2021
3716 Clouds 7 1014 85 10000 0.74 336 10:19 15.01.2021
3717 Clouds 7 1014 85 10000 0.74 336 09:46 15.01.2021
3718 Clouds 7 1014 84 10000 0.75 356 09:27 15.01.2021
3719 Clouds 7 1014 85 10000 0.94 35 08:27 15.01.2021
3720 Clouds 7 1014 85 10000 0.94 35 07:41 15.01.2021
3721 Clouds 8 1014 84 10000 1.44 45 07:21 15.01.2021
3722 Clouds 8 1015 82 10000 2.02 46 05:36 15.01.2021
3723 Clouds 9 1014 78 10000 2.68 66 02:19 15.01.2021
3724 Clouds 10 1012 76 10000 3.26 65 00:32 15.01.2021
3725 Clouds 12 1009 62 10000 3.49 66 23:29 14.01.2021
3726 Clouds 12 1009 62 10000 3.49 66 22:50 14.01.2021
3727 Clouds 13 1009 60 10000 3.29 63 22:27 14.01.2021
3728 Clouds 13 1009 60 10000 3.29 63 21:56 14.01.2021
3729 Clouds 13 1009 60 10000 3.29 63 21:38 14.01.2021
3730 Clouds 13 1009 57 9049 3.19 73 21:19 14.01.2021
3731 Clouds 13 1009 57 9049 3.19 73 20:42 14.01.2021
3732 Clouds 13 1010 55 8222 3.24 70 19:57 14.01.2021
3733 Clouds 13 1010 55 8222 3.24 70 19:36 14.01.2021
3734 Clouds 13 1010 55 8222 3.24 70 19:36 14.01.2021
3735 Clouds 13 1011 55 9182 3.42 66 18:58 14.01.2021
3736 Clouds 13 1011 55 9182 3.42 66 18:39 14.01.2021
3737 Clouds 13 1012 58 8841 3.42 65 17:57 14.01.2021
3738 Clouds 13 1012 58 8841 3.42 65 17:30 14.01.2021
3739 Clouds 13 1013 58 10000 3.41 59 16:54 14.01.2021
3740 Clouds 13 1013 58 10000 3.41 59 16:31 14.01.2021
3741 Clouds 12 1015 60 10000 2.84 57 15:54 14.01.2021
3742 Clouds 12 1015 60 10000 2.84 57 15:30 14.01.2021
3743 Clouds 11 1016 65 10000 2.4 66 14:48 14.01.2021
3744 Clouds 11 1016 65 10000 2.4 66 14:30 14.01.2021
3745 Clouds 9 1017 71 10000 1.75 81 13:56 14.01.2021
3746 Clouds 8 1017 78 10000 1.18 73 13:25 14.01.2021
3747 Clouds 8 1017 78 10000 1.18 73 12:58 14.01.2021
3748 Clouds 7 1017 83 10000 1.37 68 12:23 14.01.2021
3749 Clouds 7 1017 83 10000 1.37 68 11:59 14.01.2021
3750 Clouds 7 1017 83 10000 1.37 68 11:41 14.01.2021
3751 Clouds 7 1017 87 10000 1.43 71 11:19 14.01.2021
3752 Clouds 7 1017 87 10000 1.43 71 10:42 14.01.2021
3753 Clouds 7 1016 86 10000 1.45 73 10:19 14.01.2021
3754 Clouds 7 1016 86 10000 1.45 73 09:44 14.01.2021
3755 Clouds 7 1016 85 10000 1.56 70 09:22 14.01.2021
3756 Clouds 7 1016 85 10000 1.56 70 08:39 14.01.2021
3757 Clouds 7 1016 86 10000 1.87 71 08:19 14.01.2021
3758 Clouds 7 1016 86 10000 1.87 71 07:41 14.01.2021
3759 Clouds 7 1016 85 10000 1.83 65 06:41 14.01.2021
3760 Clouds 8 1017 77 10000 1.76 60 05:23 14.01.2021
3761 Rain 10 1014 76 6897 1.85 63 00:36 14.01.2021
3762 Clouds 10 1013 72 7517 2.69 64 23:48 13.01.2021
3763 Clouds 11 1011 67 7212 3.46 78 23:20 13.01.2021
3764 Clouds 12 1011 62 7977 3.45 66 22:27 13.01.2021
3765 Clouds 12 1011 62 7977 3.45 66 21:50 13.01.2021
3766 Clouds 13 1011 59 7483 3.5 56 21:24 13.01.2021
3767 Clouds 13 1011 59 7483 3.5 56 20:54 13.01.2021
3768 Clouds 13 1012 58 8294 3.25 58 20:28 13.01.2021
3769 Clouds 13 1012 58 8294 3.25 58 19:57 13.01.2021
3770 Clouds 13 1012 58 8294 3.25 58 19:37 13.01.2021
3771 Clouds 13 1013 56 8822 2.92 64 19:18 13.01.2021
3772 Clouds 13 1013 58 8640 2.34 69 18:37 13.01.2021
3773 Clouds 12 1015 59 10000 2.55 65 17:51 13.01.2021
3774 Clouds 11 1016 64 10000 2.37 48 17:24 13.01.2021
3775 Clouds 11 1016 64 10000 2.37 48 16:50 13.01.2021
3776 Clouds 11 1018 67 10000 2.19 30 16:22 13.01.2021
3777 Clouds 11 1018 67 10000 2.19 30 15:52 13.01.2021
3778 Clouds 11 1018 67 10000 2.19 30 15:32 13.01.2021
3779 Clouds 10 1019 72 10000 2.22 30 14:46 13.01.2021
3780 Clouds 9 1019 78 10000 1.53 18 13:53 13.01.2021
3781 Clouds 8 1019 84 10000 1.44 10 13:27 13.01.2021
3782 Rain 8 1019 84 10000 1.44 10 12:47 13.01.2021
3783 Rain 7 1019 89 10000 2.04 358 12:28 13.01.2021
3784 Clouds 7 1019 89 10000 2.04 358 11:55 13.01.2021
3785 Clouds 7 1019 89 10000 2.04 358 11:35 13.01.2021
3786 Clouds 7 1018 87 10000 2.6 22 10:55 13.01.2021
3787 Clouds 7 1018 87 10000 2.6 22 10:37 13.01.2021
3788 Clouds 7 1017 86 10000 2.17 59 10:18 13.01.2021
3789 Clouds 7 1017 86 10000 2.17 59 09:31 13.01.2021
3790 Clouds 7 1017 85 10000 2 84 08:52 13.01.2021
3791 Clouds 7 1017 85 10000 2 84 08:31 13.01.2021
3792 Clouds 7 1017 86 10000 1.72 62 07:35 13.01.2021
3793 Clouds 7 1017 86 10000 1.65 43 06:56 13.01.2021
3794 Clouds 9 1017 79 10000 2.28 41 04:21 13.01.2021
3795 Rain 9 1017 79 10000 2.28 41 03:48 13.01.2021
3796 Rain 9 1017 75 10000 2.18 42 03:29 13.01.2021
3797 Clouds 9 1015 72 10000 2.47 40 01:32 13.01.2021
3798 Clouds 10 1012 67 10000 4.41 41 00:29 13.01.2021
3799 Clouds 12 1011 60 10000 5.39 36 23:24 12.01.2021
3800 Rain 12 1011 60 10000 5.39 36 22:47 12.01.2021
3801 Rain 13 1010 53 10000 5.17 26 22:24 12.01.2021
3802 Clouds 13 1010 53 10000 5.17 26 21:53 12.01.2021
3803 Rain 13 1010 53 10000 5.17 26 21:31 12.01.2021
3804 Rain 14 1010 50 10000 5.22 26 20:49 12.01.2021
3805 Rain 13 1010 53 10000 4.82 40 20:27 12.01.2021
3806 Rain 13 1010 53 10000 4.82 40 19:56 12.01.2021
3807 Clouds 13 1010 53 10000 4.82 40 19:37 12.01.2021
3808 Clouds 13 1011 51 10000 4.64 47 18:49 12.01.2021
3809 Clouds 13 1012 51 10000 4.8 57 18:24 12.01.2021
3810 Clouds 13 1012 51 10000 4.8 57 17:48 12.01.2021
3811 Clouds 13 1012 51 10000 4.8 57 17:30 12.01.2021
3812 Clouds 13 1013 50 10000 4.72 60 16:44 12.01.2021
3813 Clouds 13 1014 50 10000 4.1 57 16:25 12.01.2021
3814 Clouds 13 1014 50 10000 4.1 57 15:45 12.01.2021
3815 Clouds 12 1014 51 10000 2.73 54 15:22 12.01.2021
3816 Rain 12 1014 51 10000 2.73 54 14:47 12.01.2021
3817 Rain 11 1015 55 10000 1.53 47 14:26 12.01.2021
3818 Rain 11 1015 55 10000 1.53 47 13:53 12.01.2021
3819 Rain 10 1015 61 10000 1.24 63 13:29 12.01.2021
3820 Clouds 10 1015 62 10000 1.11 50 12:33 12.01.2021
3821 Clouds 9 1015 67 10000 1.1 83 11:42 12.01.2021
3822 Clouds 8 1014 76 10000 1.02 90 10:59 12.01.2021
3823 Clouds 8 1014 76 10000 1.02 90 10:40 12.01.2021
3824 Clouds 8 1013 78 10000 0.26 61 10:19 12.01.2021
3825 Clouds 8 1013 78 10000 0.26 61 09:43 12.01.2021
3826 Clouds 9 1013 77 10000 0.35 332 09:20 12.01.2021
3827 Clouds 9 1013 71 10000 0.3 11 08:26 12.01.2021
3828 Clouds 9 1013 71 10000 0.3 11 07:44 12.01.2021
3829 Clouds 9 1013 68 10000 0.53 84 07:26 12.01.2021
3830 Rain 8 1013 72 10000 1.29 259 05:40 12.01.2021
3831 Rain 7 1014 79 10000 2.01 347 03:46 12.01.2021
3832 Rain 6 1014 86 10000 1.09 14 03:22 12.01.2021
3833 Clouds 5 1013 88 2718 0.81 70 01:51 12.01.2021
3834 Rain 5 1012 91 2440 2.06 86 00:33 12.01.2021
3835 Rain 8 1009 83 2554 2.25 209 23:41 11.01.2021
3836 Rain 8 1008 79 8654 0.66 237 23:20 11.01.2021
3837 Rain 8 1008 79 8654 0.66 237 22:46 11.01.2021
3838 Rain 11 1007 63 7651 2.92 314 22:28 11.01.2021
3839 Rain 11 1007 63 7651 2.92 314 21:46 11.01.2021
3840 Rain 13 1006 54 5838 0.13 307 21:25 11.01.2021
3841 Clouds 14 1006 50 10000 2.51 108 20:59 11.01.2021
3842 Clouds 14 1006 50 10000 2.51 108 20:39 11.01.2021
3843 Clouds 14 1006 47 10000 2.59 99 20:20 11.01.2021
3844 Clouds 14 1006 47 10000 2.59 99 19:49 11.01.2021
3845 Clouds 14 1007 48 10000 3.08 93 19:22 11.01.2021
3846 Clouds 14 1007 48 10000 3.08 93 18:43 11.01.2021
3847 Clouds 14 1009 46 10000 3.07 77 18:23 11.01.2021
3848 Clouds 14 1009 46 10000 3.07 77 17:42 11.01.2021
3849 Clouds 15 1010 42 10000 1.94 52 17:24 11.01.2021
3850 Clouds 15 1010 42 10000 1.94 52 16:48 11.01.2021
3851 Clouds 14 1011 42 10000 1.42 28 16:29 11.01.2021
3852 Clouds 14 1011 42 10000 1.42 28 15:57 11.01.2021
3853 Clouds 14 1011 42 10000 1.42 28 15:36 11.01.2021
3854 Clouds 13 1012 44 10000 1.25 9 14:58 11.01.2021
3855 Clouds 13 1012 44 10000 1.25 9 14:36 11.01.2021
3856 Clouds 12 1013 53 10000 0.86 4 13:48 11.01.2021
3857 Clouds 10 1013 60 10000 0.45 329 13:23 11.01.2021
3858 Clouds 10 1013 62 10000 0.44 2 12:44 11.01.2021
3859 Clouds 9 1013 68 10000 0.21 289 12:26 11.01.2021
3860 Clouds 9 1013 68 10000 0.21 289 11:48 11.01.2021
3861 Clouds 8 1013 77 10000 1.09 270 11:21 11.01.2021
3862 Clouds 8 1013 77 10000 1.09 270 10:42 11.01.2021
3863 Clouds 8 1012 77 10000 1.73 286 10:23 11.01.2021
3864 Clouds 8 1012 77 10000 1.73 286 09:37 11.01.2021
3865 Rain 8 1012 77 10000 1.36 283 09:19 11.01.2021
3866 Clouds 8 1012 77 10000 1.36 283 08:43 11.01.2021
3867 Clouds 8 1012 78 10000 1.45 300 07:58 11.01.2021
3868 Clouds 8 1012 79 10000 1.65 311 07:25 11.01.2021
3869 Clouds 8 1012 79 10000 1.65 311 06:57 11.01.2021
3870 Clouds 8 1014 73 10000 1.45 87 03:22 11.01.2021
3871 Clouds 7 1011 77 10000 0.97 182 01:29 11.01.2021
3872 Rain 7 1009 82 10000 0.37 125 23:59 10.01.2021
3873 Rain 7 1009 82 10000 0.37 125 23:30 10.01.2021
3874 Rain 7 1007 84 5606 1.56 196 22:48 10.01.2021
3875 Rain 9 1006 77 5093 2.09 251 22:23 10.01.2021
3876 Rain 9 1006 77 5093 2.09 251 21:44 10.01.2021
3877 Rain 12 1006 59 4907 0.93 12 21:20 10.01.2021
3878 Rain 12 1006 59 4907 0.93 12 20:53 10.01.2021
3879 Rain 12 1006 59 4907 0.93 12 20:32 10.01.2021
3880 Rain 14 1007 49 3756 4.18 33 19:43 10.01.2021
3881 Clouds 15 1008 42 10000 3.73 34 19:25 10.01.2021
3882 Clouds 15 1008 42 10000 3.73 34 18:49 10.01.2021
3883 Clouds 15 1009 37 10000 2.26 22 18:21 10.01.2021
3884 Clouds 15 1009 37 10000 2.26 22 17:41 10.01.2021
3885 Clouds 15 1011 37 10000 2.28 354 17:20 10.01.2021
3886 Clouds 15 1011 37 10000 2.28 354 16:32 10.01.2021
3887 Clouds 15 1011 37 10000 2.28 354 16:32 10.01.2021
3888 Clouds 14 1012 40 10000 2.04 351 15:56 10.01.2021
3889 Clouds 12 1014 45 10000 1.67 328 15:25 10.01.2021
3890 Clouds 12 1014 45 10000 1.67 328 14:50 10.01.2021
3891 Clouds 12 1014 45 10000 1.67 328 14:31 10.01.2021
3892 Clouds 11 1015 55 10000 1.71 318 13:55 10.01.2021
3893 Clouds 11 1015 55 10000 1.71 318 13:37 10.01.2021
3894 Clouds 9 1015 65 10000 1.73 312 13:18 10.01.2021
3895 Clouds 9 1015 66 10000 1.51 315 12:47 10.01.2021
3896 Clouds 8 1015 75 10000 1.37 316 12:27 10.01.2021
3897 Clouds 8 1015 75 10000 1.37 316 11:40 10.01.2021
3898 Clouds 8 1015 80 10000 1.74 323 11:19 10.01.2021
3899 Clouds 8 1015 80 10000 1.74 323 10:38 10.01.2021
3900 Clouds 8 1014 80 10000 2.16 328 10:20 10.01.2021
3901 Clouds 8 1014 79 10000 1.76 321 09:27 10.01.2021
3902 Clouds 8 1014 78 10000 1.69 309 08:22 10.01.2021
3903 Clouds 8 1014 78 10000 1.69 309 07:31 10.01.2021
3904 Clouds 8 1014 78 10000 2.18 357 06:20 10.01.2021
3905 Clouds 8 1014 78 10000 2.18 357 05:37 10.01.2021
3906 Clouds 9 1015 70 10000 2.64 354 03:55 10.01.2021
3907 Clouds 10 1011 67 10000 3.08 7 01:28 10.01.2021
3908 Clouds 10 1009 62 10000 3.2 25 23:55 09.01.2021
3909 Rain 10 1009 62 10000 3.2 25 23:36 09.01.2021
3910 Clouds 11 1008 61 9237 3.41 17 22:49 09.01.2021
3911 Clouds 12 1007 58 6193 2.82 11 22:19 09.01.2021
3912 Clouds 12 1007 58 6193 2.82 11 21:58 09.01.2021
3913 Clouds 12 1007 58 6193 2.82 11 21:39 09.01.2021
3914 Clouds 13 1007 56 4783 4.16 67 21:20 09.01.2021
3915 Clouds 13 1007 56 4783 4.16 67 20:45 09.01.2021
3916 Rain 15 1007 39 10000 4.5 88 19:57 09.01.2021
3917 Clouds 15 1007 39 10000 4.5 88 19:39 09.01.2021
3918 Clouds 15 1008 34 10000 2.76 93 19:18 09.01.2021
3919 Clouds 15 1008 35 10000 2.46 91 18:35 09.01.2021
3920 Clouds 14 1010 35 10000 1.06 62 17:51 09.01.2021
3921 Clouds 14 1010 35 10000 1.06 62 17:32 09.01.2021
3922 Clouds 14 1011 36 10000 0.99 348 16:36 09.01.2021
3923 Clouds 13 1013 39 10000 1.18 326 16:18 09.01.2021
3924 Clouds 13 1013 39 10000 1.18 326 15:40 09.01.2021
3925 Clouds 12 1014 43 10000 1.06 316 14:56 09.01.2021
3926 Clouds 12 1014 43 10000 1.06 316 14:36 09.01.2021
3927 Clouds 10 1015 50 10000 1.01 315 14:18 09.01.2021
3928 Clouds 10 1015 50 10000 1.01 315 13:43 09.01.2021
3929 Clouds 9 1015 64 10000 0.84 302 13:24 09.01.2021
3930 Clouds 7 1015 77 10000 0.64 271 12:28 09.01.2021
3931 Clouds 7 1015 77 10000 0.64 271 11:58 09.01.2021
3932 Clouds 7 1015 77 10000 0.64 271 11:37 09.01.2021
3933 Clouds 6 1014 88 10000 0.84 283 11:18 09.01.2021
3934 Clouds 6 1014 88 10000 0.84 283 10:42 09.01.2021
3935 Clouds 6 1014 89 10000 1.31 308 10:22 09.01.2021
3936 Clouds 6 1014 89 10000 1.31 308 09:43 09.01.2021
3937 Clear 6 1014 89 10000 1.5 335 09:20 09.01.2021
3938 Clear 7 1014 87 10000 1.57 352 07:48 09.01.2021
3939 Clouds 7 1014 86 10000 1.65 351 06:53 09.01.2021
3940 Clouds 7 1014 86 10000 1.65 351 06:33 09.01.2021
3941 Clouds 9 1015 73 10000 1.99 22 03:53 09.01.2021
3942 Clouds 9 1014 68 10000 2.32 38 02:41 09.01.2021
3943 Clouds 10 1013 64 10000 2.83 53 02:23 09.01.2021
3944 Clouds 10 1013 64 10000 2.83 53 02:23 09.01.2021
3945 Clouds 10 1013 64 10000 2.83 53 02:23 09.01.2021
3946 Clouds 11 1012 60 10000 2.89 60 01:25 09.01.2021
3947 Clouds 10 1012 62 10000 3.63 38 00:33 09.01.2021
3948 Clouds 10 1012 62 10000 3.63 38 00:33 09.01.2021
3949 Clouds 12 1010 47 10000 1.52 17 23:46 08.01.2021
3950 Clouds 14 1008 38 10000 1.72 247 22:46 08.01.2021
3951 Rain 15 1008 36 10000 4.37 256 21:53 08.01.2021
3952 Rain 15 1008 36 10000 4.84 273 21:26 08.01.2021
3953 Rain 15 1008 36 10000 4.84 273 20:38 08.01.2021
3954 Clouds 15 1009 36 10000 4.32 292 19:58 08.01.2021
3955 Clouds 15 1034 58 10000 5.14 60 19:25 08.01.2021
3956 Clouds 15 1034 58 10000 5.14 60 18:54 08.01.2021
3957 Clouds 15 1034 58 10000 5.14 60 18:33 08.01.2021
3958 Clouds 14 1035 62 10000 4.12 60 17:55 08.01.2021
3959 Clouds 14 1035 62 10000 4.12 60 17:25 08.01.2021
3960 Clouds 12 1036 71 10000 3.09 60 16:50 08.01.2021
3961 Clouds 10 1036 81 10000 2.61 342 15:55 08.01.2021
3962 Clouds 10 1036 81 10000 2.61 342 15:33 08.01.2021
3963 Clouds 8 1036 87 10000 1.86 338 14:40 08.01.2021
3964 Clouds 8 1036 87 10000 1.62 325 14:20 08.01.2021
3965 Clouds 6 1036 93 10000 2.01 313 13:22 08.01.2021
3966 Clouds 6 1035 100 10000 1.8 309 12:52 08.01.2021
3967 Clouds 6 1035 100 10000 1.69 308 12:23 08.01.2021
3968 Clouds 5 1017 80 10000 1.69 308 11:59 08.01.2021
3969 Clouds 5 1017 80 10000 1.69 308 11:39 08.01.2021
3970 Clouds 5 1017 80 10000 1.69 308 11:39 08.01.2021
3971 Clouds 4 1016 85 10000 2.08 312 11:19 08.01.2021
3972 Clouds 4 1016 85 10000 2.08 312 10:42 08.01.2021
3973 Clouds 4 1016 86 10000 2.12 326 09:57 08.01.2021
3974 Clouds 4 1016 86 10000 2.12 326 09:38 08.01.2021
3975 Clouds 4 1016 87 10000 2.67 339 09:19 08.01.2021
3976 Clouds 4 1016 88 10000 3.15 331 07:43 08.01.2021
3977 Clouds 4 1016 88 10000 2.63 331 07:24 08.01.2021
3978 Clouds 4 1016 88 10000 2.63 331 07:24 08.01.2021
3979 Clouds 5 1016 93 1409 4.92 348 04:18 08.01.2021
3980 Clouds 5 1016 93 1409 4.92 348 04:18 08.01.2021
3981 Clouds 8 1011 79 10000 3.31 38 23:43 07.01.2021
3982 Clouds 9 1009 73 9060 3.31 26 23:25 07.01.2021
3983 Clouds 9 1009 73 9060 3.31 26 22:36 07.01.2021
3984 Clouds 9 1008 70 10000 2.06 123 21:53 07.01.2021
3985 Clouds 9 1008 70 10000 2.06 123 21:34 07.01.2021
3986 Clouds 8 1009 77 10000 2 125 20:57 07.01.2021
3987 Clouds 8 1009 77 10000 2 125 20:38 07.01.2021
3988 Rain 8 1009 83 5440 3.09 298 20:18 07.01.2021
3989 Rain 14 1034 62 10000 4.12 60 19:38 07.01.2021
3990 Clouds 14 1034 62 10000 4.12 60 18:54 07.01.2021
3991 Clouds 13 1035 67 10000 3.6 60 18:23 07.01.2021
3992 Clouds 13 1035 67 10000 3.6 60 17:42 07.01.2021
3993 Clouds 13 1035 67 10000 3.6 60 17:18 07.01.2021
3994 Clouds 12 1036 71 10000 2.06 60 16:51 07.01.2021
3995 Clouds 12 1036 71 10000 2.06 60 16:20 07.01.2021
3996 Clouds 10 1036 81 10000 3.09 60 15:34 07.01.2021
3997 Clouds 9 1036 81 10000 2.57 60 14:42 07.01.2021
3998 Clouds 9 1036 81 10000 2.57 60 14:42 07.01.2021
3999 Clouds 9 1036 81 10000 2.57 60 14:42 07.01.2021
4000 Clouds 9 1036 81 10000 2.57 60 14:42 07.01.2021
4001 Clouds 9 1036 81 10000 2.57 60 14:23 07.01.2021
4002 Clouds 8 1035 87 10000 1.01 314 13:41 07.01.2021
4003 Clouds 8 1035 87 10000 1.56 293 13:18 07.01.2021
4004 Clouds 6 1018 79 10000 1.31 327 12:33 07.01.2021
4005 Clouds 5 1017 83 10000 1.45 324 11:52 07.01.2021
4006 Clouds 5 1017 83 10000 1.45 324 11:34 07.01.2021
4007 Clouds 4 1015 83 10000 1.11 327 10:48 07.01.2021
4008 Clouds 4 1015 89 10000 1.7 20 10:20 07.01.2021
4009 Clouds 4 1015 89 10000 1.7 20 09:46 07.01.2021
4010 Clouds 3 1015 93 1934 2.4 29 09:18 07.01.2021
4011 Clouds 4 1015 93 1554 2.84 8 08:27 07.01.2021
4012 Clouds 4 1015 93 1554 2.84 8 07:46 07.01.2021
4013 Clouds 5 1015 85 10000 2.8 15 07:22 07.01.2021
4014 Clouds 4 1015 88 10000 1.23 89 04:30 07.01.2021
4015 Clouds 8 1010 78 7709 3.01 91 00:29 07.01.2021
4016 Clouds 8 1010 78 7709 3.01 91 23:45 06.01.2021
4017 Clouds 9 1008 74 5335 2.19 58 22:39 06.01.2021
4018 Clouds 10 1007 68 6657 3.05 48 21:44 06.01.2021
4019 Clouds 11 1008 61 6763 3.66 39 21:23 06.01.2021
4020 Rain 11 1008 61 6763 3.66 39 20:58 06.01.2021
4021 Clouds 12 1008 58 6829 3.57 28 20:25 06.01.2021
4022 Clouds 12 1008 58 6829 3.57 28 19:59 06.01.2021
4023 Clouds 12 1034 76 10000 4.1 60 19:36 06.01.2021
4024 Clouds 12 1034 76 10000 4.1 60 19:18 06.01.2021
4025 Clouds 12 1034 76 10000 4.1 60 18:41 06.01.2021
4026 Clouds 10 1034 81 10000 3.5 25 18:22 06.01.2021
4027 Clouds 10 1034 81 10000 3.5 25 17:42 06.01.2021
4028 Clouds 8 1035 87 10000 3.81 35 17:23 06.01.2021
4029 Clouds 8 1035 87 10000 3.81 35 16:41 06.01.2021
4030 Clouds 7 1036 93 10000 3.38 36 16:19 06.01.2021
4031 Clouds 7 1036 93 10000 3.38 36 15:52 06.01.2021
4032 Clouds 7 1036 93 10000 3.38 36 15:31 06.01.2021
4033 Clouds 6 1035 100 10000 2.87 27 14:48 06.01.2021
4034 Clouds 6 1035 93 8000 3.6 240 14:20 06.01.2021
4035 Clouds 6 1035 93 8000 3.6 240 13:45 06.01.2021
4036 Clouds 6 1035 93 10000 1.5 36 13:23 06.01.2021
4037 Clouds 6 1035 93 10000 1.5 36 12:48 06.01.2021
4038 Clouds 6 1016 86 10000 1.4 27 12:20 06.01.2021
4039 Clouds 6 1016 86 10000 1.4 27 11:36 06.01.2021
4040 Clouds 5 1015 89 10000 1.35 25 11:18 06.01.2021
4041 Clouds 5 1014 88 10000 1.61 39 10:22 06.01.2021
4042 Clouds 5 1014 88 10000 1.61 39 09:51 06.01.2021
4043 Clouds 6 1014 85 10000 1.82 38 08:59 06.01.2021
4044 Clouds 6 1014 85 10000 1.82 38 08:38 06.01.2021
4045 Clouds 6 1014 82 10000 1.99 42 07:58 06.01.2021
4046 Clouds 6 1014 81 10000 1.76 44 06:55 06.01.2021
4047 Clouds 6 1014 81 10000 1.96 38 05:51 06.01.2021
4048 Clouds 6 1015 81 10000 2.38 32 04:35 06.01.2021
4049 Clouds 7 1014 83 10000 2.93 26 02:47 06.01.2021
4050 Clouds 7 1013 81 10000 3.14 14 02:26 06.01.2021
4051 Clouds 8 1012 77 10000 3.24 17 01:23 06.01.2021
4052 Clouds 8 1010 77 10000 2.38 68 23:34 05.01.2021
4053 Clouds 8 1008 77 10000 1.64 93 22:45 05.01.2021
4054 Clouds 9 1007 69 10000 1.24 87 22:22 05.01.2021
4055 Clouds 9 1007 69 10000 1.24 87 21:57 05.01.2021
4056 Clouds 11 1007 61 6097 2.28 93 20:58 05.01.2021
4057 Clouds 11 1007 60 6688 3.76 87 20:28 05.01.2021
4058 Clouds 11 1007 60 6688 3.76 87 19:45 05.01.2021
4059 Clouds 14 1032 58 10000 7.7 70 19:23 05.01.2021
4060 Clouds 14 1032 58 10000 7.7 70 18:46 05.01.2021
4061 Clouds 14 1032 58 10000 7.7 70 18:28 05.01.2021
4062 Clouds 14 1032 58 10000 6.2 60 17:53 05.01.2021
4063 Clouds 13 1033 62 10000 5.1 70 17:31 05.01.2021
4064 Clouds 13 1033 62 10000 5.1 70 16:54 05.01.2021
4065 Clouds 13 1033 62 10000 5.1 70 16:54 05.01.2021
4066 Clouds 12 1033 66 10000 4.1 60 16:24 05.01.2021
4067 Clouds 12 1033 66 10000 4.1 60 15:59 05.01.2021
4068 Clouds 12 1033 66 10000 4.1 60 15:35 05.01.2021
4069 Clouds 12 1033 66 10000 4.1 60 15:35 05.01.2021
4070 Clouds 10 1034 76 10000 3.1 60 14:48 05.01.2021
4071 Clouds 9 1034 81 10000 0.85 356 13:57 05.01.2021
4072 Clouds 9 1034 81 10000 0.85 356 13:39 05.01.2021
4073 Clouds 7 1034 87 10000 0.48 335 13:20 05.01.2021
4074 Clouds 7 1034 87 10000 0.48 335 12:46 05.01.2021
4075 Clouds 7 1016 75 10000 1.65 358 12:20 05.01.2021
4076 Clouds 7 1016 75 10000 1.65 358 11:31 05.01.2021
4077 Clouds 7 1016 75 10000 1.65 358 11:31 05.01.2021
4078 Clouds 7 1015 77 10000 1.56 9 10:45 05.01.2021
4079 Clouds 7 1013 77 10000 1.39 16 10:19 05.01.2021
4080 Clouds 7 1013 77 10000 1.39 16 09:45 05.01.2021
4081 Clouds 7 1013 78 10000 1.12 2 09:25 05.01.2021
4082 Clouds 7 1013 79 10000 1.6 16 08:19 05.01.2021
4083 Clouds 8 1012 83 10000 1.93 29 05:38 05.01.2021
4084 Clouds 8 1013 83 10000 2.53 58 03:42 05.01.2021
4085 Clouds 12 1007 57 10000 3.45 73 00:28 05.01.2021
4086 Clouds 12 1007 57 10000 3.45 73 23:43 04.01.2021
4087 Clouds 13 1005 49 10000 2.53 49 23:24 04.01.2021
4088 Clouds 13 1005 49 10000 2.53 49 22:46 04.01.2021
4089 Clouds 13 1005 49 10000 2.53 49 22:46 04.01.2021
4090 Clouds 13 1004 48 10000 2.35 51 22:22 04.01.2021
4091 Clouds 13 1004 48 10000 2.35 51 21:44 04.01.2021
4092 Clouds 13 1004 47 10000 1.63 69 21:24 04.01.2021
4093 Clouds 13 1004 47 10000 1.63 69 20:43 04.01.2021
4094 Clouds 12 1005 57 6287 1.77 62 20:22 04.01.2021
4095 Clouds 12 1005 57 6287 1.77 62 19:48 04.01.2021
4096 Clouds 16 1036 55 10000 4.1 60 19:24 04.01.2021
4097 Clouds 16 1036 55 10000 4.1 60 18:48 04.01.2021
4098 Clouds 15 1037 58 10000 2.6 60 18:23 04.01.2021
4099 Clouds 15 1037 58 10000 2.6 60 17:41 04.01.2021
4100 Clouds 14 1037 58 10000 1.82 28 17:22 04.01.2021
4101 Clouds 14 1037 58 10000 1.82 28 16:46 04.01.2021
4102 Clouds 14 1037 58 10000 2.05 20 16:26 04.01.2021
4103 Clouds 12 1038 66 10000 3.1 240 15:49 04.01.2021
4104 Clouds 10 1038 81 10000 2.1 240 15:25 04.01.2021
4105 Clouds 10 1038 81 10000 2.1 240 14:34 04.01.2021
4106 Clear 8 1038 87 10000 2.6 240 13:44 04.01.2021
4107 Clouds 6 1038 93 10000 1.55 358 13:23 04.01.2021
4108 Clouds 6 1038 93 10000 1.52 17 12:36 04.01.2021
4109 Clouds 8 1012 69 10000 1.57 14 11:58 04.01.2021
4110 Clouds 8 1010 77 10000 1.39 14 11:21 04.01.2021
4111 Clouds 8 1010 77 10000 1.39 14 10:48 04.01.2021
4112 Clouds 8 1010 76 10000 0.84 33 10:27 04.01.2021
4113 Clouds 8 1010 76 10000 0.84 33 09:51 04.01.2021
4114 Clouds 8 1009 74 10000 1.01 340 09:19 04.01.2021
4115 Clouds 8 1009 74 10000 1.01 340 08:45 04.01.2021
4116 Clouds 8 1009 72 10000 1.73 345 07:55 04.01.2021
4117 Clouds 8 1009 72 10000 1.73 345 07:31 04.01.2021
4118 Clouds 9 1009 72 10000 2 335 05:32 04.01.2021
4119 Clouds 10 1011 68 10000 2.97 358 03:40 04.01.2021
4120 Clouds 9 1009 71 10000 1.67 7 00:47 04.01.2021
4121 Clouds 9 1007 76 10000 2.29 11 23:49 03.01.2021
4122 Clouds 12 1005 62 4758 2.19 320 23:24 03.01.2021
4123 Clouds 12 1005 62 4758 2.19 320 22:56 03.01.2021
4124 Clouds 12 1005 62 4758 2.19 320 22:32 03.01.2021
4125 Clouds 14 1004 49 10000 2.82 51 21:55 03.01.2021
4126 Clouds 14 1004 47 10000 2.65 76 21:29 03.01.2021
4127 Clouds 14 1004 47 10000 2.65 76 20:50 03.01.2021
4128 Clouds 14 1004 47 10000 2.65 76 20:32 03.01.2021
4129 Clouds 14 1005 49 10000 2.47 105 19:57 03.01.2021
4130 Clouds 14 1005 49 10000 2.47 105 19:35 03.01.2021
4131 Clouds 14 1006 48 10000 2.54 113 18:57 03.01.2021
4132 Clouds 14 1006 48 8243 2.57 127 18:38 03.01.2021
4133 Clouds 14 1008 46 10000 3.26 116 18:19 03.01.2021
4134 Clouds 14 1008 46 10000 3.26 116 18:19 03.01.2021
4135 Clouds 14 1008 46 10000 3.26 116 17:48 03.01.2021
4136 Clouds 14 1009 42 10000 2.49 115 17:23 03.01.2021
4137 Clouds 14 1009 42 10000 2.49 115 16:43 03.01.2021
4138 Clouds 14 1010 43 10000 1.45 132 16:20 03.01.2021
4139 Clouds 14 1010 43 10000 1.45 132 15:46 03.01.2021
4140 Clouds 13 1012 47 10000 0.4 141 15:28 03.01.2021
4141 Clouds 13 1012 47 10000 0.4 141 14:57 03.01.2021
4142 Clouds 11 1013 54 10000 0.6 359 14:29 03.01.2021
4143 Clouds 11 1013 54 10000 0.6 359 13:42 03.01.2021
4144 Clouds 10 1014 62 10000 0.97 357 13:23 03.01.2021
4145 Clouds 10 1014 60 10000 0.76 23 12:33 03.01.2021
4146 Clouds 9 1014 67 10000 0.98 31 11:42 03.01.2021
4147 Clouds 8 1013 73 10000 0.96 30 11:24 03.01.2021
4148 Clouds 8 1013 73 10000 0.96 30 10:36 03.01.2021
4149 Clouds 8 1013 73 10000 0.96 30 10:36 03.01.2021
4150 Clouds 8 1013 73 10000 0.96 30 10:36 03.01.2021
4151 Clouds 8 1013 74 10000 1.16 13 10:18 03.01.2021
4152 Clouds 8 1013 74 10000 1.16 13 09:40 03.01.2021
4153 Clouds 8 1013 75 10000 2.05 343 09:21 03.01.2021
4154 Clouds 8 1013 77 10000 2.09 4 07:42 03.01.2021
4155 Clouds 9 1015 71 10000 0.17 174 05:58 03.01.2021
4156 Clouds 10 1014 66 8069 3.53 43 02:27 03.01.2021
4157 Clouds 10 1014 66 8069 3.53 43 01:45 03.01.2021
4158 Clouds 12 1011 53 10000 3.81 47 00:18 03.01.2021
4159 Clouds 13 1008 45 10000 4.56 60 23:28 02.01.2021
4160 Clouds 13 1008 45 10000 4.56 60 22:52 02.01.2021
4161 Clouds 13 1008 45 10000 4.56 60 22:32 02.01.2021
4162 Clouds 15 1007 42 10000 5.78 65 21:51 02.01.2021
4163 Clouds 15 1007 42 10000 5.78 65 21:31 02.01.2021
4164 Clouds 15 1007 41 10000 4.49 64 20:50 02.01.2021
4165 Clouds 15 1008 39 10000 4.71 67 20:29 02.01.2021
4166 Clouds 15 1008 39 10000 4.71 67 19:59 02.01.2021
4167 Clear 16 1010 36 10000 4.4 60 19:20 02.01.2021
4168 Clouds 16 1010 35 10000 4.34 56 18:58 02.01.2021
4169 Clouds 16 1010 35 10000 4.34 56 18:39 02.01.2021
4170 Clouds 16 1011 33 10000 3.11 45 18:19 02.01.2021
4171 Clouds 16 1011 33 10000 3.11 45 17:43 02.01.2021
4172 Clouds 15 1013 36 10000 2.23 30 16:58 02.01.2021
4173 Clouds 13 1015 39 10000 1.86 15 16:23 02.01.2021
4174 Clouds 13 1015 39 10000 1.86 15 15:54 02.01.2021
4175 Clouds 13 1015 39 10000 1.86 15 15:54 02.01.2021
4176 Clouds 13 1015 39 10000 1.86 15 15:32 02.01.2021
4177 Clear 12 1016 48 10000 1.72 3 14:58 02.01.2021
4178 Clear 12 1016 48 10000 1.72 3 14:36 02.01.2021
4179 Clear 10 1018 59 10000 1.55 353 13:51 02.01.2021
4180 Clouds 9 1018 69 10000 1.4 351 13:26 02.01.2021
4181 Clouds 9 1018 69 10000 1.4 351 12:52 02.01.2021
4182 Clouds 9 1018 69 10000 1.4 351 12:31 02.01.2021
4183 Clouds 7 1018 81 10000 0.98 30 11:45 02.01.2021
4184 Clouds 7 1017 87 10000 0.89 50 11:22 02.01.2021
4185 Clouds 7 1017 87 10000 0.89 50 10:49 02.01.2021
4186 Clouds 7 1016 86 10000 1.11 44 10:28 02.01.2021
4187 Clouds 7 1016 86 10000 1.11 44 09:45 02.01.2021
4188 Clouds 8 1016 84 10000 1.17 33 09:23 02.01.2021
4189 Clouds 8 1016 84 10000 1.17 33 08:50 02.01.2021
4190 Clouds 8 1016 81 10000 0.95 8 08:25 02.01.2021
4191 Clouds 8 1016 81 10000 0.95 8 07:47 02.01.2021
4192 Clouds 8 1016 80 10000 1.35 356 07:22 02.01.2021
4193 Clouds 8 1016 80 10000 1.16 20 06:40 02.01.2021
4194 Clouds 9 1015 79 10000 1.61 21 05:45 02.01.2021
4195 Clouds 11 1013 65 10000 3.36 68 00:58 02.01.2021
4196 Clouds 12 1013 64 10000 3.22 65 00:37 02.01.2021
4197 Clouds 12 1011 56 10000 3.2 72 23:56 01.01.2021
4198 Clouds 14 1009 48 10000 3.75 89 23:21 01.01.2021
4199 Clouds 14 1009 48 10000 3.75 89 22:47 01.01.2021
4200 Clouds 15 1009 42 10000 4.85 85 22:25 01.01.2021
4201 Clouds 15 1009 42 10000 4.85 85 21:44 01.01.2021
4202 Clouds 16 1009 40 10000 4.64 86 21:22 01.01.2021
4203 Clouds 16 1009 40 10000 4.64 86 20:54 01.01.2021
4204 Clouds 16 1010 40 10000 4.18 86 20:22 01.01.2021
4205 Clouds 16 1010 40 10000 4.18 86 19:59 01.01.2021
4206 Clouds 16 1010 40 10000 4.18 86 19:41 01.01.2021
4207 Clouds 16 1012 40 10000 3.58 76 19:20 01.01.2021
4208 Clouds 15 1012 42 10000 3.5 81 18:42 01.01.2021
4209 Clouds 15 1013 40 10000 2.32 69 18:22 01.01.2021
4210 Clouds 15 1013 40 10000 2.32 69 17:43 01.01.2021
4211 Clouds 14 1014 39 10000 1.47 41 17:23 01.01.2021
4212 Clouds 14 1014 39 10000 1.47 41 16:45 01.01.2021
4213 Clouds 13 1016 42 10000 1.43 14 16:25 01.01.2021
4214 Clouds 13 1016 42 10000 1.43 14 15:39 01.01.2021
4215 Clouds 12 1017 49 10000 1.14 358 14:44 01.01.2021
4216 Clouds 10 1018 59 10000 0.94 340 14:25 01.01.2021
4217 Clouds 10 1018 59 10000 0.94 340 13:38 01.01.2021
4218 Clouds 8 1019 69 10000 1.09 325 12:51 01.01.2021
4219 Clouds 7 1019 79 10000 0.83 314 12:27 01.01.2021
4220 Clouds 7 1019 79 10000 0.83 314 11:42 01.01.2021
4221 Clouds 6 1018 87 10000 0.94 323 11:19 01.01.2021
4222 Clouds 6 1018 87 10000 0.94 323 10:56 01.01.2021
4223 Clouds 6 1018 84 10000 1.11 330 10:28 01.01.2021
4224 Clouds 6 1018 84 10000 1.11 330 09:39 01.01.2021
4225 Clouds 7 1017 81 10000 1.04 351 08:49 01.01.2021
4226 Clouds 7 1017 78 10000 0.75 13 08:25 01.01.2021
4227 Clouds 8 1018 71 10000 1.56 35 04:51 01.01.2021
4228 Clouds 10 1016 64 10000 3.07 33 01:58 01.01.2021
4229 Clouds 10 1014 62 10000 3.7 36 00:35 01.01.2021
4230 Clouds 11 1012 58 10000 3.62 47 23:56 31.12.2020
4231 Clouds 12 1011 56 10000 3.74 52 23:22 31.12.2020
4232 Clouds 12 1011 56 10000 3.74 52 22:55 31.12.2020
4233 Clouds 12 1010 55 10000 4.98 60 22:37 31.12.2020
4234 Clouds 12 1010 55 10000 4.98 60 22:19 31.12.2020
4235 Clouds 12 1010 55 10000 4.98 60 21:44 31.12.2020
4236 Clouds 14 1010 48 10000 5.93 61 21:21 31.12.2020
4237 Clouds 14 1010 48 10000 5.93 61 20:47 31.12.2020
4238 Clouds 14 1011 44 10000 6.38 59 19:59 31.12.2020
4239 Clouds 14 1011 44 10000 6.38 59 19:38 31.12.2020
4240 Clouds 15 1011 41 10000 7.13 65 19:20 31.12.2020
4241 Clouds 14 1012 41 10000 6.51 68 18:42 31.12.2020
4242 Clouds 12 1038 71 10000 5.1 60 18:23 31.12.2020
4243 Clouds 12 1038 71 10000 5.1 60 17:42 31.12.2020
4244 Clouds 10 1039 81 10000 4.1 60 17:21 31.12.2020
4245 Clouds 10 1039 81 10000 4.1 60 16:40 31.12.2020
4246 Clouds 9 1039 87 10000 3.1 60 16:21 31.12.2020
4247 Clouds 9 1039 87 10000 3.1 60 15:45 31.12.2020
4248 Clouds 8 1038 87 10000 2.1 60 15:21 31.12.2020
4249 Clouds 8 1038 87 10000 2.1 60 14:55 31.12.2020
4250 Clouds 8 1038 87 10000 2.1 60 14:37 31.12.2020
4251 Clouds 8 1038 87 10000 2.94 57 14:19 31.12.2020
4252 Clouds 8 1038 87 10000 2.94 57 13:38 31.12.2020
4253 Clouds 7 1038 93 10000 1.83 54 13:19 31.12.2020
4254 Clouds 7 1038 93 10000 1.83 54 12:53 31.12.2020
4255 Clouds 7 1038 93 10000 1.83 54 12:34 31.12.2020
4256 Clouds 8 1017 76 10000 2.04 93 11:51 31.12.2020
4257 Clouds 8 1017 76 10000 2.04 93 11:32 31.12.2020
4258 Clouds 7 1016 82 10000 1.95 98 10:49 31.12.2020
4259 Clouds 8 1015 80 10000 1.77 96 10:29 31.12.2020
4260 Clouds 8 1015 80 10000 1.77 96 09:56 31.12.2020
4261 Clouds 8 1015 80 10000 1.77 96 09:34 31.12.2020
4262 Clouds 8 1014 78 10000 1.72 87 08:50 31.12.2020
4263 Clouds 8 1014 78 10000 1.72 87 08:32 31.12.2020
4264 Clouds 8 1014 76 10000 1.78 75 07:57 31.12.2020
4265 Clouds 8 1014 74 10000 1.57 70 07:28 31.12.2020
4266 Rain 9 1014 69 10000 2.1 61 05:31 31.12.2020
4267 Rain 10 1014 66 10000 2.14 58 04:30 31.12.2020
4268 Clouds 11 1014 62 10000 2.64 61 02:45 31.12.2020
4269 Clouds 11 1013 59 10000 2.51 66 02:25 31.12.2020
4270 Clouds 11 1013 59 10000 2.51 66 01:44 31.12.2020
4271 Clouds 11 1011 57 10000 3.2 76 01:25 31.12.2020
4272 Clouds 11 1011 57 10000 3.2 76 00:46 31.12.2020
4273 Rain 11 1009 62 10000 3.35 87 23:48 30.12.2020
4274 Rain 12 1007 58 7936 3.44 83 23:19 30.12.2020
4275 Rain 12 1007 58 7936 3.44 83 22:49 30.12.2020
4276 Rain 12 1007 58 7936 3.44 83 22:30 30.12.2020
4277 Rain 14 1006 53 10000 4.97 92 21:46 30.12.2020
4278 Rain 15 1005 46 10000 4.52 70 21:24 30.12.2020
4279 Rain 15 1005 46 10000 4.52 70 20:51 30.12.2020
4280 Clouds 15 1006 46 10000 4.27 93 20:22 30.12.2020
4281 Clouds 15 1006 46 10000 4.27 93 19:41 30.12.2020
4282 Clouds 14 1007 47 6287 3.86 98 19:23 30.12.2020
4283 Clouds 14 1007 47 6287 3.86 98 18:47 30.12.2020
4284 Clouds 15 1034 62 10000 3.41 84 18:29 30.12.2020
4285 Clouds 15 1034 62 10000 3.41 84 17:52 30.12.2020
4286 Clouds 14 1034 62 10000 3.41 84 17:33 30.12.2020
4287 Clouds 14 1034 62 10000 2.34 67 16:58 30.12.2020
4288 Clouds 14 1034 62 10000 2.34 67 16:35 30.12.2020
4289 Clouds 13 1035 66 10000 1.76 44 15:48 30.12.2020
4290 Clouds 11 1035 71 10000 0.99 37 15:26 30.12.2020
4291 Clouds 11 1035 71 10000 0.99 37 14:44 30.12.2020
4292 Clouds 9 1035 81 10000 0.44 299 14:25 30.12.2020
4293 Clouds 9 1035 81 10000 0.44 299 13:48 30.12.2020
4294 Clouds 7 1034 87 10000 0.83 302 12:44 30.12.2020
4295 Clouds 8 1015 78 10000 1 309 12:22 30.12.2020
4296 Clouds 8 1015 78 10000 1 309 11:38 30.12.2020
4297 Clouds 7 1014 84 10000 0.91 304 11:19 30.12.2020
4298 Clouds 7 1014 84 10000 0.91 304 10:49 30.12.2020
4299 Clouds 7 1014 84 10000 0.91 304 10:49 30.12.2020
4300 Clouds 7 1013 83 10000 1.14 302 10:29 30.12.2020
4301 Clouds 7 1013 83 10000 1.14 302 09:50 30.12.2020
4302 Clouds 7 1013 83 10000 1.14 302 09:30 30.12.2020
4303 Rain 7 1013 83 10000 1.19 322 08:35 30.12.2020
4304 Clouds 7 1013 81 10000 1.34 328 07:31 30.12.2020
4305 Clouds 8 1013 78 10000 1.61 330 06:53 30.12.2020
4306 Clouds 8 1014 78 10000 1.78 339 06:53 30.12.2020
4307 Clouds 8 1014 78 10000 1.78 339 06:32 30.12.2020
4308 Clouds 8 1014 75 10000 1.81 24 05:44 30.12.2020
4309 Clouds 8 1014 74 10000 1.76 23 05:25 30.12.2020
4310 Clouds 9 1014 71 10000 2.67 21 03:28 30.12.2020
4311 Clouds 9 1014 71 10000 2.67 21 02:43 30.12.2020
4312 Clouds 9 1013 69 10000 3.29 31 02:25 30.12.2020
4313 Clouds 9 1013 69 10000 3.29 31 02:25 30.12.2020
4314 Clouds 9 1013 69 10000 3.29 31 01:33 30.12.2020
4315 Clouds 10 1012 66 10000 3.77 37 00:50 30.12.2020
4316 Clouds 10 1012 66 10000 3.62 37 00:31 30.12.2020
4317 Clouds 11 1010 62 10000 4.47 43 23:57 29.12.2020
4318 Clouds 11 1010 62 10000 4.47 43 23:57 29.12.2020
4319 Clouds 11 1010 62 10000 4.47 43 23:39 29.12.2020
4320 Clouds 12 1009 55 10000 5.87 49 23:18 29.12.2020
4321 Clouds 12 1009 55 10000 5.87 49 22:41 29.12.2020
4322 Clouds 13 1008 49 10000 5.18 47 22:23 29.12.2020
4323 Clouds 13 1008 49 10000 5.18 47 21:47 29.12.2020
4324 Clouds 14 1008 48 10000 4.6 50 21:29 29.12.2020
4325 Clouds 14 1008 48 10000 4.6 50 20:48 29.12.2020
4326 Rain 14 1009 48 7293 4.68 55 20:26 29.12.2020
4327 Clouds 14 1009 48 7293 4.68 55 19:56 29.12.2020
4328 Clouds 14 1009 48 7293 4.68 55 19:37 29.12.2020
4329 Clouds 14 1010 48 10000 4.7 54 19:18 29.12.2020
4330 Clouds 14 1010 47 10000 5.16 53 18:39 29.12.2020
4331 Clouds 14 1011 48 10000 4.97 52 18:19 29.12.2020
4332 Clouds 14 1011 48 10000 4.97 52 17:44 29.12.2020
4333 Clouds 13 1012 51 10000 4.84 55 17:19 29.12.2020
4334 Clouds 13 1012 51 10000 4.84 55 16:36 29.12.2020
4335 Clouds 13 1013 53 6432 3.91 60 15:59 29.12.2020
4336 Clouds 13 1013 53 6432 3.91 60 15:36 29.12.2020
4337 Clouds 11 1015 58 10000 3.13 68 14:59 29.12.2020
4338 Clouds 11 1015 58 10000 3.13 68 14:36 29.12.2020
4339 Clouds 10 1016 65 10000 2.43 75 14:18 29.12.2020
4340 Clouds 10 1016 65 10000 2.43 75 13:45 29.12.2020
4341 Clouds 9 1016 74 10000 1.82 73 13:21 29.12.2020
4342 Clouds 9 1017 74 10000 2.12 73 12:38 29.12.2020
4343 Clouds 8 1017 81 10000 2.11 79 12:19 29.12.2020
4344 Clouds 8 1017 81 10000 2.11 79 11:53 29.12.2020
4345 Clouds 8 1017 81 10000 2.11 79 11:31 29.12.2020
4346 Clouds 7 1015 85 10000 1.93 81 10:30 29.12.2020
4347 Clouds 7 1015 83 10000 1.82 75 09:49 29.12.2020
4348 Clouds 8 1015 80 10000 1.65 76 09:22 29.12.2020
4349 Clouds 8 1015 80 10000 1.65 76 08:53 29.12.2020
4350 Clouds 8 1015 78 10000 1.96 76 08:23 29.12.2020
4351 Clouds 8 1015 77 10000 1.69 80 07:26 29.12.2020
4352 Clouds 8 1016 78 10000 2.09 54 06:27 29.12.2020
4353 Clouds 9 1016 75 10000 1.86 59 05:25 29.12.2020
4354 Clouds 10 1014 65 10000 3.05 48 00:49 29.12.2020
4355 Clouds 11 1012 60 10000 3.68 49 00:21 29.12.2020
4356 Rain 11 1012 60 10000 3.68 49 23:36 28.12.2020
4357 Rain 13 1010 49 10000 4.24 50 22:28 28.12.2020
4358 Rain 13 1010 49 10000 4.24 50 22:28 28.12.2020
4359 Rain 13 1010 49 10000 4.24 50 21:46 28.12.2020
4360 Rain 14 1010 46 10000 4.66 52 21:27 28.12.2020
4361 Rain 14 1010 46 10000 4.66 52 20:43 28.12.2020
4362 Clouds 14 1011 43 10000 4.98 53 20:23 28.12.2020
4363 Clouds 14 1011 43 10000 4.98 53 19:50 28.12.2020
4364 Clouds 14 1037 58 10000 5.1 60 19:25 28.12.2020
4365 Clouds 14 1037 58 10000 5.1 60 18:59 28.12.2020
4366 Clouds 14 1037 58 10000 5.1 60 18:30 28.12.2020
4367 Clouds 12 1038 66 10000 6.2 60 17:49 28.12.2020
4368 Clouds 11 1039 71 10000 5.1 60 17:31 28.12.2020
4369 Clouds 11 1039 71 10000 5.1 60 16:59 28.12.2020
4370 Rain 11 1039 71 10000 5.1 60 16:29 28.12.2020
4371 Clouds 10 1039 71 10000 3.6 60 15:54 28.12.2020
4372 Clouds 10 1039 71 10000 3.6 60 15:33 28.12.2020
4373 Clouds 9 1039 76 10000 3.1 60 14:31 28.12.2020
4374 Clouds 7 1039 87 10000 1.5 60 13:47 28.12.2020
4375 Rain 7 1018 72 10000 1 27 13:20 28.12.2020
4376 Rain 6 1018 80 10000 1.05 10 12:27 28.12.2020
4377 Rain 6 1018 80 10000 1.05 10 11:55 28.12.2020
4378 Rain 6 1018 80 10000 1.05 10 11:36 28.12.2020
4379 Rain 6 1017 83 10000 1.53 24 11:18 28.12.2020
4380 Clouds 6 1016 82 10000 1.53 35 10:29 28.12.2020
4381 Clouds 6 1016 82 10000 1.53 35 10:29 28.12.2020
4382 Clouds 6 1016 82 10000 1.53 35 09:58 28.12.2020
4383 Clouds 6 1016 82 10000 1.53 35 09:37 28.12.2020
4384 Clouds 6 1016 82 10000 1.79 37 09:18 28.12.2020
4385 Clouds 7 1016 76 10000 1.66 43 06:53 28.12.2020
4386 Clouds 7 1017 73 10000 2.74 61 05:23 28.12.2020
4387 Clouds 8 1017 72 10000 2.82 62 03:34 28.12.2020
4388 Clouds 9 1015 72 10000 3.29 45 01:55 28.12.2020
4389 Clouds 10 1011 66 10000 4.18 49 23:55 27.12.2020
4390 Clouds 10 1011 66 10000 4.18 49 23:35 27.12.2020
4391 Clouds 12 1010 59 10000 4.79 57 22:40 27.12.2020
4392 Clouds 13 1009 52 10000 4.54 68 21:55 27.12.2020
4393 Clouds 14 1009 47 10000 4.92 78 21:22 27.12.2020
4394 Clouds 14 1009 47 10000 4.92 78 20:37 27.12.2020
4395 Clouds 14 1011 43 10000 4.61 79 19:24 27.12.2020
4396 Clouds 14 1011 45 10000 4.5 76 18:51 27.12.2020
4397 Clouds 13 1012 47 10000 4.25 73 18:22 27.12.2020
4398 Clouds 13 1012 47 10000 4.25 73 17:59 27.12.2020
4399 Clouds 13 1012 47 10000 4.25 73 17:39 27.12.2020
4400 Clouds 12 1013 52 10000 3.44 68 17:18 27.12.2020
4401 Clouds 11 1015 58 10000 2.67 67 16:26 27.12.2020
4402 Clouds 11 1015 58 10000 2.67 67 15:37 27.12.2020
4403 Clouds 10 1016 63 10000 1.68 64 14:57 27.12.2020
4404 Clouds 10 1016 63 10000 1.68 64 14:38 27.12.2020
4405 Clouds 8 1017 72 10000 1.31 64 13:41 27.12.2020
4406 Clouds 7 1017 76 10000 1.12 46 12:59 27.12.2020
4407 Clouds 7 1017 76 10000 1.12 46 12:38 27.12.2020
4408 Clouds 6 1017 80 10000 1.27 51 11:43 27.12.2020
4409 Clouds 6 1015 83 10000 1.39 70 11:23 27.12.2020
4410 Clouds 6 1015 83 10000 1.39 70 10:49 27.12.2020
4411 Clouds 6 1015 83 10000 1.64 85 10:23 27.12.2020
4412 Clouds 6 1015 83 10000 1.64 85 09:41 27.12.2020
4413 Clouds 7 1015 81 10000 2.04 81 08:29 27.12.2020
4414 Clouds 7 1015 81 10000 2.04 81 07:58 27.12.2020
4415 Clouds 7 1015 82 10000 2.15 77 07:25 27.12.2020
4416 Clouds 7 1015 81 10000 2.2 81 05:39 27.12.2020
4417 Rain 7 1015 82 10000 2.05 67 03:26 27.12.2020
4418 Clouds 7 1015 82 10000 2.05 67 02:40 27.12.2020
4419 Clouds 8 1013 78 10000 3.19 71 01:21 27.12.2020
4420 Clouds 9 1010 71 10000 3.78 84 23:45 26.12.2020
4421 Clouds 10 1009 67 10000 3 90 23:26 26.12.2020
4422 Clouds 10 1009 67 10000 3 90 22:47 26.12.2020
4423 Clouds 10 1009 67 10000 2.01 90 22:20 26.12.2020
4424 Clouds 10 1009 67 10000 2.01 90 21:55 26.12.2020
4425 Clouds 10 1009 68 10000 1.59 100 21:31 26.12.2020
4426 Clouds 10 1009 68 10000 1.59 100 21:31 26.12.2020
4427 Clouds 10 1009 68 10000 1.59 100 20:48 26.12.2020
4428 Clouds 8 1010 76 10000 2.11 96 20:27 26.12.2020
4429 Clouds 8 1010 76 10000 2.11 96 19:57 26.12.2020
4430 Clouds 7 1011 81 10000 3.19 97 19:24 26.12.2020
4431 Clouds 6 1012 83 10000 2.93 117 18:38 26.12.2020
4432 Clouds 6 1013 84 4822 3.39 113 18:18 26.12.2020
4433 Clouds 6 1013 84 4822 3.39 113 17:40 26.12.2020
4434 Clouds 7 1014 84 3223 3.65 108 17:19 26.12.2020
4435 Clouds 7 1014 84 3223 3.65 108 16:32 26.12.2020
4436 Clouds 7 1016 82 5777 1.31 83 15:26 26.12.2020
4437 Clouds 7 1016 82 5777 1.31 83 14:46 26.12.2020
4438 Clouds 8 1016 81 9044 1.32 54 14:28 26.12.2020
4439 Clouds 8 1016 81 9044 1.32 54 13:43 26.12.2020
4440 Clouds 8 1016 80 10000 1.53 28 13:25 26.12.2020
4441 Clouds 8 1016 81 8443 1.53 45 12:44 26.12.2020
4442 Clouds 8 1016 81 10000 1.51 37 12:22 26.12.2020
4443 Clouds 8 1016 81 10000 1.51 37 11:51 26.12.2020
4444 Rain 8 1015 80 10000 1.39 30 11:22 26.12.2020
4445 Rain 8 1015 80 10000 1.39 30 10:54 26.12.2020
4446 Rain 8 1014 80 10000 1.49 30 10:27 26.12.2020
4447 Clouds 8 1014 80 10000 1.49 30 09:51 26.12.2020
4448 Clouds 8 1013 78 10000 1.5 11 09:28 26.12.2020
4449 Clouds 8 1013 78 10000 1.5 11 08:35 26.12.2020
4450 Clouds 8 1013 78 10000 1.15 14 07:53 26.12.2020
4451 Clouds 8 1014 78 10000 0.92 9 06:31 26.12.2020
4452 Clouds 9 1013 75 10000 2.52 351 03:19 26.12.2020
4453 Clouds 9 1012 74 10000 2.37 4 01:44 26.12.2020
4454 Clouds 10 1009 68 10000 4.04 358 00:27 26.12.2020
4455 Clouds 10 1009 68 10000 4.04 358 23:41 25.12.2020
4456 Clouds 11 1007 63 10000 3.41 5 23:23 25.12.2020
4457 Rain 11 1007 63 10000 3.41 5 22:45 25.12.2020
4458 Rain 11 1007 62 10000 2.89 358 22:23 25.12.2020
4459 Rain 11 1007 62 10000 2.89 358 21:35 25.12.2020
4460 Rain 11 1007 60 10000 1.45 310 20:57 25.12.2020
4461 Rain 11 1007 60 10000 1.45 310 20:37 25.12.2020
4462 Rain 12 1008 57 10000 1.75 300 19:49 25.12.2020
4463 Rain 12 1009 54 10000 1 55 19:26 25.12.2020
4464 Rain 12 1009 54 10000 1 55 18:39 25.12.2020
4465 Clouds 11 1011 56 10000 0.98 334 17:54 25.12.2020
4466 Clouds 11 1011 56 10000 0.98 334 17:34 25.12.2020
4467 Clouds 11 1012 57 10000 1.53 278 16:38 25.12.2020
4468 Clouds 11 1014 59 10000 0.84 337 16:19 25.12.2020
4469 Clouds 11 1014 59 10000 0.84 337 15:36 25.12.2020
4470 Clouds 10 1015 64 10000 0.85 50 14:58 25.12.2020
4471 Clouds 10 1015 64 10000 0.85 50 14:30 25.12.2020
4472 Clouds 9 1016 69 10000 1.17 79 13:46 25.12.2020
4473 Clouds 9 1016 73 10000 1.48 97 13:26 25.12.2020
4474 Clouds 8 1016 76 10000 0.94 101 12:47 25.12.2020
4475 Clouds 8 1016 79 10000 1.54 108 12:25 25.12.2020
4476 Clouds 8 1016 79 10000 1.54 108 11:46 25.12.2020
4477 Clouds 8 1015 79 10000 1.72 98 11:21 25.12.2020
4478 Clouds 8 1015 79 10000 1.72 98 10:32 25.12.2020
4479 Clouds 8 1014 78 10000 1.81 94 09:49 25.12.2020
4480 Clouds 8 1014 75 10000 1.65 101 08:51 25.12.2020
4481 Clouds 9 1014 73 10000 1.49 109 08:29 25.12.2020
4482 Clouds 9 1015 74 10000 1.56 81 06:49 25.12.2020
4483 Clouds 9 1015 71 10000 1.64 15 05:31 25.12.2020
4484 Clouds 10 1013 67 10000 2.25 6 02:21 25.12.2020
4485 Clouds 11 1010 66 9929 2.14 61 00:20 25.12.2020
4486 Clouds 11 1010 66 9929 2.14 61 23:30 24.12.2020
4487 Clouds 12 1009 60 10000 4.24 57 22:54 24.12.2020
4488 Clouds 14 1008 54 10000 5.6 51 22:24 24.12.2020
4489 Clouds 14 1008 54 10000 5.6 51 21:45 24.12.2020
4490 Clouds 14 1008 51 10000 5.6 44 20:58 24.12.2020
4491 Clouds 15 1008 48 10000 5.84 35 19:41 24.12.2020
4492 Clouds 15 1037 54 10000 6.2 60 18:21 24.12.2020
4493 Clouds 15 1037 54 10000 6.2 60 17:38 24.12.2020
4494 Clouds 14 1038 54 10000 5.1 60 17:20 24.12.2020
4495 Clouds 14 1038 54 10000 5.1 60 17:20 24.12.2020
4496 Clouds 13 1039 58 10000 4.1 60 16:25 24.12.2020
4497 Clouds 13 1039 58 10000 4.1 60 15:45 24.12.2020
4498 Clouds 11 1038 66 10000 3.1 60 15:23 24.12.2020
4499 Clouds 11 1038 66 10000 3.1 60 14:56 24.12.2020
4500 Clouds 11 1038 66 10000 3.1 60 14:37 24.12.2020
4501 Clouds 10 1038 71 10000 2.03 17 14:18 24.12.2020
4502 Clouds 10 1038 71 10000 2.03 17 13:38 24.12.2020
4503 Clouds 8 1037 75 10000 1.81 18 13:18 24.12.2020
4504 Clouds 8 1037 75 10000 1.86 27 12:39 24.12.2020
4505 Clouds 7 1016 80 10000 1.75 32 12:18 24.12.2020
4506 Clouds 7 1016 80 10000 1.75 32 11:38 24.12.2020
4507 Clouds 7 1015 85 10000 1.62 32 11:19 24.12.2020
4508 Clouds 7 1015 85 10000 1.62 32 10:43 24.12.2020
4509 Clear 7 1015 84 10000 1.84 27 10:18 24.12.2020
4510 Clear 7 1015 84 10000 1.84 27 09:49 24.12.2020
4511 Clear 7 1014 82 10000 2.02 24 08:50 24.12.2020
4512 Clear 8 1014 80 10000 2.04 25 07:55 24.12.2020
4513 Clear 8 1014 80 10000 2.04 25 07:37 24.12.2020
4514 Clouds 9 1014 73 10000 2.52 38 06:27 24.12.2020
4515 Clouds 9 1015 71 10000 2.1 36 03:51 24.12.2020
4516 Clear 10 1013 71 10000 2.72 33 01:52 24.12.2020
4517 Clouds 10 1012 69 10000 3.49 42 01:23 24.12.2020
4518 Clouds 10 1012 69 10000 2.9 38 00:43 24.12.2020
4519 Clouds 11 1011 66 10000 3.53 41 00:19 24.12.2020
4520 Clouds 11 1011 66 10000 3.53 41 23:40 23.12.2020
4521 Clouds 12 1009 61 10000 4.69 54 23:21 23.12.2020
4522 Clouds 12 1009 61 10000 4.69 54 22:48 23.12.2020
4523 Clouds 13 1009 56 10000 5.07 57 22:26 23.12.2020
4524 Clouds 13 1009 56 10000 5.07 57 21:48 23.12.2020
4525 Clouds 14 1009 53 10000 5.09 63 21:23 23.12.2020
4526 Clouds 14 1009 53 10000 5.09 63 20:46 23.12.2020
4527 Clouds 14 1009 50 10000 4.49 71 20:28 23.12.2020
4528 Clouds 14 1009 50 10000 4.49 71 19:58 23.12.2020
4529 Clouds 17 1036 45 10000 5.1 60 19:37 23.12.2020
4530 Clouds 17 1036 45 10000 5.1 60 19:19 23.12.2020
4531 Clouds 17 1036 45 10000 5.1 60 18:40 23.12.2020
4532 Clouds 17 1036 45 10000 6.2 60 17:58 23.12.2020
4533 Clouds 16 1037 48 10000 3.6 60 17:36 23.12.2020
4534 Clouds 16 1037 48 10000 3.6 60 17:18 23.12.2020
4535 Clouds 16 1037 48 10000 3.6 60 16:40 23.12.2020
4536 Clouds 14 1038 54 10000 3.22 28 16:22 23.12.2020
4537 Clouds 14 1038 54 10000 3.22 28 15:50 23.12.2020
4538 Clouds 12 1038 62 10000 2.36 23 15:27 23.12.2020
4539 Clouds 12 1038 62 10000 2.36 23 14:58 23.12.2020
4540 Clouds 12 1038 62 10000 2.36 23 14:37 23.12.2020
4541 Clear 10 1038 71 10000 1.54 20 14:19 23.12.2020
4542 Clear 10 1038 71 10000 1.54 20 13:43 23.12.2020
4543 Clouds 8 1037 81 10000 0.8 329 13:19 23.12.2020
4544 Clouds 8 1037 81 10000 0.88 333 12:47 23.12.2020
4545 Clouds 7 1017 80 10000 1.04 314 12:24 23.12.2020
4546 Clouds 7 1017 80 10000 1.04 314 11:46 23.12.2020
4547 Clouds 7 1016 82 10000 1 326 11:19 23.12.2020
4548 Clouds 7 1016 82 10000 1 326 10:42 23.12.2020
4549 Clouds 7 1016 81 10000 0.93 341 10:24 23.12.2020
4550 Clouds 7 1016 81 10000 0.93 341 09:33 23.12.2020
4551 Clouds 7 1016 80 10000 1.22 10 08:45 23.12.2020
4552 Clouds 8 1015 79 10000 1.68 28 08:20 23.12.2020
4553 Clouds 8 1016 78 10000 2.26 41 07:27 23.12.2020
4554 Clouds 8 1016 76 10000 1.83 66 06:39 23.12.2020
4555 Clouds 8 1016 76 10000 2.37 56 05:39 23.12.2020
4556 Clouds 9 1016 77 10000 2.94 55 04:57 23.12.2020
4557 Clouds 10 1013 66 10000 4.26 34 00:34 23.12.2020
4558 Clouds 10 1011 67 10000 5.26 38 23:58 22.12.2020
4559 Clouds 10 1011 67 10000 5.26 38 23:33 22.12.2020
4560 Clouds 12 1010 61 10000 5.43 49 22:58 22.12.2020
4561 Clouds 12 1010 61 10000 5.43 49 22:40 22.12.2020
4562 Clouds 13 1009 53 10000 5.09 59 22:20 22.12.2020
4563 Clouds 13 1009 53 10000 5.09 59 21:41 22.12.2020
4564 Clear 14 1009 49 10000 4.8 62 21:20 22.12.2020
4565 Clear 14 1009 49 10000 4.8 62 20:49 22.12.2020
4566 Clear 14 1010 50 10000 3.95 69 20:22 22.12.2020
4567 Clear 14 1010 50 10000 3.95 69 19:46 22.12.2020
4568 Clouds 19 1037 39 10000 5.1 60 19:25 22.12.2020
4569 Clouds 19 1037 39 10000 5.1 60 18:55 22.12.2020
4570 Clouds 19 1037 39 10000 5.1 60 18:36 22.12.2020
4571 Clouds 17 1038 45 10000 3.1 60 18:18 22.12.2020
4572 Clouds 17 1038 45 10000 3.1 60 18:18 22.12.2020
4573 Clouds 17 1038 45 10000 3.1 60 17:36 22.12.2020
4574 Clouds 16 1039 48 10000 3.4 64 17:18 22.12.2020
4575 Clouds 16 1039 48 10000 3.4 64 16:44 22.12.2020
4576 Clouds 15 1040 51 10000 2.6 60 16:19 22.12.2020
4577 Clouds 15 1040 51 10000 2.6 60 15:45 22.12.2020
4578 Clouds 15 1040 51 10000 2.6 60 15:27 22.12.2020
4579 Clouds 12 1040 66 10000 1.94 29 14:46 22.12.2020
4580 Clouds 10 1040 76 10000 1.43 357 14:28 22.12.2020
4581 Clouds 10 1040 76 10000 1.43 357 13:55 22.12.2020
4582 Clouds 8 1039 87 10000 1.43 357 13:36 22.12.2020
4583 Clouds 8 1039 87 10000 1.82 4 13:18 22.12.2020
4584 Clouds 8 1039 87 10000 1.66 37 12:43 22.12.2020
4585 Clouds 8 1039 87 10000 1.45 31 12:25 22.12.2020
4586 Clouds 8 1018 73 10000 1.45 31 11:56 22.12.2020
4587 Clouds 8 1018 73 10000 1.45 31 11:38 22.12.2020
4588 Clouds 8 1017 73 10000 1.45 35 11:19 22.12.2020
4589 Clouds 8 1017 73 10000 1.45 35 10:46 22.12.2020
4590 Clouds 9 1017 72 10000 1.32 31 10:23 22.12.2020
4591 Clouds 9 1017 72 10000 1.32 31 09:55 22.12.2020
4592 Clouds 9 1017 75 10000 1.64 28 09:21 22.12.2020
4593 Clouds 9 1017 75 10000 1.64 28 08:48 22.12.2020
4594 Clouds 8 1017 79 10000 1.75 24 08:27 22.12.2020
4595 Clouds 8 1017 79 10000 1.75 24 07:47 22.12.2020
4596 Clouds 8 1017 82 10000 1.59 353 06:38 22.12.2020
4597 Clouds 9 1018 82 10000 1.9 341 05:41 22.12.2020
4598 Clouds 10 1017 73 10000 2.23 30 02:51 22.12.2020
4599 Clouds 10 1015 72 10000 2.28 29 00:44 22.12.2020
4600 Clouds 11 1013 67 10000 3.11 58 23:52 21.12.2020
4601 Clouds 11 1013 67 10000 3.11 58 23:31 21.12.2020
4602 Clouds 12 1012 64 10000 3.44 58 22:38 21.12.2020
4603 Clouds 12 1012 63 7783 3.43 64 22:19 21.12.2020
4604 Clouds 12 1012 63 7783 3.43 64 21:57 21.12.2020
4605 Clouds 12 1012 63 7783 3.43 64 21:39 21.12.2020
4606 Clouds 13 1012 61 7391 3.75 68 21:18 21.12.2020
4607 Clouds 13 1012 59 7160 3.56 71 20:27 21.12.2020
4608 Clouds 13 1012 59 7160 3.56 71 19:58 21.12.2020
4609 Clouds 18 1036 45 10000 5.1 70 19:39 21.12.2020
4610 Clouds 18 1036 45 10000 5.1 70 19:18 21.12.2020
4611 Clouds 18 1036 45 10000 5.1 70 18:51 21.12.2020
4612 Clouds 18 1036 45 10000 5.1 70 18:32 21.12.2020
4613 Clouds 17 1037 48 10000 3.6 60 17:43 21.12.2020
4614 Clouds 15 1037 54 10000 2.6 60 17:24 21.12.2020
4615 Clouds 15 1037 54 10000 2.6 60 16:47 21.12.2020
4616 Clouds 14 1038 58 10000 1.5 60 16:26 21.12.2020
4617 Clouds 14 1038 58 10000 1.5 60 15:54 21.12.2020
4618 Clouds 14 1038 58 10000 1.5 60 15:35 21.12.2020
4619 Clouds 13 1038 62 10000 2.1 60 14:57 21.12.2020
4620 Clouds 11 1038 71 10000 1.72 11 14:21 21.12.2020
4621 Clouds 11 1038 71 10000 1.72 11 13:44 21.12.2020
4622 Clouds 11 1038 71 10000 1.22 24 13:26 21.12.2020
4623 Clouds 8 1037 87 10000 1.56 41 12:45 21.12.2020
4624 Clouds 8 1017 70 10000 0.97 38 12:25 21.12.2020
4625 Clouds 8 1017 70 10000 0.97 38 11:58 21.12.2020
4626 Clouds 8 1017 70 10000 0.97 38 11:39 21.12.2020
4627 Clouds 7 1016 77 10000 0.74 356 11:20 21.12.2020
4628 Clouds 7 1016 77 10000 0.74 356 10:42 21.12.2020
4629 Clouds 7 1015 76 10000 0.95 4 10:24 21.12.2020
4630 Clouds 7 1015 76 10000 0.95 4 09:46 21.12.2020
4631 Clouds 7 1015 75 10000 1.29 351 09:25 21.12.2020
4632 Clouds 7 1015 75 10000 1.29 351 08:52 21.12.2020
4633 Clouds 7 1015 74 10000 1.5 336 07:52 21.12.2020
4634 Clouds 8 1016 73 10000 1.55 338 06:47 21.12.2020
4635 Clouds 7 1016 73 10000 0.4 316 04:58 21.12.2020
4636 Clouds 7 1012 78 10000 3.39 19 01:28 21.12.2020
4637 Clouds 8 1012 76 10000 4.09 24 00:33 21.12.2020
4638 Clouds 7 1010 84 7700 1.84 192 23:36 20.12.2020
4639 Clouds 7 1008 83 4135 3 221 22:59 20.12.2020
4640 Clouds 7 1008 83 4135 3 221 22:41 20.12.2020
4641 Clouds 9 1007 74 9918 3.96 173 22:22 20.12.2020
4642 Clouds 9 1007 74 9918 3.96 173 21:40 20.12.2020
4643 Clouds 12 1006 62 5680 4.09 132 21:21 20.12.2020
4644 Clouds 12 1006 62 5680 4.09 132 20:52 20.12.2020
4645 Clouds 14 1006 49 10000 4.42 71 20:26 20.12.2020
4646 Clouds 14 1006 49 10000 4.42 71 19:51 20.12.2020
4647 Clouds 14 1006 49 10000 4.42 71 19:33 20.12.2020
4648 Clouds 16 1007 41 10000 5.32 48 18:59 20.12.2020
4649 Clouds 15 1008 46 10000 4.66 47 18:40 20.12.2020
4650 Clouds 15 1009 44 10000 4 28 18:22 20.12.2020
4651 Clouds 15 1009 44 10000 4 28 17:44 20.12.2020
4652 Clouds 14 1010 47 10000 3.18 22 17:23 20.12.2020
4653 Clouds 14 1010 47 10000 3.18 22 16:45 20.12.2020
4654 Clouds 13 1011 52 6951 3.03 33 16:27 20.12.2020
4655 Clouds 13 1011 52 6951 3.03 33 15:49 20.12.2020
4656 Clouds 12 1013 56 7124 2.86 38 15:25 20.12.2020
4657 Rain 12 1013 56 7124 2.86 38 14:55 20.12.2020
4658 Clouds 12 1013 56 7124 2.86 38 14:33 20.12.2020
4659 Clouds 11 1014 59 10000 2.53 34 13:47 20.12.2020
4660 Clouds 10 1014 61 10000 2.12 43 13:28 20.12.2020
4661 Clouds 10 1014 63 10000 2.27 28 12:58 20.12.2020
4662 Clouds 10 1014 63 10000 2.27 28 12:39 20.12.2020
4663 Clouds 9 1014 67 10000 2.37 47 12:21 20.12.2020
4664 Clouds 9 1014 67 10000 2.37 47 11:44 20.12.2020
4665 Clouds 9 1013 72 10000 2.19 50 11:19 20.12.2020
4666 Clouds 9 1013 72 10000 2.19 50 10:45 20.12.2020
4667 Clouds 9 1012 71 10000 1.61 49 10:20 20.12.2020
4668 Clouds 9 1012 71 10000 1.61 49 09:46 20.12.2020
4669 Clouds 10 1011 72 10000 1.05 13 09:27 20.12.2020
4670 Clouds 10 1011 72 10000 1.05 13 08:59 20.12.2020
4671 Clouds 10 1011 72 10000 1.05 13 08:39 20.12.2020
4672 Clouds 10 1010 65 10000 1.85 1 07:28 20.12.2020
4673 Clouds 10 1011 69 10000 2.41 326 05:52 20.12.2020
4674 Clouds 10 1010 62 10000 2.36 42 02:23 20.12.2020
4675 Clouds 9 1009 67 10000 3.38 60 00:39 20.12.2020
4676 Clouds 9 1005 67 8171 4.18 317 23:22 19.12.2020
4677 Clouds 9 1005 67 8171 4.18 317 22:59 19.12.2020
4678 Clouds 9 1005 67 8171 4.18 317 22:40 19.12.2020
4679 Clouds 16 1003 37 10000 5.52 2 22:20 19.12.2020
4680 Clouds 16 1003 37 10000 5.52 2 21:43 19.12.2020
4681 Clouds 16 1002 36 10000 3.51 97 21:25 19.12.2020
4682 Clouds 16 1002 36 10000 3.51 97 20:48 19.12.2020
4683 Clouds 15 1002 42 10000 4.46 144 20:24 19.12.2020
4684 Clouds 15 1002 42 10000 4.46 144 19:58 19.12.2020
4685 Clouds 15 1002 42 10000 4.46 144 19:38 19.12.2020
4686 Clouds 16 1003 36 10000 4.58 89 19:19 19.12.2020
4687 Clouds 16 1004 37 10000 3.77 81 18:33 19.12.2020
4688 Clouds 17 1005 31 10000 4.07 74 17:55 19.12.2020
4689 Clouds 17 1005 31 10000 4.07 74 17:30 19.12.2020
4690 Clouds 17 1007 29 10000 1.77 56 16:58 19.12.2020
4691 Clouds 17 1007 29 10000 1.77 56 16:38 19.12.2020
4692 Clouds 16 1009 32 10000 0.62 19 16:20 19.12.2020
4693 Clouds 16 1009 32 10000 0.62 19 15:49 19.12.2020
4694 Clouds 15 1010 35 10000 0.66 288 15:20 19.12.2020
4695 Clouds 15 1010 35 10000 0.66 288 14:37 19.12.2020
4696 Clouds 14 1011 40 10000 1.15 264 13:42 19.12.2020
4697 Clouds 12 1011 46 10000 1.46 259 13:23 19.12.2020
4698 Clouds 12 1011 46 10000 1.46 259 12:57 19.12.2020
4699 Clouds 13 1011 44 10000 1.41 257 12:39 19.12.2020
4700 Clouds 11 1011 51 10000 1.5 252 12:21 19.12.2020
4701 Clouds 11 1011 51 10000 1.5 252 11:48 19.12.2020
4702 Clouds 10 1010 64 10000 1.19 262 11:19 19.12.2020
4703 Clouds 10 1010 64 10000 1.19 262 10:42 19.12.2020
4704 Clouds 10 1010 61 10000 0.99 281 10:18 19.12.2020
4705 Clouds 10 1010 61 10000 0.99 281 09:41 19.12.2020
4706 Clouds 10 1009 59 10000 0.8 291 08:59 19.12.2020
4707 Clouds 10 1009 57 10000 0.83 296 08:20 19.12.2020
4708 Clouds 11 1009 59 10000 0.95 285 07:20 19.12.2020
4709 Clouds 11 1010 60 10000 1.89 292 06:50 19.12.2020
4710 Clouds 11 1011 61 10000 2.42 289 05:24 19.12.2020
4711 Clouds 12 1011 58 10000 2.32 359 03:50 19.12.2020
4712 Clouds 9 1009 68 10000 2.24 160 00:42 19.12.2020
4713 Clouds 6 1007 79 10000 2.38 119 00:22 19.12.2020
4714 Clouds 6 1007 79 10000 2.38 119 23:57 18.12.2020
4715 Clouds 6 1007 79 10000 2.38 119 23:39 18.12.2020
4716 Clouds 6 1005 81 5386 1.08 68 23:18 18.12.2020
4717 Rain 6 1005 81 5386 1.08 68 22:42 18.12.2020
4718 Rain 12 1003 50 10000 1.96 305 22:20 18.12.2020
4719 Rain 12 1003 50 10000 1.96 305 21:46 18.12.2020
4720 Rain 16 1003 37 9787 1.55 296 21:28 18.12.2020
4721 Rain 18 1004 27 10000 3.45 358 20:27 18.12.2020
4722 Clouds 18 1004 27 10000 3.45 358 19:52 18.12.2020
4723 Clouds 20 1033 32 10000 3.1 360 19:27 18.12.2020
4724 Clouds 20 1033 32 10000 3.1 360 18:54 18.12.2020
4725 Clouds 20 1033 32 10000 3.1 360 18:36 18.12.2020
4726 Clouds 19 1034 37 10000 2.6 360 18:18 18.12.2020
4727 Clouds 17 1034 42 10000 3.6 360 17:22 18.12.2020
4728 Clouds 17 1034 42 10000 3.6 360 16:49 18.12.2020
4729 Clouds 15 1035 51 10000 2.29 335 16:27 18.12.2020
4730 Clouds 15 1035 51 10000 2.29 335 15:56 18.12.2020
4731 Clouds 15 1035 51 10000 2.29 335 15:38 18.12.2020
4732 Clouds 13 1035 58 10000 2.08 324 15:20 18.12.2020
4733 Clouds 13 1035 58 10000 2.08 324 14:54 18.12.2020
4734 Clouds 11 1035 66 10000 2 318 14:21 18.12.2020
4735 Clouds 11 1035 66 10000 2 318 13:46 18.12.2020
4736 Clear 8 1035 81 10000 1.82 317 13:24 18.12.2020
4737 Clear 8 1035 81 10000 1.64 313 12:46 18.12.2020
4738 Clear 8 1035 81 10000 1.64 313 12:46 18.12.2020
4739 Clear 9 1013 62 10000 1.37 307 11:51 18.12.2020
4740 Clear 8 1013 76 10000 1.24 324 11:22 18.12.2020
4741 Clear 8 1013 76 10000 1.24 324 10:39 18.12.2020
4742 Clear 8 1012 75 10000 1.45 339 10:20 18.12.2020
4743 Clear 8 1012 75 10000 1.45 339 09:39 18.12.2020
4744 Clear 9 1012 75 10000 1.18 5 09:21 18.12.2020
4745 Clear 9 1012 75 10000 1.18 5 08:53 18.12.2020
4746 Clear 9 1012 73 10000 1.06 10 08:29 18.12.2020
4747 Clear 9 1012 73 10000 1.06 10 07:39 18.12.2020
4748 Clouds 10 1013 65 10000 1.12 21 07:18 18.12.2020
4749 Clouds 10 1013 65 10000 1.12 21 06:49 18.12.2020
4750 Clouds 10 1013 59 10000 0.96 27 05:41 18.12.2020
4751 Clouds 11 1014 56 10000 0.87 318 04:51 18.12.2020
4752 Clouds 11 1013 49 10000 3.06 340 01:58 18.12.2020
4753 Clouds 11 1013 49 10000 3.06 340 01:39 18.12.2020
4754 Clouds 11 1010 62 10000 5.2 337 23:59 17.12.2020
4755 Clouds 11 1010 62 10000 5.2 337 23:37 17.12.2020
4756 Clouds 11 1008 64 6625 4.92 28 23:18 17.12.2020
4757 Clouds 11 1008 64 6625 4.92 28 22:45 17.12.2020
4758 Clouds 12 1006 62 10000 4.15 70 22:26 17.12.2020
4759 Rain 12 1006 62 10000 4.15 70 21:43 17.12.2020
4760 Rain 12 1006 62 10000 4.15 70 21:43 17.12.2020
4761 Clouds 14 1007 47 10000 2.69 25 21:19 17.12.2020
4762 Clouds 14 1007 47 10000 2.69 25 20:42 17.12.2020
4763 Clouds 17 1007 33 10000 4.68 27 20:19 17.12.2020
4764 Rain 17 1007 33 10000 4.68 27 19:48 17.12.2020
4765 Clouds 17 1009 31 10000 2.79 13 19:24 17.12.2020
4766 Clouds 17 1009 31 10000 2.74 15 18:44 17.12.2020
4767 Clouds 17 1037 45 10000 2.6 30 18:26 17.12.2020
4768 Clouds 17 1037 45 10000 2.6 30 17:57 17.12.2020
4769 Clouds 17 1037 45 10000 2.6 30 17:36 17.12.2020
4770 Clouds 15 1038 54 10000 3.6 20 17:18 17.12.2020
4771 Clouds 15 1038 54 10000 3.6 20 16:37 17.12.2020
4772 Clouds 13 1039 58 10000 2.6 20 16:18 17.12.2020
4773 Clouds 13 1039 58 10000 2.6 20 15:41 17.12.2020
4774 Clouds 11 1039 66 10000 2.72 343 15:20 17.12.2020
4775 Clouds 11 1039 66 10000 2.72 343 14:47 17.12.2020
4776 Clouds 9 1038 76 10000 2.79 344 14:19 17.12.2020
4777 Clouds 9 1038 76 10000 2.79 344 13:42 17.12.2020
4778 Clouds 7 1038 87 10000 2.51 350 12:58 17.12.2020
4779 Clouds 7 1038 87 10000 2.59 349 12:39 17.12.2020
4780 Clouds 7 1017 82 10000 2.14 352 12:21 17.12.2020
4781 Clouds 7 1017 82 10000 2.14 352 11:41 17.12.2020
4782 Clouds 6 1016 83 10000 1.82 346 11:20 17.12.2020
4783 Clouds 6 1016 83 10000 1.82 346 10:40 17.12.2020
4784 Clouds 7 1016 80 10000 1.74 352 09:37 17.12.2020
4785 Clear 7 1015 78 10000 1.51 17 08:50 17.12.2020
4786 Clear 7 1015 75 10000 1.5 20 07:42 17.12.2020
4787 Clouds 7 1015 73 10000 1.36 17 07:21 17.12.2020
4788 Clouds 7 1015 77 10000 0.89 350 06:47 17.12.2020
4789 Clouds 8 1016 75 10000 1.23 327 06:29 17.12.2020
4790 Clouds 8 1017 70 10000 2.67 344 03:30 17.12.2020
4791 Clouds 9 1011 73 10000 4.49 30 00:27 17.12.2020
4792 Clouds 9 1011 73 10000 4.49 30 23:42 16.12.2020
4793 Clouds 9 1009 73 10000 5.64 48 23:18 16.12.2020
4794 Clouds 9 1009 73 10000 5.64 48 22:48 16.12.2020
4795 Clouds 9 1009 73 10000 5.64 48 22:30 16.12.2020
4796 Clouds 11 1007 70 5794 4.59 72 21:44 16.12.2020
4797 Clouds 12 1007 62 5355 1.69 70 21:23 16.12.2020
4798 Clouds 12 1007 62 5355 1.69 70 20:52 16.12.2020
4799 Clouds 14 1007 51 5071 3.25 54 20:20 16.12.2020
4800 Clouds 14 1007 51 5071 3.25 54 19:43 16.12.2020
4801 Clouds 14 1007 51 5071 3.25 54 19:43 16.12.2020
4802 Clouds 20 1034 37 10000 2.1 60 19:18 16.12.2020
4803 Clouds 20 1034 37 10000 2.1 60 18:51 16.12.2020
4804 Clouds 19 1035 39 10000 2.6 10 18:26 16.12.2020
4805 Clouds 19 1035 39 10000 2.6 10 17:38 16.12.2020
4806 Clouds 17 1035 42 10000 3.39 7 16:56 16.12.2020
4807 Clouds 17 1035 42 10000 3.39 7 16:37 16.12.2020
4808 Clouds 15 1036 51 10000 2.1 10 16:19 16.12.2020
4809 Clouds 15 1036 51 10000 2.1 10 15:46 16.12.2020
4810 Clouds 13 1035 62 10000 2.93 353 15:19 16.12.2020
4811 Clouds 13 1035 62 10000 2.93 353 14:45 16.12.2020
4812 Clouds 13 1035 62 10000 2.53 359 14:27 16.12.2020
4813 Clouds 11 1035 71 10000 2.53 359 13:42 16.12.2020
4814 Clouds 9 1015 71 10000 2.01 358 13:21 16.12.2020
4815 Clouds 9 1016 70 10000 1.89 357 12:44 16.12.2020
4816 Clouds 8 1016 80 10000 1.59 355 11:55 16.12.2020
4817 Clouds 8 1016 80 10000 1.59 355 11:36 16.12.2020
4818 Clouds 7 1015 86 10000 1.52 357 10:58 16.12.2020
4819 Clouds 7 1015 86 10000 1.52 357 10:38 16.12.2020
4820 Clouds 7 1013 84 10000 1.81 353 09:56 16.12.2020
4821 Clouds 7 1013 84 10000 1.81 353 09:34 16.12.2020
4822 Clouds 8 1012 79 10000 2.57 2 08:23 16.12.2020
4823 Clouds 8 1012 79 10000 2.57 2 07:47 16.12.2020
4824 Clouds 9 1012 74 10000 2.56 354 07:29 16.12.2020
4825 Clouds 9 1012 71 10000 1.95 358 05:42 16.12.2020
4826 Clouds 10 1010 65 10000 2.9 10 02:20 16.12.2020
4827 Clouds 13 1005 39 10000 6.11 44 23:59 15.12.2020
4828 Clouds 13 1005 39 10000 6.11 44 23:40 15.12.2020
4829 Clouds 15 1003 31 10000 5.96 52 22:44 15.12.2020
4830 Clouds 17 1002 26 10000 4.78 59 22:23 15.12.2020
4831 Clouds 17 1002 26 10000 4.78 59 21:49 15.12.2020
4832 Clouds 18 1002 23 10000 1.71 52 21:24 15.12.2020
4833 Clouds 18 1002 23 10000 1.71 52 20:46 15.12.2020
4834 Clouds 17 1003 22 10000 0.89 37 20:27 15.12.2020
4835 Clouds 17 1003 22 10000 0.89 37 19:55 15.12.2020
4836 Clouds 17 1003 22 10000 0.89 37 19:35 15.12.2020
4837 Clouds 17 1004 23 10000 0.6 25 18:59 15.12.2020
4838 Clouds 17 1004 23 10000 0.49 28 18:39 15.12.2020
4839 Clouds 16 1006 24 10000 0.28 8 18:20 15.12.2020
4840 Clouds 16 1006 24 10000 0.28 8 17:42 15.12.2020
4841 Clouds 15 1008 25 10000 0.4 298 17:22 15.12.2020
4842 Clouds 15 1008 25 10000 0.4 298 16:37 15.12.2020
4843 Clouds 14 1010 27 10000 0.93 272 16:19 15.12.2020
4844 Clouds 14 1010 27 10000 0.93 272 15:37 15.12.2020
4845 Clouds 13 1011 29 10000 1.42 267 14:59 15.12.2020
4846 Clouds 13 1011 29 10000 1.42 267 14:41 15.12.2020
4847 Clouds 12 1012 33 10000 1.86 274 14:19 15.12.2020
4848 Clouds 12 1012 33 10000 1.86 274 13:47 15.12.2020
4849 Clouds 10 1012 40 10000 2.1 274 13:22 15.12.2020
4850 Clouds 10 1012 40 10000 2.16 270 12:44 15.12.2020
4851 Clouds 9 1013 47 10000 2.3 270 12:19 15.12.2020
4852 Clouds 9 1013 47 10000 2.3 270 11:49 15.12.2020
4853 Clouds 8 1012 56 10000 2.08 260 11:21 15.12.2020
4854 Clouds 8 1012 56 10000 2.08 260 10:45 15.12.2020
4855 Clouds 8 1012 56 10000 2.2 259 10:20 15.12.2020
4856 Clouds 8 1012 56 10000 2.2 259 09:42 15.12.2020
4857 Clouds 8 1012 64 10000 2.24 260 09:23 15.12.2020
4858 Clouds 8 1012 64 10000 2.24 260 08:40 15.12.2020
4859 Clouds 8 1011 70 10000 1.86 265 08:21 15.12.2020
4860 Clouds 8 1011 70 10000 1.86 265 07:43 15.12.2020
4861 Clouds 8 1012 71 10000 1.95 291 06:53 15.12.2020
4862 Clouds 8 1012 72 10000 2.26 285 05:37 15.12.2020
4863 Clear 10 1010 69 10000 4.14 31 00:39 15.12.2020
4864 Clear 11 1008 62 10000 4.5 44 23:51 14.12.2020
4865 Clear 12 1006 51 10000 4.17 58 23:19 14.12.2020
4866 Clear 12 1006 51 10000 4.17 58 22:44 14.12.2020
4867 Clear 13 1005 47 10000 3.71 67 22:22 14.12.2020
4868 Clear 13 1005 47 10000 3.71 67 21:41 14.12.2020
4869 Clouds 13 1006 47 10000 4.35 65 21:19 14.12.2020
4870 Clouds 13 1006 47 10000 4.35 65 20:48 14.12.2020
4871 Clouds 14 1007 45 10000 4.6 58 20:27 14.12.2020
4872 Clouds 14 1007 45 10000 4.6 58 19:49 14.12.2020
4873 Clouds 16 1033 41 10000 5.1 70 19:28 14.12.2020
4874 Clouds 16 1033 41 10000 5.1 70 18:44 14.12.2020
4875 Clouds 15 1034 44 10000 3.6 60 18:24 14.12.2020
4876 Clouds 15 1034 44 10000 3.6 60 17:45 14.12.2020
4877 Clouds 15 1035 44 10000 2.6 60 17:22 14.12.2020
4878 Clouds 15 1035 44 10000 2.6 60 16:49 14.12.2020
4879 Clouds 13 1036 50 10000 2.52 338 16:27 14.12.2020
4880 Clouds 13 1036 50 10000 2.52 338 15:33 14.12.2020
4881 Clouds 11 1036 62 10000 2.68 328 14:54 14.12.2020
4882 Clouds 11 1036 62 10000 2.68 328 14:36 14.12.2020
4883 Clouds 10 1036 66 10000 2.93 344 14:18 14.12.2020
4884 Clouds 10 1036 66 10000 2.93 344 13:39 14.12.2020
4885 Clouds 8 1036 81 10000 2.72 358 13:18 14.12.2020
4886 Clouds 8 1036 81 10000 2.72 358 12:44 14.12.2020
4887 Clear 7 1017 72 10000 2.34 10 12:23 14.12.2020
4888 Clear 6 1017 79 10000 2.2 17 11:31 14.12.2020
4889 Clear 6 1017 79 10000 2.2 17 10:30 14.12.2020
4890 Clear 7 1016 78 10000 2 19 09:58 14.12.2020
4891 Clear 7 1016 77 10000 2.35 25 09:29 14.12.2020
4892 Clear 7 1016 77 10000 2.35 25 08:46 14.12.2020
4893 Clear 7 1016 76 10000 1.96 41 08:27 14.12.2020
4894 Clear 8 1015 76 10000 2.26 42 07:27 14.12.2020
4895 Clouds 8 1016 74 10000 3.19 36 06:45 14.12.2020
4896 Clouds 9 1016 72 10000 3.12 58 04:52 14.12.2020
4897 Clouds 11 1013 61 10000 3.54 41 02:26 14.12.2020
4898 Clouds 11 1011 63 10000 3.29 38 00:55 14.12.2020
4899 Clouds 11 1011 63 10000 3.29 38 00:31 14.12.2020
4900 Clouds 12 1008 56 10000 4.66 60 23:48 13.12.2020
4901 Clouds 14 1006 41 10000 3.07 22 23:27 13.12.2020
4902 Clouds 14 1006 41 10000 3.07 22 22:46 13.12.2020
4903 Clouds 17 1005 31 10000 2.86 77 22:20 13.12.2020
4904 Clouds 17 1005 31 10000 2.86 77 21:42 13.12.2020
4905 Clouds 17 1005 29 10000 3.69 114 21:24 13.12.2020
4906 Clouds 17 1005 29 10000 3.69 114 20:35 13.12.2020
4907 Clouds 17 1006 29 10000 3.95 115 19:57 13.12.2020
4908 Clouds 17 1006 29 10000 3.95 115 19:37 13.12.2020
4909 Clear 17 1007 26 10000 1.82 110 19:19 13.12.2020
4910 Clear 17 1007 29 10000 3.26 106 18:42 13.12.2020
4911 Clear 17 1008 28 10000 0.99 97 18:20 13.12.2020
4912 Clear 17 1008 28 10000 0.99 97 17:47 13.12.2020
4913 Clear 16 1009 29 10000 0.24 326 17:21 13.12.2020
4914 Clear 16 1009 29 10000 0.24 326 17:21 13.12.2020
4915 Clear 16 1009 29 10000 0.24 326 16:56 13.12.2020
4916 Clear 16 1009 29 10000 0.24 326 16:38 13.12.2020
4917 Clear 15 1011 32 10000 0.8 267 16:18 13.12.2020
4918 Clear 15 1011 32 10000 0.8 267 15:40 13.12.2020
4919 Clear 14 1012 35 10000 1.26 266 15:21 13.12.2020
4920 Clear 14 1012 35 10000 1.26 266 14:43 13.12.2020
4921 Clear 12 1013 40 10000 1.41 271 14:21 13.12.2020
4922 Clear 12 1013 40 10000 1.41 271 13:43 13.12.2020
4923 Clear 11 1013 45 10000 1.46 270 13:25 13.12.2020
4924 Clear 11 1013 45 10000 1.44 270 12:48 13.12.2020
4925 Clear 9 1013 52 10000 1.33 265 12:22 13.12.2020
4926 Clear 9 1013 52 10000 1.33 265 11:42 13.12.2020
4927 Clear 8 1013 70 10000 1.45 259 10:56 13.12.2020
4928 Clear 8 1013 70 10000 1.45 259 10:38 13.12.2020
4929 Clear 8 1012 72 10000 1.17 263 09:55 13.12.2020
4930 Clear 8 1011 73 10000 0.88 288 09:27 13.12.2020
4931 Clear 8 1011 73 10000 0.88 288 08:35 13.12.2020
4932 Clear 8 1010 69 10000 1.56 323 07:47 13.12.2020
4933 Clouds 8 1012 62 10000 1.24 312 04:48 13.12.2020
4934 Clouds 9 1011 62 10000 2.15 8 02:42 13.12.2020
4935 Clouds 9 1010 62 10000 2.52 43 01:58 13.12.2020
4936 Clouds 10 1009 63 10000 2.37 34 00:51 13.12.2020
4937 Clouds 10 1007 63 10000 2.95 50 00:28 13.12.2020
4938 Clouds 10 1007 63 10000 2.95 50 23:32 12.12.2020
4939 Clouds 11 1005 50 10000 1.82 354 22:53 12.12.2020
4940 Clouds 9 1004 55 10000 2.9 98 22:20 12.12.2020
4941 Clouds 9 1004 55 10000 2.9 98 21:42 12.12.2020
4942 Clouds 13 1004 43 10000 4.49 261 21:18 12.12.2020
4943 Clouds 13 1004 43 10000 4.49 261 20:36 12.12.2020
4944 Clouds 15 1004 37 10000 3.92 99 20:18 12.12.2020
4945 Clouds 15 1004 37 10000 3.92 99 19:46 12.12.2020
4946 Clear 16 1006 33 10000 1.69 44 19:27 12.12.2020
4947 Clear 16 1007 32 10000 1.89 41 18:45 12.12.2020
4948 Clear 16 1008 32 10000 1.56 344 18:27 12.12.2020
4949 Clear 16 1008 32 10000 1.56 344 17:47 12.12.2020
4950 Clear 14 1010 35 10000 1.58 327 16:57 12.12.2020
4951 Clear 13 1012 38 10000 1.68 318 16:21 12.12.2020
4952 Clear 13 1012 38 10000 1.68 318 15:50 12.12.2020
4953 Clear 13 1012 38 10000 1.68 318 15:31 12.12.2020
4954 Clear 12 1013 44 10000 1.66 316 14:49 12.12.2020
4955 Clear 10 1014 53 10000 1.5 325 13:57 12.12.2020
4956 Clear 10 1014 53 10000 1.5 325 13:38 12.12.2020
4957 Clouds 8 1015 64 10000 0.84 322 12:59 12.12.2020
4958 Clouds 7 1015 71 10000 0.76 277 12:29 12.12.2020
4959 Clouds 7 1015 75 10000 1.12 276 10:55 12.12.2020
4960 Clouds 7 1014 74 10000 1.14 274 09:50 12.12.2020
4961 Clouds 7 1014 74 10000 0.79 253 08:57 12.12.2020
4962 Clouds 6 1015 78 10000 0.54 89 03:33 12.12.2020
4963 Clouds 9 1009 69 10000 3.2 126 00:28 12.12.2020
4964 Clouds 12 1005 51 10000 5.29 72 22:47 11.12.2020
4965 Clear 16 1002 33 10000 7.61 95 20:50 11.12.2020
4966 Clouds 21 1035 27 10000 3.6 220 18:46 11.12.2020
4967 Clear 17 1037 33 10000 4.1 180 16:44 11.12.2020
4968 Clear 10 1038 61 10000 3.6 240 14:19 11.12.2020
4969 Clear 10 1038 61 10000 3.6 240 13:25 11.12.2020
4970 Clear 9 1012 57 10000 1.75 265 12:20 11.12.2020
4971 Clear 9 1012 57 10000 1.75 265 11:52 11.12.2020
4972 Clear 8 1012 69 10000 1.26 271 10:56 11.12.2020
4973 Clear 7 1011 70 10000 1.12 282 09:42 11.12.2020
4974 Clear 8 1013 69 10000 1.36 310 06:26 11.12.2020
4975 Clear 8 1013 69 10000 1.72 308 05:20 11.12.2020
4976 Clear 8 1013 66 10000 2.35 339 02:40 11.12.2020
4977 Clouds 9 1013 63 10000 3.03 41 00:39 11.12.2020
4978 Clouds 11 1009 50 10000 3.55 60 23:25 10.12.2020
4979 Clouds 12 1008 46 10000 4.74 68 21:37 10.12.2020
4980 Clouds 12 1008 42 10000 5.1 74 20:50 10.12.2020
4981 Clouds 13 1009 39 10000 4.87 81 19:52 10.12.2020
4982 Clouds 16 1036 44 10000 7.7 70 19:21 10.12.2020
4983 Clouds 16 1036 44 10000 7.7 70 18:45 10.12.2020
4984 Clouds 13 1039 62 10000 2.6 60 17:23 10.12.2020
4985 Clouds 11 1039 66 10000 1.12 71 15:52 10.12.2020
4986 Clouds 10 1040 71 10000 0.61 72 15:19 10.12.2020
4987 Clouds 10 1040 71 10000 0.61 72 14:42 10.12.2020
4988 Clouds 8 1040 75 10000 2.1 60 13:26 10.12.2020
4989 Clouds 6 1019 73 10000 0.64 29 11:53 10.12.2020
4990 Clouds 5 1019 76 10000 0.67 6 10:46 10.12.2020
4991 Clouds 6 1019 74 10000 1.28 157 08:20 10.12.2020
4992 Clouds 6 1019 78 10000 2.04 107 06:59 10.12.2020
4993 Clouds 6 1020 79 10000 3.14 112 05:34 10.12.2020
4994 Clouds 7 1020 78 10000 3.24 109 02:31 10.12.2020
4995 Clouds 8 1017 77 10000 3.61 113 01:25 10.12.2020
4996 Clouds 8 1015 76 10000 3.62 106 23:42 09.12.2020
4997 Clouds 9 1013 71 10000 2.82 126 20:39 09.12.2020
4998 Rain 10 1014 65 9181 2.61 124 19:46 09.12.2020
4999 Clouds 14 1038 58 10000 5.1 60 18:36 09.12.2020
5000 Clouds 15 1040 47 10000 5.1 60 17:19 09.12.2020
5001 Clouds 13 1041 54 10000 3.6 60 16:26 09.12.2020
5002 Clouds 13 1041 54 10000 3.6 60 15:44 09.12.2020
5003 Clouds 13 1041 54 10000 3.6 60 15:44 09.12.2020
5004 Clouds 11 1040 62 10000 2.6 60 14:51 09.12.2020
5005 Clouds 11 1040 62 10000 2.6 60 14:26 09.12.2020
5006 Clouds 10 1040 66 10000 1.5 60 13:36 09.12.2020
5007 Clouds 8 1039 75 10000 1.79 57 13:18 09.12.2020
5008 Clear 7 1019 76 10000 1.82 71 12:24 09.12.2020
5009 Clear 7 1019 76 10000 1.82 71 11:34 09.12.2020
5010 Clear 7 1017 81 10000 1.9 73 09:51 09.12.2020
5011 Clear 8 1017 80 10000 1.92 74 08:36 09.12.2020
5012 Clouds 8 1016 81 10000 2.24 56 06:43 09.12.2020
5013 Clouds 9 1016 77 10000 2.57 72 05:28 09.12.2020
5014 Clear 10 1016 70 10000 2.76 70 02:41 09.12.2020
5015 Clouds 11 1013 61 10000 2.85 68 00:37 09.12.2020
5016 Clouds 12 1011 54 10000 3.62 54 23:35 08.12.2020
5017 Clouds 14 1009 43 10000 3.78 68 22:22 08.12.2020
5018 Clouds 15 1009 40 10000 3.66 99 20:47 08.12.2020
5019 Clouds 18 1036 31 10000 2.6 250 19:31 08.12.2020
5020 Clouds 18 1036 31 10000 2.6 250 18:38 08.12.2020
5021 Clouds 17 1037 39 10000 1.5 210 17:19 08.12.2020
5022 Clouds 12 1039 58 10000 2.1 240 15:23 08.12.2020
5023 Clouds 10 1038 71 10000 2.6 240 13:50 08.12.2020
5024 Clouds 8 1038 81 10000 1.18 322 12:46 08.12.2020
5025 Clouds 8 1018 76 10000 1.1 340 11:59 08.12.2020
5026 Clouds 7 1017 81 10000 1.22 355 11:24 08.12.2020
5027 Clouds 7 1017 81 10000 1.22 355 10:41 08.12.2020
5028 Clouds 7 1017 81 10000 1.42 6 09:45 08.12.2020
5029 Clouds 8 1016 76 10000 1.41 12 07:41 08.12.2020
5030 Clouds 8 1016 78 10000 2.24 359 05:43 08.12.2020
5031 Clouds 9 1016 80 10000 2.33 33 02:49 08.12.2020
5032 Clouds 9 1013 77 10000 3.14 45 00:45 08.12.2020
5033 Clouds 10 1011 69 10000 3.38 49 23:46 07.12.2020
5034 Clouds 12 1010 64 10000 3.23 60 22:21 07.12.2020
5035 Clouds 12 1010 64 10000 3.23 60 21:48 07.12.2020
5036 Clouds 12 1010 65 10000 2.48 65 19:45 07.12.2020
5037 Clouds 13 1036 66 10000 2.6 60 18:19 07.12.2020
5038 Clouds 12 1037 71 10000 3.1 60 17:23 07.12.2020
5039 Clouds 12 1037 71 10000 3.1 60 16:48 07.12.2020
5040 Clouds 10 1038 81 10000 2.6 60 15:26 07.12.2020
5041 Clouds 10 1038 81 10000 2.6 60 14:41 07.12.2020
5042 Clouds 8 1038 87 10000 1.5 60 13:43 07.12.2020
5043 Clouds 7 1037 93 10000 2.47 22 12:34 07.12.2020
5044 Clouds 7 1018 84 10000 2.26 27 11:43 07.12.2020
5045 Clouds 7 1017 84 10000 2.36 32 10:44 07.12.2020
5046 Clouds 7 1016 82 10000 2.41 33 09:40 07.12.2020
5047 Clouds 7 1016 83 10000 2.26 7 07:51 07.12.2020
5048 Clouds 8 1017 79 10000 2.47 20 05:43 07.12.2020
5049 Clouds 8 1017 78 10000 2.54 22 04:46 07.12.2020
5050 Clouds 8 1016 78 10000 2.95 39 01:48 07.12.2020
5051 Clouds 9 1012 76 10000 3.47 59 23:32 06.12.2020
5052 Clouds 11 1011 70 10000 4.14 53 22:19 06.12.2020
5053 Clouds 11 1011 69 10000 3.94 61 20:53 06.12.2020
5054 Clouds 11 1011 69 10000 3.94 61 20:34 06.12.2020
5055 Clouds 11 1011 67 10000 3.88 61 19:45 06.12.2020
5056 Clouds 12 1014 63 10000 3.57 36 17:55 06.12.2020
5057 Clouds 12 1015 62 10000 3.97 30 16:44 06.12.2020
5058 Clouds 11 1018 67 10000 2.97 24 14:52 06.12.2020
5059 Clouds 8 1018 77 10000 2.29 13 13:32 06.12.2020
5060 Clouds 8 1019 79 10000 2.24 17 12:39 06.12.2020
5061 Clouds 7 1018 82 10000 2.14 13 11:57 06.12.2020
5062 Clouds 7 1018 82 10000 2.14 13 11:32 06.12.2020
5063 Clouds 7 1018 85 10000 2.21 17 10:45 06.12.2020
5064 Clouds 7 1017 83 10000 2.18 24 09:45 06.12.2020
5065 Clouds 8 1017 82 10000 1.96 15 08:22 06.12.2020
5066 Clouds 8 1018 81 10000 2.4 12 05:51 06.12.2020
5067 Clouds 8 1016 79 10000 3.95 24 00:57 06.12.2020
5068 Clouds 8 1016 79 10000 3.95 24 00:38 06.12.2020
5069 Rain 9 1014 77 10000 3.65 49 00:20 06.12.2020
5070 Rain 10 1012 73 10000 3.76 48 22:41 05.12.2020
5071 Clouds 11 1012 70 10000 4.42 39 22:19 05.12.2020
5072 Clouds 11 1012 70 10000 4.42 39 21:47 05.12.2020
5073 Clouds 11 1013 68 10000 4.03 40 21:22 05.12.2020
5074 Rain 11 1015 67 10000 3.94 25 19:21 05.12.2020
5075 Rain 11 1015 67 10000 3.94 25 18:38 05.12.2020
5076 Clouds 11 1018 62 10000 3.37 24 17:20 05.12.2020
5077 Clouds 11 1019 61 10000 3.31 15 16:29 05.12.2020
5078 Clouds 11 1019 61 10000 3.31 15 15:37 05.12.2020
5079 Clouds 9 1020 61 10000 2.08 20 14:24 05.12.2020
5080 Clouds 7 1019 69 10000 1.91 37 11:52 05.12.2020
5081 Clouds 7 1019 69 10000 1.91 37 11:30 05.12.2020
5082 Clouds 6 1018 73 10000 1.21 256 10:29 05.12.2020
5083 Clouds 6 1018 74 10000 1.9 69 07:48 05.12.2020
5084 Clouds 4 1018 90 3090 1.06 80 06:28 05.12.2020
5085 Clouds 7 1018 86 2183 4.31 84 03:44 05.12.2020
5086 Clouds 9 1012 75 7175 2.44 86 23:50 04.12.2020
5087 Clouds 12 1008 60 10000 3.41 17 22:24 04.12.2020
5088 Clouds 14 1008 54 5806 4.12 38 20:19 04.12.2020
5089 Clouds 17 1033 45 10000 5.1 60 18:53 04.12.2020
5090 Clouds 16 1034 48 10000 2.6 60 18:18 04.12.2020
5091 Clouds 16 1034 48 10000 2.6 60 17:26 04.12.2020
5092 Clouds 14 1035 58 10000 2.6 60 15:39 04.12.2020
5093 Clouds 11 1035 71 10000 3.1 60 13:40 04.12.2020
5094 Clouds 9 1034 81 10000 2.77 19 13:21 04.12.2020
5095 Clouds 9 1034 81 10000 2.77 19 12:49 04.12.2020
5096 Clouds 8 1014 87 10000 1.82 33 10:40 04.12.2020
5097 Clouds 8 1013 85 10000 1.83 40 09:46 04.12.2020
5098 Clouds 9 1013 82 10000 1.24 15 06:43 04.12.2020
5099 Clouds 9 1013 80 10000 1.71 360 05:59 04.12.2020
5100 Clouds 10 1011 73 10000 3.28 22 01:56 04.12.2020
5101 Clouds 12 1006 61 10000 4.58 42 22:52 03.12.2020
5102 Clouds 12 1006 61 10000 4.58 42 22:30 03.12.2020
5103 Clouds 11 1004 71 5284 3.91 23 20:49 03.12.2020
5104 Clouds 17 1032 48 10000 6.2 50 19:37 03.12.2020
5105 Clouds 17 1032 48 10000 6.2 50 19:18 03.12.2020
5106 Clouds 16 1032 51 10000 5.1 40 18:18 03.12.2020
5107 Clouds 15 1033 54 10000 4.1 40 17:19 03.12.2020
5108 Clouds 13 1034 66 10000 3.1 50 15:56 03.12.2020
5109 Clouds 13 1034 66 10000 3.1 50 15:31 03.12.2020
5110 Clouds 12 1034 66 10000 3.6 60 14:48 03.12.2020
5111 Clouds 10 1034 71 10000 2.6 60 13:44 03.12.2020
5112 Clouds 6 1034 87 10000 1.89 13 12:32 03.12.2020
5113 Clouds 8 1014 74 10000 1.56 11 11:38 03.12.2020
5114 Clouds 7 1012 82 10000 1.04 15 10:25 03.12.2020
5115 Clear 8 1011 79 10000 1.07 38 07:48 03.12.2020
5116 Clouds 8 1011 74 10000 1.4 308 03:38 03.12.2020
5117 Clouds 8 1009 81 10000 4.35 343 01:24 03.12.2020
5118 Clouds 9 1005 75 10000 3.43 47 23:19 02.12.2020
5119 Clouds 8 1003 79 10000 1.59 93 22:28 02.12.2020
5120 Clouds 11 1002 60 10000 2.31 86 21:29 02.12.2020
5121 Rain 11 1002 60 10000 2.31 86 20:48 02.12.2020
5122 Clouds 16 1003 43 10000 5 25 20:29 02.12.2020
5123 Clouds 21 1032 32 10000 5.1 60 19:22 02.12.2020
5124 Clouds 19 1032 39 10000 4.1 60 17:48 02.12.2020
5125 Clouds 18 1033 42 10000 3.6 60 17:29 02.12.2020
5126 Clouds 16 1034 44 10000 1.66 350 15:37 02.12.2020
5127 Clouds 7 1034 75 10000 2.1 230 13:20 02.12.2020
5128 Clouds 8 1012 67 10000 0.93 306 11:20 02.12.2020
5129 Clouds 7 1011 71 10000 0.39 292 10:24 02.12.2020
5130 Clouds 8 1011 67 10000 1.34 293 07:42 02.12.2020
5131 Clouds 10 1009 67 10000 4.1 297 23:22 01.12.2020
5132 Clouds 11 1007 63 10000 2.81 334 22:20 01.12.2020
5133 Rain 15 1035 54 10000 8.2 60 19:36 01.12.2020
5134 Rain 15 1035 54 10000 8.2 60 18:55 01.12.2020
5135 Thunderstorm 14 1038 58 10000 6.2 70 16:47 01.12.2020
5136 Clouds 12 1038 66 10000 1.5 60 14:53 01.12.2020
5137 Clouds 10 1017 55 10000 1.48 27 12:45 01.12.2020
5138 Clouds 9 1017 62 10000 1.13 294 11:40 01.12.2020
5139 Clouds 8 1016 68 10000 1.87 249 10:53 01.12.2020
5140 Clouds 8 1016 70 10000 1.33 240 10:26 01.12.2020
5141 Clouds 8 1016 67 10000 0.74 45 07:46 01.12.2020
5142 Clouds 8 1018 68 10000 0.34 83 05:58 01.12.2020
5143 Clouds 9 1016 63 10000 4.41 41 01:33 01.12.2020
5144 Clouds 10 1014 64 10000 5.61 21 00:38 01.12.2020
5145 Clouds 11 1011 61 10000 5.21 34 23:20 30.11.2020
5146 Rain 11 1011 61 10000 5.21 34 22:42 30.11.2020
5147 Rain 11 1009 63 10000 7.63 44 22:22 30.11.2020
5148 Clouds 13 1010 54 10000 9.78 43 19:50 30.11.2020
5149 Clouds 13 1010 54 10000 9.78 43 19:31 30.11.2020
5150 Rain 17 1037 45 10000 5.1 70 18:21 30.11.2020
5151 Clouds 17 1037 45 10000 5.1 70 17:46 30.11.2020
5152 Clouds 16 1038 48 10000 6.7 50 16:53 30.11.2020
5153 Clouds 14 1039 58 10000 6.2 50 14:53 30.11.2020
5154 Clouds 12 1038 66 10000 2.6 50 13:55 30.11.2020
5155 Clouds 11 1016 51 10000 1.72 47 13:22 30.11.2020
5156 Clouds 9 1016 61 10000 0.95 4 12:25 30.11.2020
5157 Clouds 9 1016 61 10000 0.95 4 11:46 30.11.2020
5158 Clouds 8 1014 74 10000 0.47 97 10:25 30.11.2020
5159 Clouds 8 1014 74 10000 0.47 97 09:33 30.11.2020
5160 Clouds 12 1012 52 10000 3.44 29 01:29 30.11.2020
5161 Clouds 14 1008 46 10000 6.17 52 23:28 29.11.2020
5162 Clouds 15 1007 39 10000 7.82 51 21:45 29.11.2020
5163 Clouds 16 1007 35 10000 6.88 46 21:26 29.11.2020
5164 Clouds 16 1007 35 10000 6.88 46 21:26 29.11.2020
5165 Rain 16 1010 34 10000 5.22 28 19:20 29.11.2020
5166 Clear 16 1013 32 10000 4.41 29 17:34 29.11.2020
5167 Clear 13 1016 38 10000 2.17 25 14:46 29.11.2020
5168 Clouds 10 1017 50 10000 0.73 359 12:45 29.11.2020
5169 Clouds 9 1017 67 10000 0.7 251 11:37 29.11.2020
5170 Clouds 8 1015 84 10000 1.21 349 08:54 29.11.2020
5171 Clouds 8 1015 84 10000 1.21 349 08:34 29.11.2020
5172 Clear 11 1016 61 10000 2.28 22 02:31 29.11.2020
5173 Clouds 14 1009 46 10000 5.72 59 22:59 28.11.2020
5174 Clouds 16 1008 37 10000 6.36 61 22:27 28.11.2020
5175 Clouds 17 1009 31 10000 4.73 59 20:24 28.11.2020
5176 Clear 17 1010 30 10000 4.43 57 19:28 28.11.2020
5177 Clear 17 1010 30 10000 4.43 57 18:57 28.11.2020
5178 Clear 17 1011 31 10000 3.99 53 18:21 28.11.2020
5179 Clear 16 1012 32 10000 2.95 47 16:57 28.11.2020
5180 Clear 13 1016 38 10000 1.12 26 14:59 28.11.2020
5181 Clear 12 1017 43 10000 0.6 5 13:55 28.11.2020
5182 Clouds 8 1016 59 10000 0.65 295 11:28 28.11.2020
5183 Clouds 8 1015 65 10000 0.47 331 09:26 28.11.2020
5184 Clouds 8 1017 65 10000 1.37 314 03:44 28.11.2020
5185 Clouds 9 1015 63 10000 3.33 347 01:53 28.11.2020
5186 Rain 10 1010 67 10000 1.45 351 23:22 27.11.2020
5187 Clouds 10 1010 67 10000 1.45 351 22:38 27.11.2020
5188 Clouds 13 1009 57 10000 4.16 66 20:40 27.11.2020
5189 Clouds 15 1008 48 10000 5.42 63 19:34 27.11.2020
5190 Clouds 15 1009 43 10000 3.22 56 18:58 27.11.2020
5191 Clouds 15 1038 51 10000 4.1 70 16:55 27.11.2020
5192 Clouds 15 1038 51 10000 4.1 70 16:55 27.11.2020
5193 Clouds 15 1038 51 10000 4.1 70 16:55 27.11.2020
5194 Clouds 11 1040 66 10000 2.6 60 14:45 27.11.2020
5195 Rain 9 1018 70 10000 2.66 16 13:21 27.11.2020
5196 Clouds 9 1018 70 7793 2.52 15 12:47 27.11.2020
5197 Clouds 7 1018 78 10000 1.79 32 11:34 27.11.2020
5198 Clouds 7 1017 83 10000 1.87 56 10:45 27.11.2020
5199 Clear 7 1016 82 10000 1.39 39 09:53 27.11.2020
5200 Clouds 10 1015 67 10000 2.51 17 04:32 27.11.2020
5201 Rain 9 1008 71 10000 3.23 309 22:26 26.11.2020
5202 Clouds 9 1008 71 10000 3.23 309 21:56 26.11.2020
5203 Clouds 10 1007 66 10000 2.97 324 20:49 26.11.2020
5204 Clouds 18 1035 36 10000 6.2 70 18:37 26.11.2020
5205 Clouds 18 1035 36 10000 6.2 70 17:41 26.11.2020
5206 Clear 14 1038 47 10000 2.1 50 14:39 26.11.2020
5207 Clouds 11 1015 44 10000 1.03 297 13:19 26.11.2020
5208 Clouds 12 1015 43 10000 0.7 289 12:41 26.11.2020
5209 Clouds 10 1016 48 10000 0.48 252 11:35 26.11.2020
5210 Clouds 8 1015 60 10000 1.22 243 10:27 26.11.2020
5211 Clouds 8 1015 60 10000 1.22 243 09:39 26.11.2020
5212 Clouds 9 1015 60 10000 1.11 244 09:21 26.11.2020
5213 Clouds 9 1015 60 10000 1.11 244 08:38 26.11.2020
5214 Rain 8 1016 64 10000 1.22 149 02:19 26.11.2020
5215 Clouds 6 1010 83 9009 5.7 39 22:32 25.11.2020
5216 Clouds 17 1006 34 10000 8.23 75 20:38 25.11.2020
5217 Clouds 19 1007 26 10000 7.51 110 19:29 25.11.2020
5218 Clouds 21 1038 37 10000 5.1 60 18:23 25.11.2020
5219 Clouds 20 1039 40 10000 3.1 60 16:34 25.11.2020
5220 Clouds 17 1040 45 10000 2.59 116 15:36 25.11.2020
5221 Clouds 12 1041 54 10000 2.6 240 13:56 25.11.2020
5222 Clouds 12 1041 54 10000 2.6 240 13:37 25.11.2020
5223 Clouds 10 1017 57 10000 1.14 264 11:44 25.11.2020
5224 Clouds 9 1016 67 10000 0.83 251 11:18 25.11.2020
5225 Clouds 9 1016 65 10000 0.65 250 09:18 25.11.2020
5226 Clouds 9 1016 65 10000 0.65 250 08:40 25.11.2020
5227 Clouds 9 1019 63 10000 1.28 230 03:59 25.11.2020
5228 Clouds 7 1018 72 10000 2.21 356 01:52 25.11.2020
5229 Rain 9 1013 67 10000 4.56 303 00:22 25.11.2020
5230 Clouds 9 1013 67 10000 4.56 303 23:36 24.11.2020
5231 Clouds 11 1011 52 8626 2.16 299 22:58 24.11.2020
5232 Rain 11 1008 55 10000 2.16 97 21:51 24.11.2020
5233 Rain 13 1008 50 10000 3.47 95 21:29 24.11.2020
5234 Rain 17 1007 35 10000 6.28 73 20:20 24.11.2020
5235 Clouds 18 1009 28 10000 4.83 56 18:40 24.11.2020
5236 Clouds 21 1039 30 10000 4.1 60 17:30 24.11.2020
5237 Clouds 19 1040 34 10000 1.07 44 16:45 24.11.2020
5238 Clouds 19 1040 34 10000 0.76 5 16:27 24.11.2020
5239 Clouds 17 1041 39 10000 2.6 240 15:54 24.11.2020
5240 Clouds 15 1041 44 10000 1.5 230 15:18 24.11.2020
5241 Clouds 15 1041 44 10000 1.5 230 14:33 24.11.2020
5242 Clouds 12 1017 44 10000 1.35 271 12:45 24.11.2020
5243 Clouds 10 1017 53 10000 1.06 267 12:22 24.11.2020
5244 Clouds 10 1017 53 10000 1.06 267 11:39 24.11.2020
5245 Clouds 9 1017 63 10000 0.7 260 10:41 24.11.2020
5246 Clouds 8 1016 65 10000 0.78 287 10:22 24.11.2020
5247 Clouds 8 1016 65 10000 0.78 287 09:35 24.11.2020
5248 Clouds 9 1016 61 10000 1.72 313 07:57 24.11.2020
5249 Clouds 9 1017 63 10000 2.13 9 04:21 24.11.2020
5250 Clouds 10 1012 63 10000 5.46 355 22:34 23.11.2020
5251 Clouds 10 1010 58 10000 1.51 346 21:37 23.11.2020
5252 Clouds 14 1009 45 10000 3.09 34 20:54 23.11.2020
5253 Rain 16 1009 41 10000 6.17 72 20:27 23.11.2020
5254 Rain 17 1010 34 10000 5.46 58 19:32 23.11.2020
5255 Clouds 16 1039 44 10000 4.1 50 17:27 23.11.2020
5256 Clouds 16 1039 44 10000 4.1 50 16:37 23.11.2020
5257 Clear 13 1041 62 10000 1.38 2 14:49 23.11.2020
5258 Clear 11 1041 71 10000 1.27 348 13:43 23.11.2020
5259 Clouds 9 1020 60 10000 1.24 309 12:38 23.11.2020
5260 Clouds 8 1020 68 10000 1.13 304 11:50 23.11.2020
5261 Clouds 8 1020 68 10000 1.13 304 11:30 23.11.2020
5262 Clouds 6 1019 78 10000 0.8 308 09:46 23.11.2020
5263 Clouds 7 1018 77 10000 1.5 341 08:49 23.11.2020
5264 Clouds 7 1018 74 10000 2.49 335 07:40 23.11.2020
5265 Clouds 8 1019 72 10000 3.97 6 02:39 23.11.2020
5266 Clouds 9 1015 69 10000 4.5 40 23:43 22.11.2020
5267 Rain 11 1012 63 10000 4.84 60 22:19 22.11.2020
5268 Rain 11 1012 60 10000 4.49 61 21:24 22.11.2020
5269 Rain 13 1012 54 7477 4.24 68 20:19 22.11.2020
5270 Clouds 13 1014 47 10000 4.69 66 18:59 22.11.2020
5271 Clouds 14 1015 40 10000 5.02 62 18:19 22.11.2020
5272 Clouds 12 1018 42 10000 2.75 30 16:25 22.11.2020
5273 Clouds 11 1019 47 10000 2.43 18 15:25 22.11.2020
5274 Clouds 8 1020 61 10000 2.66 10 13:27 22.11.2020
5275 Clouds 8 1020 65 10000 2.72 18 12:43 22.11.2020
5276 Clouds 7 1020 71 10000 2.75 15 11:54 22.11.2020
5277 Clouds 6 1019 74 10000 2.78 17 10:51 22.11.2020
5278 Clouds 6 1019 74 10000 2.78 17 10:33 22.11.2020
5279 Clouds 6 1019 74 10000 2.78 17 10:33 22.11.2020
5280 Clouds 6 1019 74 10000 2.78 17 10:33 22.11.2020
5281 Clear 8 1018 72 10000 2.26 27 04:43 22.11.2020
5282 Clouds 10 1014 57 10000 3.78 33 00:49 22.11.2020
5283 Clouds 14 1009 36 10000 3.63 17 22:42 21.11.2020
5284 Clouds 14 1008 34 10000 2.35 39 21:32 21.11.2020
5285 Clouds 14 1008 34 10000 2.35 39 21:32 21.11.2020
5286 Clouds 15 1007 31 10000 3.9 63 20:53 21.11.2020
5287 Clouds 17 1008 25 10000 1.71 96 20:21 21.11.2020
5288 Clouds 17 1008 25 10000 1.71 96 19:49 21.11.2020
5289 Clouds 17 1009 21 10000 0.79 129 19:18 21.11.2020
5290 Clouds 16 1010 20 10000 0.24 224 17:54 21.11.2020
5291 Clouds 15 1012 21 10000 0.32 281 16:47 21.11.2020
5292 Clouds 13 1014 24 10000 1.16 295 15:43 21.11.2020
5293 Clouds 12 1015 27 10000 1.73 294 15:21 21.11.2020
5294 Clouds 12 1015 27 10000 1.73 294 14:42 21.11.2020
5295 Clouds 8 1017 44 10000 1.74 290 13:27 21.11.2020
5296 Clouds 6 1018 54 10000 1.13 282 12:24 21.11.2020
5297 Clouds 6 1018 54 10000 1.13 282 11:50 21.11.2020
5298 Clear 4 1016 70 10000 1.43 308 10:28 21.11.2020
5299 Clear 5 1016 69 10000 1.39 321 09:22 21.11.2020
5300 Clear 5 1016 69 10000 1.39 321 08:50 21.11.2020
5301 Clear 6 1016 70 10000 2.05 357 05:43 21.11.2020
5302 Clear 8 1017 62 10000 3.01 349 04:23 21.11.2020
5303 Clouds 11 1011 41 10000 1.15 331 00:23 21.11.2020
5304 Clouds 13 1009 33 10000 2.48 271 23:23 20.11.2020
5305 Clouds 16 1007 24 10000 4.35 265 21:47 20.11.2020
5306 Clouds 17 1007 21 10000 3.95 266 21:26 20.11.2020
5307 Clouds 17 1007 21 10000 3.95 266 21:26 20.11.2020
5308 Clouds 17 1007 21 10000 3.95 266 20:42 20.11.2020
5309 Clouds 17 1008 21 10000 3.14 250 19:37 20.11.2020
5310 Clouds 16 1011 19 10000 4.06 258 18:29 20.11.2020
5311 Clouds 16 1011 19 10000 4.06 258 17:34 20.11.2020
5312 Clouds 15 1013 20 10000 4.59 265 16:57 20.11.2020
5313 Clouds 15 1013 20 10000 4.59 265 16:37 20.11.2020
5314 Clouds 14 1014 21 10000 4.62 275 15:48 20.11.2020
5315 Clouds 7 1036 52 10000 4.1 240 14:30 20.11.2020
5316 Clouds 7 1036 52 10000 4.1 240 13:43 20.11.2020
5317 Clouds 9 1018 30 10000 3.23 276 12:59 20.11.2020
5318 Clouds 9 1018 30 10000 3.23 276 12:31 20.11.2020
5319 Clouds 6 1019 45 10000 2.33 289 11:39 20.11.2020
5320 Clouds 5 1018 62 10000 2.02 298 10:37 20.11.2020
5321 Clouds 5 1017 67 10000 1.68 279 08:36 20.11.2020
5322 Clouds 6 1016 70 10000 1.58 289 07:58 20.11.2020
5323 Clear 6 1018 73 10000 2.54 359 05:20 20.11.2020
5324 Clear 6 1017 71 10000 3.41 7 03:43 20.11.2020
5325 Clear 15 1009 26 10000 3.79 239 22:33 19.11.2020
5326 Clear 16 1008 21 10000 7.94 233 21:55 19.11.2020
5327 Clear 17 1007 19 10000 7.97 248 20:59 19.11.2020
5328 Clear 17 1007 19 10000 7.97 248 20:30 19.11.2020
5329 Clear 18 1008 19 10000 8.14 245 19:44 19.11.2020
5330 Clear 17 1010 19 10000 6.95 244 19:22 19.11.2020
5331 Clouds 17 1034 23 10000 3.1 220 17:38 19.11.2020
5332 Clouds 14 1034 30 10000 5.1 240 16:47 19.11.2020
5333 Clear 13 1036 32 10000 4.1 240 15:31 19.11.2020
5334 Clear 8 1036 52 10000 1.5 240 13:59 19.11.2020
5335 Clear 8 1036 52 10000 1.5 240 13:39 19.11.2020
5336 Clear 8 1019 49 10000 2.46 324 12:57 19.11.2020
5337 Clear 8 1019 49 10000 2.32 323 12:34 19.11.2020
5338 Clear 6 1019 64 10000 2.01 333 11:42 19.11.2020
5339 Clear 4 1018 78 10000 1.46 345 11:22 19.11.2020
5340 Clear 4 1018 78 10000 1.46 345 11:22 19.11.2020
5341 Clear 4 1018 78 10000 1.46 345 10:51 19.11.2020
5342 Clear 4 1017 79 10000 1.37 358 09:54 19.11.2020
5343 Clear 4 1017 79 10000 1.37 358 09:36 19.11.2020
5344 Clear 5 1016 80 10000 1.24 4 09:18 19.11.2020
5345 Clear 5 1016 76 10000 2.02 8 07:59 19.11.2020
5346 Clear 11 1013 33 10000 3.89 230 01:50 19.11.2020
5347 Clear 12 1011 28 10000 6.95 236 00:33 19.11.2020
5348 Clear 14 1009 25 10000 7.12 241 23:47 18.11.2020
5349 Clear 16 1006 20 10000 8.39 266 23:24 18.11.2020
5350 Clear 16 1006 20 10000 8.39 266 22:30 18.11.2020
5351 Clear 16 1006 20 10000 8.39 266 22:30 18.11.2020
5352 Clear 17 1004 19 10000 9.4 271 21:45 18.11.2020
5353 Clear 18 1003 18 10000 10.61 267 21:26 18.11.2020
5354 Clear 18 1003 18 10000 10.61 267 20:40 18.11.2020
5355 Clear 18 1004 18 10000 10.49 273 19:44 18.11.2020
5356 Clear 18 1005 19 10000 10.91 273 19:24 18.11.2020
5357 Clear 18 1005 19 10000 10.91 273 18:48 18.11.2020
5358 Clear 17 1031 23 10000 4.1 230 17:52 18.11.2020
5359 Clear 15 1032 33 10000 2.6 230 16:58 18.11.2020
5360 Clear 13 1033 43 10000 7.85 283 16:21 18.11.2020
5361 Clear 11 1034 62 10000 4.21 311 14:43 18.11.2020
5362 Clear 11 1034 62 10000 3.18 324 14:25 18.11.2020
5363 Clear 9 1034 81 10000 2.41 328 13:29 18.11.2020
5364 Clear 9 1015 34 10000 2.4 337 12:44 18.11.2020
5365 Clear 7 1015 40 10000 1.73 331 11:57 18.11.2020
5366 Clear 5 1015 55 10000 1.34 325 11:22 18.11.2020
5367 Clear 5 1015 55 10000 1.34 325 10:30 18.11.2020
5368 Clear 5 1013 53 10000 1.2 280 08:43 18.11.2020
5369 Clear 6 1013 47 10000 1.65 261 07:29 18.11.2020
5370 Clear 8 1014 41 10000 2.37 239 04:47 18.11.2020
5371 Clear 14 1007 25 10000 8.27 247 00:22 18.11.2020
5372 Clear 14 1007 25 10000 8.27 247 23:30 17.11.2020
5373 Clear 17 1004 20 10000 10.66 261 22:45 17.11.2020
5374 Clear 18 1002 18 10000 10.48 266 22:27 17.11.2020
5375 Clear 18 1002 18 10000 10.48 266 21:48 17.11.2020
5376 Clear 19 1002 18 10000 10.75 280 21:28 17.11.2020
5377 Clear 19 1002 18 10000 10.75 280 20:43 17.11.2020
5378 Clear 19 1003 19 10000 11 279 20:23 17.11.2020
5379 Clear 19 1003 19 10000 11 279 19:44 17.11.2020
5380 Clouds 16 1032 31 10000 2.6 360 18:23 17.11.2020
5381 Clouds 16 1032 31 10000 2.6 360 17:31 17.11.2020
5382 Clouds 15 1033 38 10000 3.6 30 16:37 17.11.2020
5383 Clouds 14 1034 54 10000 3.1 60 15:58 17.11.2020
5384 Clouds 14 1034 54 10000 3.1 60 15:38 17.11.2020
5385 Clear 11 1034 66 10000 4.47 291 15:20 17.11.2020
5386 Clear 11 1034 66 10000 4.47 291 14:30 17.11.2020
5387 Clear 9 1034 81 10000 1.5 70 13:45 17.11.2020
5388 Clouds 10 1014 34 10000 2.48 331 13:21 17.11.2020
5389 Clear 10 1014 33 10000 2.53 325 12:42 17.11.2020
5390 Clear 9 1015 39 10000 1.64 310 11:45 17.11.2020
5391 Clear 6 1014 53 10000 1.28 289 11:21 17.11.2020
5392 Clear 6 1014 53 10000 1.28 289 10:39 17.11.2020
5393 Clear 6 1013 56 10000 1.66 300 09:53 17.11.2020
5394 Clear 6 1013 56 10000 1.66 300 09:34 17.11.2020
5395 Clear 8 1013 63 10000 1.7 315 08:26 17.11.2020
5396 Clear 8 1013 63 10000 1.7 315 07:57 17.11.2020
5397 Clear 9 1013 65 10000 2.05 328 07:28 17.11.2020
5398 Clear 10 1014 57 10000 2.64 357 04:30 17.11.2020
5399 Clear 11 1014 44 10000 1.47 354 03:22 17.11.2020
5400 Clear 12 1012 43 10000 1.45 33 02:29 17.11.2020
5401 Clear 12 1010 39 10000 1.06 12 00:56 17.11.2020
5402 Clear 15 1008 28 10000 4.31 257 23:53 16.11.2020
5403 Clear 15 1008 28 10000 4.31 257 23:31 16.11.2020
5404 Clear 17 1006 22 10000 6.87 266 22:55 16.11.2020
5405 Clear 18 1005 21 10000 7.4 273 22:23 16.11.2020
5406 Clear 18 1005 21 10000 7.4 273 21:56 16.11.2020
5407 Clear 18 1005 21 10000 7.4 273 21:37 16.11.2020
5408 Clear 19 1005 21 10000 7.62 285 21:18 16.11.2020
5409 Clear 19 1006 23 10000 6.38 294 20:26 16.11.2020
5410 Clear 19 1006 23 10000 6.38 294 19:51 16.11.2020
5411 Clear 19 1007 21 10000 5.47 296 19:29 16.11.2020
5412 Clear 19 1007 21 10000 6.52 295 18:50 16.11.2020
5413 Clouds 17 1035 33 10000 3.6 50 18:18 16.11.2020
5414 Clouds 17 1035 33 10000 3.6 50 17:28 16.11.2020
5415 Clouds 15 1036 38 10000 2.1 60 16:57 16.11.2020
5416 Clouds 15 1036 38 10000 2.1 60 16:39 16.11.2020
5417 Clouds 14 1037 41 10000 1.5 50 16:20 16.11.2020
5418 Clouds 14 1037 41 10000 1.5 50 15:43 16.11.2020
5419 Clear 12 1036 46 10000 3.17 321 15:25 16.11.2020
5420 Clear 12 1036 46 10000 3.17 321 14:47 16.11.2020
5421 Clear 10 1036 53 10000 2.56 324 13:44 16.11.2020
5422 Clear 10 1016 47 10000 1.97 318 12:51 16.11.2020
5423 Clear 8 1016 54 10000 1.39 306 12:28 16.11.2020
5424 Clear 8 1016 54 10000 1.39 306 11:39 16.11.2020
5425 Clear 7 1015 75 10000 1.25 318 11:21 16.11.2020
5426 Clear 7 1015 75 10000 1.25 318 10:44 16.11.2020
5427 Clear 7 1014 78 10000 1.3 322 10:25 16.11.2020
5428 Clear 7 1014 78 10000 1.3 322 09:46 16.11.2020
5429 Clear 8 1014 76 10000 1.23 327 09:23 16.11.2020
5430 Clear 8 1014 76 10000 1.23 327 08:41 16.11.2020
5431 Clear 8 1013 73 10000 0.96 315 07:48 16.11.2020
5432 Clear 8 1014 69 10000 1.16 314 06:53 16.11.2020
5433 Clear 9 1014 65 10000 0.81 346 06:29 16.11.2020
5434 Clear 9 1014 66 10000 0.98 320 04:53 16.11.2020
5435 Clear 10 1015 65 10000 1.61 346 03:52 16.11.2020
5436 Clear 10 1013 59 10000 2.66 359 01:44 16.11.2020
5437 Rain 12 1010 50 10000 4.32 9 00:20 16.11.2020
5438 Rain 14 1007 40 10000 4.36 8 23:28 15.11.2020
5439 Clouds 14 1007 40 10000 4.36 8 22:54 15.11.2020
5440 Rain 15 1005 36 10000 5.06 2 22:22 15.11.2020
5441 Clouds 15 1005 36 10000 5.06 2 21:47 15.11.2020
5442 Rain 16 1005 33 10000 4.49 345 21:27 15.11.2020
5443 Clouds 16 1005 33 10000 4.49 345 20:48 15.11.2020
5444 Clouds 17 1006 30 10000 5.79 351 20:28 15.11.2020
5445 Clouds 17 1006 30 10000 5.79 351 19:54 15.11.2020
5446 Clouds 17 1006 30 10000 5.79 351 19:36 15.11.2020
5447 Clear 18 1007 27 10000 5.55 0 19:18 15.11.2020
5448 Clouds 18 1007 26 10000 6.18 359 18:41 15.11.2020
5449 Clear 18 1009 25 10000 4.49 342 18:23 15.11.2020
5450 Clear 18 1009 25 10000 4.49 342 17:47 15.11.2020
5451 Clear 17 1011 27 10000 3.75 345 17:25 15.11.2020
5452 Clear 17 1011 27 10000 3.75 345 16:52 15.11.2020
5453 Clear 15 1012 30 10000 3.44 343 16:23 15.11.2020
5454 Clear 15 1012 30 10000 3.44 343 15:57 15.11.2020
5455 Clear 15 1012 30 10000 3.44 343 15:39 15.11.2020
5456 Clear 14 1013 32 10000 3 340 15:20 15.11.2020
5457 Clear 14 1013 32 10000 3 340 14:41 15.11.2020
5458 Clear 13 1014 36 10000 2.67 342 14:21 15.11.2020
5459 Clear 13 1014 36 10000 2.67 342 13:40 15.11.2020
5460 Clear 12 1015 41 10000 1.78 346 12:53 15.11.2020
5461 Clear 11 1015 44 10000 0.04 14 12:29 15.11.2020
5462 Clear 11 1015 44 10000 0.04 14 11:58 15.11.2020
5463 Clear 11 1015 44 10000 0.04 14 11:40 15.11.2020
5464 Clear 8 1014 55 10000 0.62 173 11:18 15.11.2020
5465 Clear 8 1014 55 10000 0.62 173 10:49 15.11.2020
5466 Clear 8 1013 55 10000 1.18 210 10:29 15.11.2020
5467 Clear 8 1013 55 10000 1.18 210 09:45 15.11.2020
5468 Clear 9 1012 58 10000 1.09 253 09:22 15.11.2020
5469 Clear 9 1012 58 10000 1.09 253 08:54 15.11.2020
5470 Clear 9 1012 58 10000 1.09 253 08:31 15.11.2020
5471 Clear 9 1011 58 10000 1.63 292 07:43 15.11.2020
5472 Clear 10 1011 56 10000 1.3 344 05:30 15.11.2020
5473 Clear 11 1011 56 10000 1.21 334 04:50 15.11.2020
5474 Clouds 13 1007 39 10000 2.27 350 00:56 15.11.2020
5475 Clouds 14 1006 35 10000 2.68 328 00:29 15.11.2020
5476 Clouds 14 1006 35 10000 2.68 328 23:39 14.11.2020
5477 Clouds 15 1004 31 10000 2.31 360 22:51 14.11.2020
5478 Clouds 15 1004 31 10000 2.31 360 22:32 14.11.2020
5479 Clouds 16 1003 27 10000 2.11 10 21:45 14.11.2020
5480 Clouds 17 1003 25 10000 2.95 109 21:23 14.11.2020
5481 Clouds 17 1003 25 10000 2.95 109 20:59 14.11.2020
5482 Clouds 17 1003 25 10000 2.95 109 20:34 14.11.2020
5483 Clear 18 1004 21 10000 2.31 159 19:58 14.11.2020
5484 Clear 18 1004 21 10000 2.31 159 19:36 14.11.2020
5485 Clear 18 1004 21 10000 2.31 159 19:36 14.11.2020
5486 Clear 18 1005 20 10000 2.14 214 18:55 14.11.2020
5487 Clear 18 1005 19 10000 2.3 214 18:37 14.11.2020
5488 Clear 17 1007 20 10000 1.69 233 18:19 14.11.2020
5489 Clear 17 1007 20 10000 1.69 233 17:42 14.11.2020
5490 Clear 16 1009 21 10000 1.33 254 17:23 14.11.2020
5491 Clear 16 1009 21 10000 1.33 254 16:51 14.11.2020
5492 Clear 15 1010 24 10000 1.31 276 16:26 14.11.2020
5493 Clear 15 1010 24 10000 1.31 276 15:53 14.11.2020
5494 Clear 15 1010 24 10000 1.31 276 15:53 14.11.2020
5495 Clear 15 1010 24 10000 1.31 276 15:30 14.11.2020
5496 Clear 13 1012 29 10000 1.76 288 14:54 14.11.2020
5497 Clear 12 1013 35 10000 2.09 285 14:29 14.11.2020
5498 Clear 12 1013 35 10000 2.09 285 13:51 14.11.2020
5499 Clear 10 1014 42 10000 2.1 284 13:29 14.11.2020
5500 Clear 10 1014 41 10000 2.05 281 12:49 14.11.2020
5501 Clear 10 1014 41 10000 2.05 281 12:30 14.11.2020
5502 Clear 8 1015 51 10000 1.91 283 11:55 14.11.2020
5503 Clear 8 1015 51 10000 1.91 283 11:36 14.11.2020
5504 Clear 7 1014 61 10000 1.6 284 10:59 14.11.2020
5505 Clear 7 1014 61 10000 1.6 284 10:38 14.11.2020
5506 Clear 7 1014 62 10000 1.47 276 10:19 14.11.2020
5507 Clear 7 1014 62 10000 1.47 276 09:43 14.11.2020
5508 Clear 7 1013 64 10000 1.37 285 09:23 14.11.2020
5509 Clear 7 1013 64 10000 1.37 285 08:40 14.11.2020
5510 Clear 7 1013 66 10000 1.19 326 08:21 14.11.2020
5511 Clear 7 1013 66 10000 1.19 326 07:41 14.11.2020
5512 Clear 8 1013 63 10000 1.68 347 06:51 14.11.2020
5513 Clear 8 1013 61 10000 2.15 350 06:20 14.11.2020
5514 Clear 9 1014 57 10000 2.36 354 04:53 14.11.2020
5515 Clear 11 1012 45 10000 3.46 6 01:59 14.11.2020
5516 Clear 12 1009 43 10000 1.85 31 00:25 14.11.2020
5517 Clear 12 1009 43 10000 1.85 31 23:35 13.11.2020
5518 Clear 12 1008 41 10000 3.46 65 22:59 13.11.2020
5519 Clear 12 1008 41 10000 3.46 65 22:41 13.11.2020
5520 Clear 14 1007 34 10000 3.38 53 22:21 13.11.2020
5521 Clear 14 1007 34 10000 3.38 53 21:49 13.11.2020
5522 Clear 16 1007 25 10000 0.17 301 21:27 13.11.2020
5523 Clear 16 1007 25 10000 0.17 301 20:51 13.11.2020
5524 Clear 16 1007 25 10000 0.17 301 20:32 13.11.2020
5525 Clear 16 1008 23 10000 0.35 348 19:56 13.11.2020
5526 Clear 16 1008 23 10000 0.35 348 19:37 13.11.2020
5527 Clear 15 1010 24 10000 0.84 353 19:19 13.11.2020
5528 Clear 15 1010 25 10000 0.44 7 18:32 13.11.2020
5529 Clear 14 1012 29 10000 0.99 327 17:47 13.11.2020
5530 Clear 13 1013 32 10000 1.51 319 17:23 13.11.2020
5531 Clear 13 1013 32 10000 1.51 319 16:57 13.11.2020
5532 Clouds 14 1037 50 10000 3.6 60 16:39 13.11.2020
5533 Clouds 14 1037 50 10000 3.6 60 16:20 13.11.2020
5534 Clouds 14 1037 50 10000 3.6 60 15:39 13.11.2020
5535 Clouds 14 1037 50 10000 3.6 60 15:39 13.11.2020
5536 Clouds 14 1037 50 10000 3.6 60 15:39 13.11.2020
5537 Clear 11 1016 39 10000 1.23 326 15:21 13.11.2020
5538 Clouds 10 1036 71 10000 1.23 326 14:38 13.11.2020
5539 Clouds 10 1036 71 10000 0.9 293 14:18 13.11.2020
5540 Clouds 10 1036 71 10000 0.9 293 13:32 13.11.2020
5541 Clear 8 1018 52 10000 1.21 255 12:59 13.11.2020
5542 Clear 9 1018 49 10000 1.22 257 12:41 13.11.2020
5543 Clear 7 1018 61 10000 1.21 226 12:23 13.11.2020
5544 Clear 7 1018 61 10000 1.21 226 11:47 13.11.2020
5545 Clear 6 1017 78 10000 0.85 212 11:23 13.11.2020
5546 Clear 6 1017 78 10000 0.85 212 10:52 13.11.2020
5547 Clear 6 1017 78 10000 0.85 212 10:33 13.11.2020
5548 Clear 6 1016 81 10000 0.46 248 09:53 13.11.2020
5549 Clear 6 1016 81 10000 0.46 248 09:32 13.11.2020
5550 Clear 6 1016 79 10000 0.64 325 08:54 13.11.2020
5551 Clear 6 1016 79 10000 0.64 325 08:30 13.11.2020
5552 Clear 6 1015 78 10000 1.17 5 07:51 13.11.2020
5553 Clouds 7 1015 76 10000 1.92 5 07:29 13.11.2020
5554 Clouds 7 1015 76 10000 1.92 5 06:57 13.11.2020
5555 Clear 7 1016 75 10000 1.67 343 06:37 13.11.2020
5556 Clear 7 1016 74 10000 2.09 353 05:42 13.11.2020
5557 Clear 8 1016 66 10000 2.45 10 04:20 13.11.2020
5558 Clouds 10 1014 49 10000 2.64 44 01:43 13.11.2020
5559 Clear 11 1013 42 10000 0.58 103 00:37 13.11.2020
5560 Clear 13 1011 35 10000 1.84 275 23:55 12.11.2020
5561 Clear 15 1009 27 10000 4.94 246 23:22 12.11.2020
5562 Clear 15 1009 27 10000 4.94 246 22:56 12.11.2020
5563 Clear 15 1009 27 10000 4.94 246 22:38 12.11.2020
5564 Clear 16 1008 23 10000 5.29 243 21:59 12.11.2020
5565 Clear 16 1008 23 10000 5.29 243 21:41 12.11.2020
5566 Clear 16 1008 23 10000 5.17 238 21:22 12.11.2020
5567 Clear 16 1008 23 10000 5.17 238 20:42 12.11.2020
5568 Clear 17 1008 22 10000 5.88 245 20:24 12.11.2020
5569 Clear 17 1008 22 10000 5.88 245 19:57 12.11.2020
5570 Clear 17 1008 22 10000 5.88 245 19:39 12.11.2020
5571 Clouds 17 1010 22 10000 6.6 260 19:21 12.11.2020
5572 Clouds 17 1010 22 10000 6.6 260 18:45 12.11.2020
5573 Clouds 16 1036 41 10000 5.1 70 18:20 12.11.2020
5574 Clouds 16 1036 41 10000 5.1 70 17:43 12.11.2020
5575 Clouds 15 1037 44 10000 3.1 70 17:24 12.11.2020
5576 Clouds 15 1037 44 10000 3.1 70 16:46 12.11.2020
5577 Clouds 15 1037 44 10000 3.1 70 16:24 12.11.2020
5578 Clouds 12 1038 54 10000 2.1 60 15:54 12.11.2020
5579 Clouds 12 1038 54 10000 2.1 60 15:31 12.11.2020
5580 Clouds 10 1038 66 10000 2.08 338 14:57 12.11.2020
5581 Clouds 10 1038 66 10000 2.08 338 14:38 12.11.2020
5582 Clouds 10 1018 49 10000 1.39 332 14:20 12.11.2020
5583 Clouds 10 1018 49 10000 1.39 332 13:45 12.11.2020
5584 Clouds 8 1018 64 10000 1.13 326 13:21 12.11.2020
5585 Clouds 8 1018 64 10000 1.13 326 12:49 12.11.2020
5586 Clouds 7 1018 77 10000 1.25 333 12:26 12.11.2020
5587 Clouds 7 1018 77 10000 1.25 333 11:58 12.11.2020
5588 Clouds 7 1018 77 10000 1.25 333 11:40 12.11.2020
5589 Clouds 6 1017 82 10000 1.52 357 10:58 12.11.2020
5590 Clouds 6 1017 82 10000 1.52 357 10:38 12.11.2020
5591 Clouds 6 1016 80 10000 1.72 8 10:19 12.11.2020
5592 Clouds 6 1016 80 10000 1.72 8 09:40 12.11.2020
5593 Clouds 7 1016 77 10000 1.52 23 09:18 12.11.2020
5594 Clouds 7 1016 77 10000 1.52 23 08:40 12.11.2020
5595 Clouds 7 1016 77 10000 1.52 23 08:40 12.11.2020
5596 Clouds 7 1015 75 10000 1.51 41 08:21 12.11.2020
5597 Clouds 7 1015 75 10000 1.51 41 07:56 12.11.2020
5598 Clouds 7 1015 75 10000 1.51 41 07:37 12.11.2020
5599 Clouds 8 1015 72 10000 2.36 32 06:54 12.11.2020
5600 Clouds 7 1016 73 10000 2.63 30 06:27 12.11.2020
5601 Clear 9 1016 66 10000 2.33 51 03:51 12.11.2020
5602 Clear 9 1015 60 10000 2.88 46 03:20 12.11.2020
5603 Clouds 11 1012 48 10000 2.63 52 00:49 12.11.2020
5604 Clouds 12 1010 41 10000 1.97 22 23:47 11.11.2020
5605 Clouds 13 1009 38 10000 1.9 27 23:25 11.11.2020
5606 Clouds 13 1009 38 10000 1.9 27 22:57 11.11.2020
5607 Clouds 13 1009 38 10000 1.9 27 22:38 11.11.2020
5608 Rain 13 1008 39 10000 2.21 61 22:18 11.11.2020
5609 Clouds 13 1008 39 10000 2.21 61 21:41 11.11.2020
5610 Rain 14 1008 36 10000 3.4 65 21:23 11.11.2020
5611 Clear 14 1008 36 10000 3.4 65 20:55 11.11.2020
5612 Clear 14 1008 36 10000 3.4 65 20:37 11.11.2020
5613 Clear 16 1009 27 10000 0.31 51 20:18 11.11.2020
5614 Clear 16 1009 27 10000 0.31 51 19:46 11.11.2020
5615 Clouds 16 1010 25 10000 1.63 299 19:28 11.11.2020
5616 Clouds 16 1010 25 10000 1.63 299 18:48 11.11.2020
5617 Clouds 17 1035 36 10000 3.1 60 18:28 11.11.2020
5618 Clouds 17 1035 36 10000 3.1 60 17:41 11.11.2020
5619 Clouds 15 1035 44 10000 4.1 50 17:22 11.11.2020
5620 Clouds 15 1035 44 10000 4.1 50 16:49 11.11.2020
5621 Clouds 15 1035 44 10000 4.1 50 16:31 11.11.2020
5622 Clouds 14 1037 47 10000 2.6 50 15:50 11.11.2020
5623 Clouds 14 1037 47 10000 2.6 50 15:27 11.11.2020
5624 Clouds 12 1036 58 10000 1.89 332 14:56 11.11.2020
5625 Clouds 12 1036 58 10000 1.89 332 14:35 11.11.2020
5626 Clouds 9 1036 70 8000 1.7 310 13:57 11.11.2020
5627 Clouds 9 1036 70 8000 1.7 310 13:35 11.11.2020
5628 Clouds 9 1017 52 10000 1.18 295 12:48 11.11.2020
5629 Clouds 7 1017 64 10000 1.08 287 12:21 11.11.2020
5630 Clouds 7 1017 64 10000 1.08 287 11:49 11.11.2020
5631 Clouds 7 1017 64 10000 1.08 287 11:30 11.11.2020
5632 Clouds 7 1017 64 10000 1.08 287 11:30 11.11.2020
5633 Clouds 6 1017 77 10000 0.95 294 10:43 11.11.2020
5634 Clouds 6 1016 79 10000 1.1 305 10:24 11.11.2020
5635 Clouds 6 1016 79 10000 1.1 305 09:49 11.11.2020
5636 Clear 6 1016 79 10000 1.36 316 09:28 11.11.2020
5637 Clear 6 1016 79 10000 1.36 316 08:49 11.11.2020
5638 Clear 6 1015 76 10000 1.51 331 08:29 11.11.2020
5639 Clear 6 1015 76 10000 1.51 331 07:54 11.11.2020
5640 Clear 6 1015 76 10000 1.51 331 07:36 11.11.2020
5641 Clear 7 1015 72 10000 2.14 345 06:29 11.11.2020
5642 Clear 8 1015 70 10000 2.41 348 04:47 11.11.2020
5643 Clear 10 1014 50 10000 2.72 55 01:33 11.11.2020
5644 Clouds 12 1012 41 10000 2.17 150 00:54 11.11.2020
5645 Clear 13 1009 35 10000 2.89 227 23:57 10.11.2020
5646 Clear 15 1008 25 10000 6.41 251 23:25 10.11.2020
5647 Clear 15 1008 25 10000 6.41 251 22:58 10.11.2020
5648 Clear 15 1008 25 10000 6.41 251 22:37 10.11.2020
5649 Clear 16 1007 23 10000 6.75 260 22:19 10.11.2020
5650 Clear 16 1007 23 10000 6.75 260 22:19 10.11.2020
5651 Clear 16 1007 23 10000 6.75 260 21:40 10.11.2020
5652 Clear 17 1007 22 10000 6.4 267 21:21 10.11.2020
5653 Clear 17 1007 22 10000 6.4 267 20:43 10.11.2020
5654 Clear 17 1008 22 10000 6.58 278 20:23 10.11.2020
5655 Clear 17 1008 22 10000 6.58 278 19:57 10.11.2020
5656 Clear 17 1008 22 10000 6.58 278 19:39 10.11.2020
5657 Clear 17 1009 23 10000 6.61 284 19:20 10.11.2020
5658 Clear 17 1009 23 10000 6.61 284 18:41 10.11.2020
5659 Clear 16 1035 29 10000 6.25 286 18:21 10.11.2020
5660 Clear 16 1035 29 10000 6.25 286 17:47 10.11.2020
5661 Clear 16 1035 29 10000 5.13 281 17:28 10.11.2020
5662 Clear 15 1036 33 10000 5.13 281 16:58 10.11.2020
5663 Clear 15 1036 33 10000 5.13 281 16:40 10.11.2020
5664 Clear 14 1037 35 10000 2.6 240 16:22 10.11.2020
5665 Clear 14 1037 35 10000 2.6 240 15:48 10.11.2020
5666 Clear 14 1037 35 10000 2.6 240 15:27 10.11.2020
5667 Clear 12 1037 30 10000 3.1 230 14:47 10.11.2020
5668 Clear 12 1037 35 10000 3.1 230 14:24 10.11.2020
5669 Clear 9 1037 57 10000 2.1 230 14:00 10.11.2020
5670 Clear 9 1037 57 10000 2.1 230 13:38 10.11.2020
5671 Clear 9 1016 41 10000 2.95 268 13:19 10.11.2020
5672 Clear 9 1016 41 10000 2.95 268 12:45 10.11.2020
5673 Clear 7 1017 58 10000 1.92 281 12:24 10.11.2020
5674 Clear 7 1017 58 10000 1.92 281 11:43 10.11.2020
5675 Clear 6 1017 77 10000 1.39 276 11:21 10.11.2020
5676 Clear 6 1017 77 10000 1.39 276 11:21 10.11.2020
5677 Clear 6 1017 77 10000 1.39 276 10:56 10.11.2020
5678 Clear 6 1017 77 10000 1.39 276 10:37 10.11.2020
5679 Clear 6 1016 79 10000 1.23 297 10:19 10.11.2020
5680 Clear 6 1016 79 10000 1.23 297 09:42 10.11.2020
5681 Clear 6 1016 77 10000 1.59 314 09:24 10.11.2020
5682 Clear 6 1016 77 10000 1.59 314 09:24 10.11.2020
5683 Clear 6 1016 77 10000 1.59 314 08:52 10.11.2020
5684 Clear 6 1016 76 10000 1.16 313 08:26 10.11.2020
5685 Clear 6 1016 76 10000 1.16 313 07:44 10.11.2020
5686 Clouds 6 1016 76 10000 1.1 309 07:22 10.11.2020
5687 Clouds 6 1016 77 10000 1.34 326 06:40 10.11.2020
5688 Clouds 7 1016 77 10000 1.46 325 05:42 10.11.2020
5689 Clouds 7 1016 78 10000 1.85 334 04:54 10.11.2020
5690 Clouds 8 1015 73 10000 3.49 32 02:28 10.11.2020
5691 Rain 9 1013 64 10000 3.41 49 01:29 10.11.2020
5692 Clouds 9 1011 66 10000 4.31 61 23:54 09.11.2020
5693 Clouds 9 1011 66 10000 4.31 61 23:30 09.11.2020
5694 Clouds 10 1010 59 10000 4.24 67 22:47 09.11.2020
5695 Rain 12 1008 48 10000 2.2 50 22:24 09.11.2020
5696 Clouds 12 1008 48 10000 2.2 50 21:54 09.11.2020
5697 Clouds 12 1008 48 10000 2.2 50 21:36 09.11.2020
5698 Rain 13 1008 46 10000 3.56 53 21:18 09.11.2020
5699 Clouds 13 1008 46 10000 3.56 53 20:37 09.11.2020
5700 Rain 12 1008 49 10000 3.73 71 20:18 09.11.2020
5701 Clouds 12 1008 49 10000 3.73 71 19:41 09.11.2020
5702 Rain 12 1009 51 10000 3.01 11 19:21 09.11.2020
5703 Clouds 12 1009 46 10000 2.58 27 18:42 09.11.2020
5704 Clouds 15 1037 47 7000 3.6 60 18:20 09.11.2020
5705 Clouds 15 1037 47 7000 3.6 60 17:53 09.11.2020
5706 Clouds 15 1037 47 7000 3.6 60 17:53 09.11.2020
5707 Clouds 15 1037 47 7000 3.6 60 17:33 09.11.2020
5708 Clouds 16 1038 41 8000 2.35 357 16:48 09.11.2020
5709 Clouds 16 1038 41 8000 2.35 357 16:30 09.11.2020
5710 Clouds 14 1038 47 8000 2.21 345 15:58 09.11.2020
5711 Clouds 14 1038 47 8000 2.21 345 15:40 09.11.2020
5712 Clear 12 1039 58 8000 2.6 50 15:20 09.11.2020
5713 Clear 12 1039 58 8000 2.6 50 14:41 09.11.2020
5714 Rain 12 1039 58 8000 2.6 50 14:23 09.11.2020
5715 Clear 10 1039 71 8000 1.71 294 13:46 09.11.2020
5716 Rain 9 1017 54 10000 1.64 290 13:20 09.11.2020
5717 Rain 9 1017 54 10000 1.64 290 13:20 09.11.2020
5718 Clouds 9 1017 55 10000 1.56 322 12:47 09.11.2020
5719 Rain 8 1018 61 10000 1.28 346 12:25 09.11.2020
5720 Clouds 8 1018 61 10000 1.28 346 11:57 09.11.2020
5721 Clouds 8 1018 61 10000 1.28 346 11:37 09.11.2020
5722 Rain 7 1018 71 10000 0.84 333 11:19 09.11.2020
5723 Clouds 7 1018 71 10000 0.84 333 10:42 09.11.2020
5724 Clouds 7 1017 70 10000 0.4 335 10:23 09.11.2020
5725 Clouds 7 1017 70 10000 0.4 335 09:45 09.11.2020
5726 Clouds 7 1017 69 10000 0.57 299 09:23 09.11.2020
5727 Clouds 7 1017 69 10000 0.57 299 08:39 09.11.2020
5728 Clouds 8 1016 66 10000 0.69 309 08:19 09.11.2020
5729 Clouds 8 1016 66 10000 0.69 309 07:40 09.11.2020
5730 Clouds 8 1016 65 10000 0.6 302 07:19 09.11.2020
5731 Clouds 8 1016 64 10000 1.11 289 06:31 09.11.2020
5732 Clouds 9 1016 58 10000 3.21 347 03:22 09.11.2020
5733 Clouds 8 1015 62 10000 2.78 325 01:43 09.11.2020
5734 Clouds 9 1014 61 10000 2.64 24 00:59 09.11.2020
5735 Clouds 8 1012 64 10000 3.46 18 23:53 08.11.2020
5736 Rain 8 1011 69 10000 5.11 25 23:30 08.11.2020
5737 Clouds 8 1011 69 10000 5.11 25 22:55 08.11.2020
5738 Clouds 8 1011 69 10000 5.11 25 22:36 08.11.2020
5739 Rain 9 1010 66 10000 6.54 10 22:18 08.11.2020
5740 Clouds 9 1010 66 10000 6.54 10 21:38 08.11.2020
5741 Rain 8 1010 71 10000 4.78 52 21:19 08.11.2020
5742 Clouds 8 1010 71 10000 4.78 52 20:39 08.11.2020
5743 Rain 10 1011 61 5998 4.88 24 20:21 08.11.2020
5744 Clouds 10 1011 61 5998 4.88 24 19:57 08.11.2020
5745 Clouds 10 1011 61 5998 4.88 24 19:39 08.11.2020
5746 Rain 12 1012 48 3944 2.8 1 19:20 08.11.2020
5747 Clouds 12 1012 47 3220 2.39 8 18:47 08.11.2020
5748 Rain 14 1014 39 10000 3.77 7 18:22 08.11.2020
5749 Clear 14 1014 39 10000 3.77 7 17:57 08.11.2020
5750 Clear 14 1014 39 10000 3.77 7 17:38 08.11.2020
5751 Rain 13 1015 42 10000 3.45 359 17:19 08.11.2020
5752 Clear 13 1015 42 10000 3.45 359 16:48 08.11.2020
5753 Rain 11 1017 48 10000 2.96 346 16:21 08.11.2020
5754 Clear 11 1017 48 10000 2.96 346 15:57 08.11.2020
5755 Clear 11 1017 48 10000 2.96 346 15:38 08.11.2020
5756 Clear 10 1019 53 10000 2.97 340 15:20 08.11.2020
5757 Clear 10 1019 53 10000 2.97 340 14:40 08.11.2020
5758 Clear 8 1020 60 10000 3.05 341 14:21 08.11.2020
5759 Clear 8 1020 60 10000 3.05 341 13:46 08.11.2020
5760 Clear 7 1021 69 10000 3.08 342 13:23 08.11.2020
5761 Clear 7 1021 69 10000 3.08 342 13:23 08.11.2020
5762 Clear 7 1021 69 10000 3.08 342 12:44 08.11.2020
5763 Clouds 6 1022 71 10000 2.19 352 12:25 08.11.2020
5764 Clouds 6 1022 71 10000 2.19 352 11:58 08.11.2020
5765 Clouds 6 1022 71 10000 2.19 352 11:39 08.11.2020
5766 Clouds 5 1022 81 10000 1.52 347 11:20 08.11.2020
5767 Clouds 5 1022 81 10000 1.52 347 10:50 08.11.2020
5768 Clouds 5 1021 80 10000 0.81 336 10:19 08.11.2020
5769 Clouds 5 1021 80 10000 0.81 336 09:55 08.11.2020
5770 Clouds 5 1021 80 10000 0.81 336 09:37 08.11.2020
5771 Clouds 5 1021 81 10000 0.82 321 09:18 08.11.2020
5772 Clouds 5 1021 81 10000 0.82 321 08:39 08.11.2020
5773 Clouds 5 1020 81 10000 2.1 340 08:18 08.11.2020
5774 Clouds 5 1020 81 10000 2.1 340 07:52 08.11.2020
5775 Clouds 5 1021 78 10000 2.51 8 07:24 08.11.2020
5776 Clouds 6 1021 76 10000 2.16 16 06:22 08.11.2020
5777 Clouds 6 1021 76 10000 2.16 16 05:52 08.11.2020
5778 Clouds 6 1022 74 10000 2 13 04:31 08.11.2020
5779 Clouds 7 1021 74 10000 6.42 40 01:53 08.11.2020
5780 Clouds 8 1019 70 10000 8.65 38 01:19 08.11.2020
5781 Clouds 8 1019 70 10000 8.65 38 01:19 08.11.2020
5782 Rain 8 1018 70 10000 8.93 42 00:27 08.11.2020
5783 Clouds 8 1018 70 10000 8.93 42 23:47 07.11.2020
5784 Clouds 10 1016 51 10000 10.92 35 23:28 07.11.2020
5785 Clouds 10 1016 51 10000 10.92 35 22:44 07.11.2020
5786 Clouds 11 1014 46 10000 11.12 31 22:25 07.11.2020
5787 Clouds 11 1014 46 10000 11.12 31 21:54 07.11.2020
5788 Clouds 11 1014 46 10000 11.12 31 21:36 07.11.2020
5789 Clouds 11 1014 49 10000 11.4 34 21:18 07.11.2020
5790 Clouds 11 1014 49 10000 11.4 34 20:40 07.11.2020
5791 Rain 12 1014 47 10000 9.65 37 20:22 07.11.2020
5792 Clouds 12 1014 47 10000 9.65 37 19:43 07.11.2020
5793 Rain 13 1014 49 5353 8.65 36 19:24 07.11.2020
5794 Clouds 13 1014 49 5353 8.65 36 18:40 07.11.2020
5795 Clouds 13 1015 42 10000 7.24 21 18:22 07.11.2020
5796 Clouds 13 1015 42 10000 7.24 21 17:46 07.11.2020
5797 Clouds 12 1017 42 10000 5.51 20 17:27 07.11.2020
5798 Clouds 12 1017 42 10000 5.51 20 17:27 07.11.2020
5799 Clouds 12 1017 42 10000 5.51 20 16:45 07.11.2020
5800 Rain 11 1018 51 10000 3.57 24 16:25 07.11.2020
5801 Clouds 11 1018 51 10000 3.57 24 15:51 07.11.2020
5802 Rain 9 1019 64 10000 2.87 21 15:25 07.11.2020
5803 Clouds 9 1019 64 10000 2.87 21 14:59 07.11.2020
5804 Clouds 9 1019 64 10000 2.87 21 14:41 07.11.2020
5805 Clouds 8 1019 71 10000 2.19 17 14:20 07.11.2020
5806 Clouds 8 1019 71 10000 2.19 17 13:43 07.11.2020
5807 Clear 7 1020 76 10000 1.89 25 13:23 07.11.2020
5808 Clouds 7 1019 70 10000 1.77 21 12:40 07.11.2020
5809 Clouds 6 1019 76 10000 1.14 36 11:56 07.11.2020
5810 Clouds 6 1019 76 10000 1.14 36 11:37 07.11.2020
5811 Clouds 5 1019 82 10000 0.96 51 11:18 07.11.2020
5812 Clouds 5 1019 82 10000 0.96 51 10:42 07.11.2020
5813 Clouds 5 1018 81 10000 1.1 74 10:23 07.11.2020
5814 Clouds 5 1018 81 10000 1.1 74 09:49 07.11.2020
5815 Clouds 6 1017 79 10000 0.88 98 09:25 07.11.2020
5816 Clouds 6 1017 79 10000 0.88 98 08:51 07.11.2020
5817 Clouds 6 1017 79 10000 0.88 98 08:33 07.11.2020
5818 Clouds 6 1017 76 10000 0.45 149 07:49 07.11.2020
5819 Clouds 6 1016 75 10000 0.79 253 07:18 07.11.2020
5820 Clouds 6 1017 76 10000 0.55 192 06:43 07.11.2020
5821 Clouds 6 1017 73 10000 2.92 326 04:32 07.11.2020
5822 Rain 6 1018 75 10000 1.45 275 03:23 07.11.2020
5823 Rain 5 1016 80 10000 1.77 303 01:28 07.11.2020
5824 Rain 5 1016 80 10000 1.77 303 01:28 07.11.2020
5825 Rain 5 1017 83 10000 0.93 321 00:41 07.11.2020
5826 Clouds 5 1015 82 10000 1.53 297 23:49 06.11.2020
5827 Rain 5 1013 84 10000 2.11 334 23:19 06.11.2020
5828 Rain 5 1013 84 10000 2.11 334 22:41 06.11.2020
5829 Rain 4 1011 91 838 4.94 342 22:19 06.11.2020
5830 Rain 4 1011 91 838 4.94 342 22:19 06.11.2020
5831 Clouds 4 1011 91 838 4.94 342 21:45 06.11.2020
5832 Rain 5 1010 87 2541 3.78 16 21:21 06.11.2020
5833 Clouds 5 1010 87 2541 3.78 16 20:52 06.11.2020
5834 Rain 5 1010 85 650 0.42 115 20:22 06.11.2020
5835 Clouds 5 1010 85 650 0.42 115 19:56 06.11.2020
5836 Clouds 5 1010 85 650 0.42 115 19:38 06.11.2020
5837 Rain 12 1010 50 5683 3.22 66 19:19 06.11.2020
5838 Clouds 12 1010 50 5683 3.22 66 18:45 06.11.2020
5839 Clouds 18 1035 34 10000 4.1 70 18:23 06.11.2020
5840 Clouds 18 1035 34 10000 4.1 70 17:51 06.11.2020
5841 Clouds 18 1035 34 10000 4.1 70 17:25 06.11.2020
5842 Clouds 17 1036 36 10000 2.6 50 16:49 06.11.2020
5843 Clouds 17 1036 36 10000 2.6 50 16:27 06.11.2020
5844 Clouds 14 1037 47 10000 3.6 60 15:49 06.11.2020
5845 Clouds 14 1037 47 10000 3.6 60 15:29 06.11.2020
5846 Clouds 12 1038 58 10000 1.79 17 14:53 06.11.2020
5847 Clouds 12 1038 58 10000 1.28 1 14:27 06.11.2020
5848 Clouds 9 1037 70 10000 1.5 230 13:46 06.11.2020
5849 Clouds 9 1037 70 10000 1.5 230 13:24 06.11.2020
5850 Clouds 8 1017 66 10000 0.76 328 12:46 06.11.2020
5851 Clouds 6 1018 74 10000 0.85 337 12:25 06.11.2020
5852 Clouds 6 1018 74 10000 0.85 337 11:58 06.11.2020
5853 Clouds 6 1018 74 10000 0.85 337 11:36 06.11.2020
5854 Clouds 6 1018 80 10000 1.11 2 10:47 06.11.2020
5855 Clouds 6 1017 80 10000 1.44 356 10:27 06.11.2020
5856 Clouds 6 1017 80 10000 1.44 356 09:50 06.11.2020
5857 Clouds 6 1017 78 10000 1.38 2 09:23 06.11.2020
5858 Clouds 6 1017 78 10000 1.38 2 08:51 06.11.2020
5859 Clouds 6 1017 78 10000 1.38 2 08:31 06.11.2020
5860 Clouds 6 1017 78 10000 1.38 354 07:54 06.11.2020
5861 Clouds 6 1017 78 10000 1.38 354 07:35 06.11.2020
5862 Clouds 7 1017 68 10000 1.17 324 06:59 06.11.2020
5863 Clouds 7 1017 68 10000 1.17 324 06:32 06.11.2020
5864 Clouds 7 1018 68 10000 1.15 347 05:36 06.11.2020
5865 Clouds 6 1016 79 10000 0.55 245 01:23 06.11.2020
5866 Rain 4 1015 89 3380 1.9 240 00:23 06.11.2020
5867 Clouds 4 1015 89 3380 1.9 240 23:39 05.11.2020
5868 Clouds 3 1012 91 732 1.82 352 22:59 05.11.2020
5869 Clouds 3 1012 91 732 1.82 352 22:41 05.11.2020
5870 Rain 4 1010 87 514 2.87 314 22:22 05.11.2020
5871 Clouds 4 1010 87 514 2.87 314 21:44 05.11.2020
5872 Rain 10 1009 54 10000 3.61 47 21:24 05.11.2020
5873 Clouds 10 1009 54 10000 3.61 47 20:59 05.11.2020
5874 Clouds 10 1009 54 10000 3.61 47 20:41 05.11.2020
5875 Clouds 10 1009 54 10000 3.61 47 20:41 05.11.2020
5876 Rain 13 1008 43 10000 5.71 123 20:21 05.11.2020
5877 Clouds 13 1008 43 10000 5.71 123 19:43 05.11.2020
5878 Rain 15 1008 33 10000 2.18 80 19:25 05.11.2020
5879 Clouds 16 1008 31 10000 3.12 64 18:55 05.11.2020
5880 Clouds 16 1008 31 10000 3.12 64 18:37 05.11.2020
5881 Clear 16 1010 30 10000 2.5 46 18:18 05.11.2020
5882 Clear 16 1010 30 10000 2.5 46 17:41 05.11.2020
5883 Clear 16 1011 30 10000 1.66 12 17:23 05.11.2020
5884 Clear 16 1011 30 10000 1.66 12 16:45 05.11.2020
5885 Clouds 15 1040 38 10000 3.6 240 16:26 05.11.2020
5886 Clouds 15 1040 38 10000 3.6 240 15:50 05.11.2020
5887 Clouds 15 1040 38 10000 3.6 240 15:50 05.11.2020
5888 Clouds 15 1040 38 10000 3.6 240 15:27 05.11.2020
5889 Clear 12 1040 54 10000 1.5 230 14:50 05.11.2020
5890 Clear 12 1040 54 10000 1.5 230 14:31 05.11.2020
5891 Clear 9 1039 61 10000 2.1 230 13:59 05.11.2020
5892 Clear 9 1039 61 10000 2.1 230 13:39 05.11.2020
5893 Clear 10 1016 47 10000 1.65 291 12:56 05.11.2020
5894 Clear 10 1016 47 10000 1.65 291 12:37 05.11.2020
5895 Clear 8 1017 53 10000 1.09 285 11:59 05.11.2020
5896 Clear 8 1017 53 10000 1.09 285 11:41 05.11.2020
5897 Clear 7 1017 61 10000 1.02 279 11:22 05.11.2020
5898 Clear 7 1017 61 10000 1.02 279 10:47 05.11.2020
5899 Clear 6 1016 62 10000 1.05 285 10:26 05.11.2020
5900 Clear 6 1016 62 10000 1.05 285 09:49 05.11.2020
5901 Clear 7 1016 61 10000 1.14 287 09:24 05.11.2020
5902 Clear 7 1016 61 10000 1.14 287 08:49 05.11.2020
5903 Clear 7 1016 61 10000 1.14 287 08:30 05.11.2020
5904 Clear 7 1016 61 10000 1.66 288 07:46 05.11.2020
5905 Clouds 7 1017 59 10000 1.78 331 07:27 05.11.2020
5906 Clouds 7 1017 60 10000 1.9 338 06:42 05.11.2020
5907 Clouds 7 1018 58 10000 1.98 339 05:55 05.11.2020
5908 Clouds 8 1019 54 10000 3.19 26 02:42 05.11.2020
5909 Clouds 9 1018 53 10000 3.6 18 00:35 05.11.2020
5910 Clouds 9 1016 51 10000 6.79 28 23:51 04.11.2020
5911 Clouds 11 1014 46 10000 7.78 37 23:27 04.11.2020
5912 Clouds 11 1014 46 10000 7.78 37 22:57 04.11.2020
5913 Clouds 11 1014 46 10000 7.78 37 22:37 04.11.2020
5914 Clouds 12 1013 42 10000 7.99 51 22:19 04.11.2020
5915 Clouds 12 1013 42 10000 7.99 51 21:43 04.11.2020
5916 Clouds 13 1013 38 10000 6.76 61 21:25 04.11.2020
5917 Clouds 13 1013 38 10000 6.76 61 20:46 04.11.2020
5918 Clouds 14 1013 36 10000 6.03 61 20:28 04.11.2020
5919 Clouds 14 1013 36 10000 6.03 61 19:55 04.11.2020
5920 Clouds 14 1013 36 10000 6.03 61 19:37 04.11.2020
5921 Clouds 15 1014 34 10000 5.93 57 19:19 04.11.2020
5922 Clouds 16 1040 38 10000 7.7 70 18:39 04.11.2020
5923 Clouds 16 1040 38 10000 7.7 70 18:21 04.11.2020
5924 Clouds 16 1040 38 10000 7.7 70 17:46 04.11.2020
5925 Clouds 16 1040 38 10000 7.7 70 17:25 04.11.2020
5926 Clouds 15 1041 44 10000 5.1 60 16:45 04.11.2020
5927 Clear 12 1042 58 10000 2.1 50 16:25 04.11.2020
5928 Clear 12 1042 58 10000 2.1 50 15:55 04.11.2020
5929 Clear 12 1042 58 10000 2.1 50 15:37 04.11.2020
5930 Clear 10 1042 66 10000 1.38 38 15:18 04.11.2020
5931 Clear 10 1042 66 10000 1.38 38 14:42 04.11.2020
5932 Clear 10 1042 66 10000 0.89 20 14:24 04.11.2020
5933 Clear 8 1042 75 10000 0.89 20 13:50 04.11.2020
5934 Clear 7 1021 62 10000 0.91 338 13:21 04.11.2020
5935 Clear 7 1021 61 10000 0.92 339 12:56 04.11.2020
5936 Clear 7 1021 61 10000 0.92 339 12:38 04.11.2020
5937 Clear 5 1021 69 10000 1.25 330 12:20 04.11.2020
5938 Clear 5 1021 69 10000 1.25 330 11:44 04.11.2020
5939 Clear 4 1020 75 10000 1.27 343 11:21 04.11.2020
5940 Clear 4 1020 75 10000 1.27 343 10:48 04.11.2020
5941 Clear 4 1020 73 10000 0.86 347 10:23 04.11.2020
5942 Clear 4 1020 73 10000 0.86 347 09:55 04.11.2020
5943 Clear 5 1019 72 10000 0.67 345 09:27 04.11.2020
5944 Clear 5 1019 72 10000 0.67 345 08:47 04.11.2020
5945 Clear 5 1019 70 10000 1.11 335 08:23 04.11.2020
5946 Clear 5 1019 70 10000 1.11 335 07:57 04.11.2020
5947 Clear 5 1019 70 10000 1.11 335 07:31 04.11.2020
5948 Clouds 5 1019 70 10000 1.91 344 06:59 04.11.2020
5949 Clouds 5 1019 70 10000 1.91 344 06:38 04.11.2020
5950 Clouds 6 1020 66 10000 2.45 9 04:46 04.11.2020
5951 Clouds 7 1020 62 10000 2.99 27 02:31 04.11.2020
5952 Clouds 7 1019 61 10000 3.38 31 01:32 04.11.2020
5953 Clouds 8 1015 61 10000 5.64 52 23:56 03.11.2020
5954 Clouds 9 1014 55 10000 5.32 64 23:25 03.11.2020
5955 Clouds 9 1014 55 10000 5.32 64 22:54 03.11.2020
5956 Clouds 9 1014 55 10000 5.32 64 22:36 03.11.2020
5957 Clouds 10 1012 51 10000 4.77 70 22:18 03.11.2020
5958 Clouds 10 1012 51 10000 4.77 70 21:41 03.11.2020
5959 Clouds 11 1012 47 10000 4.27 78 21:23 03.11.2020
5960 Clouds 11 1012 47 10000 4.27 78 20:48 03.11.2020
5961 Rain 11 1012 47 10000 4.02 88 20:26 03.11.2020
5962 Clouds 11 1012 47 10000 4.02 88 19:49 03.11.2020
5963 Clouds 11 1013 48 6398 5.01 92 19:29 03.11.2020
5964 Clouds 11 1013 48 6398 5.01 92 18:58 03.11.2020
5965 Clouds 11 1013 48 6398 5.01 92 18:40 03.11.2020
5966 Clouds 14 1036 44 10000 6.2 60 18:18 03.11.2020
5967 Clouds 14 1036 44 10000 6.2 60 17:44 03.11.2020
5968 Clouds 12 1038 50 10000 4.1 50 17:26 03.11.2020
5969 Clouds 12 1038 50 10000 4.1 50 16:45 03.11.2020
5970 Clouds 12 1038 50 10000 4.1 50 16:27 03.11.2020
5971 Clouds 11 1038 53 10000 2.1 60 15:53 03.11.2020
5972 Clouds 11 1038 53 10000 2.1 60 15:30 03.11.2020
5973 Clouds 11 1038 53 10000 2.1 60 15:30 03.11.2020
5974 Clouds 10 1038 57 10000 1.17 83 14:57 03.11.2020
5975 Clouds 10 1038 57 10000 1.17 83 14:38 03.11.2020
5976 Clouds 8 1038 65 10000 0.5 107 14:19 03.11.2020
5977 Clouds 8 1038 65 10000 0.5 107 13:40 03.11.2020
5978 Clouds 5 1020 67 10000 0.57 308 13:21 03.11.2020
5979 Clouds 5 1020 67 10000 0.57 308 12:44 03.11.2020
5980 Clouds 4 1019 73 10000 1.2 328 12:21 03.11.2020
5981 Clouds 4 1019 73 10000 1.2 328 11:46 03.11.2020
5982 Clouds 4 1019 76 10000 1.1 344 11:24 03.11.2020
5983 Clouds 4 1019 76 10000 1.1 344 10:55 03.11.2020
5984 Clouds 4 1019 76 10000 1.1 344 10:37 03.11.2020
5985 Clouds 4 1018 74 10000 1.52 0 10:18 03.11.2020
5986 Clouds 4 1018 74 10000 1.52 0 09:45 03.11.2020
5987 Clouds 4 1017 73 10000 1.71 15 09:22 03.11.2020
5988 Clouds 4 1017 73 10000 1.71 15 08:49 03.11.2020
5989 Clouds 4 1017 73 10000 1.69 12 08:29 03.11.2020
5990 Clouds 4 1017 73 10000 1.69 12 07:41 03.11.2020
5991 Clouds 4 1018 73 10000 1.81 9 07:19 03.11.2020
5992 Clouds 5 1018 70 10000 2.28 15 06:22 03.11.2020
5993 Clouds 5 1018 69 10000 2.49 33 04:34 03.11.2020
5994 Clear 7 1015 62 10000 3.98 6 00:45 03.11.2020
5995 Clear 8 1013 56 10000 4.22 5 00:24 03.11.2020
5996 Clear 8 1013 56 10000 4.22 5 23:46 02.11.2020
5997 Clear 10 1011 49 10000 3.01 32 23:28 02.11.2020
5998 Clear 10 1011 49 10000 3.01 32 22:44 02.11.2020
5999 Clear 12 1009 42 10000 2.9 12 22:25 02.11.2020
6000 Clear 12 1009 42 10000 2.9 12 21:56 02.11.2020
6001 Clear 12 1009 42 10000 2.9 12 21:36 02.11.2020
6002 Clear 12 1009 40 10000 2.08 45 21:18 02.11.2020
6003 Clear 12 1009 40 10000 2.08 45 20:38 02.11.2020
6004 Clear 13 1009 37 10000 3.3 44 20:18 02.11.2020
6005 Clear 13 1009 37 10000 3.3 44 20:18 02.11.2020
6006 Clear 13 1009 37 10000 3.3 44 19:43 02.11.2020
6007 Clouds 14 1010 28 10000 0.26 292 19:25 02.11.2020
6008 Clear 14 1010 29 10000 1.06 172 18:43 02.11.2020
6009 Clear 14 1012 27 10000 2.5 198 18:22 02.11.2020
6010 Clear 14 1012 27 10000 2.5 198 17:58 02.11.2020
6011 Clear 14 1012 27 10000 2.5 198 17:40 02.11.2020
6012 Clear 13 1013 27 10000 2.16 218 17:20 02.11.2020
6013 Clear 13 1013 27 10000 2.16 218 16:43 02.11.2020
6014 Clouds 12 1015 31 10000 2.33 264 16:24 02.11.2020
6015 Clouds 12 1015 31 10000 2.33 264 15:46 02.11.2020
6016 Clouds 11 1016 35 10000 2.55 284 15:24 02.11.2020
6017 Clouds 11 1016 35 10000 2.55 284 14:58 02.11.2020
6018 Clouds 11 1016 35 10000 2.55 284 14:40 02.11.2020
6019 Clouds 8 1017 43 10000 1.81 285 14:18 02.11.2020
6020 Clouds 8 1017 43 10000 1.81 285 13:44 02.11.2020
6021 Clouds 6 1018 59 10000 1.43 297 13:21 02.11.2020
6022 Clouds 7 1018 54 10000 1.54 285 12:42 02.11.2020
6023 Clouds 5 1018 69 10000 1.12 300 12:21 02.11.2020
6024 Clouds 5 1018 69 10000 1.12 300 11:45 02.11.2020
6025 Clouds 4 1018 75 10000 0.75 337 11:20 02.11.2020
6026 Clouds 4 1018 75 10000 0.75 337 10:45 02.11.2020
6027 Clouds 4 1017 75 10000 1.29 353 10:24 02.11.2020
6028 Clouds 4 1017 75 10000 1.29 353 09:55 02.11.2020
6029 Clouds 4 1016 75 10000 1.81 352 09:26 02.11.2020
6030 Clouds 4 1016 75 10000 1.81 352 08:46 02.11.2020
6031 Clouds 5 1016 75 10000 2.4 350 08:28 02.11.2020
6032 Clouds 5 1016 75 10000 2.4 350 07:55 02.11.2020
6033 Clouds 5 1016 75 10000 2.4 350 07:32 02.11.2020
6034 Clouds 6 1016 71 10000 2.97 358 06:44 02.11.2020
6035 Clouds 6 1017 73 10000 3.02 6 04:56 02.11.2020
6036 Clouds 8 1013 64 10000 3.19 18 01:26 02.11.2020
6037 Clear 8 1013 67 10000 3.8 17 00:37 02.11.2020
6038 Clear 8 1012 63 10000 3.62 34 23:56 01.11.2020
6039 Clear 8 1012 63 10000 3.62 34 23:37 01.11.2020
6040 Clear 10 1010 53 10000 4.3 36 23:19 01.11.2020
6041 Clear 10 1010 53 10000 4.3 36 22:41 01.11.2020
6042 Clear 12 1009 42 10000 4.87 49 22:18 01.11.2020
6043 Clear 12 1009 42 10000 4.87 49 21:41 01.11.2020
6044 Clear 14 1009 36 10000 3.92 61 21:23 01.11.2020
6045 Clear 14 1009 36 10000 3.92 61 20:46 01.11.2020
6046 Clear 15 1009 33 10000 2.89 63 20:25 01.11.2020
6047 Clear 15 1009 33 10000 2.89 63 19:46 01.11.2020
6048 Clear 15 1011 30 10000 1.9 26 19:28 01.11.2020
6049 Clear 15 1011 30 10000 1.9 26 18:58 01.11.2020
6050 Clear 15 1011 30 10000 1.9 26 18:38 01.11.2020
6051 Clear 14 1013 33 10000 1.69 12 18:19 01.11.2020
6052 Clear 14 1013 33 10000 1.69 12 17:45 01.11.2020
6053 Clear 13 1015 34 10000 1.31 330 17:27 01.11.2020
6054 Clear 13 1015 34 10000 1.31 330 16:45 01.11.2020
6055 Clouds 12 1016 39 10000 1.69 312 16:27 01.11.2020
6056 Clouds 12 1016 39 10000 1.69 312 16:27 01.11.2020
6057 Clouds 12 1016 39 10000 1.69 312 15:59 01.11.2020
6058 Clouds 12 1016 39 10000 1.69 312 15:39 01.11.2020
6059 Clouds 10 1018 47 10000 1.9 329 15:20 01.11.2020
6060 Clouds 10 1018 47 10000 1.9 329 14:46 01.11.2020
6061 Clouds 8 1019 57 10000 1.93 339 14:23 01.11.2020
6062 Clouds 8 1019 57 10000 1.93 339 13:58 01.11.2020
6063 Clouds 8 1019 57 10000 1.93 339 13:39 01.11.2020
6064 Clouds 6 1020 68 10000 1.74 352 13:21 01.11.2020
6065 Clouds 6 1020 68 10000 1.74 352 12:43 01.11.2020
6066 Clouds 5 1020 77 10000 1.4 13 12:20 01.11.2020
6067 Clouds 5 1020 77 10000 1.4 13 11:49 01.11.2020
6068 Clouds 5 1019 79 10000 1.76 16 11:18 01.11.2020
6069 Clouds 5 1019 79 10000 1.76 16 10:42 01.11.2020
6070 Clouds 5 1019 73 10000 1.74 19 10:24 01.11.2020
6071 Clouds 5 1019 73 10000 1.74 19 09:50 01.11.2020
6072 Clouds 5 1019 73 10000 1.74 19 09:30 01.11.2020
6073 Clouds 6 1018 70 10000 1.56 27 08:44 01.11.2020
6074 Clouds 6 1017 70 10000 1.6 6 08:18 01.11.2020
6075 Clouds 6 1017 70 10000 1.6 6 07:33 01.11.2020
6076 Clouds 7 1018 71 10000 3.02 36 03:25 01.11.2020
6077 Clouds 7 1017 73 10000 3.46 32 01:46 01.11.2020
6078 Clouds 8 1014 66 10000 3.56 23 00:23 01.11.2020
6079 Clear 10 1013 58 10000 4.83 27 23:24 31.10.2020
6080 Clear 10 1013 58 10000 4.83 27 22:56 31.10.2020
6081 Clear 10 1013 58 10000 4.83 27 22:36 31.10.2020
6082 Clouds 11 1012 53 10000 4.62 43 22:18 31.10.2020
6083 Clouds 11 1012 53 10000 4.62 43 21:43 31.10.2020
6084 Clouds 12 1012 49 10000 4.33 48 21:18 31.10.2020
6085 Clouds 12 1012 49 10000 4.33 48 20:38 31.10.2020
6086 Clear 13 1012 43 10000 3.96 51 20:18 31.10.2020
6087 Clear 13 1012 43 10000 3.96 51 19:40 31.10.2020
6088 Clouds 13 1013 39 10000 3.48 54 19:20 31.10.2020
6089 Clouds 13 1013 39 10000 3.48 54 18:47 31.10.2020
6090 Clouds 13 1015 38 10000 3.24 36 18:23 31.10.2020
6091 Clouds 13 1015 38 10000 3.24 36 17:40 31.10.2020
6092 Clouds 12 1016 41 10000 3.58 28 17:22 31.10.2020
6093 Clouds 12 1016 41 10000 3.58 28 16:43 31.10.2020
6094 Clouds 11 1018 46 10000 3.43 18 16:25 31.10.2020
6095 Clouds 11 1018 46 10000 3.43 18 15:45 31.10.2020
6096 Clouds 9 1019 52 10000 3.01 15 15:25 31.10.2020
6097 Clouds 9 1019 52 10000 3.01 15 14:51 31.10.2020
6098 Clouds 9 1019 52 10000 3.01 15 14:31 31.10.2020
6099 Clouds 7 1020 60 10000 2.65 16 13:50 31.10.2020
6100 Clouds 6 1021 71 10000 2.26 16 13:27 31.10.2020
6101 Clouds 6 1020 70 10000 2.2 16 12:45 31.10.2020
6102 Clouds 5 1020 78 10000 2.27 21 12:19 31.10.2020
6103 Clouds 5 1020 78 10000 2.27 21 11:39 31.10.2020
6104 Clouds 5 1020 82 10000 2.15 29 11:21 31.10.2020
6105 Clouds 5 1020 82 10000 2.15 29 10:37 31.10.2020
6106 Clouds 5 1019 78 10000 1.83 27 09:56 31.10.2020
6107 Clouds 5 1019 78 10000 1.83 27 09:37 31.10.2020
6108 Clouds 6 1019 74 10000 1.49 15 09:18 31.10.2020
6109 Clouds 6 1018 70 10000 1.72 359 08:22 31.10.2020
6110 Clouds 6 1018 70 10000 2.16 0 07:29 31.10.2020
6111 Clouds 6 1018 70 10000 2.16 0 06:57 31.10.2020
6112 Clouds 7 1018 68 10000 2.26 13 06:36 31.10.2020
6113 Clouds 7 1019 73 10000 2.83 13 03:48 31.10.2020
6114 Clouds 7 1018 74 10000 2.59 21 02:39 31.10.2020
6115 Clouds 8 1016 56 10000 2.49 37 00:55 31.10.2020
6116 Clouds 10 1014 47 10000 1.83 350 23:56 30.10.2020
6117 Clouds 10 1014 47 10000 1.83 350 23:31 30.10.2020
6118 Clouds 11 1012 42 10000 1.47 346 22:59 30.10.2020
6119 Clouds 11 1012 42 10000 1.47 346 22:38 30.10.2020
6120 Clouds 13 1011 39 10000 1.76 357 22:20 30.10.2020
6121 Clouds 13 1011 39 10000 1.76 357 21:49 30.10.2020
6122 Clouds 13 1011 38 10000 2.41 17 21:26 30.10.2020
6123 Clouds 13 1011 38 10000 2.41 17 20:46 30.10.2020
6124 Clear 14 1011 37 10000 3.4 16 20:27 30.10.2020
6125 Clear 14 1011 37 10000 3.4 16 19:59 30.10.2020
6126 Clear 14 1011 37 10000 3.4 16 19:40 30.10.2020
6127 Clouds 13 1012 37 10000 3.77 3 19:18 30.10.2020
6128 Clouds 13 1012 37 10000 3.77 3 18:42 30.10.2020
6129 Clouds 14 1014 35 10000 3.9 337 18:23 30.10.2020
6130 Clouds 14 1014 35 10000 3.9 337 17:47 30.10.2020
6131 Clouds 13 1016 36 10000 4.3 326 17:22 30.10.2020
6132 Clouds 13 1016 36 10000 4.3 326 16:52 30.10.2020
6133 Clouds 11 1017 41 10000 3.87 338 16:25 30.10.2020
6134 Clouds 11 1017 41 10000 3.87 338 15:56 30.10.2020
6135 Clouds 11 1017 41 10000 3.87 338 15:37 30.10.2020
6136 Clouds 10 1018 47 10000 3.74 344 15:18 30.10.2020
6137 Clouds 10 1018 47 10000 3.74 344 14:42 30.10.2020
6138 Clouds 8 1019 56 10000 2.95 349 14:23 30.10.2020
6139 Clouds 8 1019 56 10000 2.95 349 13:44 30.10.2020
6140 Clouds 6 1019 64 10000 2.49 359 13:20 30.10.2020
6141 Clouds 6 1019 64 10000 2.49 359 12:49 30.10.2020
6142 Clouds 5 1019 76 10000 2.59 7 12:22 30.10.2020
6143 Clouds 5 1019 76 10000 2.59 7 11:56 30.10.2020
6144 Clouds 4 1018 81 10000 2.46 13 11:23 30.10.2020
6145 Clouds 4 1018 81 10000 2.46 13 10:52 30.10.2020
6146 Clouds 5 1017 79 10000 2.11 17 10:26 30.10.2020
6147 Clouds 5 1017 79 10000 2.11 17 09:57 30.10.2020
6148 Clouds 5 1017 79 10000 2.11 17 09:38 30.10.2020
6149 Clouds 5 1017 76 10000 2.34 17 09:19 30.10.2020
6150 Clear 5 1017 81 10000 2.2 10 08:32 30.10.2020
6151 Clear 5 1016 76 10000 2.17 7 07:54 30.10.2020
6152 Clear 5 1016 76 10000 2.17 7 07:36 30.10.2020
6153 Clouds 6 1016 71 10000 2.21 7 07:18 30.10.2020
6154 Clouds 6 1017 72 10000 2.06 356 05:59 30.10.2020
6155 Clouds 7 1018 70 10000 2 31 03:47 30.10.2020
6156 Clear 8 1013 66 10000 4.17 58 01:26 30.10.2020
6157 Clouds 11 1012 40 10000 2.16 302 00:26 30.10.2020
6158 Clouds 11 1012 40 10000 2.16 302 23:43 29.10.2020
6159 Clouds 13 1010 28 10000 8.76 269 23:25 29.10.2020
6160 Clouds 13 1010 28 10000 8.76 269 22:45 29.10.2020
6161 Clouds 15 1009 28 10000 8.99 292 22:27 29.10.2020
6162 Clouds 15 1009 28 10000 8.99 292 21:49 29.10.2020
6163 Clouds 14 1009 33 10000 5.6 323 21:24 29.10.2020
6164 Clouds 14 1009 33 10000 5.6 323 20:57 29.10.2020
6165 Clouds 14 1009 33 10000 5.6 323 20:39 29.10.2020
6166 Clouds 14 1009 35 10000 5.52 352 20:18 29.10.2020
6167 Clouds 14 1009 35 10000 5.52 352 19:39 29.10.2020
6168 Clouds 14 1010 37 10000 6.34 0 19:19 29.10.2020
6169 Clouds 14 1010 37 10000 6.34 0 18:46 29.10.2020
6170 Clouds 13 1011 40 10000 5.25 1 18:26 29.10.2020
6171 Clouds 13 1011 40 10000 5.25 1 17:43 29.10.2020
6172 Clouds 13 1013 39 10000 5.32 349 17:23 29.10.2020
6173 Clouds 13 1013 39 10000 5.32 349 16:54 29.10.2020
6174 Clear 12 1015 43 10000 5.21 346 16:23 29.10.2020
6175 Clear 12 1015 43 10000 5.21 346 15:59 29.10.2020
6176 Clear 12 1015 43 10000 5.21 346 15:40 29.10.2020
6177 Clear 10 1016 47 10000 4.33 352 15:22 29.10.2020
6178 Clear 10 1016 47 10000 4.33 352 14:58 29.10.2020
6179 Clear 10 1016 47 10000 4.33 352 14:40 29.10.2020
6180 Clear 9 1017 53 10000 3.4 356 14:18 29.10.2020
6181 Clear 9 1017 53 10000 3.4 356 13:41 29.10.2020
6182 Clouds 7 1017 62 10000 2.81 358 13:22 29.10.2020
6183 Clouds 7 1017 62 10000 2.64 356 12:42 29.10.2020
6184 Clouds 6 1017 73 10000 2.32 360 12:19 29.10.2020
6185 Clouds 6 1017 73 10000 2.32 360 11:48 29.10.2020
6186 Clouds 5 1016 85 10000 2 2 11:26 29.10.2020
6187 Clouds 5 1016 85 10000 2 2 11:26 29.10.2020
6188 Clouds 5 1016 85 10000 2 2 10:38 29.10.2020
6189 Clouds 6 1015 85 10000 1.78 8 10:20 29.10.2020
6190 Clouds 6 1015 85 10000 1.78 8 09:56 29.10.2020
6191 Clear 6 1015 83 10000 1.53 15 09:28 29.10.2020
6192 Clear 6 1015 83 10000 1.53 15 08:59 29.10.2020
6193 Clear 6 1015 83 10000 1.53 15 08:40 29.10.2020
6194 Clear 6 1014 81 10000 1.6 40 08:19 29.10.2020
6195 Clear 6 1014 81 10000 1.6 40 07:48 29.10.2020
6196 Clear 7 1013 80 10000 1.85 61 06:58 29.10.2020
6197 Clear 7 1013 65 10000 2.64 64 06:22 29.10.2020
6198 Clear 8 1014 50 10000 1.61 54 04:46 29.10.2020
6199 Clear 11 1011 38 10000 1.9 284 01:37 29.10.2020
6200 Clear 12 1010 35 10000 2.25 267 00:31 29.10.2020
6201 Clear 12 1008 32 10000 3.89 261 23:59 28.10.2020
6202 Clear 13 1006 26 10000 5.64 254 23:22 28.10.2020
6203 Clear 13 1006 26 10000 5.64 254 22:56 28.10.2020
6204 Clear 13 1006 26 10000 5.64 254 22:37 28.10.2020
6205 Clear 15 1004 24 10000 5.98 253 22:19 28.10.2020
6206 Clear 15 1004 24 10000 5.98 253 21:43 28.10.2020
6207 Clear 15 1004 22 10000 4.96 252 21:25 28.10.2020
6208 Clear 15 1004 22 10000 4.96 252 20:43 28.10.2020
6209 Clear 15 1004 22 10000 4.45 249 20:23 28.10.2020
6210 Clear 15 1004 22 10000 4.45 249 19:53 28.10.2020
6211 Clear 15 1005 23 10000 4.38 246 19:30 28.10.2020
6212 Clear 15 1005 23 10000 4.58 251 18:51 28.10.2020
6213 Clouds 15 1007 24 10000 5.48 239 18:22 28.10.2020
6214 Clouds 15 1007 24 10000 5.48 239 17:59 28.10.2020
6215 Clouds 15 1007 24 10000 5.48 239 17:41 28.10.2020
6216 Clouds 14 1009 25 10000 6.45 229 17:21 28.10.2020
6217 Clouds 14 1009 25 10000 6.45 229 16:47 28.10.2020
6218 Clouds 13 1010 26 10000 6.13 231 16:28 28.10.2020
6219 Clouds 13 1010 26 10000 6.13 231 15:41 28.10.2020
6220 Clouds 12 1012 27 10000 5.75 235 15:19 28.10.2020
6221 Clouds 12 1012 27 10000 5.75 235 14:46 28.10.2020
6222 Clouds 10 1013 29 10000 4.94 246 14:27 28.10.2020
6223 Clouds 10 1013 29 10000 4.94 246 13:59 28.10.2020
6224 Clouds 8 1013 34 10000 4.57 250 12:37 28.10.2020
6225 Clouds 5 1013 44 10000 3.46 258 12:19 28.10.2020
6226 Clouds 5 1013 44 10000 3.46 258 11:42 28.10.2020
6227 Clouds 3 1013 55 10000 2.88 270 11:22 28.10.2020
6228 Clouds 3 1013 55 10000 2.88 270 10:53 28.10.2020
6229 Clouds 3 1013 55 10000 2.88 270 10:34 28.10.2020
6230 Clear 4 1012 54 10000 2.64 286 09:56 28.10.2020
6231 Clear 4 1012 54 10000 2.64 286 09:38 28.10.2020
6232 Clear 4 1011 53 10000 2.68 276 09:20 28.10.2020
6233 Clear 4 1011 53 10000 2.68 276 08:45 28.10.2020
6234 Clear 5 1011 50 10000 2.8 268 08:24 28.10.2020
6235 Clear 5 1011 50 10000 2.8 268 07:47 28.10.2020
6236 Clear 6 1010 48 10000 3.16 261 07:29 28.10.2020
6237 Clear 6 1010 48 10000 3.51 262 06:40 28.10.2020
6238 Clear 7 1010 46 10000 3.4 252 05:49 28.10.2020
6239 Clear 8 1011 45 10000 3.2 261 04:52 28.10.2020
6240 Clear 10 1011 43 10000 3.36 267 04:25 28.10.2020
6241 Clear 12 1009 37 10000 3.63 242 02:25 28.10.2020
6242 Clear 13 1008 35 10000 3.81 218 01:26 28.10.2020
6243 Clear 14 1006 31 10000 4.38 226 23:52 27.10.2020
6244 Clear 15 1004 26 10000 6.58 236 23:25 27.10.2020
6245 Clear 15 1004 26 10000 6.58 236 22:55 27.10.2020
6246 Clear 15 1004 26 10000 6.58 236 22:37 27.10.2020
6247 Clear 16 1003 23 10000 8.06 245 22:18 27.10.2020
6248 Clear 16 1003 23 10000 8.06 245 21:55 27.10.2020
6249 Clear 16 1003 23 10000 8.06 245 21:36 27.10.2020
6250 Clear 17 1002 22 10000 8.45 252 21:18 27.10.2020
6251 Clear 17 1002 22 10000 8.45 252 21:18 27.10.2020
6252 Clear 17 1002 22 10000 8.45 252 20:39 27.10.2020
6253 Clear 18 1003 21 10000 6.97 257 20:21 27.10.2020
6254 Clear 18 1003 21 10000 6.97 257 19:39 27.10.2020
6255 Clouds 18 1005 22 10000 7.91 266 19:21 27.10.2020
6256 Clouds 18 1005 22 10000 7.91 266 18:58 27.10.2020
6257 Clouds 18 1004 22 10000 7.99 267 18:40 27.10.2020
6258 Clouds 17 1006 24 10000 7.78 270 18:19 27.10.2020
6259 Clouds 17 1006 24 10000 7.78 270 17:43 27.10.2020
6260 Clouds 17 1008 26 10000 7.43 269 17:21 27.10.2020
6261 Clouds 17 1008 26 10000 7.43 269 16:48 27.10.2020
6262 Clouds 15 1010 28 10000 5.05 280 16:28 27.10.2020
6263 Clouds 15 1010 28 10000 5.05 280 15:55 27.10.2020
6264 Clouds 15 1010 28 10000 5.05 280 15:37 27.10.2020
6265 Clouds 13 1012 38 10000 2.7 299 15:18 27.10.2020
6266 Clouds 13 1012 38 10000 2.7 299 14:42 27.10.2020
6267 Clouds 11 1014 47 10000 2.61 297 14:23 27.10.2020
6268 Clouds 11 1014 47 10000 2.61 297 13:52 27.10.2020
6269 Clouds 9 1014 61 10000 2.04 319 13:22 27.10.2020
6270 Clouds 9 1014 56 10000 2.05 309 12:42 27.10.2020
6271 Clouds 7 1014 73 10000 1.57 349 12:23 27.10.2020
6272 Clouds 7 1014 73 10000 1.57 349 11:43 27.10.2020
6273 Clouds 6 1014 83 10000 1.17 344 11:24 27.10.2020
6274 Clouds 6 1014 83 10000 1.17 344 10:48 27.10.2020
6275 Clouds 6 1014 83 10000 1.17 344 10:30 27.10.2020
6276 Clouds 6 1014 81 10000 1.06 337 09:47 27.10.2020
6277 Clouds 7 1014 79 10000 1.46 351 09:26 27.10.2020
6278 Clouds 7 1014 79 10000 1.46 351 08:49 27.10.2020
6279 Clouds 7 1014 79 10000 2.03 353 08:26 27.10.2020
6280 Clouds 7 1014 79 10000 2.03 353 07:47 27.10.2020
6281 Clouds 7 1015 81 10000 2.35 5 07:29 27.10.2020
6282 Clouds 7 1015 82 10000 2.61 9 06:39 27.10.2020
6283 Rain 7 1015 81 10000 2.27 17 06:19 27.10.2020
6284 Clouds 7 1015 81 10000 2.27 17 05:44 27.10.2020
6285 Clouds 8 1016 77 10000 2.67 7 04:57 27.10.2020
6286 Clear 8 1016 74 10000 3.39 23 02:35 27.10.2020
6287 Clouds 9 1014 69 10000 4.13 37 00:59 27.10.2020
6288 Clouds 10 1012 62 10000 4.27 21 23:57 26.10.2020
6289 Clouds 10 1012 62 10000 4.27 21 23:36 26.10.2020
6290 Clouds 10 1012 62 10000 4.27 21 23:36 26.10.2020
6291 Clouds 12 1010 57 10000 5.86 17 22:55 26.10.2020
6292 Rain 14 1009 48 10000 6 6 22:29 26.10.2020
6293 Clouds 14 1009 48 10000 6 6 21:53 26.10.2020
6294 Rain 15 1008 42 10000 5.19 1 21:21 26.10.2020
6295 Clouds 15 1008 42 10000 5.19 1 20:59 26.10.2020
6296 Clouds 15 1008 42 10000 5.19 1 20:41 26.10.2020
6297 Rain 15 1008 42 10000 4.84 356 20:22 26.10.2020
6298 Clouds 15 1008 42 10000 4.84 356 19:48 26.10.2020
6299 Rain 16 1009 38 10000 5.87 357 19:28 26.10.2020
6300 Clouds 16 1009 38 10000 5.87 357 18:55 26.10.2020
6301 Clouds 16 1009 36 10000 6.42 358 18:36 26.10.2020
6302 Clouds 16 1011 32 10000 6.63 357 18:18 26.10.2020
6303 Clouds 16 1011 32 10000 6.63 357 17:40 26.10.2020
6304 Clouds 16 1012 33 10000 5.92 354 17:22 26.10.2020
6305 Clouds 16 1012 33 10000 5.92 354 16:44 26.10.2020
6306 Clouds 15 1014 33 10000 5.05 6 16:22 26.10.2020
6307 Clouds 15 1014 33 10000 5.05 6 15:45 26.10.2020
6308 Clouds 15 1015 34 10000 3.85 32 15:26 26.10.2020
6309 Clouds 15 1015 34 10000 3.85 32 14:59 26.10.2020
6310 Clouds 15 1015 34 10000 3.85 32 14:38 26.10.2020
6311 Clouds 14 1015 36 10000 2.55 53 13:58 26.10.2020
6312 Clouds 14 1015 36 10000 2.55 53 13:36 26.10.2020
6313 Clouds 12 1015 38 10000 1.95 65 13:18 26.10.2020
6314 Clouds 12 1015 39 10000 2.07 76 12:42 26.10.2020
6315 Clouds 11 1014 42 10000 1.29 83 12:23 26.10.2020
6316 Clouds 11 1014 42 10000 1.29 83 11:47 26.10.2020
6317 Clear 8 1013 55 10000 0.45 300 11:23 26.10.2020
6318 Clear 8 1013 55 10000 0.45 300 10:57 26.10.2020
6319 Clear 8 1013 55 10000 0.45 300 10:38 26.10.2020
6320 Clear 8 1012 53 10000 0.96 286 10:19 26.10.2020
6321 Clear 8 1012 53 10000 0.96 286 09:42 26.10.2020
6322 Clear 9 1011 51 10000 0.89 275 09:19 26.10.2020
6323 Clear 10 1011 51 10000 1 223 08:28 26.10.2020
6324 Clear 10 1011 51 10000 1 223 07:52 26.10.2020
6325 Clear 10 1011 51 10000 1 223 07:33 26.10.2020
6326 Clear 10 1011 58 10000 1.17 260 06:19 26.10.2020
6327 Clear 11 1013 56 10000 1.22 314 04:21 26.10.2020
6328 Clear 11 1013 56 10000 1.22 314 03:33 26.10.2020
6329 Clear 12 1012 49 10000 3.1 351 01:38 26.10.2020
6330 Clouds 13 1011 39 10000 2.57 325 00:54 26.10.2020
6331 Clouds 14 1010 39 10000 0.31 338 00:31 26.10.2020
6332 Clouds 14 1008 38 10000 1.17 36 23:38 25.10.2020
6333 Clouds 15 1006 34 10000 1.34 87 23:19 25.10.2020
6334 Clouds 15 1006 34 10000 1.34 87 22:40 25.10.2020
6335 Clouds 15 1006 34 10000 1.34 87 22:40 25.10.2020
6336 Clouds 17 1005 29 10000 1.64 95 22:20 25.10.2020
6337 Clouds 17 1005 29 10000 1.64 95 21:40 25.10.2020
6338 Clouds 18 1005 24 10000 0.9 262 21:21 25.10.2020
6339 Clouds 18 1005 24 10000 0.9 262 20:46 25.10.2020
6340 Clouds 18 1005 24 10000 0.9 262 20:46 25.10.2020
6341 Clouds 18 1006 23 10000 2.02 290 20:27 25.10.2020
6342 Clouds 18 1006 23 10000 2.02 290 19:59 25.10.2020
6343 Clouds 18 1006 23 10000 2.02 290 19:41 25.10.2020
6344 Clouds 18 1007 24 10000 1.93 328 19:21 25.10.2020
6345 Clouds 18 1007 23 10000 1.77 341 18:42 25.10.2020
6346 Clouds 17 1009 25 10000 1.83 350 18:24 25.10.2020
6347 Clouds 17 1009 25 10000 1.83 350 17:59 25.10.2020
6348 Clouds 17 1009 25 10000 1.83 350 17:38 25.10.2020
6349 Clouds 16 1011 27 10000 1.67 335 17:20 25.10.2020
6350 Clouds 16 1011 27 10000 1.67 335 16:55 25.10.2020
6351 Clouds 16 1011 27 10000 1.67 335 16:37 25.10.2020
6352 Clouds 15 1013 31 10000 1.57 308 16:18 25.10.2020
6353 Clouds 15 1013 31 10000 1.57 308 15:41 25.10.2020
6354 Clouds 13 1015 36 10000 1.77 299 15:23 25.10.2020
6355 Clouds 13 1015 36 10000 1.77 299 14:40 25.10.2020
6356 Clouds 12 1016 42 10000 1.49 295 14:21 25.10.2020
6357 Clouds 12 1016 42 10000 1.49 295 13:42 25.10.2020
6358 Clouds 10 1016 55 10000 1.33 290 13:20 25.10.2020
6359 Clouds 10 1016 55 10000 1.33 290 12:46 25.10.2020
6360 Clouds 8 1016 66 10000 1.2 283 12:26 25.10.2020
6361 Clouds 8 1016 66 10000 1.2 283 11:55 25.10.2020
6362 Clouds 8 1016 66 10000 1.2 283 11:36 25.10.2020
6363 Clouds 7 1015 78 10000 0.99 322 11:18 25.10.2020
6364 Clouds 7 1015 78 10000 0.99 322 10:44 25.10.2020
6365 Clouds 8 1015 78 10000 1.31 325 10:24 25.10.2020
6366 Clouds 8 1015 78 10000 1.31 325 09:46 25.10.2020
6367 Clear 8 1014 77 10000 1.46 334 09:19 25.10.2020
6368 Clear 8 1014 77 10000 1.46 334 08:47 25.10.2020
6369 Clear 9 1014 74 10000 1.47 343 08:29 25.10.2020
6370 Clear 9 1014 74 10000 1.47 343 07:48 25.10.2020
6371 Clouds 9 1014 71 10000 1.31 352 07:27 25.10.2020
6372 Clouds 9 1014 69 10000 1.65 5 06:50 25.10.2020
6373 Clouds 10 1014 65 10000 1.34 24 05:47 25.10.2020
6374 Clouds 10 1014 62 10000 1.35 3 04:52 25.10.2020
6375 Clouds 11 1014 58 10000 2.28 0 03:44 25.10.2020
6376 Clear 12 1012 49 10000 1.88 24 01:47 25.10.2020
6377 Clouds 13 1010 43 10000 2.96 30 00:49 25.10.2020
6378 Clouds 14 1009 38 10000 2.87 57 00:20 25.10.2020
6379 Clouds 14 1009 38 10000 2.87 57 23:54 24.10.2020
6380 Rain 15 1008 35 10000 3.08 97 23:26 24.10.2020
6381 Clouds 15 1008 35 10000 3.08 97 22:57 24.10.2020
6382 Clouds 15 1008 35 10000 3.08 97 22:38 24.10.2020
6383 Clear 16 1008 30 10000 3.49 112 22:20 24.10.2020
6384 Clear 16 1008 30 10000 3.49 112 21:42 24.10.2020
6385 Clear 17 1009 27 10000 2.38 111 21:21 24.10.2020
6386 Clear 17 1009 27 10000 2.38 111 20:48 24.10.2020
6387 Clear 16 1010 27 10000 0.8 92 20:23 24.10.2020
6388 Clear 16 1010 27 10000 0.8 92 19:55 24.10.2020
6389 Clear 16 1010 26 10000 1.05 45 19:37 24.10.2020
6390 Clear 16 1012 28 10000 1.14 323 19:19 24.10.2020
6391 Clear 16 1012 28 10000 1.14 323 18:43 24.10.2020
6392 Clear 15 1014 30 10000 2.04 305 18:24 24.10.2020
6393 Clear 15 1014 30 10000 2.04 305 18:24 24.10.2020
6394 Clear 15 1014 30 10000 2.04 305 17:39 24.10.2020
6395 Clear 14 1016 34 10000 2.44 315 17:21 24.10.2020
6396 Clear 14 1016 34 10000 2.44 315 16:45 24.10.2020
6397 Clear 12 1017 39 10000 1.98 314 16:25 24.10.2020
6398 Clear 12 1017 39 10000 1.98 314 15:41 24.10.2020
6399 Clear 11 1018 43 10000 1.35 328 15:20 24.10.2020
6400 Clear 11 1018 43 10000 1.35 328 14:56 24.10.2020
6401 Clouds 10 1018 49 10000 0.56 320 14:29 24.10.2020
6402 Clear 10 1018 49 10000 0.94 332 13:49 24.10.2020
6403 Clear 10 1018 49 10000 0.94 332 13:31 24.10.2020
6404 Clear 9 1018 54 10000 0.39 256 12:58 24.10.2020
6405 Clear 9 1018 54 10000 0.39 256 12:37 24.10.2020
6406 Clouds 7 1017 69 10000 0.46 219 12:19 24.10.2020
6407 Clouds 7 1017 69 10000 0.46 219 11:43 24.10.2020
6408 Clouds 7 1016 69 10000 0.48 231 11:18 24.10.2020
6409 Clouds 7 1016 69 10000 0.48 231 10:39 24.10.2020
6410 Clouds 8 1016 68 10000 0.63 279 10:18 24.10.2020
6411 Clouds 8 1016 68 10000 0.63 279 09:42 24.10.2020
6412 Clouds 8 1015 65 10000 0.69 305 09:22 24.10.2020
6413 Clouds 8 1015 65 10000 0.69 305 08:54 24.10.2020
6414 Clouds 9 1015 63 10000 0.84 286 08:18 24.10.2020
6415 Clouds 9 1015 63 10000 0.84 286 07:49 24.10.2020
6416 Clouds 9 1015 63 10000 0.2 335 07:20 24.10.2020
6417 Clouds 9 1015 63 10000 0.2 335 06:49 24.10.2020
6418 Clear 10 1015 58 10000 1.3 18 04:59 24.10.2020
6419 Clouds 13 1012 41 10000 1.16 300 02:20 24.10.2020
6420 Clouds 13 1011 39 10000 1.79 260 00:54 24.10.2020
6421 Clouds 13 1011 39 10000 1.79 260 00:36 24.10.2020
6422 Rain 15 1009 35 10000 3.44 256 00:18 24.10.2020
6423 Clouds 15 1009 35 10000 3.44 256 23:39 23.10.2020
6424 Rain 15 1009 32 10000 1.81 226 23:20 23.10.2020
6425 Clouds 15 1009 32 10000 1.81 226 22:42 23.10.2020
6426 Rain 16 1009 32 10000 1.38 188 22:21 23.10.2020
6427 Clouds 16 1009 32 10000 1.38 188 21:53 23.10.2020
6428 Clouds 16 1009 32 10000 1.38 188 21:30 23.10.2020
6429 Clouds 15 1009 34 10000 2.44 143 20:59 23.10.2020
6430 Clouds 15 1009 34 10000 2.44 143 20:38 23.10.2020
6431 Rain 15 1011 34 10000 1.48 130 20:19 23.10.2020
6432 Clouds 14 1011 38 10000 2.3 112 19:44 23.10.2020
6433 Rain 15 1012 36 10000 0.8 42 19:26 23.10.2020
6434 Clouds 15 1012 36 10000 0.8 42 18:47 23.10.2020
6435 Rain 14 1014 37 10000 0.72 343 18:29 23.10.2020
6436 Clear 14 1014 37 10000 0.72 343 17:45 23.10.2020
6437 Rain 13 1015 40 10000 0.92 316 17:21 23.10.2020
6438 Rain 13 1015 40 10000 0.92 316 17:21 23.10.2020
6439 Clear 13 1015 40 10000 0.92 316 16:50 23.10.2020
6440 Clear 13 1015 40 10000 0.92 316 16:31 23.10.2020
6441 Clear 12 1017 48 10000 1.04 326 15:56 23.10.2020
6442 Clear 11 1018 55 10000 1 343 15:38 23.10.2020
6443 Clear 11 1018 55 10000 1 343 15:19 23.10.2020
6444 Clear 11 1018 55 10000 1 343 14:45 23.10.2020
6445 Clear 11 1018 55 10000 1 343 14:45 23.10.2020
6446 Clear 11 1018 55 10000 1 343 14:45 23.10.2020
6447 Clouds 9 1018 62 10000 1.16 353 14:27 23.10.2020
6448 Clouds 9 1017 61 10000 0.98 339 13:42 23.10.2020
6449 Clouds 8 1018 68 10000 0.87 3 13:23 23.10.2020
6450 Clouds 8 1018 68 10000 0.87 3 12:50 23.10.2020
6451 Clouds 8 1018 68 10000 0.87 3 12:30 23.10.2020
6452 Clouds 7 1018 77 10000 0.64 10 11:50 23.10.2020
6453 Clouds 7 1017 76 10000 0.47 22 11:27 23.10.2020
6454 Clouds 7 1017 76 10000 0.47 22 10:54 23.10.2020
6455 Clouds 8 1017 76 10000 0.64 94 10:26 23.10.2020
6456 Clouds 8 1017 76 10000 0.64 94 09:57 23.10.2020
6457 Clouds 8 1017 76 10000 0.64 94 09:39 23.10.2020
6458 Clear 8 1016 75 10000 0.66 103 09:20 23.10.2020
6459 Clear 8 1016 75 10000 0.66 103 08:49 23.10.2020
6460 Clear 8 1016 71 10000 0.88 36 08:24 23.10.2020
6461 Rain 8 1017 76 10000 1.16 68 07:26 23.10.2020
6462 Clouds 8 1017 76 10000 1.16 68 06:48 23.10.2020
6463 Rain 9 1018 68 10000 1.18 87 06:19 23.10.2020
6464 Clouds 9 1018 68 10000 0.99 103 03:37 23.10.2020
6465 Rain 9 1015 69 10000 1.73 72 02:26 23.10.2020
6466 Clouds 9 1014 67 10000 2.69 60 00:49 23.10.2020
6467 Rain 10 1012 65 10000 3.23 76 00:29 23.10.2020
6468 Clouds 10 1012 65 10000 3.23 76 23:37 22.10.2020
6469 Rain 10 1010 66 8548 1.57 32 23:18 22.10.2020
6470 Clouds 10 1010 66 8548 1.57 32 22:44 22.10.2020
6471 Rain 12 1010 51 6272 1.37 11 22:22 22.10.2020
6472 Clouds 12 1010 51 6272 1.37 11 21:49 22.10.2020
6473 Clouds 12 1010 51 6272 1.37 11 21:31 22.10.2020
6474 Clouds 14 1011 41 10000 1.13 32 20:59 22.10.2020
6475 Rain 14 1011 41 10000 1.13 32 20:41 22.10.2020
6476 Rain 13 1012 40 10000 1.43 354 20:21 22.10.2020
6477 Rain 13 1012 40 10000 1.43 354 19:42 22.10.2020
6478 Rain 13 1014 43 10000 1.83 349 19:20 22.10.2020
6479 Clouds 13 1014 43 10000 1.83 349 18:44 22.10.2020
6480 Rain 11 1016 48 10000 1.94 347 18:22 22.10.2020
6481 Clouds 11 1016 48 10000 1.94 347 17:48 22.10.2020
6482 Clouds 9 1018 55 10000 2.03 341 17:26 22.10.2020
6483 Clouds 9 1018 55 10000 2.03 341 16:59 22.10.2020
6484 Clouds 9 1018 55 10000 2.03 341 16:41 22.10.2020
6485 Clouds 7 1019 65 10000 1.73 2 16:23 22.10.2020
6486 Clouds 7 1019 65 10000 1.73 2 15:48 22.10.2020
6487 Rain 6 1020 70 10000 2.29 333 15:25 22.10.2020
6488 Clouds 6 1020 70 10000 2.29 333 14:49 22.10.2020
6489 Rain 6 1021 76 10000 2.07 260 14:26 22.10.2020
6490 Rain 6 1021 76 10000 2.07 260 14:26 22.10.2020
6491 Clouds 6 1021 76 10000 2.07 260 13:49 22.10.2020
6492 Rain 6 1021 81 10000 3.32 225 13:24 22.10.2020
6493 Rain 6 1021 81 10000 3.32 225 13:24 22.10.2020
6494 Clouds 6 1021 81 10000 3.32 225 12:57 22.10.2020
6495 Rain 6 1021 82 7500 1.79 175 12:27 22.10.2020
6496 Clouds 6 1021 82 7500 1.79 175 11:50 22.10.2020
6497 Rain 6 1020 81 8219 1.59 139 11:20 22.10.2020
6498 Clouds 6 1020 81 8219 1.59 139 10:52 22.10.2020
6499 Rain 6 1020 81 8219 1.59 139 10:30 22.10.2020
6500 Clouds 7 1019 79 10000 1.94 122 09:56 22.10.2020
6501 Rain 7 1019 79 10000 1.94 122 09:38 22.10.2020
6502 Clouds 7 1019 78 8203 1.37 115 08:56 22.10.2020
6503 Clouds 7 1019 78 8203 1.37 115 08:37 22.10.2020
6504 Rain 8 1019 74 10000 1.02 71 08:18 22.10.2020
6505 Rain 8 1020 73 10000 0.66 23 07:42 22.10.2020
6506 Clouds 8 1020 71 10000 1.23 22 06:59 22.10.2020
6507 Clouds 8 1020 71 10000 1.23 22 06:36 22.10.2020
6508 Clouds 8 1020 69 10000 1.67 20 05:42 22.10.2020
6509 Clouds 8 1020 67 10000 1.97 14 05:19 22.10.2020
6510 Rain 9 1016 64 10000 3.27 22 01:57 22.10.2020
6511 Rain 11 1012 59 10000 4.23 53 00:27 22.10.2020
6512 Clouds 11 1012 59 10000 4.23 53 23:57 21.10.2020
6513 Clouds 11 1012 59 10000 4.23 53 23:35 21.10.2020
6514 Clouds 12 1011 53 10000 4.77 54 22:58 21.10.2020
6515 Clouds 12 1011 53 10000 4.77 54 22:36 21.10.2020
6516 Rain 12 1012 51 10000 4.29 67 22:18 21.10.2020
6517 Clouds 12 1012 51 10000 4.29 67 21:42 21.10.2020
6518 Rain 13 1012 46 10000 3.99 59 21:19 21.10.2020
6519 Clouds 13 1012 46 10000 3.99 59 20:48 21.10.2020
6520 Rain 13 1013 43 10000 3.96 45 20:19 21.10.2020
6521 Clouds 13 1013 43 10000 3.96 45 19:59 21.10.2020
6522 Clouds 14 1013 41 10000 3.95 51 19:38 21.10.2020
6523 Clouds 13 1015 40 10000 2.64 46 19:18 21.10.2020
6524 Clouds 13 1015 40 10000 2.64 46 18:46 21.10.2020
6525 Clouds 12 1017 47 10000 1.91 31 18:25 21.10.2020
6526 Clouds 12 1017 47 10000 1.91 31 17:45 21.10.2020
6527 Rain 10 1018 54 10000 2.08 33 17:20 21.10.2020
6528 Clouds 10 1018 54 10000 2.08 33 16:55 21.10.2020
6529 Clouds 10 1018 54 10000 2.08 33 16:36 21.10.2020
6530 Rain 9 1020 60 10000 2.26 37 16:18 21.10.2020
6531 Clouds 9 1020 60 10000 2.26 37 15:42 21.10.2020
6532 Clouds 8 1020 67 10000 2.14 48 15:20 21.10.2020
6533 Clouds 8 1020 67 10000 2.14 48 14:45 21.10.2020
6534 Clouds 7 1020 74 10000 1.88 51 14:27 21.10.2020
6535 Clouds 7 1021 74 10000 1.87 37 13:46 21.10.2020
6536 Clouds 6 1020 81 10000 1.82 42 13:26 21.10.2020
6537 Clouds 6 1020 81 10000 1.82 42 12:48 21.10.2020
6538 Clouds 5 1020 85 10000 1.77 49 12:25 21.10.2020
6539 Clouds 5 1020 85 10000 1.77 49 11:59 21.10.2020
6540 Clouds 5 1020 85 10000 1.77 49 11:40 21.10.2020
6541 Rain 6 1019 82 10000 1.82 53 11:19 21.10.2020
6542 Clouds 6 1019 82 10000 1.82 53 10:46 21.10.2020
6543 Rain 6 1018 80 10000 1.71 60 10:25 21.10.2020
6544 Clouds 6 1018 80 10000 1.71 60 09:53 21.10.2020
6545 Clouds 6 1018 80 10000 1.71 60 09:53 21.10.2020
6546 Clouds 6 1018 80 10000 1.71 60 09:33 21.10.2020
6547 Clouds 6 1018 79 10000 1.5 45 08:56 21.10.2020
6548 Clouds 6 1018 79 10000 1.5 45 08:38 21.10.2020
6549 Rain 7 1018 79 10000 1.93 48 08:19 21.10.2020
6550 Clouds 7 1018 79 10000 1.72 44 07:37 21.10.2020
6551 Clouds 7 1018 76 10000 1.97 35 06:55 21.10.2020
6552 Clouds 8 1018 73 10000 2.52 43 06:29 21.10.2020
6553 Clouds 8 1018 70 10000 1.9 48 04:47 21.10.2020
6554 Clouds 9 1014 66 10000 2.65 39 00:57 21.10.2020
6555 Clouds 10 1012 61 10000 3.79 67 23:50 20.10.2020
6556 Rain 11 1011 53 7004 4.85 79 23:19 20.10.2020
6557 Rain 12 1011 47 5880 4.99 84 22:29 20.10.2020
6558 Clouds 12 1011 47 5880 4.99 84 21:51 20.10.2020
6559 Rain 12 1011 43 6059 4.28 84 21:21 20.10.2020
6560 Clouds 12 1011 43 6059 4.28 84 20:59 20.10.2020
6561 Clouds 12 1011 43 6059 4.28 84 20:41 20.10.2020
6562 Clouds 12 1012 43 10000 3.54 80 20:22 20.10.2020
6563 Clouds 13 1012 40 10000 4.26 84 19:44 20.10.2020
6564 Clouds 12 1013 41 10000 5.52 86 19:22 20.10.2020
6565 Clouds 12 1013 41 10000 5.52 86 18:55 20.10.2020
6566 Clouds 12 1013 41 10000 5.52 86 18:36 20.10.2020
6567 Clouds 12 1013 41 10000 5.52 86 18:36 20.10.2020
6568 Clouds 12 1014 41 10000 4.35 87 17:50 20.10.2020
6569 Clouds 12 1014 41 10000 4.35 87 17:32 20.10.2020
6570 Clear 12 1016 43 10000 3.03 84 16:49 20.10.2020
6571 Clear 12 1016 43 10000 3.03 84 16:31 20.10.2020
6572 Clear 10 1017 47 10000 1.9 77 15:59 20.10.2020
6573 Clear 10 1017 47 10000 1.9 77 15:41 20.10.2020
6574 Clear 9 1017 53 10000 1.46 75 15:22 20.10.2020
6575 Clear 9 1017 53 10000 1.46 75 14:44 20.10.2020
6576 Clear 8 1017 63 10000 1.27 94 14:24 20.10.2020
6577 Clear 8 1018 65 10000 1.41 93 13:57 20.10.2020
6578 Clear 8 1018 65 10000 1.41 93 13:38 20.10.2020
6579 Clear 6 1017 74 10000 1.61 105 13:19 20.10.2020
6580 Clear 6 1017 74 10000 1.61 105 12:46 20.10.2020
6581 Clear 6 1017 83 10000 1.33 108 12:28 20.10.2020
6582 Clear 6 1017 83 10000 1.33 108 11:46 20.10.2020
6583 Clear 6 1016 81 10000 1.74 107 11:27 20.10.2020
6584 Clear 6 1016 81 10000 1.74 107 10:40 20.10.2020
6585 Clear 6 1015 78 10000 1.56 107 10:22 20.10.2020
6586 Clear 6 1015 78 10000 1.56 107 09:44 20.10.2020
6587 Clear 7 1015 75 10000 1.45 113 09:19 20.10.2020
6588 Clear 7 1015 75 10000 1.45 113 08:39 20.10.2020
6589 Clear 7 1015 71 10000 1.55 106 08:19 20.10.2020
6590 Clear 7 1015 71 10000 1.8 114 07:42 20.10.2020
6591 Clear 8 1015 68 10000 1.58 138 07:21 20.10.2020
6592 Clear 8 1015 65 10000 2.71 129 06:19 20.10.2020
6593 Clear 9 1014 56 10000 3.42 125 04:26 20.10.2020
6594 Clouds 10 1011 47 10000 3.1 109 02:30 20.10.2020
6595 Clouds 11 1009 45 10000 4.98 107 01:22 20.10.2020
6596 Clouds 11 1009 45 10000 4.98 107 00:51 20.10.2020
6597 Clouds 12 1007 42 10000 6.35 101 00:26 20.10.2020
6598 Clouds 12 1007 42 10000 6.35 101 23:51 19.10.2020
6599 Clouds 14 1006 36 10000 6.06 103 23:25 19.10.2020
6600 Clouds 14 1006 36 10000 6.06 103 22:54 19.10.2020
6601 Clouds 14 1007 33 10000 6 110 22:26 19.10.2020
6602 Clouds 14 1007 33 10000 6 110 21:57 19.10.2020
6603 Clouds 14 1007 33 10000 6 110 21:39 19.10.2020
6604 Clear 15 1007 32 10000 5.93 112 21:18 19.10.2020
6605 Clear 15 1007 32 10000 5.93 112 20:42 19.10.2020
6606 Clear 15 1009 31 10000 5.38 109 20:24 19.10.2020
6607 Clear 15 1009 31 10000 5.09 109 19:45 19.10.2020
6608 Clear 15 1010 31 10000 4.13 108 19:19 19.10.2020
6609 Clear 15 1010 31 10000 4.13 108 18:50 19.10.2020
6610 Clear 14 1012 31 10000 2.54 102 18:28 19.10.2020
6611 Clear 14 1012 31 10000 2.54 102 17:47 19.10.2020
6612 Clear 13 1013 33 10000 1.09 93 17:27 19.10.2020
6613 Clear 13 1013 33 10000 1.09 93 16:54 19.10.2020
6614 Clear 13 1013 33 10000 1.09 93 16:30 19.10.2020
6615 Clear 12 1014 38 10000 0.44 105 15:50 19.10.2020
6616 Clear 10 1015 44 10000 0.47 224 15:26 19.10.2020
6617 Clear 10 1015 44 10000 0.47 224 14:59 19.10.2020
6618 Clear 10 1015 44 10000 0.47 224 14:40 19.10.2020
6619 Clouds 8 1015 53 10000 1.1 237 14:21 19.10.2020
6620 Clouds 8 1015 53 10000 1.1 237 13:44 19.10.2020
6621 Clouds 7 1015 61 10000 0.9 245 13:26 19.10.2020
6622 Clouds 7 1015 61 10000 0.9 245 12:45 19.10.2020
6623 Clouds 5 1015 74 10000 0.81 239 12:26 19.10.2020
6624 Clouds 5 1015 74 10000 0.81 239 11:51 19.10.2020
6625 Clouds 6 1014 74 10000 0.69 224 11:24 19.10.2020
6626 Clouds 6 1014 74 10000 0.69 224 10:45 19.10.2020
6627 Clouds 6 1014 75 10000 0.68 212 10:25 19.10.2020
6628 Clouds 6 1014 75 10000 0.68 212 09:58 19.10.2020
6629 Clouds 6 1014 75 10000 0.68 212 09:39 19.10.2020
6630 Clouds 6 1014 73 10000 1.06 240 09:18 19.10.2020
6631 Clouds 6 1014 73 10000 1.06 240 08:44 19.10.2020
6632 Clouds 6 1014 73 10000 1.36 239 08:21 19.10.2020
6633 Clouds 7 1015 71 10000 0.99 218 07:21 19.10.2020
6634 Clouds 7 1015 71 10000 0.99 218 06:50 19.10.2020
6635 Clouds 6 1015 73 10000 1.28 231 05:40 19.10.2020
6636 Clouds 6 1015 76 10000 2.2 326 03:46 19.10.2020
6637 Clouds 9 1013 57 10000 2.2 102 01:43 19.10.2020
6638 Clouds 10 1011 52 10000 3.07 97 00:43 19.10.2020
6639 Clouds 11 1009 49 10000 4.24 93 23:59 18.10.2020
6640 Clouds 11 1009 49 10000 4.24 93 23:40 18.10.2020
6641 Clouds 13 1008 41 10000 5.06 93 23:21 18.10.2020
6642 Clouds 13 1008 41 10000 5.06 93 22:45 18.10.2020
6643 Clouds 14 1008 36 10000 5.78 102 22:19 18.10.2020
6644 Clouds 14 1008 36 10000 5.78 102 21:48 18.10.2020
6645 Clouds 14 1009 34 10000 5.78 114 21:29 18.10.2020
6646 Clouds 14 1009 34 10000 5.78 114 20:47 18.10.2020
6647 Clouds 14 1010 34 10000 5.61 109 20:24 18.10.2020
6648 Clouds 14 1010 34 10000 5.61 109 19:56 18.10.2020
6649 Clouds 14 1010 34 10000 5.69 110 19:38 18.10.2020
6650 Clouds 14 1012 33 10000 5.63 105 19:19 18.10.2020
6651 Clouds 14 1012 33 10000 5.63 105 18:46 18.10.2020
6652 Clouds 14 1013 33 10000 4.72 103 18:24 18.10.2020
6653 Clouds 14 1013 33 10000 4.72 103 17:41 18.10.2020
6654 Clouds 13 1015 35 10000 2.38 106 17:22 18.10.2020
6655 Clouds 13 1015 35 10000 2.38 106 16:44 18.10.2020
6656 Clouds 11 1016 42 10000 0.89 165 16:26 18.10.2020
6657 Clouds 11 1016 42 10000 0.89 165 15:55 18.10.2020
6658 Clouds 11 1016 42 10000 0.89 165 15:36 18.10.2020
6659 Clouds 9 1017 49 10000 1.04 219 15:18 18.10.2020
6660 Clouds 9 1017 49 10000 1.04 219 14:43 18.10.2020
6661 Clouds 8 1017 57 10000 0.97 250 14:25 18.10.2020
6662 Clouds 8 1017 56 10000 0.88 251 13:45 18.10.2020
6663 Clouds 7 1017 63 10000 1.